<?xml version="1.0" encoding="UTF-8" standalone="no" ?>
<gpx xmlns="http://www.topografix.com/GPX/1/1" xmlns:xsi="http://www.w3.org/2001/XMLSchema-instance" xsi:schemaLocation="http://www.topografix.com/GPX/1/1 http://www.topografix.com/GPX/1/1/gpx.xsd" version="1.1" creator="VisuGPX - https://www.visugpx.com">
  <metadata>
    <name>RANDO NOEL 2025</name>
  </metadata>
  <wpt lat="45.79138" lon="3.77955">
    <ele>820.84</ele>
    <name><![CDATA[Arrêt de ~2 min]]></name>
    <desc><![CDATA[Altitude: 821 m
Durée depuis le départ: 00:15:12
Distance depuis le départ: 2,6 km]]></desc>
  </wpt>
  <wpt lat="45.77436" lon="3.77328">
    <ele>1097.29</ele>
    <name><![CDATA[Arrêt de ~5 min]]></name>
    <desc><![CDATA[Altitude: 1097 m
Durée depuis le départ: 00:26:30
Distance depuis le départ: 5,49 km]]></desc>
  </wpt>
  <wpt lat="45.75385" lon="3.7174">
    <ele>1112.67</ele>
    <name><![CDATA[Arrêt de ~8 min]]></name>
    <desc><![CDATA[Altitude: 1113 m
Durée depuis le départ: 01:04:49
Distance depuis le départ: 16,85 km]]></desc>
  </wpt>
  <wpt lat="45.7504" lon="3.69912">
    <ele>1025.37</ele>
    <name><![CDATA[Arrêt de ~2 min]]></name>
    <desc><![CDATA[Altitude: 1025 m
Durée depuis le départ: 01:31:06
Distance depuis le départ: 19,3 km]]></desc>
  </wpt>
  <wpt lat="45.72936" lon="3.69375">
    <ele>793.23</ele>
    <name><![CDATA[Arrêt de ~5 min]]></name>
    <desc><![CDATA[Altitude: 793 m
Durée depuis le départ: 01:46:12
Distance depuis le départ: 23,07 km]]></desc>
  </wpt>
  <wpt lat="45.7261" lon="3.6636">
    <ele>924.56</ele>
    <name><![CDATA[Arrêt de ~15 min]]></name>
    <desc><![CDATA[Altitude: 925 m
Durée depuis le départ: 02:10:44
Distance depuis le départ: 29,91 km]]></desc>
  </wpt>
  <wpt lat="45.72906" lon="3.63231">
    <ele>639.02</ele>
    <name><![CDATA[Arrêt de ~5 min]]></name>
    <desc><![CDATA[Altitude: 639 m
Durée depuis le départ: 02:47:53
Distance depuis le départ: 35,74 km]]></desc>
  </wpt>
  <wpt lat="45.75687" lon="3.62488">
    <ele>621.72</ele>
    <name><![CDATA[Arrêt de ~5 min]]></name>
    <desc><![CDATA[Altitude: 622 m
Durée depuis le départ: 03:13:29
Distance depuis le départ: 40,67 km]]></desc>
  </wpt>
  <wpt lat="45.81679" lon="3.76582">
    <ele>784.8</ele>
    <name><![CDATA[Arrêt de ~8 min]]></name>
    <desc><![CDATA[Altitude: 785 m
Durée depuis le départ: 04:25:44
Distance depuis le départ: 62,54 km]]></desc>
  </wpt>
  <trk>
    <name><![CDATA[RANDO NOEL 2025]]></name>
    <extensions>
      <line xmlns="http://www.topografix.com/GPX/gpx_style/0/2">
        <color>0000FF</color>
        <opacity>1</opacity>
        <width>4</width>
      </line>
    </extensions>
    <trkseg>
      <trkpt lat="45.80726" lon="3.76969">
        <ele>725.79</ele>
        <time>2025-12-20T07:50:02Z</time>
      </trkpt>
      <trkpt lat="45.80728" lon="3.76961">
        <ele>731.86</ele>
        <time>2025-12-20T07:53:44Z</time>
      </trkpt>
      <trkpt lat="45.80728" lon="3.76961">
        <ele>731.6</ele>
        <time>2025-12-20T07:55:45Z</time>
      </trkpt>
      <trkpt lat="45.80738" lon="3.76964">
        <ele>732.25</ele>
        <time>2025-12-20T07:56:37Z</time>
      </trkpt>
      <trkpt lat="45.80747" lon="3.76972">
        <ele>732.13</ele>
        <time>2025-12-20T07:57:54Z</time>
      </trkpt>
      <trkpt lat="45.80744" lon="3.76985">
        <ele>732.41</ele>
        <time>2025-12-20T07:57:57Z</time>
      </trkpt>
      <trkpt lat="45.80737" lon="3.76995">
        <ele>732.42</ele>
        <time>2025-12-20T07:57:59Z</time>
      </trkpt>
      <trkpt lat="45.80725" lon="3.77004">
        <ele>731.87</ele>
        <time>2025-12-20T07:58:01Z</time>
      </trkpt>
      <trkpt lat="45.8071" lon="3.77009">
        <ele>731.97</ele>
        <time>2025-12-20T07:58:03Z</time>
      </trkpt>
      <trkpt lat="45.80701" lon="3.7701">
        <ele>731.96</ele>
        <time>2025-12-20T07:58:04Z</time>
      </trkpt>
      <trkpt lat="45.80691" lon="3.77011">
        <ele>732.04</ele>
        <time>2025-12-20T07:58:05Z</time>
      </trkpt>
      <trkpt lat="45.80681" lon="3.77011">
        <ele>731.97</ele>
        <time>2025-12-20T07:58:06Z</time>
      </trkpt>
      <trkpt lat="45.80671" lon="3.77012">
        <ele>731.88</ele>
        <time>2025-12-20T07:58:07Z</time>
      </trkpt>
      <trkpt lat="45.80659" lon="3.77012">
        <ele>731.81</ele>
        <time>2025-12-20T07:58:08Z</time>
      </trkpt>
      <trkpt lat="45.80648" lon="3.77013">
        <ele>731.83</ele>
        <time>2025-12-20T07:58:09Z</time>
      </trkpt>
      <trkpt lat="45.80637" lon="3.77013">
        <ele>731.95</ele>
        <time>2025-12-20T07:58:10Z</time>
      </trkpt>
      <trkpt lat="45.80624" lon="3.77013">
        <ele>731.58</ele>
        <time>2025-12-20T07:58:11Z</time>
      </trkpt>
      <trkpt lat="45.80612" lon="3.77013">
        <ele>731.22</ele>
        <time>2025-12-20T07:58:12Z</time>
      </trkpt>
      <trkpt lat="45.80599" lon="3.77013">
        <ele>730.89</ele>
        <time>2025-12-20T07:58:13Z</time>
      </trkpt>
      <trkpt lat="45.80586" lon="3.77013">
        <ele>730.41</ele>
        <time>2025-12-20T07:58:14Z</time>
      </trkpt>
      <trkpt lat="45.80574" lon="3.77013">
        <ele>729.9</ele>
        <time>2025-12-20T07:58:15Z</time>
      </trkpt>
      <trkpt lat="45.80561" lon="3.77011">
        <ele>729.35</ele>
        <time>2025-12-20T07:58:16Z</time>
      </trkpt>
      <trkpt lat="45.80549" lon="3.77007">
        <ele>729.09</ele>
        <time>2025-12-20T07:58:17Z</time>
      </trkpt>
      <trkpt lat="45.80538" lon="3.77001">
        <ele>728.78</ele>
        <time>2025-12-20T07:58:18Z</time>
      </trkpt>
      <trkpt lat="45.80527" lon="3.76996">
        <ele>728.87</ele>
        <time>2025-12-20T07:58:19Z</time>
      </trkpt>
      <trkpt lat="45.80517" lon="3.76988">
        <ele>728.29</ele>
        <time>2025-12-20T07:58:20Z</time>
      </trkpt>
      <trkpt lat="45.80507" lon="3.76981">
        <ele>728.16</ele>
        <time>2025-12-20T07:58:21Z</time>
      </trkpt>
      <trkpt lat="45.80499" lon="3.76974">
        <ele>728.17</ele>
        <time>2025-12-20T07:58:22Z</time>
      </trkpt>
      <trkpt lat="45.8049" lon="3.76968">
        <ele>728.23</ele>
        <time>2025-12-20T07:58:23Z</time>
      </trkpt>
      <trkpt lat="45.80482" lon="3.7696">
        <ele>728.22</ele>
        <time>2025-12-20T07:58:24Z</time>
      </trkpt>
      <trkpt lat="45.80473" lon="3.76952">
        <ele>728.28</ele>
        <time>2025-12-20T07:58:25Z</time>
      </trkpt>
      <trkpt lat="45.80465" lon="3.76944">
        <ele>728.41</ele>
        <time>2025-12-20T07:58:26Z</time>
      </trkpt>
      <trkpt lat="45.80458" lon="3.76934">
        <ele>728.54</ele>
        <time>2025-12-20T07:58:27Z</time>
      </trkpt>
      <trkpt lat="45.8045" lon="3.76924">
        <ele>728.65</ele>
        <time>2025-12-20T07:58:28Z</time>
      </trkpt>
      <trkpt lat="45.80442" lon="3.76913">
        <ele>728.82</ele>
        <time>2025-12-20T07:58:29Z</time>
      </trkpt>
      <trkpt lat="45.80434" lon="3.76901">
        <ele>729.01</ele>
        <time>2025-12-20T07:58:30Z</time>
      </trkpt>
      <trkpt lat="45.80425" lon="3.76889">
        <ele>729.09</ele>
        <time>2025-12-20T07:58:31Z</time>
      </trkpt>
      <trkpt lat="45.80416" lon="3.76877">
        <ele>729.1</ele>
        <time>2025-12-20T07:58:32Z</time>
      </trkpt>
      <trkpt lat="45.80407" lon="3.76866">
        <ele>729.46</ele>
        <time>2025-12-20T07:58:33Z</time>
      </trkpt>
      <trkpt lat="45.80397" lon="3.76855">
        <ele>729.81</ele>
        <time>2025-12-20T07:58:34Z</time>
      </trkpt>
      <trkpt lat="45.80386" lon="3.76845">
        <ele>730.23</ele>
        <time>2025-12-20T07:58:35Z</time>
      </trkpt>
      <trkpt lat="45.80375" lon="3.76833">
        <ele>730.35</ele>
        <time>2025-12-20T07:58:36Z</time>
      </trkpt>
      <trkpt lat="45.80364" lon="3.76822">
        <ele>730.53</ele>
        <time>2025-12-20T07:58:37Z</time>
      </trkpt>
      <trkpt lat="45.80353" lon="3.76811">
        <ele>731.31</ele>
        <time>2025-12-20T07:58:38Z</time>
      </trkpt>
      <trkpt lat="45.80344" lon="3.76802">
        <ele>731.98</ele>
        <time>2025-12-20T07:58:39Z</time>
      </trkpt>
      <trkpt lat="45.80336" lon="3.76795">
        <ele>732.55</ele>
        <time>2025-12-20T07:58:40Z</time>
      </trkpt>
      <trkpt lat="45.80325" lon="3.76783">
        <ele>733.41</ele>
        <time>2025-12-20T07:58:42Z</time>
      </trkpt>
      <trkpt lat="45.80316" lon="3.76774">
        <ele>733.89</ele>
        <time>2025-12-20T07:58:44Z</time>
      </trkpt>
      <trkpt lat="45.80308" lon="3.76768">
        <ele>734.32</ele>
        <time>2025-12-20T07:58:46Z</time>
      </trkpt>
      <trkpt lat="45.80298" lon="3.7678">
        <ele>733.37</ele>
        <time>2025-12-20T07:58:51Z</time>
      </trkpt>
      <trkpt lat="45.80296" lon="3.76793">
        <ele>733.08</ele>
        <time>2025-12-20T07:58:52Z</time>
      </trkpt>
      <trkpt lat="45.80294" lon="3.76808">
        <ele>732.4</ele>
        <time>2025-12-20T07:58:53Z</time>
      </trkpt>
      <trkpt lat="45.80293" lon="3.76823">
        <ele>732.46</ele>
        <time>2025-12-20T07:58:54Z</time>
      </trkpt>
      <trkpt lat="45.80291" lon="3.76838">
        <ele>732.49</ele>
        <time>2025-12-20T07:58:55Z</time>
      </trkpt>
      <trkpt lat="45.80289" lon="3.76853">
        <ele>732.89</ele>
        <time>2025-12-20T07:58:56Z</time>
      </trkpt>
      <trkpt lat="45.80286" lon="3.76868">
        <ele>733.35</ele>
        <time>2025-12-20T07:58:57Z</time>
      </trkpt>
      <trkpt lat="45.80284" lon="3.76883">
        <ele>733.14</ele>
        <time>2025-12-20T07:58:58Z</time>
      </trkpt>
      <trkpt lat="45.80283" lon="3.76899">
        <ele>732.92</ele>
        <time>2025-12-20T07:58:59Z</time>
      </trkpt>
      <trkpt lat="45.80281" lon="3.76914">
        <ele>733.15</ele>
        <time>2025-12-20T07:59:00Z</time>
      </trkpt>
      <trkpt lat="45.80279" lon="3.76929">
        <ele>733.43</ele>
        <time>2025-12-20T07:59:01Z</time>
      </trkpt>
      <trkpt lat="45.80278" lon="3.76945">
        <ele>733.76</ele>
        <time>2025-12-20T07:59:02Z</time>
      </trkpt>
      <trkpt lat="45.80279" lon="3.7696">
        <ele>734.22</ele>
        <time>2025-12-20T07:59:03Z</time>
      </trkpt>
      <trkpt lat="45.80279" lon="3.76974">
        <ele>733.59</ele>
        <time>2025-12-20T07:59:04Z</time>
      </trkpt>
      <trkpt lat="45.80279" lon="3.76988">
        <ele>733.18</ele>
        <time>2025-12-20T07:59:05Z</time>
      </trkpt>
      <trkpt lat="45.80279" lon="3.77002">
        <ele>732.96</ele>
        <time>2025-12-20T07:59:06Z</time>
      </trkpt>
      <trkpt lat="45.80279" lon="3.77017">
        <ele>732.28</ele>
        <time>2025-12-20T07:59:07Z</time>
      </trkpt>
      <trkpt lat="45.80278" lon="3.77032">
        <ele>731.97</ele>
        <time>2025-12-20T07:59:08Z</time>
      </trkpt>
      <trkpt lat="45.80277" lon="3.77048">
        <ele>731.69</ele>
        <time>2025-12-20T07:59:09Z</time>
      </trkpt>
      <trkpt lat="45.80277" lon="3.77063">
        <ele>731.5</ele>
        <time>2025-12-20T07:59:10Z</time>
      </trkpt>
      <trkpt lat="45.80277" lon="3.77079">
        <ele>731.31</ele>
        <time>2025-12-20T07:59:11Z</time>
      </trkpt>
      <trkpt lat="45.80276" lon="3.77094">
        <ele>731.09</ele>
        <time>2025-12-20T07:59:12Z</time>
      </trkpt>
      <trkpt lat="45.80276" lon="3.7711">
        <ele>730.72</ele>
        <time>2025-12-20T07:59:13Z</time>
      </trkpt>
      <trkpt lat="45.80275" lon="3.77127">
        <ele>730.45</ele>
        <time>2025-12-20T07:59:14Z</time>
      </trkpt>
      <trkpt lat="45.80274" lon="3.77143">
        <ele>730.22</ele>
        <time>2025-12-20T07:59:15Z</time>
      </trkpt>
      <trkpt lat="45.80273" lon="3.77159">
        <ele>729.97</ele>
        <time>2025-12-20T07:59:16Z</time>
      </trkpt>
      <trkpt lat="45.80273" lon="3.77176">
        <ele>729.79</ele>
        <time>2025-12-20T07:59:17Z</time>
      </trkpt>
      <trkpt lat="45.80272" lon="3.77192">
        <ele>729.48</ele>
        <time>2025-12-20T07:59:18Z</time>
      </trkpt>
      <trkpt lat="45.80272" lon="3.77208">
        <ele>729.18</ele>
        <time>2025-12-20T07:59:19Z</time>
      </trkpt>
      <trkpt lat="45.80271" lon="3.77225">
        <ele>728.98</ele>
        <time>2025-12-20T07:59:20Z</time>
      </trkpt>
      <trkpt lat="45.80271" lon="3.77241">
        <ele>728.62</ele>
        <time>2025-12-20T07:59:21Z</time>
      </trkpt>
      <trkpt lat="45.8027" lon="3.77257">
        <ele>728.45</ele>
        <time>2025-12-20T07:59:22Z</time>
      </trkpt>
      <trkpt lat="45.80269" lon="3.77273">
        <ele>728.2</ele>
        <time>2025-12-20T07:59:23Z</time>
      </trkpt>
      <trkpt lat="45.80269" lon="3.7729">
        <ele>727.72</ele>
        <time>2025-12-20T07:59:24Z</time>
      </trkpt>
      <trkpt lat="45.80268" lon="3.77306">
        <ele>727.36</ele>
        <time>2025-12-20T07:59:25Z</time>
      </trkpt>
      <trkpt lat="45.80268" lon="3.77322">
        <ele>726.64</ele>
        <time>2025-12-20T07:59:26Z</time>
      </trkpt>
      <trkpt lat="45.80268" lon="3.77338">
        <ele>725.96</ele>
        <time>2025-12-20T07:59:27Z</time>
      </trkpt>
      <trkpt lat="45.80268" lon="3.77355">
        <ele>725.39</ele>
        <time>2025-12-20T07:59:28Z</time>
      </trkpt>
      <trkpt lat="45.80268" lon="3.77371">
        <ele>725.06</ele>
        <time>2025-12-20T07:59:29Z</time>
      </trkpt>
      <trkpt lat="45.80268" lon="3.77387">
        <ele>725.08</ele>
        <time>2025-12-20T07:59:30Z</time>
      </trkpt>
      <trkpt lat="45.80268" lon="3.77404">
        <ele>724.67</ele>
        <time>2025-12-20T07:59:31Z</time>
      </trkpt>
      <trkpt lat="45.80267" lon="3.7742">
        <ele>724.39</ele>
        <time>2025-12-20T07:59:32Z</time>
      </trkpt>
      <trkpt lat="45.80266" lon="3.77436">
        <ele>724.12</ele>
        <time>2025-12-20T07:59:33Z</time>
      </trkpt>
      <trkpt lat="45.80264" lon="3.77453">
        <ele>723.16</ele>
        <time>2025-12-20T07:59:34Z</time>
      </trkpt>
      <trkpt lat="45.80261" lon="3.77485">
        <ele>723.51</ele>
        <time>2025-12-20T07:59:36Z</time>
      </trkpt>
      <trkpt lat="45.80261" lon="3.775">
        <ele>723.98</ele>
        <time>2025-12-20T07:59:37Z</time>
      </trkpt>
      <trkpt lat="45.8026" lon="3.77514">
        <ele>722.96</ele>
        <time>2025-12-20T07:59:38Z</time>
      </trkpt>
      <trkpt lat="45.80259" lon="3.77537">
        <ele>721.38</ele>
        <time>2025-12-20T07:59:40Z</time>
      </trkpt>
      <trkpt lat="45.80259" lon="3.77556">
        <ele>721.56</ele>
        <time>2025-12-20T07:59:42Z</time>
      </trkpt>
      <trkpt lat="45.80259" lon="3.77574">
        <ele>721.53</ele>
        <time>2025-12-20T07:59:44Z</time>
      </trkpt>
      <trkpt lat="45.80257" lon="3.77589">
        <ele>721.13</ele>
        <time>2025-12-20T07:59:46Z</time>
      </trkpt>
      <trkpt lat="45.80245" lon="3.77599">
        <ele>722.43</ele>
        <time>2025-12-20T07:59:48Z</time>
      </trkpt>
      <trkpt lat="45.80231" lon="3.77607">
        <ele>723.18</ele>
        <time>2025-12-20T07:59:50Z</time>
      </trkpt>
      <trkpt lat="45.80216" lon="3.77605">
        <ele>724.82</ele>
        <time>2025-12-20T07:59:52Z</time>
      </trkpt>
      <trkpt lat="45.80201" lon="3.77611">
        <ele>726.72</ele>
        <time>2025-12-20T07:59:54Z</time>
      </trkpt>
      <trkpt lat="45.8019" lon="3.77625">
        <ele>727.79</ele>
        <time>2025-12-20T07:59:56Z</time>
      </trkpt>
      <trkpt lat="45.8018" lon="3.77633">
        <ele>728.61</ele>
        <time>2025-12-20T07:59:58Z</time>
      </trkpt>
      <trkpt lat="45.80168" lon="3.77635">
        <ele>728.71</ele>
        <time>2025-12-20T08:00:00Z</time>
      </trkpt>
      <trkpt lat="45.80153" lon="3.77636">
        <ele>729.9</ele>
        <time>2025-12-20T08:00:02Z</time>
      </trkpt>
      <trkpt lat="45.80137" lon="3.77635">
        <ele>729.69</ele>
        <time>2025-12-20T08:00:04Z</time>
      </trkpt>
      <trkpt lat="45.80124" lon="3.77634">
        <ele>729.93</ele>
        <time>2025-12-20T08:00:06Z</time>
      </trkpt>
      <trkpt lat="45.80112" lon="3.77638">
        <ele>729.97</ele>
        <time>2025-12-20T08:00:08Z</time>
      </trkpt>
      <trkpt lat="45.80099" lon="3.77649">
        <ele>730.66</ele>
        <time>2025-12-20T08:00:10Z</time>
      </trkpt>
      <trkpt lat="45.80086" lon="3.77661">
        <ele>731.28</ele>
        <time>2025-12-20T08:00:12Z</time>
      </trkpt>
      <trkpt lat="45.80073" lon="3.77668">
        <ele>731.77</ele>
        <time>2025-12-20T08:00:14Z</time>
      </trkpt>
      <trkpt lat="45.80059" lon="3.7767">
        <ele>731.68</ele>
        <time>2025-12-20T08:00:16Z</time>
      </trkpt>
      <trkpt lat="45.80045" lon="3.77671">
        <ele>731.77</ele>
        <time>2025-12-20T08:00:18Z</time>
      </trkpt>
      <trkpt lat="45.8003" lon="3.77672">
        <ele>732.07</ele>
        <time>2025-12-20T08:00:20Z</time>
      </trkpt>
      <trkpt lat="45.80016" lon="3.77673">
        <ele>732.61</ele>
        <time>2025-12-20T08:00:22Z</time>
      </trkpt>
      <trkpt lat="45.80001" lon="3.77676">
        <ele>733.16</ele>
        <time>2025-12-20T08:00:24Z</time>
      </trkpt>
      <trkpt lat="45.79984" lon="3.77681">
        <ele>733.75</ele>
        <time>2025-12-20T08:00:26Z</time>
      </trkpt>
      <trkpt lat="45.79976" lon="3.77683">
        <ele>734.16</ele>
        <time>2025-12-20T08:00:27Z</time>
      </trkpt>
      <trkpt lat="45.79966" lon="3.77685">
        <ele>734.57</ele>
        <time>2025-12-20T08:00:28Z</time>
      </trkpt>
      <trkpt lat="45.79957" lon="3.77685">
        <ele>735.2</ele>
        <time>2025-12-20T08:00:29Z</time>
      </trkpt>
      <trkpt lat="45.79948" lon="3.77684">
        <ele>735.6</ele>
        <time>2025-12-20T08:00:30Z</time>
      </trkpt>
      <trkpt lat="45.79938" lon="3.77681">
        <ele>736.09</ele>
        <time>2025-12-20T08:00:31Z</time>
      </trkpt>
      <trkpt lat="45.79928" lon="3.77677">
        <ele>736.63</ele>
        <time>2025-12-20T08:00:32Z</time>
      </trkpt>
      <trkpt lat="45.79918" lon="3.77674">
        <ele>737.25</ele>
        <time>2025-12-20T08:00:33Z</time>
      </trkpt>
      <trkpt lat="45.79907" lon="3.7767">
        <ele>738.33</ele>
        <time>2025-12-20T08:00:34Z</time>
      </trkpt>
      <trkpt lat="45.79896" lon="3.77667">
        <ele>739.94</ele>
        <time>2025-12-20T08:00:35Z</time>
      </trkpt>
      <trkpt lat="45.79886" lon="3.77665">
        <ele>739.78</ele>
        <time>2025-12-20T08:00:36Z</time>
      </trkpt>
      <trkpt lat="45.79875" lon="3.77664">
        <ele>741.01</ele>
        <time>2025-12-20T08:00:37Z</time>
      </trkpt>
      <trkpt lat="45.79864" lon="3.77664">
        <ele>742.3</ele>
        <time>2025-12-20T08:00:38Z</time>
      </trkpt>
      <trkpt lat="45.79853" lon="3.77663">
        <ele>742.19</ele>
        <time>2025-12-20T08:00:39Z</time>
      </trkpt>
      <trkpt lat="45.79841" lon="3.77661">
        <ele>743.01</ele>
        <time>2025-12-20T08:00:40Z</time>
      </trkpt>
      <trkpt lat="45.7983" lon="3.77659">
        <ele>743.94</ele>
        <time>2025-12-20T08:00:41Z</time>
      </trkpt>
      <trkpt lat="45.79819" lon="3.77656">
        <ele>745.37</ele>
        <time>2025-12-20T08:00:42Z</time>
      </trkpt>
      <trkpt lat="45.79808" lon="3.77653">
        <ele>747.08</ele>
        <time>2025-12-20T08:00:43Z</time>
      </trkpt>
      <trkpt lat="45.79797" lon="3.7765">
        <ele>748.3</ele>
        <time>2025-12-20T08:00:44Z</time>
      </trkpt>
      <trkpt lat="45.79786" lon="3.77647">
        <ele>749.49</ele>
        <time>2025-12-20T08:00:45Z</time>
      </trkpt>
      <trkpt lat="45.79776" lon="3.77645">
        <ele>750.62</ele>
        <time>2025-12-20T08:00:46Z</time>
      </trkpt>
      <trkpt lat="45.79766" lon="3.77643">
        <ele>751.8</ele>
        <time>2025-12-20T08:00:47Z</time>
      </trkpt>
      <trkpt lat="45.79752" lon="3.77636">
        <ele>753.26</ele>
        <time>2025-12-20T08:00:49Z</time>
      </trkpt>
      <trkpt lat="45.79743" lon="3.77618">
        <ele>755.29</ele>
        <time>2025-12-20T08:00:51Z</time>
      </trkpt>
      <trkpt lat="45.79734" lon="3.77608">
        <ele>756.02</ele>
        <time>2025-12-20T08:00:53Z</time>
      </trkpt>
      <trkpt lat="45.79725" lon="3.77598">
        <ele>755.8</ele>
        <time>2025-12-20T08:00:55Z</time>
      </trkpt>
      <trkpt lat="45.79717" lon="3.77592">
        <ele>756.49</ele>
        <time>2025-12-20T08:00:57Z</time>
      </trkpt>
      <trkpt lat="45.79706" lon="3.77593">
        <ele>757.07</ele>
        <time>2025-12-20T08:01:38Z</time>
      </trkpt>
      <trkpt lat="45.79696" lon="3.77603">
        <ele>757.29</ele>
        <time>2025-12-20T08:01:40Z</time>
      </trkpt>
      <trkpt lat="45.79692" lon="3.7762">
        <ele>758.69</ele>
        <time>2025-12-20T08:01:42Z</time>
      </trkpt>
      <trkpt lat="45.79688" lon="3.77634">
        <ele>759.87</ele>
        <time>2025-12-20T08:01:44Z</time>
      </trkpt>
      <trkpt lat="45.7968" lon="3.77639">
        <ele>761.02</ele>
        <time>2025-12-20T08:01:46Z</time>
      </trkpt>
      <trkpt lat="45.79669" lon="3.77643">
        <ele>762.5</ele>
        <time>2025-12-20T08:01:48Z</time>
      </trkpt>
      <trkpt lat="45.79657" lon="3.77649">
        <ele>762.98</ele>
        <time>2025-12-20T08:01:50Z</time>
      </trkpt>
      <trkpt lat="45.79636" lon="3.77659">
        <ele>764.3</ele>
        <time>2025-12-20T08:01:53Z</time>
      </trkpt>
      <trkpt lat="45.79622" lon="3.77664">
        <ele>765.1</ele>
        <time>2025-12-20T08:01:55Z</time>
      </trkpt>
      <trkpt lat="45.796" lon="3.77671">
        <ele>766.63</ele>
        <time>2025-12-20T08:01:58Z</time>
      </trkpt>
      <trkpt lat="45.79587" lon="3.77677">
        <ele>768.44</ele>
        <time>2025-12-20T08:02:00Z</time>
      </trkpt>
      <trkpt lat="45.79568" lon="3.77692">
        <ele>770.58</ele>
        <time>2025-12-20T08:02:03Z</time>
      </trkpt>
      <trkpt lat="45.79555" lon="3.77701">
        <ele>772.6</ele>
        <time>2025-12-20T08:02:05Z</time>
      </trkpt>
      <trkpt lat="45.7954" lon="3.77708">
        <ele>774.39</ele>
        <time>2025-12-20T08:02:07Z</time>
      </trkpt>
      <trkpt lat="45.79527" lon="3.77714">
        <ele>777.17</ele>
        <time>2025-12-20T08:02:09Z</time>
      </trkpt>
      <trkpt lat="45.79515" lon="3.77724">
        <ele>779.05</ele>
        <time>2025-12-20T08:02:11Z</time>
      </trkpt>
      <trkpt lat="45.79503" lon="3.77738">
        <ele>781.08</ele>
        <time>2025-12-20T08:02:13Z</time>
      </trkpt>
      <trkpt lat="45.79492" lon="3.77753">
        <ele>782.39</ele>
        <time>2025-12-20T08:02:15Z</time>
      </trkpt>
      <trkpt lat="45.79483" lon="3.77769">
        <ele>783.9</ele>
        <time>2025-12-20T08:02:17Z</time>
      </trkpt>
      <trkpt lat="45.79473" lon="3.77785">
        <ele>785.54</ele>
        <time>2025-12-20T08:02:19Z</time>
      </trkpt>
      <trkpt lat="45.79462" lon="3.77804">
        <ele>787.17</ele>
        <time>2025-12-20T08:02:21Z</time>
      </trkpt>
      <trkpt lat="45.79457" lon="3.77813">
        <ele>787.89</ele>
        <time>2025-12-20T08:02:22Z</time>
      </trkpt>
      <trkpt lat="45.7945" lon="3.77823">
        <ele>788.52</ele>
        <time>2025-12-20T08:02:23Z</time>
      </trkpt>
      <trkpt lat="45.79444" lon="3.77832">
        <ele>788.82</ele>
        <time>2025-12-20T08:02:24Z</time>
      </trkpt>
      <trkpt lat="45.79429" lon="3.77846">
        <ele>789.88</ele>
        <time>2025-12-20T08:02:26Z</time>
      </trkpt>
      <trkpt lat="45.7942" lon="3.77851">
        <ele>789.94</ele>
        <time>2025-12-20T08:02:27Z</time>
      </trkpt>
      <trkpt lat="45.79411" lon="3.77853">
        <ele>790.34</ele>
        <time>2025-12-20T08:02:28Z</time>
      </trkpt>
      <trkpt lat="45.794" lon="3.77854">
        <ele>791.4</ele>
        <time>2025-12-20T08:02:29Z</time>
      </trkpt>
      <trkpt lat="45.79391" lon="3.77855">
        <ele>793.1</ele>
        <time>2025-12-20T08:02:30Z</time>
      </trkpt>
      <trkpt lat="45.79381" lon="3.77857">
        <ele>793.42</ele>
        <time>2025-12-20T08:02:31Z</time>
      </trkpt>
      <trkpt lat="45.79371" lon="3.7786">
        <ele>795.05</ele>
        <time>2025-12-20T08:02:32Z</time>
      </trkpt>
      <trkpt lat="45.79362" lon="3.77862">
        <ele>796.34</ele>
        <time>2025-12-20T08:02:33Z</time>
      </trkpt>
      <trkpt lat="45.79346" lon="3.77865">
        <ele>797.42</ele>
        <time>2025-12-20T08:02:35Z</time>
      </trkpt>
      <trkpt lat="45.79331" lon="3.77867">
        <ele>798.96</ele>
        <time>2025-12-20T08:02:37Z</time>
      </trkpt>
      <trkpt lat="45.79315" lon="3.77867">
        <ele>801.34</ele>
        <time>2025-12-20T08:02:39Z</time>
      </trkpt>
      <trkpt lat="45.79299" lon="3.77868">
        <ele>802.68</ele>
        <time>2025-12-20T08:02:41Z</time>
      </trkpt>
      <trkpt lat="45.79282" lon="3.77868">
        <ele>803.85</ele>
        <time>2025-12-20T08:02:43Z</time>
      </trkpt>
      <trkpt lat="45.79267" lon="3.77872">
        <ele>805.01</ele>
        <time>2025-12-20T08:02:45Z</time>
      </trkpt>
      <trkpt lat="45.7925" lon="3.77878">
        <ele>806.99</ele>
        <time>2025-12-20T08:02:47Z</time>
      </trkpt>
      <trkpt lat="45.79234" lon="3.77882">
        <ele>808.39</ele>
        <time>2025-12-20T08:02:49Z</time>
      </trkpt>
      <trkpt lat="45.79219" lon="3.77886">
        <ele>809.92</ele>
        <time>2025-12-20T08:02:51Z</time>
      </trkpt>
      <trkpt lat="45.79204" lon="3.77891">
        <ele>811.92</ele>
        <time>2025-12-20T08:02:53Z</time>
      </trkpt>
      <trkpt lat="45.7919" lon="3.77898">
        <ele>813.29</ele>
        <time>2025-12-20T08:02:55Z</time>
      </trkpt>
      <trkpt lat="45.79177" lon="3.77908">
        <ele>814.58</ele>
        <time>2025-12-20T08:02:57Z</time>
      </trkpt>
      <trkpt lat="45.79165" lon="3.77919">
        <ele>815.5</ele>
        <time>2025-12-20T08:02:59Z</time>
      </trkpt>
      <trkpt lat="45.79159" lon="3.77928">
        <ele>816.08</ele>
        <time>2025-12-20T08:03:01Z</time>
      </trkpt>
      <trkpt lat="45.79151" lon="3.77941">
        <ele>818.14</ele>
        <time>2025-12-20T08:03:04Z</time>
      </trkpt>
      <trkpt lat="45.79144" lon="3.7795">
        <ele>819.55</ele>
        <time>2025-12-20T08:03:07Z</time>
      </trkpt>
      <trkpt lat="45.79138" lon="3.77955">
        <ele>820.84</ele>
        <time>2025-12-20T08:05:08Z</time>
      </trkpt>
      <trkpt lat="45.79114" lon="3.77978">
        <ele>822.47</ele>
        <time>2025-12-20T08:05:22Z</time>
      </trkpt>
      <trkpt lat="45.79104" lon="3.77993">
        <ele>823.15</ele>
        <time>2025-12-20T08:05:24Z</time>
      </trkpt>
      <trkpt lat="45.79093" lon="3.78011">
        <ele>824.32</ele>
        <time>2025-12-20T08:05:26Z</time>
      </trkpt>
      <trkpt lat="45.79086" lon="3.78021">
        <ele>825.03</ele>
        <time>2025-12-20T08:05:27Z</time>
      </trkpt>
      <trkpt lat="45.7908" lon="3.78031">
        <ele>825.82</ele>
        <time>2025-12-20T08:05:28Z</time>
      </trkpt>
      <trkpt lat="45.79072" lon="3.7804">
        <ele>826.6</ele>
        <time>2025-12-20T08:05:29Z</time>
      </trkpt>
      <trkpt lat="45.79064" lon="3.78048">
        <ele>827.35</ele>
        <time>2025-12-20T08:05:30Z</time>
      </trkpt>
      <trkpt lat="45.79056" lon="3.78056">
        <ele>828.15</ele>
        <time>2025-12-20T08:05:31Z</time>
      </trkpt>
      <trkpt lat="45.79047" lon="3.78063">
        <ele>828.98</ele>
        <time>2025-12-20T08:05:32Z</time>
      </trkpt>
      <trkpt lat="45.79039" lon="3.7807">
        <ele>829.74</ele>
        <time>2025-12-20T08:05:33Z</time>
      </trkpt>
      <trkpt lat="45.7903" lon="3.78076">
        <ele>830.54</ele>
        <time>2025-12-20T08:05:34Z</time>
      </trkpt>
      <trkpt lat="45.79022" lon="3.78082">
        <ele>831.19</ele>
        <time>2025-12-20T08:05:35Z</time>
      </trkpt>
      <trkpt lat="45.79013" lon="3.78087">
        <ele>831.83</ele>
        <time>2025-12-20T08:05:36Z</time>
      </trkpt>
      <trkpt lat="45.79004" lon="3.78089">
        <ele>832.36</ele>
        <time>2025-12-20T08:05:37Z</time>
      </trkpt>
      <trkpt lat="45.78995" lon="3.7809">
        <ele>832.95</ele>
        <time>2025-12-20T08:05:38Z</time>
      </trkpt>
      <trkpt lat="45.78986" lon="3.78088">
        <ele>833.62</ele>
        <time>2025-12-20T08:05:39Z</time>
      </trkpt>
      <trkpt lat="45.78977" lon="3.78083">
        <ele>834.18</ele>
        <time>2025-12-20T08:05:40Z</time>
      </trkpt>
      <trkpt lat="45.78967" lon="3.78077">
        <ele>834.31</ele>
        <time>2025-12-20T08:05:41Z</time>
      </trkpt>
      <trkpt lat="45.78959" lon="3.78067">
        <ele>834.91</ele>
        <time>2025-12-20T08:05:42Z</time>
      </trkpt>
      <trkpt lat="45.78951" lon="3.78055">
        <ele>835.34</ele>
        <time>2025-12-20T08:05:43Z</time>
      </trkpt>
      <trkpt lat="45.78943" lon="3.78043">
        <ele>835.64</ele>
        <time>2025-12-20T08:05:44Z</time>
      </trkpt>
      <trkpt lat="45.78934" lon="3.7803">
        <ele>836.03</ele>
        <time>2025-12-20T08:05:45Z</time>
      </trkpt>
      <trkpt lat="45.78925" lon="3.78017">
        <ele>836.44</ele>
        <time>2025-12-20T08:05:46Z</time>
      </trkpt>
      <trkpt lat="45.78915" lon="3.78004">
        <ele>836.81</ele>
        <time>2025-12-20T08:05:47Z</time>
      </trkpt>
      <trkpt lat="45.78906" lon="3.77991">
        <ele>837.02</ele>
        <time>2025-12-20T08:05:48Z</time>
      </trkpt>
      <trkpt lat="45.78896" lon="3.77978">
        <ele>837.12</ele>
        <time>2025-12-20T08:05:49Z</time>
      </trkpt>
      <trkpt lat="45.78886" lon="3.77964">
        <ele>837.15</ele>
        <time>2025-12-20T08:05:50Z</time>
      </trkpt>
      <trkpt lat="45.78876" lon="3.7795">
        <ele>837.17</ele>
        <time>2025-12-20T08:05:51Z</time>
      </trkpt>
      <trkpt lat="45.78866" lon="3.77936">
        <ele>837.25</ele>
        <time>2025-12-20T08:05:52Z</time>
      </trkpt>
      <trkpt lat="45.78857" lon="3.77922">
        <ele>837.43</ele>
        <time>2025-12-20T08:05:53Z</time>
      </trkpt>
      <trkpt lat="45.78848" lon="3.77909">
        <ele>837.31</ele>
        <time>2025-12-20T08:05:54Z</time>
      </trkpt>
      <trkpt lat="45.78838" lon="3.77897">
        <ele>837.4</ele>
        <time>2025-12-20T08:05:55Z</time>
      </trkpt>
      <trkpt lat="45.78829" lon="3.77886">
        <ele>837.34</ele>
        <time>2025-12-20T08:05:56Z</time>
      </trkpt>
      <trkpt lat="45.78818" lon="3.77878">
        <ele>837.54</ele>
        <time>2025-12-20T08:05:57Z</time>
      </trkpt>
      <trkpt lat="45.78807" lon="3.77872">
        <ele>837.67</ele>
        <time>2025-12-20T08:05:58Z</time>
      </trkpt>
      <trkpt lat="45.78797" lon="3.77867">
        <ele>837.73</ele>
        <time>2025-12-20T08:05:59Z</time>
      </trkpt>
      <trkpt lat="45.78786" lon="3.77862">
        <ele>837.81</ele>
        <time>2025-12-20T08:06:00Z</time>
      </trkpt>
      <trkpt lat="45.78775" lon="3.77857">
        <ele>837.84</ele>
        <time>2025-12-20T08:06:01Z</time>
      </trkpt>
      <trkpt lat="45.78765" lon="3.77852">
        <ele>837.96</ele>
        <time>2025-12-20T08:06:02Z</time>
      </trkpt>
      <trkpt lat="45.78754" lon="3.77848">
        <ele>838.19</ele>
        <time>2025-12-20T08:06:03Z</time>
      </trkpt>
      <trkpt lat="45.78744" lon="3.77845">
        <ele>838.39</ele>
        <time>2025-12-20T08:06:04Z</time>
      </trkpt>
      <trkpt lat="45.78729" lon="3.77841">
        <ele>838.78</ele>
        <time>2025-12-20T08:06:06Z</time>
      </trkpt>
      <trkpt lat="45.78719" lon="3.77838">
        <ele>839.33</ele>
        <time>2025-12-20T08:06:08Z</time>
      </trkpt>
      <trkpt lat="45.78709" lon="3.77836">
        <ele>839.57</ele>
        <time>2025-12-20T08:06:11Z</time>
      </trkpt>
      <trkpt lat="45.78695" lon="3.77832">
        <ele>840.1</ele>
        <time>2025-12-20T08:06:14Z</time>
      </trkpt>
      <trkpt lat="45.78684" lon="3.77826">
        <ele>840.54</ele>
        <time>2025-12-20T08:06:16Z</time>
      </trkpt>
      <trkpt lat="45.78673" lon="3.77819">
        <ele>841.24</ele>
        <time>2025-12-20T08:06:18Z</time>
      </trkpt>
      <trkpt lat="45.78663" lon="3.77808">
        <ele>842.19</ele>
        <time>2025-12-20T08:06:20Z</time>
      </trkpt>
      <trkpt lat="45.78653" lon="3.77797">
        <ele>843.05</ele>
        <time>2025-12-20T08:06:22Z</time>
      </trkpt>
      <trkpt lat="45.78642" lon="3.77788">
        <ele>843.94</ele>
        <time>2025-12-20T08:06:24Z</time>
      </trkpt>
      <trkpt lat="45.78631" lon="3.77778">
        <ele>844.91</ele>
        <time>2025-12-20T08:06:26Z</time>
      </trkpt>
      <trkpt lat="45.78619" lon="3.77769">
        <ele>845.33</ele>
        <time>2025-12-20T08:06:28Z</time>
      </trkpt>
      <trkpt lat="45.78605" lon="3.77757">
        <ele>845.18</ele>
        <time>2025-12-20T08:06:30Z</time>
      </trkpt>
      <trkpt lat="45.78589" lon="3.77745">
        <ele>845.16</ele>
        <time>2025-12-20T08:06:32Z</time>
      </trkpt>
      <trkpt lat="45.78581" lon="3.7774">
        <ele>845.06</ele>
        <time>2025-12-20T08:06:33Z</time>
      </trkpt>
      <trkpt lat="45.78572" lon="3.77735">
        <ele>845.08</ele>
        <time>2025-12-20T08:06:34Z</time>
      </trkpt>
      <trkpt lat="45.78555" lon="3.77729">
        <ele>845.3</ele>
        <time>2025-12-20T08:06:36Z</time>
      </trkpt>
      <trkpt lat="45.78538" lon="3.77731">
        <ele>845.55</ele>
        <time>2025-12-20T08:06:38Z</time>
      </trkpt>
      <trkpt lat="45.78524" lon="3.77741">
        <ele>845.9</ele>
        <time>2025-12-20T08:06:40Z</time>
      </trkpt>
      <trkpt lat="45.78514" lon="3.77758">
        <ele>846.1</ele>
        <time>2025-12-20T08:06:42Z</time>
      </trkpt>
      <trkpt lat="45.78506" lon="3.77779">
        <ele>846.38</ele>
        <time>2025-12-20T08:06:44Z</time>
      </trkpt>
      <trkpt lat="45.78497" lon="3.77801">
        <ele>847.08</ele>
        <time>2025-12-20T08:06:46Z</time>
      </trkpt>
      <trkpt lat="45.78492" lon="3.77814">
        <ele>847.7</ele>
        <time>2025-12-20T08:06:47Z</time>
      </trkpt>
      <trkpt lat="45.78488" lon="3.77827">
        <ele>848.43</ele>
        <time>2025-12-20T08:06:48Z</time>
      </trkpt>
      <trkpt lat="45.78483" lon="3.7784">
        <ele>849.33</ele>
        <time>2025-12-20T08:06:49Z</time>
      </trkpt>
      <trkpt lat="45.78478" lon="3.77854">
        <ele>850.21</ele>
        <time>2025-12-20T08:06:50Z</time>
      </trkpt>
      <trkpt lat="45.78473" lon="3.77868">
        <ele>850.93</ele>
        <time>2025-12-20T08:06:51Z</time>
      </trkpt>
      <trkpt lat="45.78468" lon="3.77883">
        <ele>851.98</ele>
        <time>2025-12-20T08:06:52Z</time>
      </trkpt>
      <trkpt lat="45.78463" lon="3.77897">
        <ele>853.25</ele>
        <time>2025-12-20T08:06:53Z</time>
      </trkpt>
      <trkpt lat="45.78458" lon="3.77911">
        <ele>853.94</ele>
        <time>2025-12-20T08:06:54Z</time>
      </trkpt>
      <trkpt lat="45.78452" lon="3.77925">
        <ele>855.06</ele>
        <time>2025-12-20T08:06:55Z</time>
      </trkpt>
      <trkpt lat="45.78447" lon="3.77939">
        <ele>855.09</ele>
        <time>2025-12-20T08:06:56Z</time>
      </trkpt>
      <trkpt lat="45.78441" lon="3.77953">
        <ele>856.34</ele>
        <time>2025-12-20T08:06:57Z</time>
      </trkpt>
      <trkpt lat="45.78436" lon="3.77966">
        <ele>857.89</ele>
        <time>2025-12-20T08:06:58Z</time>
      </trkpt>
      <trkpt lat="45.78428" lon="3.77985">
        <ele>859.16</ele>
        <time>2025-12-20T08:07:00Z</time>
      </trkpt>
      <trkpt lat="45.78422" lon="3.77996">
        <ele>859.6</ele>
        <time>2025-12-20T08:07:02Z</time>
      </trkpt>
      <trkpt lat="45.78418" lon="3.78009">
        <ele>860.18</ele>
        <time>2025-12-20T08:07:04Z</time>
      </trkpt>
      <trkpt lat="45.78416" lon="3.78027">
        <ele>861.62</ele>
        <time>2025-12-20T08:07:06Z</time>
      </trkpt>
      <trkpt lat="45.78413" lon="3.78048">
        <ele>862.73</ele>
        <time>2025-12-20T08:07:08Z</time>
      </trkpt>
      <trkpt lat="45.78411" lon="3.78072">
        <ele>864.24</ele>
        <time>2025-12-20T08:07:10Z</time>
      </trkpt>
      <trkpt lat="45.78408" lon="3.78097">
        <ele>865.6</ele>
        <time>2025-12-20T08:07:12Z</time>
      </trkpt>
      <trkpt lat="45.78406" lon="3.7811">
        <ele>866.29</ele>
        <time>2025-12-20T08:07:13Z</time>
      </trkpt>
      <trkpt lat="45.784" lon="3.78129">
        <ele>867.17</ele>
        <time>2025-12-20T08:07:15Z</time>
      </trkpt>
      <trkpt lat="45.78393" lon="3.78138">
        <ele>868.12</ele>
        <time>2025-12-20T08:07:17Z</time>
      </trkpt>
      <trkpt lat="45.78382" lon="3.78133">
        <ele>869.62</ele>
        <time>2025-12-20T08:07:19Z</time>
      </trkpt>
      <trkpt lat="45.78374" lon="3.78115">
        <ele>871.82</ele>
        <time>2025-12-20T08:07:21Z</time>
      </trkpt>
      <trkpt lat="45.78365" lon="3.78093">
        <ele>874.04</ele>
        <time>2025-12-20T08:07:23Z</time>
      </trkpt>
      <trkpt lat="45.78362" lon="3.78081">
        <ele>874.85</ele>
        <time>2025-12-20T08:07:24Z</time>
      </trkpt>
      <trkpt lat="45.78358" lon="3.78069">
        <ele>875.72</ele>
        <time>2025-12-20T08:07:25Z</time>
      </trkpt>
      <trkpt lat="45.78354" lon="3.78056">
        <ele>876.54</ele>
        <time>2025-12-20T08:07:26Z</time>
      </trkpt>
      <trkpt lat="45.78351" lon="3.78043">
        <ele>877.49</ele>
        <time>2025-12-20T08:07:27Z</time>
      </trkpt>
      <trkpt lat="45.78347" lon="3.7803">
        <ele>878.52</ele>
        <time>2025-12-20T08:07:28Z</time>
      </trkpt>
      <trkpt lat="45.78344" lon="3.78016">
        <ele>879.88</ele>
        <time>2025-12-20T08:07:29Z</time>
      </trkpt>
      <trkpt lat="45.78342" lon="3.78003">
        <ele>879.84</ele>
        <time>2025-12-20T08:07:30Z</time>
      </trkpt>
      <trkpt lat="45.7834" lon="3.77991">
        <ele>880.2</ele>
        <time>2025-12-20T08:07:31Z</time>
      </trkpt>
      <trkpt lat="45.78338" lon="3.77965">
        <ele>880.71</ele>
        <time>2025-12-20T08:07:33Z</time>
      </trkpt>
      <trkpt lat="45.78337" lon="3.77942">
        <ele>882.34</ele>
        <time>2025-12-20T08:07:35Z</time>
      </trkpt>
      <trkpt lat="45.78337" lon="3.77928">
        <ele>882.23</ele>
        <time>2025-12-20T08:07:36Z</time>
      </trkpt>
      <trkpt lat="45.78336" lon="3.77914">
        <ele>883.25</ele>
        <time>2025-12-20T08:07:37Z</time>
      </trkpt>
      <trkpt lat="45.78336" lon="3.779">
        <ele>884.66</ele>
        <time>2025-12-20T08:07:38Z</time>
      </trkpt>
      <trkpt lat="45.78334" lon="3.77886">
        <ele>885.14</ele>
        <time>2025-12-20T08:07:39Z</time>
      </trkpt>
      <trkpt lat="45.78333" lon="3.77871">
        <ele>886.4</ele>
        <time>2025-12-20T08:07:40Z</time>
      </trkpt>
      <trkpt lat="45.78331" lon="3.77856">
        <ele>886.55</ele>
        <time>2025-12-20T08:07:41Z</time>
      </trkpt>
      <trkpt lat="45.7833" lon="3.77841">
        <ele>888.4</ele>
        <time>2025-12-20T08:07:42Z</time>
      </trkpt>
      <trkpt lat="45.78328" lon="3.77827">
        <ele>888.97</ele>
        <time>2025-12-20T08:07:43Z</time>
      </trkpt>
      <trkpt lat="45.78327" lon="3.77814">
        <ele>890.71</ele>
        <time>2025-12-20T08:07:44Z</time>
      </trkpt>
      <trkpt lat="45.78325" lon="3.77801">
        <ele>892.66</ele>
        <time>2025-12-20T08:07:45Z</time>
      </trkpt>
      <trkpt lat="45.78323" lon="3.77785">
        <ele>893.93</ele>
        <time>2025-12-20T08:07:46Z</time>
      </trkpt>
      <trkpt lat="45.78321" lon="3.7777">
        <ele>894.93</ele>
        <time>2025-12-20T08:07:47Z</time>
      </trkpt>
      <trkpt lat="45.7832" lon="3.77756">
        <ele>890.49</ele>
        <time>2025-12-20T08:07:48Z</time>
      </trkpt>
      <trkpt lat="45.78316" lon="3.77735">
        <ele>895.28</ele>
        <time>2025-12-20T08:07:50Z</time>
      </trkpt>
      <trkpt lat="45.78307" lon="3.77734">
        <ele>897.68</ele>
        <time>2025-12-20T08:07:52Z</time>
      </trkpt>
      <trkpt lat="45.783" lon="3.77751">
        <ele>899.69</ele>
        <time>2025-12-20T08:07:54Z</time>
      </trkpt>
      <trkpt lat="45.78295" lon="3.77773">
        <ele>900.72</ele>
        <time>2025-12-20T08:07:56Z</time>
      </trkpt>
      <trkpt lat="45.78292" lon="3.77786">
        <ele>900.92</ele>
        <time>2025-12-20T08:07:57Z</time>
      </trkpt>
      <trkpt lat="45.78288" lon="3.77802">
        <ele>902.26</ele>
        <time>2025-12-20T08:07:58Z</time>
      </trkpt>
      <trkpt lat="45.78284" lon="3.77817">
        <ele>903</ele>
        <time>2025-12-20T08:07:59Z</time>
      </trkpt>
      <trkpt lat="45.7828" lon="3.77832">
        <ele>904.4</ele>
        <time>2025-12-20T08:08:00Z</time>
      </trkpt>
      <trkpt lat="45.78276" lon="3.77848">
        <ele>904.95</ele>
        <time>2025-12-20T08:08:01Z</time>
      </trkpt>
      <trkpt lat="45.78272" lon="3.77865">
        <ele>907.3</ele>
        <time>2025-12-20T08:08:02Z</time>
      </trkpt>
      <trkpt lat="45.78267" lon="3.77882">
        <ele>909.04</ele>
        <time>2025-12-20T08:08:03Z</time>
      </trkpt>
      <trkpt lat="45.78262" lon="3.77898">
        <ele>910.2</ele>
        <time>2025-12-20T08:08:04Z</time>
      </trkpt>
      <trkpt lat="45.78255" lon="3.77914">
        <ele>911.35</ele>
        <time>2025-12-20T08:08:05Z</time>
      </trkpt>
      <trkpt lat="45.78248" lon="3.77929">
        <ele>912.8</ele>
        <time>2025-12-20T08:08:06Z</time>
      </trkpt>
      <trkpt lat="45.78241" lon="3.77943">
        <ele>914.15</ele>
        <time>2025-12-20T08:08:07Z</time>
      </trkpt>
      <trkpt lat="45.78235" lon="3.77954">
        <ele>915.17</ele>
        <time>2025-12-20T08:08:08Z</time>
      </trkpt>
      <trkpt lat="45.78229" lon="3.77965">
        <ele>915.82</ele>
        <time>2025-12-20T08:08:09Z</time>
      </trkpt>
      <trkpt lat="45.7822" lon="3.77982">
        <ele>916.64</ele>
        <time>2025-12-20T08:08:11Z</time>
      </trkpt>
      <trkpt lat="45.78212" lon="3.77992">
        <ele>918.02</ele>
        <time>2025-12-20T08:08:13Z</time>
      </trkpt>
      <trkpt lat="45.782" lon="3.77992">
        <ele>920.2</ele>
        <time>2025-12-20T08:08:16Z</time>
      </trkpt>
      <trkpt lat="45.78191" lon="3.77992">
        <ele>922.41</ele>
        <time>2025-12-20T08:08:18Z</time>
      </trkpt>
      <trkpt lat="45.78181" lon="3.77991">
        <ele>925.45</ele>
        <time>2025-12-20T08:08:20Z</time>
      </trkpt>
      <trkpt lat="45.78172" lon="3.7799">
        <ele>927.02</ele>
        <time>2025-12-20T08:08:22Z</time>
      </trkpt>
      <trkpt lat="45.78163" lon="3.77988">
        <ele>929.47</ele>
        <time>2025-12-20T08:08:24Z</time>
      </trkpt>
      <trkpt lat="45.7815" lon="3.77985">
        <ele>932.34</ele>
        <time>2025-12-20T08:08:27Z</time>
      </trkpt>
      <trkpt lat="45.78139" lon="3.77982">
        <ele>934.65</ele>
        <time>2025-12-20T08:08:29Z</time>
      </trkpt>
      <trkpt lat="45.78129" lon="3.77979">
        <ele>935.82</ele>
        <time>2025-12-20T08:08:31Z</time>
      </trkpt>
      <trkpt lat="45.78119" lon="3.77973">
        <ele>937.59</ele>
        <time>2025-12-20T08:08:33Z</time>
      </trkpt>
      <trkpt lat="45.78108" lon="3.77967">
        <ele>939.58</ele>
        <time>2025-12-20T08:08:35Z</time>
      </trkpt>
      <trkpt lat="45.78095" lon="3.77959">
        <ele>940.87</ele>
        <time>2025-12-20T08:08:37Z</time>
      </trkpt>
      <trkpt lat="45.78079" lon="3.77955">
        <ele>942.91</ele>
        <time>2025-12-20T08:08:39Z</time>
      </trkpt>
      <trkpt lat="45.7807" lon="3.77953">
        <ele>943.2</ele>
        <time>2025-12-20T08:08:40Z</time>
      </trkpt>
      <trkpt lat="45.78057" lon="3.77945">
        <ele>946.53</ele>
        <time>2025-12-20T08:08:42Z</time>
      </trkpt>
      <trkpt lat="45.78052" lon="3.77927">
        <ele>949.42</ele>
        <time>2025-12-20T08:08:44Z</time>
      </trkpt>
      <trkpt lat="45.78052" lon="3.77909">
        <ele>951.43</ele>
        <time>2025-12-20T08:08:46Z</time>
      </trkpt>
      <trkpt lat="45.78053" lon="3.77891">
        <ele>953.8</ele>
        <time>2025-12-20T08:08:48Z</time>
      </trkpt>
      <trkpt lat="45.78055" lon="3.77871">
        <ele>956.85</ele>
        <time>2025-12-20T08:08:51Z</time>
      </trkpt>
      <trkpt lat="45.78054" lon="3.77857">
        <ele>959.61</ele>
        <time>2025-12-20T08:08:53Z</time>
      </trkpt>
      <trkpt lat="45.78052" lon="3.7784">
        <ele>961.55</ele>
        <time>2025-12-20T08:08:55Z</time>
      </trkpt>
      <trkpt lat="45.78051" lon="3.77818">
        <ele>961.42</ele>
        <time>2025-12-20T08:08:57Z</time>
      </trkpt>
      <trkpt lat="45.78051" lon="3.77796">
        <ele>962.88</ele>
        <time>2025-12-20T08:08:59Z</time>
      </trkpt>
      <trkpt lat="45.78052" lon="3.77781">
        <ele>961.48</ele>
        <time>2025-12-20T08:09:00Z</time>
      </trkpt>
      <trkpt lat="45.78054" lon="3.77767">
        <ele>963.3</ele>
        <time>2025-12-20T08:09:01Z</time>
      </trkpt>
      <trkpt lat="45.78056" lon="3.77745">
        <ele>966.27</ele>
        <time>2025-12-20T08:09:03Z</time>
      </trkpt>
      <trkpt lat="45.78056" lon="3.77725">
        <ele>967.65</ele>
        <time>2025-12-20T08:09:05Z</time>
      </trkpt>
      <trkpt lat="45.78054" lon="3.77711">
        <ele>968.87</ele>
        <time>2025-12-20T08:09:07Z</time>
      </trkpt>
      <trkpt lat="45.78048" lon="3.77699">
        <ele>971.44</ele>
        <time>2025-12-20T08:10:07Z</time>
      </trkpt>
      <trkpt lat="45.78037" lon="3.77698">
        <ele>972.11</ele>
        <time>2025-12-20T08:10:10Z</time>
      </trkpt>
      <trkpt lat="45.78027" lon="3.77698">
        <ele>973.21</ele>
        <time>2025-12-20T08:10:13Z</time>
      </trkpt>
      <trkpt lat="45.78017" lon="3.77697">
        <ele>975.42</ele>
        <time>2025-12-20T08:10:16Z</time>
      </trkpt>
      <trkpt lat="45.78006" lon="3.77696">
        <ele>977.11</ele>
        <time>2025-12-20T08:10:19Z</time>
      </trkpt>
      <trkpt lat="45.77994" lon="3.77695">
        <ele>979.28</ele>
        <time>2025-12-20T08:10:22Z</time>
      </trkpt>
      <trkpt lat="45.77985" lon="3.77694">
        <ele>981.02</ele>
        <time>2025-12-20T08:10:24Z</time>
      </trkpt>
      <trkpt lat="45.77974" lon="3.77688">
        <ele>984.86</ele>
        <time>2025-12-20T08:10:27Z</time>
      </trkpt>
      <trkpt lat="45.77963" lon="3.77679">
        <ele>988.18</ele>
        <time>2025-12-20T08:10:30Z</time>
      </trkpt>
      <trkpt lat="45.77954" lon="3.77673">
        <ele>991.61</ele>
        <time>2025-12-20T08:10:33Z</time>
      </trkpt>
      <trkpt lat="45.77944" lon="3.77668">
        <ele>993.54</ele>
        <time>2025-12-20T08:10:36Z</time>
      </trkpt>
      <trkpt lat="45.77934" lon="3.77668">
        <ele>996.81</ele>
        <time>2025-12-20T08:10:39Z</time>
      </trkpt>
      <trkpt lat="45.77923" lon="3.77667">
        <ele>1000.78</ele>
        <time>2025-12-20T08:10:42Z</time>
      </trkpt>
      <trkpt lat="45.77911" lon="3.77665">
        <ele>1003.79</ele>
        <time>2025-12-20T08:10:45Z</time>
      </trkpt>
      <trkpt lat="45.77898" lon="3.77664">
        <ele>1004.71</ele>
        <time>2025-12-20T08:10:48Z</time>
      </trkpt>
      <trkpt lat="45.77887" lon="3.77661">
        <ele>1007.95</ele>
        <time>2025-12-20T08:10:51Z</time>
      </trkpt>
      <trkpt lat="45.77876" lon="3.77661">
        <ele>1010.4</ele>
        <time>2025-12-20T08:10:54Z</time>
      </trkpt>
      <trkpt lat="45.77865" lon="3.77662">
        <ele>1012</ele>
        <time>2025-12-20T08:10:57Z</time>
      </trkpt>
      <trkpt lat="45.77849" lon="3.77665">
        <ele>1016.68</ele>
        <time>2025-12-20T08:11:30Z</time>
      </trkpt>
      <trkpt lat="45.7784" lon="3.77664">
        <ele>1016.53</ele>
        <time>2025-12-20T08:11:39Z</time>
      </trkpt>
      <trkpt lat="45.7783" lon="3.7766">
        <ele>1016.94</ele>
        <time>2025-12-20T08:11:44Z</time>
      </trkpt>
      <trkpt lat="45.7782" lon="3.77656">
        <ele>1017.46</ele>
        <time>2025-12-20T08:11:47Z</time>
      </trkpt>
      <trkpt lat="45.7781" lon="3.7765">
        <ele>1018.76</ele>
        <time>2025-12-20T08:11:50Z</time>
      </trkpt>
      <trkpt lat="45.77803" lon="3.77643">
        <ele>1020</ele>
        <time>2025-12-20T08:11:52Z</time>
      </trkpt>
      <trkpt lat="45.77787" lon="3.77631">
        <ele>1022.34</ele>
        <time>2025-12-20T08:11:56Z</time>
      </trkpt>
      <trkpt lat="45.77779" lon="3.77621">
        <ele>1023.69</ele>
        <time>2025-12-20T08:11:59Z</time>
      </trkpt>
      <trkpt lat="45.77771" lon="3.77614">
        <ele>1025.62</ele>
        <time>2025-12-20T08:12:03Z</time>
      </trkpt>
      <trkpt lat="45.77764" lon="3.77605">
        <ele>1032.05</ele>
        <time>2025-12-20T08:12:50Z</time>
      </trkpt>
      <trkpt lat="45.77755" lon="3.77596">
        <ele>1033.48</ele>
        <time>2025-12-20T08:13:00Z</time>
      </trkpt>
      <trkpt lat="45.77745" lon="3.77592">
        <ele>1033.61</ele>
        <time>2025-12-20T08:13:02Z</time>
      </trkpt>
      <trkpt lat="45.77735" lon="3.77582">
        <ele>1035.25</ele>
        <time>2025-12-20T08:13:05Z</time>
      </trkpt>
      <trkpt lat="45.77724" lon="3.77573">
        <ele>1036.56</ele>
        <time>2025-12-20T08:13:08Z</time>
      </trkpt>
      <trkpt lat="45.77715" lon="3.77568">
        <ele>1038.87</ele>
        <time>2025-12-20T08:13:11Z</time>
      </trkpt>
      <trkpt lat="45.77706" lon="3.77561">
        <ele>1041.46</ele>
        <time>2025-12-20T08:13:14Z</time>
      </trkpt>
      <trkpt lat="45.77698" lon="3.77554">
        <ele>1044.45</ele>
        <time>2025-12-20T08:13:18Z</time>
      </trkpt>
      <trkpt lat="45.77691" lon="3.77544">
        <ele>1047.28</ele>
        <time>2025-12-20T08:13:21Z</time>
      </trkpt>
      <trkpt lat="45.77682" lon="3.77532">
        <ele>1049.69</ele>
        <time>2025-12-20T08:13:24Z</time>
      </trkpt>
      <trkpt lat="45.77671" lon="3.77521">
        <ele>1052.86</ele>
        <time>2025-12-20T08:13:27Z</time>
      </trkpt>
      <trkpt lat="45.77663" lon="3.77511">
        <ele>1055.31</ele>
        <time>2025-12-20T08:13:30Z</time>
      </trkpt>
      <trkpt lat="45.77652" lon="3.77506">
        <ele>1058.5</ele>
        <time>2025-12-20T08:13:33Z</time>
      </trkpt>
      <trkpt lat="45.77642" lon="3.77507">
        <ele>1058.89</ele>
        <time>2025-12-20T08:13:35Z</time>
      </trkpt>
      <trkpt lat="45.77629" lon="3.77505">
        <ele>1060.74</ele>
        <time>2025-12-20T08:13:37Z</time>
      </trkpt>
      <trkpt lat="45.77617" lon="3.77503">
        <ele>1061.52</ele>
        <time>2025-12-20T08:13:39Z</time>
      </trkpt>
      <trkpt lat="45.77604" lon="3.77503">
        <ele>1064.09</ele>
        <time>2025-12-20T08:13:41Z</time>
      </trkpt>
      <trkpt lat="45.77591" lon="3.77504">
        <ele>1065.73</ele>
        <time>2025-12-20T08:13:43Z</time>
      </trkpt>
      <trkpt lat="45.77578" lon="3.77501">
        <ele>1067.55</ele>
        <time>2025-12-20T08:13:45Z</time>
      </trkpt>
      <trkpt lat="45.77568" lon="3.77496">
        <ele>1067.86</ele>
        <time>2025-12-20T08:13:47Z</time>
      </trkpt>
      <trkpt lat="45.77559" lon="3.77486">
        <ele>1069.61</ele>
        <time>2025-12-20T08:13:49Z</time>
      </trkpt>
      <trkpt lat="45.77551" lon="3.77479">
        <ele>1071.7</ele>
        <time>2025-12-20T08:13:51Z</time>
      </trkpt>
      <trkpt lat="45.77542" lon="3.77474">
        <ele>1073.31</ele>
        <time>2025-12-20T08:13:53Z</time>
      </trkpt>
      <trkpt lat="45.77533" lon="3.77468">
        <ele>1076.53</ele>
        <time>2025-12-20T08:13:56Z</time>
      </trkpt>
      <trkpt lat="45.77528" lon="3.77454">
        <ele>1079.11</ele>
        <time>2025-12-20T08:14:00Z</time>
      </trkpt>
      <trkpt lat="45.77523" lon="3.77441">
        <ele>1081.46</ele>
        <time>2025-12-20T08:14:02Z</time>
      </trkpt>
      <trkpt lat="45.77515" lon="3.77428">
        <ele>1082.31</ele>
        <time>2025-12-20T08:14:04Z</time>
      </trkpt>
      <trkpt lat="45.77505" lon="3.77416">
        <ele>1084.23</ele>
        <time>2025-12-20T08:14:06Z</time>
      </trkpt>
      <trkpt lat="45.77494" lon="3.77404">
        <ele>1086.2</ele>
        <time>2025-12-20T08:14:08Z</time>
      </trkpt>
      <trkpt lat="45.77486" lon="3.77396">
        <ele>1087.3</ele>
        <time>2025-12-20T08:14:10Z</time>
      </trkpt>
      <trkpt lat="45.77476" lon="3.77388">
        <ele>1088.62</ele>
        <time>2025-12-20T08:14:12Z</time>
      </trkpt>
      <trkpt lat="45.77466" lon="3.77379">
        <ele>1090.66</ele>
        <time>2025-12-20T08:14:14Z</time>
      </trkpt>
      <trkpt lat="45.77457" lon="3.7737">
        <ele>1092.08</ele>
        <time>2025-12-20T08:14:16Z</time>
      </trkpt>
      <trkpt lat="45.7745" lon="3.7736">
        <ele>1092.51</ele>
        <time>2025-12-20T08:14:18Z</time>
      </trkpt>
      <trkpt lat="45.77444" lon="3.77349">
        <ele>1094.18</ele>
        <time>2025-12-20T08:14:21Z</time>
      </trkpt>
      <trkpt lat="45.77438" lon="3.77339">
        <ele>1095.84</ele>
        <time>2025-12-20T08:14:25Z</time>
      </trkpt>
      <trkpt lat="45.77436" lon="3.77328">
        <ele>1097.29</ele>
        <time>2025-12-20T08:16:26Z</time>
      </trkpt>
      <trkpt lat="45.77436" lon="3.77328">
        <ele>1097.85</ele>
        <time>2025-12-20T08:20:06Z</time>
      </trkpt>
      <trkpt lat="45.77436" lon="3.77328">
        <ele>1097.37</ele>
        <time>2025-12-20T08:22:06Z</time>
      </trkpt>
      <trkpt lat="45.77431" lon="3.77315">
        <ele>1097.7</ele>
        <time>2025-12-20T08:23:14Z</time>
      </trkpt>
      <trkpt lat="45.77423" lon="3.77303">
        <ele>1099.31</ele>
        <time>2025-12-20T08:23:17Z</time>
      </trkpt>
      <trkpt lat="45.77415" lon="3.77294">
        <ele>1099.64</ele>
        <time>2025-12-20T08:23:20Z</time>
      </trkpt>
      <trkpt lat="45.77409" lon="3.77282">
        <ele>1101.04</ele>
        <time>2025-12-20T08:23:25Z</time>
      </trkpt>
      <trkpt lat="45.77402" lon="3.77269">
        <ele>1102.25</ele>
        <time>2025-12-20T08:23:29Z</time>
      </trkpt>
      <trkpt lat="45.77395" lon="3.77259">
        <ele>1103.54</ele>
        <time>2025-12-20T08:23:32Z</time>
      </trkpt>
      <trkpt lat="45.77385" lon="3.77247">
        <ele>1105.27</ele>
        <time>2025-12-20T08:23:43Z</time>
      </trkpt>
      <trkpt lat="45.77379" lon="3.77233">
        <ele>1106.5</ele>
        <time>2025-12-20T08:23:50Z</time>
      </trkpt>
      <trkpt lat="45.77374" lon="3.7722">
        <ele>1107.5</ele>
        <time>2025-12-20T08:23:54Z</time>
      </trkpt>
      <trkpt lat="45.77369" lon="3.77208">
        <ele>1111.02</ele>
        <time>2025-12-20T08:23:57Z</time>
      </trkpt>
      <trkpt lat="45.77361" lon="3.77195">
        <ele>1113.15</ele>
        <time>2025-12-20T08:24:01Z</time>
      </trkpt>
      <trkpt lat="45.77355" lon="3.77183">
        <ele>1115.4</ele>
        <time>2025-12-20T08:24:04Z</time>
      </trkpt>
      <trkpt lat="45.77349" lon="3.77172">
        <ele>1117.89</ele>
        <time>2025-12-20T08:24:07Z</time>
      </trkpt>
      <trkpt lat="45.77342" lon="3.7716">
        <ele>1120.52</ele>
        <time>2025-12-20T08:24:11Z</time>
      </trkpt>
      <trkpt lat="45.77331" lon="3.77154">
        <ele>1121.62</ele>
        <time>2025-12-20T08:24:14Z</time>
      </trkpt>
      <trkpt lat="45.77323" lon="3.77151">
        <ele>1122.67</ele>
        <time>2025-12-20T08:24:16Z</time>
      </trkpt>
      <trkpt lat="45.77313" lon="3.77147">
        <ele>1123.83</ele>
        <time>2025-12-20T08:24:19Z</time>
      </trkpt>
      <trkpt lat="45.77301" lon="3.77142">
        <ele>1124.87</ele>
        <time>2025-12-20T08:24:23Z</time>
      </trkpt>
      <trkpt lat="45.77291" lon="3.77139">
        <ele>1125.44</ele>
        <time>2025-12-20T08:24:26Z</time>
      </trkpt>
      <trkpt lat="45.77282" lon="3.77135">
        <ele>1125.85</ele>
        <time>2025-12-20T08:24:29Z</time>
      </trkpt>
      <trkpt lat="45.77273" lon="3.77136">
        <ele>1125.79</ele>
        <time>2025-12-20T08:24:32Z</time>
      </trkpt>
      <trkpt lat="45.7726" lon="3.77137">
        <ele>1126.33</ele>
        <time>2025-12-20T08:24:35Z</time>
      </trkpt>
      <trkpt lat="45.77249" lon="3.77136">
        <ele>1127.45</ele>
        <time>2025-12-20T08:24:38Z</time>
      </trkpt>
      <trkpt lat="45.77238" lon="3.77137">
        <ele>1129.43</ele>
        <time>2025-12-20T08:24:44Z</time>
      </trkpt>
      <trkpt lat="45.77226" lon="3.77138">
        <ele>1129.86</ele>
        <time>2025-12-20T08:24:47Z</time>
      </trkpt>
      <trkpt lat="45.77215" lon="3.77139">
        <ele>1129.94</ele>
        <time>2025-12-20T08:24:49Z</time>
      </trkpt>
      <trkpt lat="45.77203" lon="3.77142">
        <ele>1131.04</ele>
        <time>2025-12-20T08:24:51Z</time>
      </trkpt>
      <trkpt lat="45.77192" lon="3.77141">
        <ele>1131.44</ele>
        <time>2025-12-20T08:24:53Z</time>
      </trkpt>
      <trkpt lat="45.77182" lon="3.77138">
        <ele>1131.49</ele>
        <time>2025-12-20T08:24:55Z</time>
      </trkpt>
      <trkpt lat="45.77174" lon="3.77133">
        <ele>1132.35</ele>
        <time>2025-12-20T08:24:57Z</time>
      </trkpt>
      <trkpt lat="45.77165" lon="3.77129">
        <ele>1133.68</ele>
        <time>2025-12-20T08:24:59Z</time>
      </trkpt>
      <trkpt lat="45.77154" lon="3.77124">
        <ele>1135.81</ele>
        <time>2025-12-20T08:25:02Z</time>
      </trkpt>
      <trkpt lat="45.77142" lon="3.77121">
        <ele>1137.79</ele>
        <time>2025-12-20T08:25:06Z</time>
      </trkpt>
      <trkpt lat="45.77129" lon="3.77121">
        <ele>1139.03</ele>
        <time>2025-12-20T08:25:09Z</time>
      </trkpt>
      <trkpt lat="45.77119" lon="3.77116">
        <ele>1140.95</ele>
        <time>2025-12-20T08:25:11Z</time>
      </trkpt>
      <trkpt lat="45.77111" lon="3.77113">
        <ele>1142.9</ele>
        <time>2025-12-20T08:25:13Z</time>
      </trkpt>
      <trkpt lat="45.77102" lon="3.7711">
        <ele>1143.53</ele>
        <time>2025-12-20T08:25:15Z</time>
      </trkpt>
      <trkpt lat="45.77089" lon="3.77106">
        <ele>1144.3</ele>
        <time>2025-12-20T08:25:18Z</time>
      </trkpt>
      <trkpt lat="45.77077" lon="3.77101">
        <ele>1144.83</ele>
        <time>2025-12-20T08:25:22Z</time>
      </trkpt>
      <trkpt lat="45.77064" lon="3.77106">
        <ele>1147.53</ele>
        <time>2025-12-20T08:25:25Z</time>
      </trkpt>
      <trkpt lat="45.77054" lon="3.77117">
        <ele>1147.95</ele>
        <time>2025-12-20T08:25:28Z</time>
      </trkpt>
      <trkpt lat="45.77044" lon="3.77129">
        <ele>1148.12</ele>
        <time>2025-12-20T08:25:31Z</time>
      </trkpt>
      <trkpt lat="45.77037" lon="3.77136">
        <ele>1148.78</ele>
        <time>2025-12-20T08:25:33Z</time>
      </trkpt>
      <trkpt lat="45.77029" lon="3.77142">
        <ele>1149.16</ele>
        <time>2025-12-20T08:25:35Z</time>
      </trkpt>
      <trkpt lat="45.77016" lon="3.77146">
        <ele>1149.01</ele>
        <time>2025-12-20T08:25:38Z</time>
      </trkpt>
      <trkpt lat="45.77004" lon="3.77146">
        <ele>1150.26</ele>
        <time>2025-12-20T08:25:41Z</time>
      </trkpt>
      <trkpt lat="45.76995" lon="3.77145">
        <ele>1152.79</ele>
        <time>2025-12-20T08:25:50Z</time>
      </trkpt>
      <trkpt lat="45.76984" lon="3.77147">
        <ele>1153.31</ele>
        <time>2025-12-20T08:25:55Z</time>
      </trkpt>
      <trkpt lat="45.76974" lon="3.77147">
        <ele>1155.56</ele>
        <time>2025-12-20T08:26:00Z</time>
      </trkpt>
      <trkpt lat="45.76963" lon="3.77149">
        <ele>1157.86</ele>
        <time>2025-12-20T08:26:04Z</time>
      </trkpt>
      <trkpt lat="45.76951" lon="3.7715">
        <ele>1158.94</ele>
        <time>2025-12-20T08:26:08Z</time>
      </trkpt>
      <trkpt lat="45.7694" lon="3.7715">
        <ele>1160.35</ele>
        <time>2025-12-20T08:26:12Z</time>
      </trkpt>
      <trkpt lat="45.76929" lon="3.77151">
        <ele>1163.27</ele>
        <time>2025-12-20T08:26:17Z</time>
      </trkpt>
      <trkpt lat="45.76919" lon="3.77154">
        <ele>1164.85</ele>
        <time>2025-12-20T08:26:20Z</time>
      </trkpt>
      <trkpt lat="45.7691" lon="3.77157">
        <ele>1164.97</ele>
        <time>2025-12-20T08:26:23Z</time>
      </trkpt>
      <trkpt lat="45.76898" lon="3.77159">
        <ele>1165.8</ele>
        <time>2025-12-20T08:26:27Z</time>
      </trkpt>
      <trkpt lat="45.76882" lon="3.77163">
        <ele>1168.69</ele>
        <time>2025-12-20T08:26:37Z</time>
      </trkpt>
      <trkpt lat="45.7687" lon="3.77166">
        <ele>1170.11</ele>
        <time>2025-12-20T08:26:44Z</time>
      </trkpt>
      <trkpt lat="45.76858" lon="3.77169">
        <ele>1170.28</ele>
        <time>2025-12-20T08:26:47Z</time>
      </trkpt>
      <trkpt lat="45.76846" lon="3.7717">
        <ele>1171.6</ele>
        <time>2025-12-20T08:26:50Z</time>
      </trkpt>
      <trkpt lat="45.76835" lon="3.7717">
        <ele>1172.68</ele>
        <time>2025-12-20T08:26:53Z</time>
      </trkpt>
      <trkpt lat="45.76824" lon="3.77169">
        <ele>1176.49</ele>
        <time>2025-12-20T08:26:57Z</time>
      </trkpt>
      <trkpt lat="45.76814" lon="3.77167">
        <ele>1178.75</ele>
        <time>2025-12-20T08:27:00Z</time>
      </trkpt>
      <trkpt lat="45.76805" lon="3.77165">
        <ele>1181.73</ele>
        <time>2025-12-20T08:27:03Z</time>
      </trkpt>
      <trkpt lat="45.76793" lon="3.77164">
        <ele>1185.52</ele>
        <time>2025-12-20T08:27:06Z</time>
      </trkpt>
      <trkpt lat="45.76782" lon="3.77166">
        <ele>1187.83</ele>
        <time>2025-12-20T08:27:09Z</time>
      </trkpt>
      <trkpt lat="45.76773" lon="3.77173">
        <ele>1188.67</ele>
        <time>2025-12-20T08:27:11Z</time>
      </trkpt>
      <trkpt lat="45.76763" lon="3.77182">
        <ele>1189.47</ele>
        <time>2025-12-20T08:27:13Z</time>
      </trkpt>
      <trkpt lat="45.76752" lon="3.77194">
        <ele>1189.93</ele>
        <time>2025-12-20T08:27:15Z</time>
      </trkpt>
      <trkpt lat="45.76742" lon="3.77205">
        <ele>1190.41</ele>
        <time>2025-12-20T08:27:17Z</time>
      </trkpt>
      <trkpt lat="45.76731" lon="3.77218">
        <ele>1190.4</ele>
        <time>2025-12-20T08:27:19Z</time>
      </trkpt>
      <trkpt lat="45.76723" lon="3.77227">
        <ele>1191.06</ele>
        <time>2025-12-20T08:27:21Z</time>
      </trkpt>
      <trkpt lat="45.76714" lon="3.77235">
        <ele>1191.3</ele>
        <time>2025-12-20T08:27:23Z</time>
      </trkpt>
      <trkpt lat="45.76705" lon="3.77242">
        <ele>1191.59</ele>
        <time>2025-12-20T08:27:25Z</time>
      </trkpt>
      <trkpt lat="45.76697" lon="3.77248">
        <ele>1192.29</ele>
        <time>2025-12-20T08:27:27Z</time>
      </trkpt>
      <trkpt lat="45.76684" lon="3.77249">
        <ele>1194.49</ele>
        <time>2025-12-20T08:27:30Z</time>
      </trkpt>
      <trkpt lat="45.76674" lon="3.77249">
        <ele>1195.68</ele>
        <time>2025-12-20T08:27:33Z</time>
      </trkpt>
      <trkpt lat="45.76663" lon="3.77251">
        <ele>1199.05</ele>
        <time>2025-12-20T08:27:37Z</time>
      </trkpt>
      <trkpt lat="45.76652" lon="3.77256">
        <ele>1203.93</ele>
        <time>2025-12-20T08:27:42Z</time>
      </trkpt>
      <trkpt lat="45.76641" lon="3.77259">
        <ele>1206.05</ele>
        <time>2025-12-20T08:27:45Z</time>
      </trkpt>
      <trkpt lat="45.7663" lon="3.7726">
        <ele>1208.1</ele>
        <time>2025-12-20T08:27:48Z</time>
      </trkpt>
      <trkpt lat="45.7662" lon="3.77259">
        <ele>1211.17</ele>
        <time>2025-12-20T08:27:52Z</time>
      </trkpt>
      <trkpt lat="45.7661" lon="3.77255">
        <ele>1214.2</ele>
        <time>2025-12-20T08:27:55Z</time>
      </trkpt>
      <trkpt lat="45.76601" lon="3.7725">
        <ele>1216.98</ele>
        <time>2025-12-20T08:27:58Z</time>
      </trkpt>
      <trkpt lat="45.76585" lon="3.77251">
        <ele>1219.32</ele>
        <time>2025-12-20T08:28:01Z</time>
      </trkpt>
      <trkpt lat="45.76575" lon="3.77258">
        <ele>1220.4</ele>
        <time>2025-12-20T08:28:03Z</time>
      </trkpt>
      <trkpt lat="45.76565" lon="3.77262">
        <ele>1220.37</ele>
        <time>2025-12-20T08:28:05Z</time>
      </trkpt>
      <trkpt lat="45.76554" lon="3.77263">
        <ele>1221.66</ele>
        <time>2025-12-20T08:28:07Z</time>
      </trkpt>
      <trkpt lat="45.76543" lon="3.7726">
        <ele>1222.3</ele>
        <time>2025-12-20T08:28:09Z</time>
      </trkpt>
      <trkpt lat="45.76531" lon="3.77255">
        <ele>1223.88</ele>
        <time>2025-12-20T08:28:11Z</time>
      </trkpt>
      <trkpt lat="45.76518" lon="3.7725">
        <ele>1226.27</ele>
        <time>2025-12-20T08:28:13Z</time>
      </trkpt>
      <trkpt lat="45.76506" lon="3.77244">
        <ele>1228.46</ele>
        <time>2025-12-20T08:28:15Z</time>
      </trkpt>
      <trkpt lat="45.76495" lon="3.77235">
        <ele>1229.84</ele>
        <time>2025-12-20T08:28:17Z</time>
      </trkpt>
      <trkpt lat="45.76487" lon="3.77229">
        <ele>1230.56</ele>
        <time>2025-12-20T08:28:19Z</time>
      </trkpt>
      <trkpt lat="45.76476" lon="3.77221">
        <ele>1232.27</ele>
        <time>2025-12-20T08:28:21Z</time>
      </trkpt>
      <trkpt lat="45.76465" lon="3.77215">
        <ele>1233.92</ele>
        <time>2025-12-20T08:28:23Z</time>
      </trkpt>
      <trkpt lat="45.76454" lon="3.77208">
        <ele>1234.58</ele>
        <time>2025-12-20T08:28:25Z</time>
      </trkpt>
      <trkpt lat="45.76444" lon="3.77204">
        <ele>1236.04</ele>
        <time>2025-12-20T08:28:29Z</time>
      </trkpt>
      <trkpt lat="45.76433" lon="3.77195">
        <ele>1236.62</ele>
        <time>2025-12-20T08:28:32Z</time>
      </trkpt>
      <trkpt lat="45.76423" lon="3.7718">
        <ele>1237.7</ele>
        <time>2025-12-20T08:28:34Z</time>
      </trkpt>
      <trkpt lat="45.76414" lon="3.77166">
        <ele>1238.33</ele>
        <time>2025-12-20T08:28:36Z</time>
      </trkpt>
      <trkpt lat="45.76406" lon="3.77156">
        <ele>1238.9</ele>
        <time>2025-12-20T08:28:38Z</time>
      </trkpt>
      <trkpt lat="45.76398" lon="3.77147">
        <ele>1239.34</ele>
        <time>2025-12-20T08:28:40Z</time>
      </trkpt>
      <trkpt lat="45.76391" lon="3.77139">
        <ele>1239.93</ele>
        <time>2025-12-20T08:28:42Z</time>
      </trkpt>
      <trkpt lat="45.76387" lon="3.77123">
        <ele>1239.69</ele>
        <time>2025-12-20T08:28:44Z</time>
      </trkpt>
      <trkpt lat="45.76384" lon="3.77097">
        <ele>1239.65</ele>
        <time>2025-12-20T08:28:46Z</time>
      </trkpt>
      <trkpt lat="45.76382" lon="3.77083">
        <ele>1239.43</ele>
        <time>2025-12-20T08:28:47Z</time>
      </trkpt>
      <trkpt lat="45.76381" lon="3.77068">
        <ele>1240.02</ele>
        <time>2025-12-20T08:28:48Z</time>
      </trkpt>
      <trkpt lat="45.76378" lon="3.77054">
        <ele>1239.61</ele>
        <time>2025-12-20T08:28:49Z</time>
      </trkpt>
      <trkpt lat="45.76375" lon="3.7704">
        <ele>1239.75</ele>
        <time>2025-12-20T08:28:50Z</time>
      </trkpt>
      <trkpt lat="45.76371" lon="3.77025">
        <ele>1239.24</ele>
        <time>2025-12-20T08:28:51Z</time>
      </trkpt>
      <trkpt lat="45.76368" lon="3.77011">
        <ele>1239.79</ele>
        <time>2025-12-20T08:28:52Z</time>
      </trkpt>
      <trkpt lat="45.76364" lon="3.76986">
        <ele>1238.72</ele>
        <time>2025-12-20T08:28:54Z</time>
      </trkpt>
      <trkpt lat="45.76364" lon="3.76972">
        <ele>1238.97</ele>
        <time>2025-12-20T08:28:55Z</time>
      </trkpt>
      <trkpt lat="45.76365" lon="3.76956">
        <ele>1239.76</ele>
        <time>2025-12-20T08:28:56Z</time>
      </trkpt>
      <trkpt lat="45.76366" lon="3.7694">
        <ele>1240.78</ele>
        <time>2025-12-20T08:28:57Z</time>
      </trkpt>
      <trkpt lat="45.76366" lon="3.76925">
        <ele>1241.18</ele>
        <time>2025-12-20T08:28:58Z</time>
      </trkpt>
      <trkpt lat="45.76366" lon="3.7691">
        <ele>1241.54</ele>
        <time>2025-12-20T08:28:59Z</time>
      </trkpt>
      <trkpt lat="45.76366" lon="3.76895">
        <ele>1241.64</ele>
        <time>2025-12-20T08:29:00Z</time>
      </trkpt>
      <trkpt lat="45.76366" lon="3.76879">
        <ele>1242.3</ele>
        <time>2025-12-20T08:29:01Z</time>
      </trkpt>
      <trkpt lat="45.76366" lon="3.76863">
        <ele>1242.83</ele>
        <time>2025-12-20T08:29:02Z</time>
      </trkpt>
      <trkpt lat="45.76365" lon="3.76848">
        <ele>1244.04</ele>
        <time>2025-12-20T08:29:03Z</time>
      </trkpt>
      <trkpt lat="45.76364" lon="3.76832">
        <ele>1243.17</ele>
        <time>2025-12-20T08:29:04Z</time>
      </trkpt>
      <trkpt lat="45.76364" lon="3.76817">
        <ele>1243.7</ele>
        <time>2025-12-20T08:29:05Z</time>
      </trkpt>
      <trkpt lat="45.76367" lon="3.76785">
        <ele>1245.1</ele>
        <time>2025-12-20T08:29:07Z</time>
      </trkpt>
      <trkpt lat="45.76368" lon="3.76768">
        <ele>1246.62</ele>
        <time>2025-12-20T08:29:08Z</time>
      </trkpt>
      <trkpt lat="45.76368" lon="3.76751">
        <ele>1246.75</ele>
        <time>2025-12-20T08:29:09Z</time>
      </trkpt>
      <trkpt lat="45.76368" lon="3.76734">
        <ele>1247.77</ele>
        <time>2025-12-20T08:29:10Z</time>
      </trkpt>
      <trkpt lat="45.76367" lon="3.76715">
        <ele>1247.18</ele>
        <time>2025-12-20T08:29:11Z</time>
      </trkpt>
      <trkpt lat="45.76366" lon="3.76697">
        <ele>1247.84</ele>
        <time>2025-12-20T08:29:12Z</time>
      </trkpt>
      <trkpt lat="45.76366" lon="3.76679">
        <ele>1248.66</ele>
        <time>2025-12-20T08:29:13Z</time>
      </trkpt>
      <trkpt lat="45.76366" lon="3.7664">
        <ele>1249.28</ele>
        <time>2025-12-20T08:29:15Z</time>
      </trkpt>
      <trkpt lat="45.76366" lon="3.76622">
        <ele>1250.27</ele>
        <time>2025-12-20T08:29:16Z</time>
      </trkpt>
      <trkpt lat="45.76366" lon="3.76605">
        <ele>1250.32</ele>
        <time>2025-12-20T08:29:17Z</time>
      </trkpt>
      <trkpt lat="45.76367" lon="3.76588">
        <ele>1250.89</ele>
        <time>2025-12-20T08:29:18Z</time>
      </trkpt>
      <trkpt lat="45.76369" lon="3.7657">
        <ele>1251.77</ele>
        <time>2025-12-20T08:29:19Z</time>
      </trkpt>
      <trkpt lat="45.7637" lon="3.76552">
        <ele>1251.22</ele>
        <time>2025-12-20T08:29:20Z</time>
      </trkpt>
      <trkpt lat="45.76371" lon="3.76535">
        <ele>1252.25</ele>
        <time>2025-12-20T08:29:21Z</time>
      </trkpt>
      <trkpt lat="45.7637" lon="3.76517">
        <ele>1253.96</ele>
        <time>2025-12-20T08:29:22Z</time>
      </trkpt>
      <trkpt lat="45.76368" lon="3.76499">
        <ele>1253.61</ele>
        <time>2025-12-20T08:29:23Z</time>
      </trkpt>
      <trkpt lat="45.76365" lon="3.76481">
        <ele>1254.04</ele>
        <time>2025-12-20T08:29:24Z</time>
      </trkpt>
      <trkpt lat="45.76359" lon="3.76444">
        <ele>1253.78</ele>
        <time>2025-12-20T08:29:26Z</time>
      </trkpt>
      <trkpt lat="45.76356" lon="3.76427">
        <ele>1252.93</ele>
        <time>2025-12-20T08:29:27Z</time>
      </trkpt>
      <trkpt lat="45.76354" lon="3.76411">
        <ele>1252.58</ele>
        <time>2025-12-20T08:29:28Z</time>
      </trkpt>
      <trkpt lat="45.76351" lon="3.76395">
        <ele>1252.87</ele>
        <time>2025-12-20T08:29:29Z</time>
      </trkpt>
      <trkpt lat="45.76346" lon="3.76371">
        <ele>1253.37</ele>
        <time>2025-12-20T08:29:31Z</time>
      </trkpt>
      <trkpt lat="45.76343" lon="3.76359">
        <ele>1252.71</ele>
        <time>2025-12-20T08:29:32Z</time>
      </trkpt>
      <trkpt lat="45.76338" lon="3.76347">
        <ele>1252.71</ele>
        <time>2025-12-20T08:29:33Z</time>
      </trkpt>
      <trkpt lat="45.76326" lon="3.76318">
        <ele>1252.34</ele>
        <time>2025-12-20T08:29:35Z</time>
      </trkpt>
      <trkpt lat="45.76318" lon="3.76306">
        <ele>1252</ele>
        <time>2025-12-20T08:29:36Z</time>
      </trkpt>
      <trkpt lat="45.7631" lon="3.76294">
        <ele>1251.55</ele>
        <time>2025-12-20T08:29:37Z</time>
      </trkpt>
      <trkpt lat="45.763" lon="3.76286">
        <ele>1250.48</ele>
        <time>2025-12-20T08:29:38Z</time>
      </trkpt>
      <trkpt lat="45.7629" lon="3.76278">
        <ele>1249.88</ele>
        <time>2025-12-20T08:29:39Z</time>
      </trkpt>
      <trkpt lat="45.76279" lon="3.7627">
        <ele>1249.46</ele>
        <time>2025-12-20T08:29:40Z</time>
      </trkpt>
      <trkpt lat="45.7627" lon="3.76261">
        <ele>1248.43</ele>
        <time>2025-12-20T08:29:41Z</time>
      </trkpt>
      <trkpt lat="45.76262" lon="3.76253">
        <ele>1248.41</ele>
        <time>2025-12-20T08:29:42Z</time>
      </trkpt>
      <trkpt lat="45.76255" lon="3.76245">
        <ele>1247.74</ele>
        <time>2025-12-20T08:29:43Z</time>
      </trkpt>
      <trkpt lat="45.76245" lon="3.76228">
        <ele>1246.01</ele>
        <time>2025-12-20T08:29:45Z</time>
      </trkpt>
      <trkpt lat="45.76239" lon="3.76215">
        <ele>1245.56</ele>
        <time>2025-12-20T08:29:47Z</time>
      </trkpt>
      <trkpt lat="45.76235" lon="3.76199">
        <ele>1245.62</ele>
        <time>2025-12-20T08:29:49Z</time>
      </trkpt>
      <trkpt lat="45.76228" lon="3.76181">
        <ele>1245.7</ele>
        <time>2025-12-20T08:29:51Z</time>
      </trkpt>
      <trkpt lat="45.76218" lon="3.76161">
        <ele>1246.07</ele>
        <time>2025-12-20T08:29:53Z</time>
      </trkpt>
      <trkpt lat="45.76212" lon="3.76151">
        <ele>1245.64</ele>
        <time>2025-12-20T08:29:54Z</time>
      </trkpt>
      <trkpt lat="45.76207" lon="3.76141">
        <ele>1245.68</ele>
        <time>2025-12-20T08:29:55Z</time>
      </trkpt>
      <trkpt lat="45.76197" lon="3.76119">
        <ele>1246.11</ele>
        <time>2025-12-20T08:29:57Z</time>
      </trkpt>
      <trkpt lat="45.76192" lon="3.76107">
        <ele>1244.57</ele>
        <time>2025-12-20T08:29:58Z</time>
      </trkpt>
      <trkpt lat="45.76188" lon="3.76093">
        <ele>1245.24</ele>
        <time>2025-12-20T08:29:59Z</time>
      </trkpt>
      <trkpt lat="45.76183" lon="3.76079">
        <ele>1245.92</ele>
        <time>2025-12-20T08:30:00Z</time>
      </trkpt>
      <trkpt lat="45.76177" lon="3.76066">
        <ele>1246.03</ele>
        <time>2025-12-20T08:30:01Z</time>
      </trkpt>
      <trkpt lat="45.76172" lon="3.7605">
        <ele>1245.38</ele>
        <time>2025-12-20T08:30:02Z</time>
      </trkpt>
      <trkpt lat="45.76167" lon="3.76038">
        <ele>1246.65</ele>
        <time>2025-12-20T08:30:03Z</time>
      </trkpt>
      <trkpt lat="45.76159" lon="3.76027">
        <ele>1245.55</ele>
        <time>2025-12-20T08:30:04Z</time>
      </trkpt>
      <trkpt lat="45.76141" lon="3.76032">
        <ele>1247.05</ele>
        <time>2025-12-20T08:30:06Z</time>
      </trkpt>
      <trkpt lat="45.76131" lon="3.7603">
        <ele>1244.36</ele>
        <time>2025-12-20T08:30:07Z</time>
      </trkpt>
      <trkpt lat="45.76117" lon="3.76029">
        <ele>1243.64</ele>
        <time>2025-12-20T08:30:08Z</time>
      </trkpt>
      <trkpt lat="45.761" lon="3.76026">
        <ele>1245.42</ele>
        <time>2025-12-20T08:30:10Z</time>
      </trkpt>
      <trkpt lat="45.76084" lon="3.76023">
        <ele>1246.93</ele>
        <time>2025-12-20T08:30:12Z</time>
      </trkpt>
      <trkpt lat="45.76069" lon="3.76019">
        <ele>1247.73</ele>
        <time>2025-12-20T08:30:14Z</time>
      </trkpt>
      <trkpt lat="45.76056" lon="3.76013">
        <ele>1247.62</ele>
        <time>2025-12-20T08:30:16Z</time>
      </trkpt>
      <trkpt lat="45.76042" lon="3.76003">
        <ele>1247.38</ele>
        <time>2025-12-20T08:30:18Z</time>
      </trkpt>
      <trkpt lat="45.7603" lon="3.75986">
        <ele>1247.29</ele>
        <time>2025-12-20T08:30:20Z</time>
      </trkpt>
      <trkpt lat="45.76026" lon="3.75974">
        <ele>1247.94</ele>
        <time>2025-12-20T08:30:21Z</time>
      </trkpt>
      <trkpt lat="45.7602" lon="3.7596">
        <ele>1248.83</ele>
        <time>2025-12-20T08:30:22Z</time>
      </trkpt>
      <trkpt lat="45.76016" lon="3.75946">
        <ele>1250.09</ele>
        <time>2025-12-20T08:30:23Z</time>
      </trkpt>
      <trkpt lat="45.76013" lon="3.75932">
        <ele>1250.23</ele>
        <time>2025-12-20T08:30:24Z</time>
      </trkpt>
      <trkpt lat="45.76012" lon="3.75918">
        <ele>1251.76</ele>
        <time>2025-12-20T08:30:25Z</time>
      </trkpt>
      <trkpt lat="45.76014" lon="3.75894">
        <ele>1253.41</ele>
        <time>2025-12-20T08:30:27Z</time>
      </trkpt>
      <trkpt lat="45.76013" lon="3.75874">
        <ele>1254.69</ele>
        <time>2025-12-20T08:30:29Z</time>
      </trkpt>
      <trkpt lat="45.76013" lon="3.75855">
        <ele>1256.49</ele>
        <time>2025-12-20T08:30:31Z</time>
      </trkpt>
      <trkpt lat="45.76013" lon="3.75837">
        <ele>1256.99</ele>
        <time>2025-12-20T08:30:33Z</time>
      </trkpt>
      <trkpt lat="45.76013" lon="3.75818">
        <ele>1258.02</ele>
        <time>2025-12-20T08:30:35Z</time>
      </trkpt>
      <trkpt lat="45.76013" lon="3.75797">
        <ele>1258.75</ele>
        <time>2025-12-20T08:30:37Z</time>
      </trkpt>
      <trkpt lat="45.76014" lon="3.75776">
        <ele>1259.68</ele>
        <time>2025-12-20T08:30:39Z</time>
      </trkpt>
      <trkpt lat="45.76017" lon="3.75755">
        <ele>1261.03</ele>
        <time>2025-12-20T08:30:41Z</time>
      </trkpt>
      <trkpt lat="45.76019" lon="3.75732">
        <ele>1262.4</ele>
        <time>2025-12-20T08:30:43Z</time>
      </trkpt>
      <trkpt lat="45.7602" lon="3.75709">
        <ele>1263.73</ele>
        <time>2025-12-20T08:30:45Z</time>
      </trkpt>
      <trkpt lat="45.76022" lon="3.75685">
        <ele>1265.74</ele>
        <time>2025-12-20T08:30:47Z</time>
      </trkpt>
      <trkpt lat="45.76023" lon="3.75662">
        <ele>1266.31</ele>
        <time>2025-12-20T08:30:49Z</time>
      </trkpt>
      <trkpt lat="45.76026" lon="3.75637">
        <ele>1267.61</ele>
        <time>2025-12-20T08:30:51Z</time>
      </trkpt>
      <trkpt lat="45.76027" lon="3.75624">
        <ele>1268.39</ele>
        <time>2025-12-20T08:30:52Z</time>
      </trkpt>
      <trkpt lat="45.76029" lon="3.75601">
        <ele>1270.87</ele>
        <time>2025-12-20T08:30:54Z</time>
      </trkpt>
      <trkpt lat="45.76033" lon="3.75578">
        <ele>1271.63</ele>
        <time>2025-12-20T08:30:56Z</time>
      </trkpt>
      <trkpt lat="45.76038" lon="3.75557">
        <ele>1270.77</ele>
        <time>2025-12-20T08:30:58Z</time>
      </trkpt>
      <trkpt lat="45.76046" lon="3.75538">
        <ele>1271.05</ele>
        <time>2025-12-20T08:31:00Z</time>
      </trkpt>
      <trkpt lat="45.76058" lon="3.75522">
        <ele>1271.86</ele>
        <time>2025-12-20T08:31:02Z</time>
      </trkpt>
      <trkpt lat="45.7607" lon="3.75507">
        <ele>1271.78</ele>
        <time>2025-12-20T08:31:04Z</time>
      </trkpt>
      <trkpt lat="45.76085" lon="3.75495">
        <ele>1272.7</ele>
        <time>2025-12-20T08:31:06Z</time>
      </trkpt>
      <trkpt lat="45.76098" lon="3.75485">
        <ele>1273.26</ele>
        <time>2025-12-20T08:31:08Z</time>
      </trkpt>
      <trkpt lat="45.76112" lon="3.75475">
        <ele>1273.35</ele>
        <time>2025-12-20T08:31:10Z</time>
      </trkpt>
      <trkpt lat="45.76127" lon="3.75464">
        <ele>1274.61</ele>
        <time>2025-12-20T08:31:12Z</time>
      </trkpt>
      <trkpt lat="45.76141" lon="3.75455">
        <ele>1275.08</ele>
        <time>2025-12-20T08:31:14Z</time>
      </trkpt>
      <trkpt lat="45.76155" lon="3.75448">
        <ele>1276.87</ele>
        <time>2025-12-20T08:31:16Z</time>
      </trkpt>
      <trkpt lat="45.76168" lon="3.75444">
        <ele>1278.17</ele>
        <time>2025-12-20T08:31:18Z</time>
      </trkpt>
      <trkpt lat="45.76179" lon="3.75438">
        <ele>1279.81</ele>
        <time>2025-12-20T08:31:20Z</time>
      </trkpt>
      <trkpt lat="45.76194" lon="3.75431">
        <ele>1282.33</ele>
        <time>2025-12-20T08:31:22Z</time>
      </trkpt>
      <trkpt lat="45.76204" lon="3.75422">
        <ele>1282.95</ele>
        <time>2025-12-20T08:31:23Z</time>
      </trkpt>
      <trkpt lat="45.76211" lon="3.75414">
        <ele>1283.63</ele>
        <time>2025-12-20T08:31:24Z</time>
      </trkpt>
      <trkpt lat="45.76223" lon="3.75395">
        <ele>1285.21</ele>
        <time>2025-12-20T08:31:26Z</time>
      </trkpt>
      <trkpt lat="45.7623" lon="3.75386">
        <ele>1286.08</ele>
        <time>2025-12-20T08:31:27Z</time>
      </trkpt>
      <trkpt lat="45.76241" lon="3.75367">
        <ele>1286.99</ele>
        <time>2025-12-20T08:31:29Z</time>
      </trkpt>
      <trkpt lat="45.76251" lon="3.75346">
        <ele>1288.01</ele>
        <time>2025-12-20T08:31:31Z</time>
      </trkpt>
      <trkpt lat="45.7626" lon="3.75327">
        <ele>1289.74</ele>
        <time>2025-12-20T08:31:33Z</time>
      </trkpt>
      <trkpt lat="45.76271" lon="3.75306">
        <ele>1291.25</ele>
        <time>2025-12-20T08:31:35Z</time>
      </trkpt>
      <trkpt lat="45.76276" lon="3.75295">
        <ele>1291.49</ele>
        <time>2025-12-20T08:31:36Z</time>
      </trkpt>
      <trkpt lat="45.76281" lon="3.75284">
        <ele>1292.14</ele>
        <time>2025-12-20T08:31:37Z</time>
      </trkpt>
      <trkpt lat="45.76287" lon="3.75272">
        <ele>1292.94</ele>
        <time>2025-12-20T08:31:38Z</time>
      </trkpt>
      <trkpt lat="45.76292" lon="3.75261">
        <ele>1293.91</ele>
        <time>2025-12-20T08:31:39Z</time>
      </trkpt>
      <trkpt lat="45.76297" lon="3.75249">
        <ele>1294.52</ele>
        <time>2025-12-20T08:31:40Z</time>
      </trkpt>
      <trkpt lat="45.76302" lon="3.75238">
        <ele>1295.31</ele>
        <time>2025-12-20T08:31:41Z</time>
      </trkpt>
      <trkpt lat="45.76311" lon="3.75218">
        <ele>1295.66</ele>
        <time>2025-12-20T08:31:43Z</time>
      </trkpt>
      <trkpt lat="45.76319" lon="3.75198">
        <ele>1296.68</ele>
        <time>2025-12-20T08:31:45Z</time>
      </trkpt>
      <trkpt lat="45.76328" lon="3.7518">
        <ele>1296.69</ele>
        <time>2025-12-20T08:31:47Z</time>
      </trkpt>
      <trkpt lat="45.76335" lon="3.7516">
        <ele>1297.35</ele>
        <time>2025-12-20T08:31:49Z</time>
      </trkpt>
      <trkpt lat="45.76342" lon="3.75139">
        <ele>1298.37</ele>
        <time>2025-12-20T08:31:51Z</time>
      </trkpt>
      <trkpt lat="45.76346" lon="3.75128">
        <ele>1298.98</ele>
        <time>2025-12-20T08:31:52Z</time>
      </trkpt>
      <trkpt lat="45.76353" lon="3.75105">
        <ele>1299.36</ele>
        <time>2025-12-20T08:31:54Z</time>
      </trkpt>
      <trkpt lat="45.76359" lon="3.75082">
        <ele>1300.26</ele>
        <time>2025-12-20T08:31:56Z</time>
      </trkpt>
      <trkpt lat="45.76364" lon="3.75058">
        <ele>1300.3</ele>
        <time>2025-12-20T08:31:58Z</time>
      </trkpt>
      <trkpt lat="45.7637" lon="3.75034">
        <ele>1301.64</ele>
        <time>2025-12-20T08:32:00Z</time>
      </trkpt>
      <trkpt lat="45.76372" lon="3.75022">
        <ele>1302.01</ele>
        <time>2025-12-20T08:32:01Z</time>
      </trkpt>
      <trkpt lat="45.76377" lon="3.75">
        <ele>1303.04</ele>
        <time>2025-12-20T08:32:03Z</time>
      </trkpt>
      <trkpt lat="45.76383" lon="3.74978">
        <ele>1304.21</ele>
        <time>2025-12-20T08:32:05Z</time>
      </trkpt>
      <trkpt lat="45.76388" lon="3.74955">
        <ele>1305.58</ele>
        <time>2025-12-20T08:32:07Z</time>
      </trkpt>
      <trkpt lat="45.76394" lon="3.74932">
        <ele>1306.81</ele>
        <time>2025-12-20T08:32:09Z</time>
      </trkpt>
      <trkpt lat="45.76398" lon="3.74907">
        <ele>1306.93</ele>
        <time>2025-12-20T08:32:11Z</time>
      </trkpt>
      <trkpt lat="45.76402" lon="3.74882">
        <ele>1306.37</ele>
        <time>2025-12-20T08:32:13Z</time>
      </trkpt>
      <trkpt lat="45.76404" lon="3.74869">
        <ele>1306.19</ele>
        <time>2025-12-20T08:32:14Z</time>
      </trkpt>
      <trkpt lat="45.76406" lon="3.74856">
        <ele>1306.01</ele>
        <time>2025-12-20T08:32:15Z</time>
      </trkpt>
      <trkpt lat="45.76408" lon="3.74842">
        <ele>1305.84</ele>
        <time>2025-12-20T08:32:16Z</time>
      </trkpt>
      <trkpt lat="45.7641" lon="3.74828">
        <ele>1306.25</ele>
        <time>2025-12-20T08:32:17Z</time>
      </trkpt>
      <trkpt lat="45.76413" lon="3.74815">
        <ele>1306.08</ele>
        <time>2025-12-20T08:32:18Z</time>
      </trkpt>
      <trkpt lat="45.76415" lon="3.74802">
        <ele>1306.46</ele>
        <time>2025-12-20T08:32:19Z</time>
      </trkpt>
      <trkpt lat="45.76418" lon="3.74781">
        <ele>1305.34</ele>
        <time>2025-12-20T08:32:21Z</time>
      </trkpt>
      <trkpt lat="45.7642" lon="3.74757">
        <ele>1305.92</ele>
        <time>2025-12-20T08:32:23Z</time>
      </trkpt>
      <trkpt lat="45.7642" lon="3.74731">
        <ele>1306.34</ele>
        <time>2025-12-20T08:32:25Z</time>
      </trkpt>
      <trkpt lat="45.76415" lon="3.74712">
        <ele>1306.74</ele>
        <time>2025-12-20T08:32:27Z</time>
      </trkpt>
      <trkpt lat="45.76405" lon="3.74699">
        <ele>1306.67</ele>
        <time>2025-12-20T08:32:29Z</time>
      </trkpt>
      <trkpt lat="45.76396" lon="3.74683">
        <ele>1306.76</ele>
        <time>2025-12-20T08:32:31Z</time>
      </trkpt>
      <trkpt lat="45.76389" lon="3.74671">
        <ele>1306.94</ele>
        <time>2025-12-20T08:32:33Z</time>
      </trkpt>
      <trkpt lat="45.76381" lon="3.74656">
        <ele>1307.44</ele>
        <time>2025-12-20T08:32:36Z</time>
      </trkpt>
      <trkpt lat="45.76373" lon="3.74647">
        <ele>1307.86</ele>
        <time>2025-12-20T08:32:38Z</time>
      </trkpt>
      <trkpt lat="45.76365" lon="3.74636">
        <ele>1308.06</ele>
        <time>2025-12-20T08:32:40Z</time>
      </trkpt>
      <trkpt lat="45.76357" lon="3.74625">
        <ele>1308.32</ele>
        <time>2025-12-20T08:32:42Z</time>
      </trkpt>
      <trkpt lat="45.76349" lon="3.74613">
        <ele>1308.82</ele>
        <time>2025-12-20T08:32:44Z</time>
      </trkpt>
      <trkpt lat="45.7634" lon="3.74602">
        <ele>1309.79</ele>
        <time>2025-12-20T08:32:46Z</time>
      </trkpt>
      <trkpt lat="45.76333" lon="3.74591">
        <ele>1310.48</ele>
        <time>2025-12-20T08:32:48Z</time>
      </trkpt>
      <trkpt lat="45.76325" lon="3.74581">
        <ele>1311.37</ele>
        <time>2025-12-20T08:32:50Z</time>
      </trkpt>
      <trkpt lat="45.76318" lon="3.7457">
        <ele>1312.03</ele>
        <time>2025-12-20T08:32:52Z</time>
      </trkpt>
      <trkpt lat="45.7631" lon="3.74559">
        <ele>1312.76</ele>
        <time>2025-12-20T08:32:54Z</time>
      </trkpt>
      <trkpt lat="45.76302" lon="3.7455">
        <ele>1313.03</ele>
        <time>2025-12-20T08:32:56Z</time>
      </trkpt>
      <trkpt lat="45.76294" lon="3.74539">
        <ele>1313.33</ele>
        <time>2025-12-20T08:32:58Z</time>
      </trkpt>
      <trkpt lat="45.76286" lon="3.74526">
        <ele>1313.79</ele>
        <time>2025-12-20T08:33:00Z</time>
      </trkpt>
      <trkpt lat="45.76277" lon="3.74514">
        <ele>1313.99</ele>
        <time>2025-12-20T08:33:02Z</time>
      </trkpt>
      <trkpt lat="45.76271" lon="3.74501">
        <ele>1313.84</ele>
        <time>2025-12-20T08:33:04Z</time>
      </trkpt>
      <trkpt lat="45.76265" lon="3.74488">
        <ele>1313.7</ele>
        <time>2025-12-20T08:33:06Z</time>
      </trkpt>
      <trkpt lat="45.76258" lon="3.74475">
        <ele>1313.46</ele>
        <time>2025-12-20T08:33:08Z</time>
      </trkpt>
      <trkpt lat="45.76249" lon="3.74461">
        <ele>1313.28</ele>
        <time>2025-12-20T08:33:10Z</time>
      </trkpt>
      <trkpt lat="45.76242" lon="3.74445">
        <ele>1313.4</ele>
        <time>2025-12-20T08:33:12Z</time>
      </trkpt>
      <trkpt lat="45.76238" lon="3.74433">
        <ele>1313.46</ele>
        <time>2025-12-20T08:33:14Z</time>
      </trkpt>
      <trkpt lat="45.76231" lon="3.74421">
        <ele>1313.48</ele>
        <time>2025-12-20T08:33:17Z</time>
      </trkpt>
      <trkpt lat="45.76223" lon="3.74407">
        <ele>1313.41</ele>
        <time>2025-12-20T08:33:20Z</time>
      </trkpt>
      <trkpt lat="45.76215" lon="3.74394">
        <ele>1313.62</ele>
        <time>2025-12-20T08:33:23Z</time>
      </trkpt>
      <trkpt lat="45.76211" lon="3.7438">
        <ele>1312.92</ele>
        <time>2025-12-20T08:33:26Z</time>
      </trkpt>
      <trkpt lat="45.76202" lon="3.7437">
        <ele>1312.23</ele>
        <time>2025-12-20T08:33:29Z</time>
      </trkpt>
      <trkpt lat="45.76198" lon="3.74358">
        <ele>1311.62</ele>
        <time>2025-12-20T08:33:31Z</time>
      </trkpt>
      <trkpt lat="45.76191" lon="3.74346">
        <ele>1311.06</ele>
        <time>2025-12-20T08:33:33Z</time>
      </trkpt>
      <trkpt lat="45.76183" lon="3.74333">
        <ele>1309.76</ele>
        <time>2025-12-20T08:33:36Z</time>
      </trkpt>
      <trkpt lat="45.76175" lon="3.7432">
        <ele>1308.94</ele>
        <time>2025-12-20T08:33:39Z</time>
      </trkpt>
      <trkpt lat="45.76167" lon="3.74307">
        <ele>1308.75</ele>
        <time>2025-12-20T08:33:42Z</time>
      </trkpt>
      <trkpt lat="45.7616" lon="3.74297">
        <ele>1307.97</ele>
        <time>2025-12-20T08:33:45Z</time>
      </trkpt>
      <trkpt lat="45.76153" lon="3.74285">
        <ele>1306.4</ele>
        <time>2025-12-20T08:33:49Z</time>
      </trkpt>
      <trkpt lat="45.76148" lon="3.7427">
        <ele>1304.94</ele>
        <time>2025-12-20T08:33:52Z</time>
      </trkpt>
      <trkpt lat="45.76142" lon="3.74252">
        <ele>1303.38</ele>
        <time>2025-12-20T08:33:54Z</time>
      </trkpt>
      <trkpt lat="45.76138" lon="3.74233">
        <ele>1302.37</ele>
        <time>2025-12-20T08:33:56Z</time>
      </trkpt>
      <trkpt lat="45.76134" lon="3.74219">
        <ele>1300.99</ele>
        <time>2025-12-20T08:33:58Z</time>
      </trkpt>
      <trkpt lat="45.76129" lon="3.74206">
        <ele>1299.88</ele>
        <time>2025-12-20T08:34:00Z</time>
      </trkpt>
      <trkpt lat="45.7612" lon="3.74192">
        <ele>1298.52</ele>
        <time>2025-12-20T08:34:02Z</time>
      </trkpt>
      <trkpt lat="45.76112" lon="3.74186">
        <ele>1297.77</ele>
        <time>2025-12-20T08:34:04Z</time>
      </trkpt>
      <trkpt lat="45.76101" lon="3.74182">
        <ele>1295.15</ele>
        <time>2025-12-20T08:34:07Z</time>
      </trkpt>
      <trkpt lat="45.76092" lon="3.74177">
        <ele>1294.32</ele>
        <time>2025-12-20T08:34:09Z</time>
      </trkpt>
      <trkpt lat="45.76081" lon="3.74173">
        <ele>1292.45</ele>
        <time>2025-12-20T08:34:13Z</time>
      </trkpt>
      <trkpt lat="45.76071" lon="3.74169">
        <ele>1291.17</ele>
        <time>2025-12-20T08:34:16Z</time>
      </trkpt>
      <trkpt lat="45.76059" lon="3.74163">
        <ele>1289.54</ele>
        <time>2025-12-20T08:34:19Z</time>
      </trkpt>
      <trkpt lat="45.76049" lon="3.74156">
        <ele>1288.27</ele>
        <time>2025-12-20T08:34:22Z</time>
      </trkpt>
      <trkpt lat="45.76039" lon="3.7415">
        <ele>1285.99</ele>
        <time>2025-12-20T08:34:25Z</time>
      </trkpt>
      <trkpt lat="45.76031" lon="3.74145">
        <ele>1284.93</ele>
        <time>2025-12-20T08:34:28Z</time>
      </trkpt>
      <trkpt lat="45.76021" lon="3.74138">
        <ele>1284.04</ele>
        <time>2025-12-20T08:34:31Z</time>
      </trkpt>
      <trkpt lat="45.76011" lon="3.74132">
        <ele>1282.04</ele>
        <time>2025-12-20T08:34:34Z</time>
      </trkpt>
      <trkpt lat="45.76003" lon="3.74128">
        <ele>1280.07</ele>
        <time>2025-12-20T08:34:37Z</time>
      </trkpt>
      <trkpt lat="45.75992" lon="3.74124">
        <ele>1277.69</ele>
        <time>2025-12-20T08:34:42Z</time>
      </trkpt>
      <trkpt lat="45.75981" lon="3.74122">
        <ele>1276.29</ele>
        <time>2025-12-20T08:34:46Z</time>
      </trkpt>
      <trkpt lat="45.7597" lon="3.74125">
        <ele>1273.31</ele>
        <time>2025-12-20T08:34:51Z</time>
      </trkpt>
      <trkpt lat="45.7596" lon="3.74127">
        <ele>1271.5</ele>
        <time>2025-12-20T08:34:55Z</time>
      </trkpt>
      <trkpt lat="45.75949" lon="3.74125">
        <ele>1268.95</ele>
        <time>2025-12-20T08:34:58Z</time>
      </trkpt>
      <trkpt lat="45.7594" lon="3.74115">
        <ele>1267.6</ele>
        <time>2025-12-20T08:35:01Z</time>
      </trkpt>
      <trkpt lat="45.75931" lon="3.74101">
        <ele>1266.92</ele>
        <time>2025-12-20T08:35:03Z</time>
      </trkpt>
      <trkpt lat="45.75923" lon="3.74091">
        <ele>1264.84</ele>
        <time>2025-12-20T08:35:05Z</time>
      </trkpt>
      <trkpt lat="45.75915" lon="3.7408">
        <ele>1263.69</ele>
        <time>2025-12-20T08:35:08Z</time>
      </trkpt>
      <trkpt lat="45.75906" lon="3.74067">
        <ele>1261.7</ele>
        <time>2025-12-20T08:35:11Z</time>
      </trkpt>
      <trkpt lat="45.75898" lon="3.74054">
        <ele>1258.8</ele>
        <time>2025-12-20T08:35:14Z</time>
      </trkpt>
      <trkpt lat="45.75889" lon="3.74041">
        <ele>1257.15</ele>
        <time>2025-12-20T08:35:17Z</time>
      </trkpt>
      <trkpt lat="45.7588" lon="3.7403">
        <ele>1255.71</ele>
        <time>2025-12-20T08:35:19Z</time>
      </trkpt>
      <trkpt lat="45.75869" lon="3.74013">
        <ele>1255.13</ele>
        <time>2025-12-20T08:35:21Z</time>
      </trkpt>
      <trkpt lat="45.75862" lon="3.73999">
        <ele>1253.42</ele>
        <time>2025-12-20T08:35:23Z</time>
      </trkpt>
      <trkpt lat="45.75858" lon="3.73979">
        <ele>1251.59</ele>
        <time>2025-12-20T08:35:25Z</time>
      </trkpt>
      <trkpt lat="45.75855" lon="3.73961">
        <ele>1250.18</ele>
        <time>2025-12-20T08:35:27Z</time>
      </trkpt>
      <trkpt lat="45.75853" lon="3.73946">
        <ele>1248.82</ele>
        <time>2025-12-20T08:35:29Z</time>
      </trkpt>
      <trkpt lat="45.75854" lon="3.73933">
        <ele>1248.09</ele>
        <time>2025-12-20T08:35:31Z</time>
      </trkpt>
      <trkpt lat="45.75859" lon="3.73915">
        <ele>1246.24</ele>
        <time>2025-12-20T08:35:34Z</time>
      </trkpt>
      <trkpt lat="45.75862" lon="3.739">
        <ele>1245.49</ele>
        <time>2025-12-20T08:35:37Z</time>
      </trkpt>
      <trkpt lat="45.75866" lon="3.73883">
        <ele>1244.08</ele>
        <time>2025-12-20T08:35:41Z</time>
      </trkpt>
      <trkpt lat="45.7586" lon="3.73874">
        <ele>1242.04</ele>
        <time>2025-12-20T08:35:44Z</time>
      </trkpt>
      <trkpt lat="45.7585" lon="3.7387">
        <ele>1239.66</ele>
        <time>2025-12-20T08:35:49Z</time>
      </trkpt>
      <trkpt lat="45.7584" lon="3.73869">
        <ele>1236.56</ele>
        <time>2025-12-20T08:35:54Z</time>
      </trkpt>
      <trkpt lat="45.75831" lon="3.73864">
        <ele>1235.36</ele>
        <time>2025-12-20T08:36:57Z</time>
      </trkpt>
      <trkpt lat="45.75819" lon="3.73873">
        <ele>1234.93</ele>
        <time>2025-12-20T08:37:01Z</time>
      </trkpt>
      <trkpt lat="45.75806" lon="3.7388">
        <ele>1233.8</ele>
        <time>2025-12-20T08:37:03Z</time>
      </trkpt>
      <trkpt lat="45.75796" lon="3.73886">
        <ele>1232.69</ele>
        <time>2025-12-20T08:37:05Z</time>
      </trkpt>
      <trkpt lat="45.75786" lon="3.73893">
        <ele>1231.07</ele>
        <time>2025-12-20T08:37:08Z</time>
      </trkpt>
      <trkpt lat="45.75776" lon="3.73896">
        <ele>1230.13</ele>
        <time>2025-12-20T08:37:11Z</time>
      </trkpt>
      <trkpt lat="45.75763" lon="3.739">
        <ele>1228.52</ele>
        <time>2025-12-20T08:37:14Z</time>
      </trkpt>
      <trkpt lat="45.75753" lon="3.73901">
        <ele>1227.86</ele>
        <time>2025-12-20T08:37:16Z</time>
      </trkpt>
      <trkpt lat="45.75742" lon="3.73904">
        <ele>1226.45</ele>
        <time>2025-12-20T08:37:18Z</time>
      </trkpt>
      <trkpt lat="45.7573" lon="3.73909">
        <ele>1225.93</ele>
        <time>2025-12-20T08:37:20Z</time>
      </trkpt>
      <trkpt lat="45.7572" lon="3.73917">
        <ele>1225.3</ele>
        <time>2025-12-20T08:37:22Z</time>
      </trkpt>
      <trkpt lat="45.7571" lon="3.73926">
        <ele>1224.1</ele>
        <time>2025-12-20T08:37:24Z</time>
      </trkpt>
      <trkpt lat="45.75701" lon="3.73934">
        <ele>1223.43</ele>
        <time>2025-12-20T08:37:26Z</time>
      </trkpt>
      <trkpt lat="45.75693" lon="3.73941">
        <ele>1222.71</ele>
        <time>2025-12-20T08:37:28Z</time>
      </trkpt>
      <trkpt lat="45.75682" lon="3.73953">
        <ele>1221.64</ele>
        <time>2025-12-20T08:37:31Z</time>
      </trkpt>
      <trkpt lat="45.75675" lon="3.73962">
        <ele>1220.46</ele>
        <time>2025-12-20T08:37:33Z</time>
      </trkpt>
      <trkpt lat="45.75668" lon="3.7397">
        <ele>1218.5</ele>
        <time>2025-12-20T08:37:35Z</time>
      </trkpt>
      <trkpt lat="45.7566" lon="3.73981">
        <ele>1217.19</ele>
        <time>2025-12-20T08:37:37Z</time>
      </trkpt>
      <trkpt lat="45.7565" lon="3.73991">
        <ele>1215.39</ele>
        <time>2025-12-20T08:37:40Z</time>
      </trkpt>
      <trkpt lat="45.75638" lon="3.73994">
        <ele>1213.57</ele>
        <time>2025-12-20T08:37:43Z</time>
      </trkpt>
      <trkpt lat="45.75629" lon="3.73986">
        <ele>1211.95</ele>
        <time>2025-12-20T08:37:45Z</time>
      </trkpt>
      <trkpt lat="45.75619" lon="3.73978">
        <ele>1210.11</ele>
        <time>2025-12-20T08:37:47Z</time>
      </trkpt>
      <trkpt lat="45.75607" lon="3.73969">
        <ele>1208.35</ele>
        <time>2025-12-20T08:37:49Z</time>
      </trkpt>
      <trkpt lat="45.75595" lon="3.73961">
        <ele>1206.34</ele>
        <time>2025-12-20T08:37:51Z</time>
      </trkpt>
      <trkpt lat="45.75582" lon="3.73952">
        <ele>1204.81</ele>
        <time>2025-12-20T08:37:53Z</time>
      </trkpt>
      <trkpt lat="45.75568" lon="3.73945">
        <ele>1203.52</ele>
        <time>2025-12-20T08:37:55Z</time>
      </trkpt>
      <trkpt lat="45.75558" lon="3.73936">
        <ele>1201.84</ele>
        <time>2025-12-20T08:37:57Z</time>
      </trkpt>
      <trkpt lat="45.75549" lon="3.73928">
        <ele>1201.01</ele>
        <time>2025-12-20T08:38:00Z</time>
      </trkpt>
      <trkpt lat="45.75541" lon="3.73922">
        <ele>1199.96</ele>
        <time>2025-12-20T08:38:05Z</time>
      </trkpt>
      <trkpt lat="45.75532" lon="3.73915">
        <ele>1199.26</ele>
        <time>2025-12-20T08:38:11Z</time>
      </trkpt>
      <trkpt lat="45.75523" lon="3.73904">
        <ele>1198.33</ele>
        <time>2025-12-20T08:38:25Z</time>
      </trkpt>
      <trkpt lat="45.75522" lon="3.73888">
        <ele>1197.89</ele>
        <time>2025-12-20T08:38:28Z</time>
      </trkpt>
      <trkpt lat="45.7553" lon="3.73877">
        <ele>1197.82</ele>
        <time>2025-12-20T08:38:30Z</time>
      </trkpt>
      <trkpt lat="45.75542" lon="3.73862">
        <ele>1197.46</ele>
        <time>2025-12-20T08:38:32Z</time>
      </trkpt>
      <trkpt lat="45.7555" lon="3.73853">
        <ele>1197.15</ele>
        <time>2025-12-20T08:38:33Z</time>
      </trkpt>
      <trkpt lat="45.75558" lon="3.73844">
        <ele>1196.82</ele>
        <time>2025-12-20T08:38:34Z</time>
      </trkpt>
      <trkpt lat="45.75568" lon="3.73833">
        <ele>1196.49</ele>
        <time>2025-12-20T08:38:35Z</time>
      </trkpt>
      <trkpt lat="45.75578" lon="3.73822">
        <ele>1196.09</ele>
        <time>2025-12-20T08:38:36Z</time>
      </trkpt>
      <trkpt lat="45.75588" lon="3.7381">
        <ele>1195.82</ele>
        <time>2025-12-20T08:38:37Z</time>
      </trkpt>
      <trkpt lat="45.75599" lon="3.73798">
        <ele>1195.38</ele>
        <time>2025-12-20T08:38:38Z</time>
      </trkpt>
      <trkpt lat="45.75611" lon="3.73785">
        <ele>1194.89</ele>
        <time>2025-12-20T08:38:39Z</time>
      </trkpt>
      <trkpt lat="45.75623" lon="3.73772">
        <ele>1194.44</ele>
        <time>2025-12-20T08:38:40Z</time>
      </trkpt>
      <trkpt lat="45.75633" lon="3.7376">
        <ele>1194.01</ele>
        <time>2025-12-20T08:38:41Z</time>
      </trkpt>
      <trkpt lat="45.75644" lon="3.73748">
        <ele>1193.64</ele>
        <time>2025-12-20T08:38:42Z</time>
      </trkpt>
      <trkpt lat="45.75655" lon="3.73736">
        <ele>1193.64</ele>
        <time>2025-12-20T08:38:43Z</time>
      </trkpt>
      <trkpt lat="45.75666" lon="3.73725">
        <ele>1193.21</ele>
        <time>2025-12-20T08:38:44Z</time>
      </trkpt>
      <trkpt lat="45.75677" lon="3.73716">
        <ele>1192.97</ele>
        <time>2025-12-20T08:38:45Z</time>
      </trkpt>
      <trkpt lat="45.75688" lon="3.73706">
        <ele>1192.82</ele>
        <time>2025-12-20T08:38:46Z</time>
      </trkpt>
      <trkpt lat="45.757" lon="3.73698">
        <ele>1192.76</ele>
        <time>2025-12-20T08:38:47Z</time>
      </trkpt>
      <trkpt lat="45.75711" lon="3.73689">
        <ele>1192.64</ele>
        <time>2025-12-20T08:38:48Z</time>
      </trkpt>
      <trkpt lat="45.75722" lon="3.73681">
        <ele>1192.44</ele>
        <time>2025-12-20T08:38:49Z</time>
      </trkpt>
      <trkpt lat="45.75732" lon="3.73674">
        <ele>1192.29</ele>
        <time>2025-12-20T08:38:50Z</time>
      </trkpt>
      <trkpt lat="45.75743" lon="3.73667">
        <ele>1192.32</ele>
        <time>2025-12-20T08:38:51Z</time>
      </trkpt>
      <trkpt lat="45.75754" lon="3.73659">
        <ele>1192.02</ele>
        <time>2025-12-20T08:38:52Z</time>
      </trkpt>
      <trkpt lat="45.75765" lon="3.73652">
        <ele>1191.81</ele>
        <time>2025-12-20T08:38:53Z</time>
      </trkpt>
      <trkpt lat="45.75776" lon="3.73644">
        <ele>1191.5</ele>
        <time>2025-12-20T08:38:54Z</time>
      </trkpt>
      <trkpt lat="45.75786" lon="3.73637">
        <ele>1191.43</ele>
        <time>2025-12-20T08:38:55Z</time>
      </trkpt>
      <trkpt lat="45.75797" lon="3.73629">
        <ele>1191.2</ele>
        <time>2025-12-20T08:38:56Z</time>
      </trkpt>
      <trkpt lat="45.75807" lon="3.73621">
        <ele>1191.17</ele>
        <time>2025-12-20T08:38:57Z</time>
      </trkpt>
      <trkpt lat="45.75817" lon="3.73612">
        <ele>1190.98</ele>
        <time>2025-12-20T08:38:58Z</time>
      </trkpt>
      <trkpt lat="45.75828" lon="3.73603">
        <ele>1190.79</ele>
        <time>2025-12-20T08:38:59Z</time>
      </trkpt>
      <trkpt lat="45.75838" lon="3.73593">
        <ele>1190.61</ele>
        <time>2025-12-20T08:39:00Z</time>
      </trkpt>
      <trkpt lat="45.75848" lon="3.73581">
        <ele>1190.25</ele>
        <time>2025-12-20T08:39:01Z</time>
      </trkpt>
      <trkpt lat="45.75857" lon="3.7357">
        <ele>1189.86</ele>
        <time>2025-12-20T08:39:02Z</time>
      </trkpt>
      <trkpt lat="45.75867" lon="3.73559">
        <ele>1189.44</ele>
        <time>2025-12-20T08:39:03Z</time>
      </trkpt>
      <trkpt lat="45.75877" lon="3.73547">
        <ele>1189.11</ele>
        <time>2025-12-20T08:39:04Z</time>
      </trkpt>
      <trkpt lat="45.75886" lon="3.73535">
        <ele>1188.84</ele>
        <time>2025-12-20T08:39:05Z</time>
      </trkpt>
      <trkpt lat="45.75896" lon="3.73523">
        <ele>1188.66</ele>
        <time>2025-12-20T08:39:06Z</time>
      </trkpt>
      <trkpt lat="45.75905" lon="3.73511">
        <ele>1188.51</ele>
        <time>2025-12-20T08:39:07Z</time>
      </trkpt>
      <trkpt lat="45.75915" lon="3.735">
        <ele>1188.78</ele>
        <time>2025-12-20T08:39:08Z</time>
      </trkpt>
      <trkpt lat="45.75924" lon="3.73491">
        <ele>1188.15</ele>
        <time>2025-12-20T08:39:09Z</time>
      </trkpt>
      <trkpt lat="45.75935" lon="3.73484">
        <ele>1188.03</ele>
        <time>2025-12-20T08:39:10Z</time>
      </trkpt>
      <trkpt lat="45.75947" lon="3.7348">
        <ele>1187.99</ele>
        <time>2025-12-20T08:39:11Z</time>
      </trkpt>
      <trkpt lat="45.75958" lon="3.73476">
        <ele>1188.17</ele>
        <time>2025-12-20T08:39:12Z</time>
      </trkpt>
      <trkpt lat="45.7597" lon="3.73476">
        <ele>1188.2</ele>
        <time>2025-12-20T08:39:13Z</time>
      </trkpt>
      <trkpt lat="45.75981" lon="3.73479">
        <ele>1188.31</ele>
        <time>2025-12-20T08:39:14Z</time>
      </trkpt>
      <trkpt lat="45.75993" lon="3.73482">
        <ele>1188.67</ele>
        <time>2025-12-20T08:39:15Z</time>
      </trkpt>
      <trkpt lat="45.76004" lon="3.73486">
        <ele>1188.99</ele>
        <time>2025-12-20T08:39:16Z</time>
      </trkpt>
      <trkpt lat="45.76016" lon="3.7349">
        <ele>1188.85</ele>
        <time>2025-12-20T08:39:17Z</time>
      </trkpt>
      <trkpt lat="45.76028" lon="3.73494">
        <ele>1188.67</ele>
        <time>2025-12-20T08:39:18Z</time>
      </trkpt>
      <trkpt lat="45.7604" lon="3.73498">
        <ele>1188.7</ele>
        <time>2025-12-20T08:39:19Z</time>
      </trkpt>
      <trkpt lat="45.76053" lon="3.73503">
        <ele>1188.24</ele>
        <time>2025-12-20T08:39:20Z</time>
      </trkpt>
      <trkpt lat="45.76065" lon="3.73509">
        <ele>1187.98</ele>
        <time>2025-12-20T08:39:21Z</time>
      </trkpt>
      <trkpt lat="45.76078" lon="3.73514">
        <ele>1187.46</ele>
        <time>2025-12-20T08:39:22Z</time>
      </trkpt>
      <trkpt lat="45.7609" lon="3.73521">
        <ele>1187.01</ele>
        <time>2025-12-20T08:39:23Z</time>
      </trkpt>
      <trkpt lat="45.76102" lon="3.7353">
        <ele>1185.64</ele>
        <time>2025-12-20T08:39:24Z</time>
      </trkpt>
      <trkpt lat="45.76115" lon="3.7354">
        <ele>1185.49</ele>
        <time>2025-12-20T08:39:25Z</time>
      </trkpt>
      <trkpt lat="45.76126" lon="3.73549">
        <ele>1185.21</ele>
        <time>2025-12-20T08:39:26Z</time>
      </trkpt>
      <trkpt lat="45.76138" lon="3.73558">
        <ele>1185.16</ele>
        <time>2025-12-20T08:39:27Z</time>
      </trkpt>
      <trkpt lat="45.7615" lon="3.73566">
        <ele>1184.89</ele>
        <time>2025-12-20T08:39:28Z</time>
      </trkpt>
      <trkpt lat="45.76161" lon="3.73575">
        <ele>1184.71</ele>
        <time>2025-12-20T08:39:29Z</time>
      </trkpt>
      <trkpt lat="45.76173" lon="3.73583">
        <ele>1184.45</ele>
        <time>2025-12-20T08:39:30Z</time>
      </trkpt>
      <trkpt lat="45.76187" lon="3.73588">
        <ele>1185.18</ele>
        <time>2025-12-20T08:39:31Z</time>
      </trkpt>
      <trkpt lat="45.76201" lon="3.73593">
        <ele>1184.54</ele>
        <time>2025-12-20T08:39:32Z</time>
      </trkpt>
      <trkpt lat="45.76216" lon="3.73597">
        <ele>1184.35</ele>
        <time>2025-12-20T08:39:33Z</time>
      </trkpt>
      <trkpt lat="45.76231" lon="3.73601">
        <ele>1183.89</ele>
        <time>2025-12-20T08:39:34Z</time>
      </trkpt>
      <trkpt lat="45.76246" lon="3.73606">
        <ele>1183.57</ele>
        <time>2025-12-20T08:39:35Z</time>
      </trkpt>
      <trkpt lat="45.7626" lon="3.73614">
        <ele>1183.73</ele>
        <time>2025-12-20T08:39:36Z</time>
      </trkpt>
      <trkpt lat="45.76273" lon="3.73623">
        <ele>1184.26</ele>
        <time>2025-12-20T08:39:37Z</time>
      </trkpt>
      <trkpt lat="45.76285" lon="3.73633">
        <ele>1184.28</ele>
        <time>2025-12-20T08:39:38Z</time>
      </trkpt>
      <trkpt lat="45.76297" lon="3.73644">
        <ele>1184.67</ele>
        <time>2025-12-20T08:39:39Z</time>
      </trkpt>
      <trkpt lat="45.7631" lon="3.73655">
        <ele>1185.19</ele>
        <time>2025-12-20T08:39:40Z</time>
      </trkpt>
      <trkpt lat="45.76322" lon="3.73667">
        <ele>1185.21</ele>
        <time>2025-12-20T08:39:41Z</time>
      </trkpt>
      <trkpt lat="45.76334" lon="3.73678">
        <ele>1185.88</ele>
        <time>2025-12-20T08:39:42Z</time>
      </trkpt>
      <trkpt lat="45.76345" lon="3.7369">
        <ele>1186.17</ele>
        <time>2025-12-20T08:39:43Z</time>
      </trkpt>
      <trkpt lat="45.76357" lon="3.737">
        <ele>1186.56</ele>
        <time>2025-12-20T08:39:44Z</time>
      </trkpt>
      <trkpt lat="45.76367" lon="3.7371">
        <ele>1187.14</ele>
        <time>2025-12-20T08:39:45Z</time>
      </trkpt>
      <trkpt lat="45.76376" lon="3.73719">
        <ele>1187.76</ele>
        <time>2025-12-20T08:39:46Z</time>
      </trkpt>
      <trkpt lat="45.76385" lon="3.73726">
        <ele>1188.89</ele>
        <time>2025-12-20T08:39:47Z</time>
      </trkpt>
      <trkpt lat="45.76393" lon="3.73733">
        <ele>1190.13</ele>
        <time>2025-12-20T08:39:48Z</time>
      </trkpt>
      <trkpt lat="45.76408" lon="3.73732">
        <ele>1190.03</ele>
        <time>2025-12-20T08:39:50Z</time>
      </trkpt>
      <trkpt lat="45.76417" lon="3.73728">
        <ele>1190.37</ele>
        <time>2025-12-20T08:39:51Z</time>
      </trkpt>
      <trkpt lat="45.76427" lon="3.73724">
        <ele>1190.25</ele>
        <time>2025-12-20T08:39:52Z</time>
      </trkpt>
      <trkpt lat="45.76437" lon="3.73722">
        <ele>1190.6</ele>
        <time>2025-12-20T08:39:53Z</time>
      </trkpt>
      <trkpt lat="45.76446" lon="3.73719">
        <ele>1190.53</ele>
        <time>2025-12-20T08:39:54Z</time>
      </trkpt>
      <trkpt lat="45.76462" lon="3.7371">
        <ele>1189.86</ele>
        <time>2025-12-20T08:39:56Z</time>
      </trkpt>
      <trkpt lat="45.76468" lon="3.73688">
        <ele>1189.93</ele>
        <time>2025-12-20T08:39:58Z</time>
      </trkpt>
      <trkpt lat="45.76468" lon="3.73675">
        <ele>1189.84</ele>
        <time>2025-12-20T08:39:59Z</time>
      </trkpt>
      <trkpt lat="45.7647" lon="3.73651">
        <ele>1189.62</ele>
        <time>2025-12-20T08:40:01Z</time>
      </trkpt>
      <trkpt lat="45.7647" lon="3.73636">
        <ele>1189.82</ele>
        <time>2025-12-20T08:40:02Z</time>
      </trkpt>
      <trkpt lat="45.7647" lon="3.7362">
        <ele>1189.17</ele>
        <time>2025-12-20T08:40:03Z</time>
      </trkpt>
      <trkpt lat="45.76472" lon="3.73604">
        <ele>1189.35</ele>
        <time>2025-12-20T08:40:04Z</time>
      </trkpt>
      <trkpt lat="45.76472" lon="3.73587">
        <ele>1189.5</ele>
        <time>2025-12-20T08:40:05Z</time>
      </trkpt>
      <trkpt lat="45.76474" lon="3.73571">
        <ele>1189.5</ele>
        <time>2025-12-20T08:40:06Z</time>
      </trkpt>
      <trkpt lat="45.76475" lon="3.73556">
        <ele>1189.66</ele>
        <time>2025-12-20T08:40:07Z</time>
      </trkpt>
      <trkpt lat="45.76475" lon="3.73539">
        <ele>1189.63</ele>
        <time>2025-12-20T08:40:08Z</time>
      </trkpt>
      <trkpt lat="45.76475" lon="3.73522">
        <ele>1190.04</ele>
        <time>2025-12-20T08:40:09Z</time>
      </trkpt>
      <trkpt lat="45.76473" lon="3.73506">
        <ele>1190.55</ele>
        <time>2025-12-20T08:40:10Z</time>
      </trkpt>
      <trkpt lat="45.7647" lon="3.73489">
        <ele>1190.21</ele>
        <time>2025-12-20T08:40:11Z</time>
      </trkpt>
      <trkpt lat="45.76467" lon="3.73474">
        <ele>1190.1</ele>
        <time>2025-12-20T08:40:12Z</time>
      </trkpt>
      <trkpt lat="45.76466" lon="3.73458">
        <ele>1190.68</ele>
        <time>2025-12-20T08:40:13Z</time>
      </trkpt>
      <trkpt lat="45.76464" lon="3.73443">
        <ele>1190.55</ele>
        <time>2025-12-20T08:40:14Z</time>
      </trkpt>
      <trkpt lat="45.76462" lon="3.73429">
        <ele>1190.61</ele>
        <time>2025-12-20T08:40:15Z</time>
      </trkpt>
      <trkpt lat="45.76461" lon="3.73416">
        <ele>1190.05</ele>
        <time>2025-12-20T08:40:16Z</time>
      </trkpt>
      <trkpt lat="45.76459" lon="3.73403">
        <ele>1190.88</ele>
        <time>2025-12-20T08:40:17Z</time>
      </trkpt>
      <trkpt lat="45.76455" lon="3.73379">
        <ele>1191.91</ele>
        <time>2025-12-20T08:40:19Z</time>
      </trkpt>
      <trkpt lat="45.76449" lon="3.73355">
        <ele>1191.46</ele>
        <time>2025-12-20T08:40:21Z</time>
      </trkpt>
      <trkpt lat="45.76446" lon="3.73342">
        <ele>1191.75</ele>
        <time>2025-12-20T08:40:22Z</time>
      </trkpt>
      <trkpt lat="45.76443" lon="3.73317">
        <ele>1192.57</ele>
        <time>2025-12-20T08:40:24Z</time>
      </trkpt>
      <trkpt lat="45.76437" lon="3.73293">
        <ele>1194.51</ele>
        <time>2025-12-20T08:40:26Z</time>
      </trkpt>
      <trkpt lat="45.76433" lon="3.7328">
        <ele>1194.69</ele>
        <time>2025-12-20T08:40:27Z</time>
      </trkpt>
      <trkpt lat="45.76424" lon="3.73259">
        <ele>1195.28</ele>
        <time>2025-12-20T08:40:29Z</time>
      </trkpt>
      <trkpt lat="45.76418" lon="3.73248">
        <ele>1195.92</ele>
        <time>2025-12-20T08:40:30Z</time>
      </trkpt>
      <trkpt lat="45.76411" lon="3.73237">
        <ele>1196.94</ele>
        <time>2025-12-20T08:40:31Z</time>
      </trkpt>
      <trkpt lat="45.76405" lon="3.73227">
        <ele>1196.91</ele>
        <time>2025-12-20T08:40:32Z</time>
      </trkpt>
      <trkpt lat="45.76403" lon="3.73213">
        <ele>1193.17</ele>
        <time>2025-12-20T08:40:33Z</time>
      </trkpt>
      <trkpt lat="45.76406" lon="3.73199">
        <ele>1194.96</ele>
        <time>2025-12-20T08:40:34Z</time>
      </trkpt>
      <trkpt lat="45.76413" lon="3.73188">
        <ele>1194.84</ele>
        <time>2025-12-20T08:40:35Z</time>
      </trkpt>
      <trkpt lat="45.7642" lon="3.73177">
        <ele>1196.32</ele>
        <time>2025-12-20T08:40:36Z</time>
      </trkpt>
      <trkpt lat="45.76427" lon="3.73164">
        <ele>1197.19</ele>
        <time>2025-12-20T08:40:37Z</time>
      </trkpt>
      <trkpt lat="45.76435" lon="3.73153">
        <ele>1197.56</ele>
        <time>2025-12-20T08:40:38Z</time>
      </trkpt>
      <trkpt lat="45.76442" lon="3.73141">
        <ele>1197.12</ele>
        <time>2025-12-20T08:40:39Z</time>
      </trkpt>
      <trkpt lat="45.76448" lon="3.7313">
        <ele>1197.51</ele>
        <time>2025-12-20T08:40:40Z</time>
      </trkpt>
      <trkpt lat="45.76454" lon="3.73119">
        <ele>1197.26</ele>
        <time>2025-12-20T08:40:41Z</time>
      </trkpt>
      <trkpt lat="45.76466" lon="3.73105">
        <ele>1197.05</ele>
        <time>2025-12-20T08:40:43Z</time>
      </trkpt>
      <trkpt lat="45.76483" lon="3.73096">
        <ele>1197.21</ele>
        <time>2025-12-20T08:40:45Z</time>
      </trkpt>
      <trkpt lat="45.765" lon="3.73087">
        <ele>1195.93</ele>
        <time>2025-12-20T08:40:47Z</time>
      </trkpt>
      <trkpt lat="45.76517" lon="3.73074">
        <ele>1194.41</ele>
        <time>2025-12-20T08:40:49Z</time>
      </trkpt>
      <trkpt lat="45.76526" lon="3.73067">
        <ele>1194.16</ele>
        <time>2025-12-20T08:40:50Z</time>
      </trkpt>
      <trkpt lat="45.76536" lon="3.73057">
        <ele>1193.76</ele>
        <time>2025-12-20T08:40:51Z</time>
      </trkpt>
      <trkpt lat="45.76546" lon="3.73045">
        <ele>1192.88</ele>
        <time>2025-12-20T08:40:52Z</time>
      </trkpt>
      <trkpt lat="45.76554" lon="3.73032">
        <ele>1191.5</ele>
        <time>2025-12-20T08:40:53Z</time>
      </trkpt>
      <trkpt lat="45.76561" lon="3.73021">
        <ele>1190.92</ele>
        <time>2025-12-20T08:40:54Z</time>
      </trkpt>
      <trkpt lat="45.76568" lon="3.73011">
        <ele>1190.41</ele>
        <time>2025-12-20T08:40:55Z</time>
      </trkpt>
      <trkpt lat="45.76578" lon="3.72994">
        <ele>1188.97</ele>
        <time>2025-12-20T08:40:57Z</time>
      </trkpt>
      <trkpt lat="45.76587" lon="3.72977">
        <ele>1188.21</ele>
        <time>2025-12-20T08:40:59Z</time>
      </trkpt>
      <trkpt lat="45.76594" lon="3.7296">
        <ele>1187.23</ele>
        <time>2025-12-20T08:41:01Z</time>
      </trkpt>
      <trkpt lat="45.766" lon="3.72939">
        <ele>1185.64</ele>
        <time>2025-12-20T08:41:03Z</time>
      </trkpt>
      <trkpt lat="45.76608" lon="3.72917">
        <ele>1183.47</ele>
        <time>2025-12-20T08:41:05Z</time>
      </trkpt>
      <trkpt lat="45.76619" lon="3.72896">
        <ele>1182.1</ele>
        <time>2025-12-20T08:41:07Z</time>
      </trkpt>
      <trkpt lat="45.76625" lon="3.72885">
        <ele>1180.9</ele>
        <time>2025-12-20T08:41:08Z</time>
      </trkpt>
      <trkpt lat="45.7663" lon="3.72874">
        <ele>1179.63</ele>
        <time>2025-12-20T08:41:09Z</time>
      </trkpt>
      <trkpt lat="45.76637" lon="3.72862">
        <ele>1178.6</ele>
        <time>2025-12-20T08:41:10Z</time>
      </trkpt>
      <trkpt lat="45.76643" lon="3.7285">
        <ele>1177.84</ele>
        <time>2025-12-20T08:41:11Z</time>
      </trkpt>
      <trkpt lat="45.76651" lon="3.72837">
        <ele>1176.87</ele>
        <time>2025-12-20T08:41:12Z</time>
      </trkpt>
      <trkpt lat="45.76658" lon="3.72825">
        <ele>1175.55</ele>
        <time>2025-12-20T08:41:13Z</time>
      </trkpt>
      <trkpt lat="45.76666" lon="3.72813">
        <ele>1174.89</ele>
        <time>2025-12-20T08:41:14Z</time>
      </trkpt>
      <trkpt lat="45.76673" lon="3.72802">
        <ele>1174.18</ele>
        <time>2025-12-20T08:41:15Z</time>
      </trkpt>
      <trkpt lat="45.7668" lon="3.72793">
        <ele>1173.77</ele>
        <time>2025-12-20T08:41:16Z</time>
      </trkpt>
      <trkpt lat="45.76688" lon="3.72786">
        <ele>1172.75</ele>
        <time>2025-12-20T08:41:17Z</time>
      </trkpt>
      <trkpt lat="45.76696" lon="3.72781">
        <ele>1172.85</ele>
        <time>2025-12-20T08:41:18Z</time>
      </trkpt>
      <trkpt lat="45.76712" lon="3.72771">
        <ele>1171.33</ele>
        <time>2025-12-20T08:41:20Z</time>
      </trkpt>
      <trkpt lat="45.76721" lon="3.72766">
        <ele>1170.77</ele>
        <time>2025-12-20T08:41:21Z</time>
      </trkpt>
      <trkpt lat="45.7673" lon="3.72761">
        <ele>1170.2</ele>
        <time>2025-12-20T08:41:22Z</time>
      </trkpt>
      <trkpt lat="45.76739" lon="3.72757">
        <ele>1170.3</ele>
        <time>2025-12-20T08:41:23Z</time>
      </trkpt>
      <trkpt lat="45.76748" lon="3.72752">
        <ele>1169.99</ele>
        <time>2025-12-20T08:41:24Z</time>
      </trkpt>
      <trkpt lat="45.76757" lon="3.72746">
        <ele>1169.39</ele>
        <time>2025-12-20T08:41:25Z</time>
      </trkpt>
      <trkpt lat="45.76771" lon="3.72737">
        <ele>1169.77</ele>
        <time>2025-12-20T08:41:27Z</time>
      </trkpt>
      <trkpt lat="45.76781" lon="3.72721">
        <ele>1169.35</ele>
        <time>2025-12-20T08:41:29Z</time>
      </trkpt>
      <trkpt lat="45.76794" lon="3.72703">
        <ele>1168.48</ele>
        <time>2025-12-20T08:41:31Z</time>
      </trkpt>
      <trkpt lat="45.76801" lon="3.72692">
        <ele>1168.11</ele>
        <time>2025-12-20T08:41:32Z</time>
      </trkpt>
      <trkpt lat="45.76808" lon="3.7268">
        <ele>1167.47</ele>
        <time>2025-12-20T08:41:33Z</time>
      </trkpt>
      <trkpt lat="45.76815" lon="3.72668">
        <ele>1167.03</ele>
        <time>2025-12-20T08:41:34Z</time>
      </trkpt>
      <trkpt lat="45.76822" lon="3.72656">
        <ele>1166.35</ele>
        <time>2025-12-20T08:41:35Z</time>
      </trkpt>
      <trkpt lat="45.7683" lon="3.72635">
        <ele>1165.18</ele>
        <time>2025-12-20T08:41:37Z</time>
      </trkpt>
      <trkpt lat="45.76839" lon="3.72617">
        <ele>1163.93</ele>
        <time>2025-12-20T08:41:39Z</time>
      </trkpt>
      <trkpt lat="45.76846" lon="3.72596">
        <ele>1162.88</ele>
        <time>2025-12-20T08:41:41Z</time>
      </trkpt>
      <trkpt lat="45.76849" lon="3.72584">
        <ele>1162.89</ele>
        <time>2025-12-20T08:41:42Z</time>
      </trkpt>
      <trkpt lat="45.76854" lon="3.72561">
        <ele>1160.84</ele>
        <time>2025-12-20T08:41:44Z</time>
      </trkpt>
      <trkpt lat="45.76855" lon="3.72548">
        <ele>1159.94</ele>
        <time>2025-12-20T08:41:45Z</time>
      </trkpt>
      <trkpt lat="45.76856" lon="3.72532">
        <ele>1158.09</ele>
        <time>2025-12-20T08:41:46Z</time>
      </trkpt>
      <trkpt lat="45.76856" lon="3.72516">
        <ele>1157.4</ele>
        <time>2025-12-20T08:41:47Z</time>
      </trkpt>
      <trkpt lat="45.76857" lon="3.72499">
        <ele>1155.71</ele>
        <time>2025-12-20T08:41:48Z</time>
      </trkpt>
      <trkpt lat="45.76857" lon="3.72483">
        <ele>1155.34</ele>
        <time>2025-12-20T08:41:49Z</time>
      </trkpt>
      <trkpt lat="45.76859" lon="3.72466">
        <ele>1152.99</ele>
        <time>2025-12-20T08:41:50Z</time>
      </trkpt>
      <trkpt lat="45.7686" lon="3.72451">
        <ele>1151.67</ele>
        <time>2025-12-20T08:41:51Z</time>
      </trkpt>
      <trkpt lat="45.76862" lon="3.72435">
        <ele>1150.35</ele>
        <time>2025-12-20T08:41:52Z</time>
      </trkpt>
      <trkpt lat="45.76864" lon="3.7242">
        <ele>1149.4</ele>
        <time>2025-12-20T08:41:53Z</time>
      </trkpt>
      <trkpt lat="45.76867" lon="3.72406">
        <ele>1148.81</ele>
        <time>2025-12-20T08:41:54Z</time>
      </trkpt>
      <trkpt lat="45.76871" lon="3.72389">
        <ele>1147.18</ele>
        <time>2025-12-20T08:41:55Z</time>
      </trkpt>
      <trkpt lat="45.76875" lon="3.72373">
        <ele>1146.17</ele>
        <time>2025-12-20T08:41:56Z</time>
      </trkpt>
      <trkpt lat="45.76879" lon="3.72358">
        <ele>1145.56</ele>
        <time>2025-12-20T08:41:57Z</time>
      </trkpt>
      <trkpt lat="45.76883" lon="3.72343">
        <ele>1145.1</ele>
        <time>2025-12-20T08:41:58Z</time>
      </trkpt>
      <trkpt lat="45.76887" lon="3.72328">
        <ele>1144.28</ele>
        <time>2025-12-20T08:41:59Z</time>
      </trkpt>
      <trkpt lat="45.76891" lon="3.72313">
        <ele>1143.31</ele>
        <time>2025-12-20T08:42:00Z</time>
      </trkpt>
      <trkpt lat="45.76897" lon="3.72298">
        <ele>1142.87</ele>
        <time>2025-12-20T08:42:01Z</time>
      </trkpt>
      <trkpt lat="45.769" lon="3.72284">
        <ele>1143.36</ele>
        <time>2025-12-20T08:42:02Z</time>
      </trkpt>
      <trkpt lat="45.76898" lon="3.72261">
        <ele>1142.79</ele>
        <time>2025-12-20T08:42:04Z</time>
      </trkpt>
      <trkpt lat="45.76893" lon="3.72241">
        <ele>1142.2</ele>
        <time>2025-12-20T08:42:06Z</time>
      </trkpt>
      <trkpt lat="45.76882" lon="3.7222">
        <ele>1140.15</ele>
        <time>2025-12-20T08:42:08Z</time>
      </trkpt>
      <trkpt lat="45.76877" lon="3.7221">
        <ele>1138.13</ele>
        <time>2025-12-20T08:42:09Z</time>
      </trkpt>
      <trkpt lat="45.76866" lon="3.7219">
        <ele>1136.08</ele>
        <time>2025-12-20T08:42:11Z</time>
      </trkpt>
      <trkpt lat="45.76852" lon="3.72179">
        <ele>1132.58</ele>
        <time>2025-12-20T08:42:13Z</time>
      </trkpt>
      <trkpt lat="45.76843" lon="3.72175">
        <ele>1133.64</ele>
        <time>2025-12-20T08:42:14Z</time>
      </trkpt>
      <trkpt lat="45.76832" lon="3.72174">
        <ele>1134.1</ele>
        <time>2025-12-20T08:42:15Z</time>
      </trkpt>
      <trkpt lat="45.76821" lon="3.72176">
        <ele>1133.39</ele>
        <time>2025-12-20T08:42:16Z</time>
      </trkpt>
      <trkpt lat="45.76811" lon="3.72179">
        <ele>1132.51</ele>
        <time>2025-12-20T08:42:17Z</time>
      </trkpt>
      <trkpt lat="45.768" lon="3.7218">
        <ele>1132.58</ele>
        <time>2025-12-20T08:42:18Z</time>
      </trkpt>
      <trkpt lat="45.76789" lon="3.72179">
        <ele>1131.87</ele>
        <time>2025-12-20T08:42:19Z</time>
      </trkpt>
      <trkpt lat="45.7678" lon="3.72177">
        <ele>1131.2</ele>
        <time>2025-12-20T08:42:20Z</time>
      </trkpt>
      <trkpt lat="45.76764" lon="3.72171">
        <ele>1128.61</ele>
        <time>2025-12-20T08:42:22Z</time>
      </trkpt>
      <trkpt lat="45.76749" lon="3.72163">
        <ele>1126.84</ele>
        <time>2025-12-20T08:42:24Z</time>
      </trkpt>
      <trkpt lat="45.76737" lon="3.7215">
        <ele>1125.79</ele>
        <time>2025-12-20T08:42:26Z</time>
      </trkpt>
      <trkpt lat="45.76726" lon="3.7213">
        <ele>1122.8</ele>
        <time>2025-12-20T08:42:28Z</time>
      </trkpt>
      <trkpt lat="45.76721" lon="3.72119">
        <ele>1122.1</ele>
        <time>2025-12-20T08:42:29Z</time>
      </trkpt>
      <trkpt lat="45.76715" lon="3.72098">
        <ele>1120.59</ele>
        <time>2025-12-20T08:42:31Z</time>
      </trkpt>
      <trkpt lat="45.76713" lon="3.72076">
        <ele>1118.5</ele>
        <time>2025-12-20T08:42:33Z</time>
      </trkpt>
      <trkpt lat="45.7671" lon="3.72052">
        <ele>1116.79</ele>
        <time>2025-12-20T08:42:35Z</time>
      </trkpt>
      <trkpt lat="45.76709" lon="3.72034">
        <ele>1114.18</ele>
        <time>2025-12-20T08:42:37Z</time>
      </trkpt>
      <trkpt lat="45.76702" lon="3.72023">
        <ele>1110.68</ele>
        <time>2025-12-20T08:42:40Z</time>
      </trkpt>
      <trkpt lat="45.76691" lon="3.72032">
        <ele>1107.93</ele>
        <time>2025-12-20T08:42:43Z</time>
      </trkpt>
      <trkpt lat="45.76685" lon="3.72048">
        <ele>1106.49</ele>
        <time>2025-12-20T08:42:45Z</time>
      </trkpt>
      <trkpt lat="45.76676" lon="3.72059">
        <ele>1105.74</ele>
        <time>2025-12-20T08:42:47Z</time>
      </trkpt>
      <trkpt lat="45.76662" lon="3.72065">
        <ele>1104.77</ele>
        <time>2025-12-20T08:42:49Z</time>
      </trkpt>
      <trkpt lat="45.76651" lon="3.72083">
        <ele>1103.75</ele>
        <time>2025-12-20T08:42:51Z</time>
      </trkpt>
      <trkpt lat="45.76649" lon="3.72096">
        <ele>1103.27</ele>
        <time>2025-12-20T08:42:52Z</time>
      </trkpt>
      <trkpt lat="45.76646" lon="3.72109">
        <ele>1102.92</ele>
        <time>2025-12-20T08:42:53Z</time>
      </trkpt>
      <trkpt lat="45.76646" lon="3.72124">
        <ele>1102.09</ele>
        <time>2025-12-20T08:42:54Z</time>
      </trkpt>
      <trkpt lat="45.76646" lon="3.7214">
        <ele>1101.23</ele>
        <time>2025-12-20T08:42:55Z</time>
      </trkpt>
      <trkpt lat="45.76646" lon="3.72157">
        <ele>1100.41</ele>
        <time>2025-12-20T08:42:56Z</time>
      </trkpt>
      <trkpt lat="45.76647" lon="3.72172">
        <ele>1100.2</ele>
        <time>2025-12-20T08:42:57Z</time>
      </trkpt>
      <trkpt lat="45.76647" lon="3.72187">
        <ele>1099.46</ele>
        <time>2025-12-20T08:42:58Z</time>
      </trkpt>
      <trkpt lat="45.76647" lon="3.722">
        <ele>1099.23</ele>
        <time>2025-12-20T08:42:59Z</time>
      </trkpt>
      <trkpt lat="45.76647" lon="3.72214">
        <ele>1098.38</ele>
        <time>2025-12-20T08:43:00Z</time>
      </trkpt>
      <trkpt lat="45.76646" lon="3.72228">
        <ele>1097.17</ele>
        <time>2025-12-20T08:43:01Z</time>
      </trkpt>
      <trkpt lat="45.76644" lon="3.72243">
        <ele>1096.22</ele>
        <time>2025-12-20T08:43:02Z</time>
      </trkpt>
      <trkpt lat="45.76639" lon="3.72256">
        <ele>1096.23</ele>
        <time>2025-12-20T08:43:03Z</time>
      </trkpt>
      <trkpt lat="45.76629" lon="3.72265">
        <ele>1094.46</ele>
        <time>2025-12-20T08:43:04Z</time>
      </trkpt>
      <trkpt lat="45.76619" lon="3.7227">
        <ele>1093.14</ele>
        <time>2025-12-20T08:43:05Z</time>
      </trkpt>
      <trkpt lat="45.76609" lon="3.72275">
        <ele>1092.64</ele>
        <time>2025-12-20T08:43:06Z</time>
      </trkpt>
      <trkpt lat="45.76599" lon="3.72274">
        <ele>1091.58</ele>
        <time>2025-12-20T08:43:07Z</time>
      </trkpt>
      <trkpt lat="45.76584" lon="3.72278">
        <ele>1090.36</ele>
        <time>2025-12-20T08:43:09Z</time>
      </trkpt>
      <trkpt lat="45.7657" lon="3.72286">
        <ele>1089.38</ele>
        <time>2025-12-20T08:43:11Z</time>
      </trkpt>
      <trkpt lat="45.76554" lon="3.72295">
        <ele>1088.54</ele>
        <time>2025-12-20T08:43:13Z</time>
      </trkpt>
      <trkpt lat="45.76539" lon="3.72304">
        <ele>1088.43</ele>
        <time>2025-12-20T08:43:15Z</time>
      </trkpt>
      <trkpt lat="45.76527" lon="3.72311">
        <ele>1086.91</ele>
        <time>2025-12-20T08:43:17Z</time>
      </trkpt>
      <trkpt lat="45.76511" lon="3.72308">
        <ele>1087.53</ele>
        <time>2025-12-20T08:43:19Z</time>
      </trkpt>
      <trkpt lat="45.76497" lon="3.72301">
        <ele>1087.08</ele>
        <time>2025-12-20T08:43:21Z</time>
      </trkpt>
      <trkpt lat="45.76487" lon="3.72301">
        <ele>1086.14</ele>
        <time>2025-12-20T08:43:23Z</time>
      </trkpt>
      <trkpt lat="45.76475" lon="3.72292">
        <ele>1088.93</ele>
        <time>2025-12-20T08:43:55Z</time>
      </trkpt>
      <trkpt lat="45.76466" lon="3.72282">
        <ele>1088.46</ele>
        <time>2025-12-20T08:43:57Z</time>
      </trkpt>
      <trkpt lat="45.7646" lon="3.7227">
        <ele>1086.68</ele>
        <time>2025-12-20T08:43:59Z</time>
      </trkpt>
      <trkpt lat="45.76457" lon="3.72257">
        <ele>1085.67</ele>
        <time>2025-12-20T08:44:01Z</time>
      </trkpt>
      <trkpt lat="45.76452" lon="3.72247">
        <ele>1083.92</ele>
        <time>2025-12-20T08:44:03Z</time>
      </trkpt>
      <trkpt lat="45.76445" lon="3.72232">
        <ele>1083.34</ele>
        <time>2025-12-20T08:44:06Z</time>
      </trkpt>
      <trkpt lat="45.76441" lon="3.72215">
        <ele>1084.1</ele>
        <time>2025-12-20T08:44:09Z</time>
      </trkpt>
      <trkpt lat="45.76438" lon="3.722">
        <ele>1083.52</ele>
        <time>2025-12-20T08:44:11Z</time>
      </trkpt>
      <trkpt lat="45.76433" lon="3.72185">
        <ele>1082.01</ele>
        <time>2025-12-20T08:44:13Z</time>
      </trkpt>
      <trkpt lat="45.76434" lon="3.72166">
        <ele>1080.2</ele>
        <time>2025-12-20T08:44:16Z</time>
      </trkpt>
      <trkpt lat="45.76435" lon="3.72149">
        <ele>1079.59</ele>
        <time>2025-12-20T08:44:18Z</time>
      </trkpt>
      <trkpt lat="45.76433" lon="3.72132">
        <ele>1077.7</ele>
        <time>2025-12-20T08:44:20Z</time>
      </trkpt>
      <trkpt lat="45.76429" lon="3.7212">
        <ele>1077.11</ele>
        <time>2025-12-20T08:44:22Z</time>
      </trkpt>
      <trkpt lat="45.76425" lon="3.72108">
        <ele>1076.02</ele>
        <time>2025-12-20T08:44:24Z</time>
      </trkpt>
      <trkpt lat="45.76419" lon="3.72093">
        <ele>1075.42</ele>
        <time>2025-12-20T08:44:26Z</time>
      </trkpt>
      <trkpt lat="45.76414" lon="3.72078">
        <ele>1074.59</ele>
        <time>2025-12-20T08:44:28Z</time>
      </trkpt>
      <trkpt lat="45.76408" lon="3.72062">
        <ele>1074.11</ele>
        <time>2025-12-20T08:44:30Z</time>
      </trkpt>
      <trkpt lat="45.76403" lon="3.72047">
        <ele>1072.09</ele>
        <time>2025-12-20T08:44:32Z</time>
      </trkpt>
      <trkpt lat="45.76397" lon="3.72033">
        <ele>1071.83</ele>
        <time>2025-12-20T08:44:34Z</time>
      </trkpt>
      <trkpt lat="45.76392" lon="3.72016">
        <ele>1070.52</ele>
        <time>2025-12-20T08:44:36Z</time>
      </trkpt>
      <trkpt lat="45.76386" lon="3.72">
        <ele>1070.07</ele>
        <time>2025-12-20T08:44:38Z</time>
      </trkpt>
      <trkpt lat="45.76381" lon="3.71983">
        <ele>1069.75</ele>
        <time>2025-12-20T08:44:40Z</time>
      </trkpt>
      <trkpt lat="45.76377" lon="3.71965">
        <ele>1070.19</ele>
        <time>2025-12-20T08:44:42Z</time>
      </trkpt>
      <trkpt lat="45.76372" lon="3.71949">
        <ele>1069.18</ele>
        <time>2025-12-20T08:44:44Z</time>
      </trkpt>
      <trkpt lat="45.76367" lon="3.71934">
        <ele>1068.92</ele>
        <time>2025-12-20T08:44:46Z</time>
      </trkpt>
      <trkpt lat="45.76362" lon="3.71918">
        <ele>1068.25</ele>
        <time>2025-12-20T08:44:48Z</time>
      </trkpt>
      <trkpt lat="45.76357" lon="3.719">
        <ele>1066.85</ele>
        <time>2025-12-20T08:44:50Z</time>
      </trkpt>
      <trkpt lat="45.7635" lon="3.7188">
        <ele>1066.74</ele>
        <time>2025-12-20T08:44:52Z</time>
      </trkpt>
      <trkpt lat="45.7634" lon="3.71862">
        <ele>1064.94</ele>
        <time>2025-12-20T08:44:54Z</time>
      </trkpt>
      <trkpt lat="45.7633" lon="3.71854">
        <ele>1064.13</ele>
        <time>2025-12-20T08:44:56Z</time>
      </trkpt>
      <trkpt lat="45.76321" lon="3.71848">
        <ele>1062.43</ele>
        <time>2025-12-20T08:44:58Z</time>
      </trkpt>
      <trkpt lat="45.76311" lon="3.71841">
        <ele>1061.61</ele>
        <time>2025-12-20T08:45:00Z</time>
      </trkpt>
      <trkpt lat="45.76301" lon="3.71837">
        <ele>1059.48</ele>
        <time>2025-12-20T08:45:02Z</time>
      </trkpt>
      <trkpt lat="45.76289" lon="3.71834">
        <ele>1058.87</ele>
        <time>2025-12-20T08:45:04Z</time>
      </trkpt>
      <trkpt lat="45.76274" lon="3.71827">
        <ele>1058.12</ele>
        <time>2025-12-20T08:45:06Z</time>
      </trkpt>
      <trkpt lat="45.76264" lon="3.71816">
        <ele>1056.55</ele>
        <time>2025-12-20T08:45:08Z</time>
      </trkpt>
      <trkpt lat="45.76253" lon="3.71812">
        <ele>1055.21</ele>
        <time>2025-12-20T08:45:10Z</time>
      </trkpt>
      <trkpt lat="45.7624" lon="3.71807">
        <ele>1055.4</ele>
        <time>2025-12-20T08:45:12Z</time>
      </trkpt>
      <trkpt lat="45.7623" lon="3.71804">
        <ele>1054.8</ele>
        <time>2025-12-20T08:45:14Z</time>
      </trkpt>
      <trkpt lat="45.76219" lon="3.71802">
        <ele>1053.93</ele>
        <time>2025-12-20T08:45:16Z</time>
      </trkpt>
      <trkpt lat="45.76209" lon="3.71797">
        <ele>1053.87</ele>
        <time>2025-12-20T08:45:18Z</time>
      </trkpt>
      <trkpt lat="45.76199" lon="3.71789">
        <ele>1052.7</ele>
        <time>2025-12-20T08:45:20Z</time>
      </trkpt>
      <trkpt lat="45.7619" lon="3.71784">
        <ele>1051.31</ele>
        <time>2025-12-20T08:45:22Z</time>
      </trkpt>
      <trkpt lat="45.76181" lon="3.71777">
        <ele>1049.77</ele>
        <time>2025-12-20T08:45:24Z</time>
      </trkpt>
      <trkpt lat="45.76169" lon="3.71769">
        <ele>1048.32</ele>
        <time>2025-12-20T08:45:27Z</time>
      </trkpt>
      <trkpt lat="45.76158" lon="3.71765">
        <ele>1046.52</ele>
        <time>2025-12-20T08:45:30Z</time>
      </trkpt>
      <trkpt lat="45.76146" lon="3.71762">
        <ele>1043.95</ele>
        <time>2025-12-20T08:45:33Z</time>
      </trkpt>
      <trkpt lat="45.76137" lon="3.71758">
        <ele>1044.28</ele>
        <time>2025-12-20T08:45:35Z</time>
      </trkpt>
      <trkpt lat="45.76127" lon="3.7175">
        <ele>1043.01</ele>
        <time>2025-12-20T08:45:39Z</time>
      </trkpt>
      <trkpt lat="45.76117" lon="3.71743">
        <ele>1041.3</ele>
        <time>2025-12-20T08:45:43Z</time>
      </trkpt>
      <trkpt lat="45.76106" lon="3.71735">
        <ele>1040.19</ele>
        <time>2025-12-20T08:45:45Z</time>
      </trkpt>
      <trkpt lat="45.76097" lon="3.71727">
        <ele>1038.27</ele>
        <time>2025-12-20T08:45:48Z</time>
      </trkpt>
      <trkpt lat="45.76089" lon="3.7172">
        <ele>1036.57</ele>
        <time>2025-12-20T08:45:52Z</time>
      </trkpt>
      <trkpt lat="45.7608" lon="3.71714">
        <ele>1034.92</ele>
        <time>2025-12-20T08:45:56Z</time>
      </trkpt>
      <trkpt lat="45.7607" lon="3.71708">
        <ele>1032.86</ele>
        <time>2025-12-20T08:45:59Z</time>
      </trkpt>
      <trkpt lat="45.76059" lon="3.71703">
        <ele>1030.94</ele>
        <time>2025-12-20T08:46:03Z</time>
      </trkpt>
      <trkpt lat="45.7605" lon="3.71701">
        <ele>1029.76</ele>
        <time>2025-12-20T08:46:08Z</time>
      </trkpt>
      <trkpt lat="45.7604" lon="3.717">
        <ele>1028.88</ele>
        <time>2025-12-20T08:46:13Z</time>
      </trkpt>
      <trkpt lat="45.76031" lon="3.71696">
        <ele>1027.07</ele>
        <time>2025-12-20T08:46:18Z</time>
      </trkpt>
      <trkpt lat="45.76019" lon="3.71693">
        <ele>1025.36</ele>
        <time>2025-12-20T08:46:22Z</time>
      </trkpt>
      <trkpt lat="45.76" lon="3.71681">
        <ele>1023.78</ele>
        <time>2025-12-20T08:46:26Z</time>
      </trkpt>
      <trkpt lat="45.7599" lon="3.71669">
        <ele>1022.84</ele>
        <time>2025-12-20T08:46:28Z</time>
      </trkpt>
      <trkpt lat="45.75979" lon="3.71654">
        <ele>1021.51</ele>
        <time>2025-12-20T08:46:30Z</time>
      </trkpt>
      <trkpt lat="45.75974" lon="3.71639">
        <ele>1020.71</ele>
        <time>2025-12-20T08:46:32Z</time>
      </trkpt>
      <trkpt lat="45.75965" lon="3.71627">
        <ele>1020.54</ele>
        <time>2025-12-20T08:46:35Z</time>
      </trkpt>
      <trkpt lat="45.75957" lon="3.71615">
        <ele>1019.28</ele>
        <time>2025-12-20T08:46:38Z</time>
      </trkpt>
      <trkpt lat="45.75946" lon="3.71605">
        <ele>1019.39</ele>
        <time>2025-12-20T08:46:40Z</time>
      </trkpt>
      <trkpt lat="45.75937" lon="3.71596">
        <ele>1018.98</ele>
        <time>2025-12-20T08:46:42Z</time>
      </trkpt>
      <trkpt lat="45.75927" lon="3.71589">
        <ele>1017.68</ele>
        <time>2025-12-20T08:46:44Z</time>
      </trkpt>
      <trkpt lat="45.75912" lon="3.71588">
        <ele>1016.93</ele>
        <time>2025-12-20T08:46:46Z</time>
      </trkpt>
      <trkpt lat="45.75897" lon="3.71592">
        <ele>1015.24</ele>
        <time>2025-12-20T08:46:48Z</time>
      </trkpt>
      <trkpt lat="45.75883" lon="3.71595">
        <ele>1013.48</ele>
        <time>2025-12-20T08:46:50Z</time>
      </trkpt>
      <trkpt lat="45.75873" lon="3.7161">
        <ele>1012.03</ele>
        <time>2025-12-20T08:46:52Z</time>
      </trkpt>
      <trkpt lat="45.75863" lon="3.71631">
        <ele>1013.28</ele>
        <time>2025-12-20T08:46:54Z</time>
      </trkpt>
      <trkpt lat="45.75849" lon="3.71646">
        <ele>1015.25</ele>
        <time>2025-12-20T08:46:56Z</time>
      </trkpt>
      <trkpt lat="45.75841" lon="3.71651">
        <ele>1015.64</ele>
        <time>2025-12-20T08:46:57Z</time>
      </trkpt>
      <trkpt lat="45.75833" lon="3.71657">
        <ele>1015.74</ele>
        <time>2025-12-20T08:46:58Z</time>
      </trkpt>
      <trkpt lat="45.75824" lon="3.71661">
        <ele>1016.27</ele>
        <time>2025-12-20T08:46:59Z</time>
      </trkpt>
      <trkpt lat="45.75806" lon="3.71664">
        <ele>1017.22</ele>
        <time>2025-12-20T08:47:01Z</time>
      </trkpt>
      <trkpt lat="45.75796" lon="3.71667">
        <ele>1017.76</ele>
        <time>2025-12-20T08:47:02Z</time>
      </trkpt>
      <trkpt lat="45.75786" lon="3.7167">
        <ele>1016.94</ele>
        <time>2025-12-20T08:47:03Z</time>
      </trkpt>
      <trkpt lat="45.75776" lon="3.71675">
        <ele>1016.72</ele>
        <time>2025-12-20T08:47:04Z</time>
      </trkpt>
      <trkpt lat="45.75768" lon="3.71683">
        <ele>1018.04</ele>
        <time>2025-12-20T08:47:05Z</time>
      </trkpt>
      <trkpt lat="45.7576" lon="3.71693">
        <ele>1019.33</ele>
        <time>2025-12-20T08:47:06Z</time>
      </trkpt>
      <trkpt lat="45.75753" lon="3.71703">
        <ele>1019.59</ele>
        <time>2025-12-20T08:47:07Z</time>
      </trkpt>
      <trkpt lat="45.75748" lon="3.71714">
        <ele>1020.62</ele>
        <time>2025-12-20T08:47:08Z</time>
      </trkpt>
      <trkpt lat="45.75742" lon="3.71734">
        <ele>1020.49</ele>
        <time>2025-12-20T08:47:10Z</time>
      </trkpt>
      <trkpt lat="45.75743" lon="3.71756">
        <ele>1021.7</ele>
        <time>2025-12-20T08:47:12Z</time>
      </trkpt>
      <trkpt lat="45.75734" lon="3.71771">
        <ele>1020.75</ele>
        <time>2025-12-20T08:47:14Z</time>
      </trkpt>
      <trkpt lat="45.75728" lon="3.71781">
        <ele>1021.43</ele>
        <time>2025-12-20T08:47:15Z</time>
      </trkpt>
      <trkpt lat="45.75719" lon="3.718">
        <ele>1022.62</ele>
        <time>2025-12-20T08:47:17Z</time>
      </trkpt>
      <trkpt lat="45.75711" lon="3.71821">
        <ele>1023.72</ele>
        <time>2025-12-20T08:47:19Z</time>
      </trkpt>
      <trkpt lat="45.75707" lon="3.71839">
        <ele>1023.89</ele>
        <time>2025-12-20T08:47:21Z</time>
      </trkpt>
      <trkpt lat="45.75705" lon="3.71859">
        <ele>1025.33</ele>
        <time>2025-12-20T08:47:23Z</time>
      </trkpt>
      <trkpt lat="45.75708" lon="3.71878">
        <ele>1025.96</ele>
        <time>2025-12-20T08:47:25Z</time>
      </trkpt>
      <trkpt lat="45.75708" lon="3.71897">
        <ele>1026.35</ele>
        <time>2025-12-20T08:47:27Z</time>
      </trkpt>
      <trkpt lat="45.75707" lon="3.71917">
        <ele>1025.93</ele>
        <time>2025-12-20T08:47:29Z</time>
      </trkpt>
      <trkpt lat="45.75708" lon="3.71934">
        <ele>1026.74</ele>
        <time>2025-12-20T08:47:31Z</time>
      </trkpt>
      <trkpt lat="45.75713" lon="3.71952">
        <ele>1028.42</ele>
        <time>2025-12-20T08:47:33Z</time>
      </trkpt>
      <trkpt lat="45.75719" lon="3.7197">
        <ele>1030.32</ele>
        <time>2025-12-20T08:47:35Z</time>
      </trkpt>
      <trkpt lat="45.75726" lon="3.71991">
        <ele>1031.19</ele>
        <time>2025-12-20T08:47:37Z</time>
      </trkpt>
      <trkpt lat="45.7573" lon="3.72014">
        <ele>1031.02</ele>
        <time>2025-12-20T08:47:39Z</time>
      </trkpt>
      <trkpt lat="45.75729" lon="3.72036">
        <ele>1032.56</ele>
        <time>2025-12-20T08:47:41Z</time>
      </trkpt>
      <trkpt lat="45.75725" lon="3.72059">
        <ele>1033.71</ele>
        <time>2025-12-20T08:47:43Z</time>
      </trkpt>
      <trkpt lat="45.75718" lon="3.72079">
        <ele>1034.14</ele>
        <time>2025-12-20T08:47:45Z</time>
      </trkpt>
      <trkpt lat="45.75712" lon="3.72101">
        <ele>1034.73</ele>
        <time>2025-12-20T08:47:47Z</time>
      </trkpt>
      <trkpt lat="45.75711" lon="3.72114">
        <ele>1035.28</ele>
        <time>2025-12-20T08:47:48Z</time>
      </trkpt>
      <trkpt lat="45.75709" lon="3.72127">
        <ele>1036.18</ele>
        <time>2025-12-20T08:47:49Z</time>
      </trkpt>
      <trkpt lat="45.75707" lon="3.7214">
        <ele>1036.41</ele>
        <time>2025-12-20T08:47:50Z</time>
      </trkpt>
      <trkpt lat="45.75703" lon="3.72152">
        <ele>1037.16</ele>
        <time>2025-12-20T08:47:51Z</time>
      </trkpt>
      <trkpt lat="45.75699" lon="3.72164">
        <ele>1037.35</ele>
        <time>2025-12-20T08:47:52Z</time>
      </trkpt>
      <trkpt lat="45.75695" lon="3.72176">
        <ele>1038.43</ele>
        <time>2025-12-20T08:47:53Z</time>
      </trkpt>
      <trkpt lat="45.7569" lon="3.72198">
        <ele>1039.13</ele>
        <time>2025-12-20T08:47:55Z</time>
      </trkpt>
      <trkpt lat="45.75683" lon="3.72215">
        <ele>1040.85</ele>
        <time>2025-12-20T08:47:57Z</time>
      </trkpt>
      <trkpt lat="45.75672" lon="3.72205">
        <ele>1043.82</ele>
        <time>2025-12-20T08:48:00Z</time>
      </trkpt>
      <trkpt lat="45.75666" lon="3.72184">
        <ele>1045.17</ele>
        <time>2025-12-20T08:48:02Z</time>
      </trkpt>
      <trkpt lat="45.75661" lon="3.7216">
        <ele>1046.94</ele>
        <time>2025-12-20T08:48:04Z</time>
      </trkpt>
      <trkpt lat="45.75659" lon="3.72147">
        <ele>1048.27</ele>
        <time>2025-12-20T08:48:05Z</time>
      </trkpt>
      <trkpt lat="45.75656" lon="3.72132">
        <ele>1048.78</ele>
        <time>2025-12-20T08:48:06Z</time>
      </trkpt>
      <trkpt lat="45.75654" lon="3.72118">
        <ele>1049.45</ele>
        <time>2025-12-20T08:48:07Z</time>
      </trkpt>
      <trkpt lat="45.75653" lon="3.72104">
        <ele>1049.33</ele>
        <time>2025-12-20T08:48:08Z</time>
      </trkpt>
      <trkpt lat="45.75652" lon="3.72091">
        <ele>1051.22</ele>
        <time>2025-12-20T08:48:09Z</time>
      </trkpt>
      <trkpt lat="45.75649" lon="3.72078">
        <ele>1052.17</ele>
        <time>2025-12-20T08:48:10Z</time>
      </trkpt>
      <trkpt lat="45.75644" lon="3.72066">
        <ele>1052.94</ele>
        <time>2025-12-20T08:48:11Z</time>
      </trkpt>
      <trkpt lat="45.75637" lon="3.72055">
        <ele>1053.53</ele>
        <time>2025-12-20T08:48:12Z</time>
      </trkpt>
      <trkpt lat="45.7563" lon="3.72046">
        <ele>1053.75</ele>
        <time>2025-12-20T08:48:13Z</time>
      </trkpt>
      <trkpt lat="45.75622" lon="3.72037">
        <ele>1054.73</ele>
        <time>2025-12-20T08:48:14Z</time>
      </trkpt>
      <trkpt lat="45.75614" lon="3.72027">
        <ele>1053.51</ele>
        <time>2025-12-20T08:48:15Z</time>
      </trkpt>
      <trkpt lat="45.75606" lon="3.72018">
        <ele>1054.9</ele>
        <time>2025-12-20T08:48:16Z</time>
      </trkpt>
      <trkpt lat="45.75598" lon="3.72008">
        <ele>1055.26</ele>
        <time>2025-12-20T08:48:17Z</time>
      </trkpt>
      <trkpt lat="45.75589" lon="3.71998">
        <ele>1056.8</ele>
        <time>2025-12-20T08:48:18Z</time>
      </trkpt>
      <trkpt lat="45.75581" lon="3.71987">
        <ele>1057.69</ele>
        <time>2025-12-20T08:48:19Z</time>
      </trkpt>
      <trkpt lat="45.75573" lon="3.71978">
        <ele>1058.46</ele>
        <time>2025-12-20T08:48:20Z</time>
      </trkpt>
      <trkpt lat="45.75564" lon="3.71966">
        <ele>1059.79</ele>
        <time>2025-12-20T08:48:21Z</time>
      </trkpt>
      <trkpt lat="45.75557" lon="3.71952">
        <ele>1060.56</ele>
        <time>2025-12-20T08:48:22Z</time>
      </trkpt>
      <trkpt lat="45.75551" lon="3.7194">
        <ele>1060.82</ele>
        <time>2025-12-20T08:48:23Z</time>
      </trkpt>
      <trkpt lat="45.75547" lon="3.71928">
        <ele>1061.63</ele>
        <time>2025-12-20T08:48:24Z</time>
      </trkpt>
      <trkpt lat="45.75545" lon="3.71905">
        <ele>1062.57</ele>
        <time>2025-12-20T08:48:26Z</time>
      </trkpt>
      <trkpt lat="45.75546" lon="3.7189">
        <ele>1062.03</ele>
        <time>2025-12-20T08:48:27Z</time>
      </trkpt>
      <trkpt lat="45.75552" lon="3.71878">
        <ele>1061.78</ele>
        <time>2025-12-20T08:48:28Z</time>
      </trkpt>
      <trkpt lat="45.7556" lon="3.71867">
        <ele>1061</ele>
        <time>2025-12-20T08:48:29Z</time>
      </trkpt>
      <trkpt lat="45.75568" lon="3.71856">
        <ele>1060.74</ele>
        <time>2025-12-20T08:48:30Z</time>
      </trkpt>
      <trkpt lat="45.75575" lon="3.71847">
        <ele>1060.38</ele>
        <time>2025-12-20T08:48:31Z</time>
      </trkpt>
      <trkpt lat="45.75582" lon="3.71838">
        <ele>1059.92</ele>
        <time>2025-12-20T08:48:32Z</time>
      </trkpt>
      <trkpt lat="45.75593" lon="3.7182">
        <ele>1059.4</ele>
        <time>2025-12-20T08:48:34Z</time>
      </trkpt>
      <trkpt lat="45.756" lon="3.718">
        <ele>1057.83</ele>
        <time>2025-12-20T08:48:36Z</time>
      </trkpt>
      <trkpt lat="45.75608" lon="3.71779">
        <ele>1056.88</ele>
        <time>2025-12-20T08:48:38Z</time>
      </trkpt>
      <trkpt lat="45.75616" lon="3.71757">
        <ele>1057.16</ele>
        <time>2025-12-20T08:48:40Z</time>
      </trkpt>
      <trkpt lat="45.75621" lon="3.71737">
        <ele>1057.24</ele>
        <time>2025-12-20T08:48:42Z</time>
      </trkpt>
      <trkpt lat="45.75629" lon="3.71719">
        <ele>1058.11</ele>
        <time>2025-12-20T08:48:44Z</time>
      </trkpt>
      <trkpt lat="45.75637" lon="3.71702">
        <ele>1058.17</ele>
        <time>2025-12-20T08:48:46Z</time>
      </trkpt>
      <trkpt lat="45.75645" lon="3.71689">
        <ele>1056.88</ele>
        <time>2025-12-20T08:48:48Z</time>
      </trkpt>
      <trkpt lat="45.75655" lon="3.71671">
        <ele>1058.19</ele>
        <time>2025-12-20T08:48:50Z</time>
      </trkpt>
      <trkpt lat="45.75666" lon="3.71654">
        <ele>1058.32</ele>
        <time>2025-12-20T08:48:52Z</time>
      </trkpt>
      <trkpt lat="45.75675" lon="3.71634">
        <ele>1056.97</ele>
        <time>2025-12-20T08:48:54Z</time>
      </trkpt>
      <trkpt lat="45.75682" lon="3.71617">
        <ele>1058.2</ele>
        <time>2025-12-20T08:48:56Z</time>
      </trkpt>
      <trkpt lat="45.75691" lon="3.716">
        <ele>1058.01</ele>
        <time>2025-12-20T08:48:58Z</time>
      </trkpt>
      <trkpt lat="45.757" lon="3.71581">
        <ele>1056.85</ele>
        <time>2025-12-20T08:49:00Z</time>
      </trkpt>
      <trkpt lat="45.75706" lon="3.71561">
        <ele>1057.3</ele>
        <time>2025-12-20T08:49:02Z</time>
      </trkpt>
      <trkpt lat="45.7571" lon="3.71539">
        <ele>1057.41</ele>
        <time>2025-12-20T08:49:04Z</time>
      </trkpt>
      <trkpt lat="45.7571" lon="3.71514">
        <ele>1056.83</ele>
        <time>2025-12-20T08:49:06Z</time>
      </trkpt>
      <trkpt lat="45.75712" lon="3.7149">
        <ele>1055.95</ele>
        <time>2025-12-20T08:49:08Z</time>
      </trkpt>
      <trkpt lat="45.75715" lon="3.71468">
        <ele>1055.34</ele>
        <time>2025-12-20T08:49:10Z</time>
      </trkpt>
      <trkpt lat="45.75714" lon="3.71441">
        <ele>1055.99</ele>
        <time>2025-12-20T08:49:12Z</time>
      </trkpt>
      <trkpt lat="45.75715" lon="3.71428">
        <ele>1055.91</ele>
        <time>2025-12-20T08:49:13Z</time>
      </trkpt>
      <trkpt lat="45.75716" lon="3.71414">
        <ele>1056.04</ele>
        <time>2025-12-20T08:49:14Z</time>
      </trkpt>
      <trkpt lat="45.75717" lon="3.714">
        <ele>1056.5</ele>
        <time>2025-12-20T08:49:15Z</time>
      </trkpt>
      <trkpt lat="45.75716" lon="3.71387">
        <ele>1056.25</ele>
        <time>2025-12-20T08:49:16Z</time>
      </trkpt>
      <trkpt lat="45.75715" lon="3.71362">
        <ele>1055.8</ele>
        <time>2025-12-20T08:49:18Z</time>
      </trkpt>
      <trkpt lat="45.75712" lon="3.71341">
        <ele>1055.31</ele>
        <time>2025-12-20T08:49:20Z</time>
      </trkpt>
      <trkpt lat="45.75708" lon="3.71319">
        <ele>1054.79</ele>
        <time>2025-12-20T08:49:22Z</time>
      </trkpt>
      <trkpt lat="45.75705" lon="3.71302">
        <ele>1054.74</ele>
        <time>2025-12-20T08:49:24Z</time>
      </trkpt>
      <trkpt lat="45.75702" lon="3.71285">
        <ele>1055.11</ele>
        <time>2025-12-20T08:49:26Z</time>
      </trkpt>
      <trkpt lat="45.75699" lon="3.71267">
        <ele>1054.85</ele>
        <time>2025-12-20T08:49:28Z</time>
      </trkpt>
      <trkpt lat="45.75695" lon="3.71248">
        <ele>1054.34</ele>
        <time>2025-12-20T08:49:30Z</time>
      </trkpt>
      <trkpt lat="45.75689" lon="3.71227">
        <ele>1053.5</ele>
        <time>2025-12-20T08:49:32Z</time>
      </trkpt>
      <trkpt lat="45.75679" lon="3.71208">
        <ele>1052.9</ele>
        <time>2025-12-20T08:49:34Z</time>
      </trkpt>
      <trkpt lat="45.75673" lon="3.71197">
        <ele>1053.33</ele>
        <time>2025-12-20T08:49:35Z</time>
      </trkpt>
      <trkpt lat="45.75663" lon="3.71179">
        <ele>1053.18</ele>
        <time>2025-12-20T08:49:37Z</time>
      </trkpt>
      <trkpt lat="45.75654" lon="3.71169">
        <ele>1053.03</ele>
        <time>2025-12-20T08:49:39Z</time>
      </trkpt>
      <trkpt lat="45.75643" lon="3.71171">
        <ele>1054.63</ele>
        <time>2025-12-20T08:49:50Z</time>
      </trkpt>
      <trkpt lat="45.75634" lon="3.71173">
        <ele>1055.18</ele>
        <time>2025-12-20T08:49:54Z</time>
      </trkpt>
      <trkpt lat="45.75626" lon="3.7118">
        <ele>1055.96</ele>
        <time>2025-12-20T08:49:58Z</time>
      </trkpt>
      <trkpt lat="45.75615" lon="3.71187">
        <ele>1057.81</ele>
        <time>2025-12-20T08:50:02Z</time>
      </trkpt>
      <trkpt lat="45.75607" lon="3.71194">
        <ele>1059.74</ele>
        <time>2025-12-20T08:50:05Z</time>
      </trkpt>
      <trkpt lat="45.75598" lon="3.712">
        <ele>1061.54</ele>
        <time>2025-12-20T08:50:08Z</time>
      </trkpt>
      <trkpt lat="45.7559" lon="3.71209">
        <ele>1064.81</ele>
        <time>2025-12-20T08:50:13Z</time>
      </trkpt>
      <trkpt lat="45.75581" lon="3.7122">
        <ele>1066.98</ele>
        <time>2025-12-20T08:50:16Z</time>
      </trkpt>
      <trkpt lat="45.75573" lon="3.7123">
        <ele>1069.12</ele>
        <time>2025-12-20T08:50:19Z</time>
      </trkpt>
      <trkpt lat="45.75565" lon="3.71241">
        <ele>1071.8</ele>
        <time>2025-12-20T08:50:22Z</time>
      </trkpt>
      <trkpt lat="45.75559" lon="3.7125">
        <ele>1073.7</ele>
        <time>2025-12-20T08:50:25Z</time>
      </trkpt>
      <trkpt lat="45.75551" lon="3.7126">
        <ele>1076.4</ele>
        <time>2025-12-20T08:50:29Z</time>
      </trkpt>
      <trkpt lat="45.75544" lon="3.71272">
        <ele>1079.22</ele>
        <time>2025-12-20T08:50:34Z</time>
      </trkpt>
      <trkpt lat="45.75539" lon="3.71284">
        <ele>1081.25</ele>
        <time>2025-12-20T08:50:38Z</time>
      </trkpt>
      <trkpt lat="45.75536" lon="3.71299">
        <ele>1082.89</ele>
        <time>2025-12-20T08:50:42Z</time>
      </trkpt>
      <trkpt lat="45.75532" lon="3.71314">
        <ele>1085.11</ele>
        <time>2025-12-20T08:50:46Z</time>
      </trkpt>
      <trkpt lat="45.75529" lon="3.7133">
        <ele>1085.89</ele>
        <time>2025-12-20T08:50:49Z</time>
      </trkpt>
      <trkpt lat="45.75526" lon="3.71346">
        <ele>1086.59</ele>
        <time>2025-12-20T08:50:52Z</time>
      </trkpt>
      <trkpt lat="45.75523" lon="3.71363">
        <ele>1087.6</ele>
        <time>2025-12-20T08:50:56Z</time>
      </trkpt>
      <trkpt lat="45.75519" lon="3.71378">
        <ele>1088.4</ele>
        <time>2025-12-20T08:51:00Z</time>
      </trkpt>
      <trkpt lat="45.75514" lon="3.71393">
        <ele>1089.79</ele>
        <time>2025-12-20T08:51:04Z</time>
      </trkpt>
      <trkpt lat="45.75511" lon="3.71406">
        <ele>1091.48</ele>
        <time>2025-12-20T08:51:07Z</time>
      </trkpt>
      <trkpt lat="45.7551" lon="3.71422">
        <ele>1092.84</ele>
        <time>2025-12-20T08:51:11Z</time>
      </trkpt>
      <trkpt lat="45.75509" lon="3.71436">
        <ele>1093.92</ele>
        <time>2025-12-20T08:51:14Z</time>
      </trkpt>
      <trkpt lat="45.75505" lon="3.71451">
        <ele>1095.55</ele>
        <time>2025-12-20T08:51:18Z</time>
      </trkpt>
      <trkpt lat="45.75501" lon="3.71465">
        <ele>1095.2</ele>
        <time>2025-12-20T08:51:23Z</time>
      </trkpt>
      <trkpt lat="45.75497" lon="3.71479">
        <ele>1096.54</ele>
        <time>2025-12-20T08:51:27Z</time>
      </trkpt>
      <trkpt lat="45.75492" lon="3.71492">
        <ele>1098.3</ele>
        <time>2025-12-20T08:51:31Z</time>
      </trkpt>
      <trkpt lat="45.75483" lon="3.71504">
        <ele>1097.8</ele>
        <time>2025-12-20T08:51:35Z</time>
      </trkpt>
      <trkpt lat="45.75477" lon="3.71515">
        <ele>1098.13</ele>
        <time>2025-12-20T08:51:38Z</time>
      </trkpt>
      <trkpt lat="45.75476" lon="3.7153">
        <ele>1098.02</ele>
        <time>2025-12-20T08:51:41Z</time>
      </trkpt>
      <trkpt lat="45.75475" lon="3.71547">
        <ele>1098.91</ele>
        <time>2025-12-20T08:51:44Z</time>
      </trkpt>
      <trkpt lat="45.75477" lon="3.71563">
        <ele>1100.01</ele>
        <time>2025-12-20T08:51:47Z</time>
      </trkpt>
      <trkpt lat="45.75477" lon="3.71576">
        <ele>1100.33</ele>
        <time>2025-12-20T08:51:49Z</time>
      </trkpt>
      <trkpt lat="45.75475" lon="3.71591">
        <ele>1100.75</ele>
        <time>2025-12-20T08:51:52Z</time>
      </trkpt>
      <trkpt lat="45.75472" lon="3.71604">
        <ele>1100.7</ele>
        <time>2025-12-20T08:51:58Z</time>
      </trkpt>
      <trkpt lat="45.75466" lon="3.7162">
        <ele>1100.81</ele>
        <time>2025-12-20T08:52:01Z</time>
      </trkpt>
      <trkpt lat="45.75463" lon="3.71637">
        <ele>1100.9</ele>
        <time>2025-12-20T08:52:03Z</time>
      </trkpt>
      <trkpt lat="45.75461" lon="3.71651">
        <ele>1101.49</ele>
        <time>2025-12-20T08:52:05Z</time>
      </trkpt>
      <trkpt lat="45.75458" lon="3.71665">
        <ele>1103.88</ele>
        <time>2025-12-20T08:52:23Z</time>
      </trkpt>
      <trkpt lat="45.7545" lon="3.71674">
        <ele>1104.51</ele>
        <time>2025-12-20T08:52:26Z</time>
      </trkpt>
      <trkpt lat="45.75441" lon="3.71682">
        <ele>1105.44</ele>
        <time>2025-12-20T08:52:29Z</time>
      </trkpt>
      <trkpt lat="45.75432" lon="3.71691">
        <ele>1106.35</ele>
        <time>2025-12-20T08:52:31Z</time>
      </trkpt>
      <trkpt lat="45.75423" lon="3.71706">
        <ele>1106</ele>
        <time>2025-12-20T08:52:33Z</time>
      </trkpt>
      <trkpt lat="45.75416" lon="3.71717">
        <ele>1105.19</ele>
        <time>2025-12-20T08:52:35Z</time>
      </trkpt>
      <trkpt lat="45.75408" lon="3.71728">
        <ele>1106.35</ele>
        <time>2025-12-20T08:52:37Z</time>
      </trkpt>
      <trkpt lat="45.75399" lon="3.71736">
        <ele>1107.59</ele>
        <time>2025-12-20T08:52:39Z</time>
      </trkpt>
      <trkpt lat="45.75389" lon="3.71738">
        <ele>1108.44</ele>
        <time>2025-12-20T08:52:43Z</time>
      </trkpt>
      <trkpt lat="45.75385" lon="3.7174">
        <ele>1112.67</ele>
        <time>2025-12-20T08:54:44Z</time>
      </trkpt>
      <trkpt lat="45.75378" lon="3.71728">
        <ele>1112.18</ele>
        <time>2025-12-20T08:55:10Z</time>
      </trkpt>
      <trkpt lat="45.7538" lon="3.71736">
        <ele>1112.8</ele>
        <time>2025-12-20T08:57:23Z</time>
      </trkpt>
      <trkpt lat="45.75382" lon="3.71741">
        <ele>1111.74</ele>
        <time>2025-12-20T09:01:05Z</time>
      </trkpt>
      <trkpt lat="45.75388" lon="3.7174">
        <ele>1127.63</ele>
        <time>2025-12-20T09:07:10Z</time>
      </trkpt>
      <trkpt lat="45.75387" lon="3.71741">
        <ele>1124.67</ele>
        <time>2025-12-20T09:09:11Z</time>
      </trkpt>
      <trkpt lat="45.75384" lon="3.71728">
        <ele>1125.73</ele>
        <time>2025-12-20T09:09:38Z</time>
      </trkpt>
      <trkpt lat="45.75382" lon="3.71713">
        <ele>1125.66</ele>
        <time>2025-12-20T09:09:51Z</time>
      </trkpt>
      <trkpt lat="45.75383" lon="3.71695">
        <ele>1124.39</ele>
        <time>2025-12-20T09:09:54Z</time>
      </trkpt>
      <trkpt lat="45.75383" lon="3.71678">
        <ele>1124.75</ele>
        <time>2025-12-20T09:09:56Z</time>
      </trkpt>
      <trkpt lat="45.75381" lon="3.7166">
        <ele>1123.43</ele>
        <time>2025-12-20T09:09:59Z</time>
      </trkpt>
      <trkpt lat="45.7538" lon="3.71643">
        <ele>1122.76</ele>
        <time>2025-12-20T09:10:02Z</time>
      </trkpt>
      <trkpt lat="45.75379" lon="3.71625">
        <ele>1123.05</ele>
        <time>2025-12-20T09:10:05Z</time>
      </trkpt>
      <trkpt lat="45.75378" lon="3.71611">
        <ele>1123.53</ele>
        <time>2025-12-20T09:10:09Z</time>
      </trkpt>
      <trkpt lat="45.75372" lon="3.71595">
        <ele>1122.26</ele>
        <time>2025-12-20T09:10:12Z</time>
      </trkpt>
      <trkpt lat="45.75363" lon="3.71587">
        <ele>1121.21</ele>
        <time>2025-12-20T09:10:14Z</time>
      </trkpt>
      <trkpt lat="45.75354" lon="3.7158">
        <ele>1121.77</ele>
        <time>2025-12-20T09:10:16Z</time>
      </trkpt>
      <trkpt lat="45.75347" lon="3.71571">
        <ele>1120.52</ele>
        <time>2025-12-20T09:10:19Z</time>
      </trkpt>
      <trkpt lat="45.75341" lon="3.71557">
        <ele>1121.9</ele>
        <time>2025-12-20T09:10:23Z</time>
      </trkpt>
      <trkpt lat="45.75337" lon="3.71539">
        <ele>1119.6</ele>
        <time>2025-12-20T09:10:26Z</time>
      </trkpt>
      <trkpt lat="45.75333" lon="3.71521">
        <ele>1119.15</ele>
        <time>2025-12-20T09:10:28Z</time>
      </trkpt>
      <trkpt lat="45.75329" lon="3.71508">
        <ele>1117.17</ele>
        <time>2025-12-20T09:10:30Z</time>
      </trkpt>
      <trkpt lat="45.75327" lon="3.71492">
        <ele>1118.97</ele>
        <time>2025-12-20T09:10:32Z</time>
      </trkpt>
      <trkpt lat="45.75324" lon="3.71475">
        <ele>1116.9</ele>
        <time>2025-12-20T09:10:34Z</time>
      </trkpt>
      <trkpt lat="45.75325" lon="3.71457">
        <ele>1114.84</ele>
        <time>2025-12-20T09:10:37Z</time>
      </trkpt>
      <trkpt lat="45.75327" lon="3.71444">
        <ele>1113.53</ele>
        <time>2025-12-20T09:10:39Z</time>
      </trkpt>
      <trkpt lat="45.75332" lon="3.71427">
        <ele>1112.25</ele>
        <time>2025-12-20T09:10:41Z</time>
      </trkpt>
      <trkpt lat="45.75334" lon="3.71409">
        <ele>1112.34</ele>
        <time>2025-12-20T09:10:43Z</time>
      </trkpt>
      <trkpt lat="45.75334" lon="3.71387">
        <ele>1112.3</ele>
        <time>2025-12-20T09:10:45Z</time>
      </trkpt>
      <trkpt lat="45.75334" lon="3.71365">
        <ele>1110.35</ele>
        <time>2025-12-20T09:10:47Z</time>
      </trkpt>
      <trkpt lat="45.75332" lon="3.71344">
        <ele>1108</ele>
        <time>2025-12-20T09:10:49Z</time>
      </trkpt>
      <trkpt lat="45.75329" lon="3.71331">
        <ele>1105.77</ele>
        <time>2025-12-20T09:10:51Z</time>
      </trkpt>
      <trkpt lat="45.75329" lon="3.71317">
        <ele>1102.19</ele>
        <time>2025-12-20T09:10:55Z</time>
      </trkpt>
      <trkpt lat="45.75323" lon="3.71305">
        <ele>1100.35</ele>
        <time>2025-12-20T09:10:57Z</time>
      </trkpt>
      <trkpt lat="45.7532" lon="3.71288">
        <ele>1097.94</ele>
        <time>2025-12-20T09:11:00Z</time>
      </trkpt>
      <trkpt lat="45.75314" lon="3.71277">
        <ele>1095.73</ele>
        <time>2025-12-20T09:11:02Z</time>
      </trkpt>
      <trkpt lat="45.75303" lon="3.71262">
        <ele>1093.81</ele>
        <time>2025-12-20T09:11:04Z</time>
      </trkpt>
      <trkpt lat="45.75295" lon="3.71245">
        <ele>1093.33</ele>
        <time>2025-12-20T09:11:06Z</time>
      </trkpt>
      <trkpt lat="45.7529" lon="3.71232">
        <ele>1093.2</ele>
        <time>2025-12-20T09:11:07Z</time>
      </trkpt>
      <trkpt lat="45.75286" lon="3.7122">
        <ele>1092.99</ele>
        <time>2025-12-20T09:11:08Z</time>
      </trkpt>
      <trkpt lat="45.75283" lon="3.71208">
        <ele>1093.26</ele>
        <time>2025-12-20T09:11:09Z</time>
      </trkpt>
      <trkpt lat="45.75278" lon="3.7119">
        <ele>1092.13</ele>
        <time>2025-12-20T09:11:11Z</time>
      </trkpt>
      <trkpt lat="45.75275" lon="3.71174">
        <ele>1092.23</ele>
        <time>2025-12-20T09:11:13Z</time>
      </trkpt>
      <trkpt lat="45.75274" lon="3.71156">
        <ele>1091.42</ele>
        <time>2025-12-20T09:11:15Z</time>
      </trkpt>
      <trkpt lat="45.75272" lon="3.71139">
        <ele>1091.74</ele>
        <time>2025-12-20T09:11:18Z</time>
      </trkpt>
      <trkpt lat="45.75271" lon="3.71123">
        <ele>1092.03</ele>
        <time>2025-12-20T09:11:20Z</time>
      </trkpt>
      <trkpt lat="45.75271" lon="3.71106">
        <ele>1090.84</ele>
        <time>2025-12-20T09:11:22Z</time>
      </trkpt>
      <trkpt lat="45.75272" lon="3.71094">
        <ele>1090.2</ele>
        <time>2025-12-20T09:11:24Z</time>
      </trkpt>
      <trkpt lat="45.75272" lon="3.71078">
        <ele>1091.46</ele>
        <time>2025-12-20T09:11:27Z</time>
      </trkpt>
      <trkpt lat="45.75274" lon="3.71061">
        <ele>1091.34</ele>
        <time>2025-12-20T09:11:30Z</time>
      </trkpt>
      <trkpt lat="45.75274" lon="3.71048">
        <ele>1092.21</ele>
        <time>2025-12-20T09:11:33Z</time>
      </trkpt>
      <trkpt lat="45.75276" lon="3.71035">
        <ele>1092.21</ele>
        <time>2025-12-20T09:11:36Z</time>
      </trkpt>
      <trkpt lat="45.75277" lon="3.71018">
        <ele>1091.67</ele>
        <time>2025-12-20T09:11:39Z</time>
      </trkpt>
      <trkpt lat="45.75282" lon="3.71">
        <ele>1089.34</ele>
        <time>2025-12-20T09:11:42Z</time>
      </trkpt>
      <trkpt lat="45.75291" lon="3.70982">
        <ele>1088.28</ele>
        <time>2025-12-20T09:11:44Z</time>
      </trkpt>
      <trkpt lat="45.75301" lon="3.70967">
        <ele>1085.56</ele>
        <time>2025-12-20T09:11:46Z</time>
      </trkpt>
      <trkpt lat="45.75311" lon="3.70949">
        <ele>1084.22</ele>
        <time>2025-12-20T09:11:48Z</time>
      </trkpt>
      <trkpt lat="45.7532" lon="3.70931">
        <ele>1082.3</ele>
        <time>2025-12-20T09:11:50Z</time>
      </trkpt>
      <trkpt lat="45.75325" lon="3.70918">
        <ele>1084.07</ele>
        <time>2025-12-20T09:11:52Z</time>
      </trkpt>
      <trkpt lat="45.7533" lon="3.70905">
        <ele>1084.37</ele>
        <time>2025-12-20T09:11:57Z</time>
      </trkpt>
      <trkpt lat="45.75336" lon="3.70893">
        <ele>1084.03</ele>
        <time>2025-12-20T09:12:02Z</time>
      </trkpt>
      <trkpt lat="45.75341" lon="3.7088">
        <ele>1082.58</ele>
        <time>2025-12-20T09:13:25Z</time>
      </trkpt>
      <trkpt lat="45.7534" lon="3.70867">
        <ele>1084.08</ele>
        <time>2025-12-20T09:13:40Z</time>
      </trkpt>
      <trkpt lat="45.75347" lon="3.70858">
        <ele>1083.89</ele>
        <time>2025-12-20T09:14:20Z</time>
      </trkpt>
      <trkpt lat="45.75344" lon="3.70872">
        <ele>1083.61</ele>
        <time>2025-12-20T09:14:41Z</time>
      </trkpt>
      <trkpt lat="45.75341" lon="3.70885">
        <ele>1082.81</ele>
        <time>2025-12-20T09:14:50Z</time>
      </trkpt>
      <trkpt lat="45.75338" lon="3.70868">
        <ele>1084.31</ele>
        <time>2025-12-20T09:16:03Z</time>
      </trkpt>
      <trkpt lat="45.75343" lon="3.70846">
        <ele>1085.59</ele>
        <time>2025-12-20T09:16:07Z</time>
      </trkpt>
      <trkpt lat="45.75347" lon="3.70833">
        <ele>1084.87</ele>
        <time>2025-12-20T09:16:09Z</time>
      </trkpt>
      <trkpt lat="45.75351" lon="3.7082">
        <ele>1084.76</ele>
        <time>2025-12-20T09:16:11Z</time>
      </trkpt>
      <trkpt lat="45.75355" lon="3.70806">
        <ele>1085.32</ele>
        <time>2025-12-20T09:16:14Z</time>
      </trkpt>
      <trkpt lat="45.75359" lon="3.70793">
        <ele>1087.02</ele>
        <time>2025-12-20T09:16:17Z</time>
      </trkpt>
      <trkpt lat="45.75364" lon="3.7078">
        <ele>1086.72</ele>
        <time>2025-12-20T09:16:19Z</time>
      </trkpt>
      <trkpt lat="45.75368" lon="3.70766">
        <ele>1088.32</ele>
        <time>2025-12-20T09:16:21Z</time>
      </trkpt>
      <trkpt lat="45.75372" lon="3.70746">
        <ele>1089.92</ele>
        <time>2025-12-20T09:16:24Z</time>
      </trkpt>
      <trkpt lat="45.75373" lon="3.70732">
        <ele>1088.69</ele>
        <time>2025-12-20T09:16:26Z</time>
      </trkpt>
      <trkpt lat="45.75373" lon="3.70719">
        <ele>1089.35</ele>
        <time>2025-12-20T09:16:28Z</time>
      </trkpt>
      <trkpt lat="45.75379" lon="3.70703">
        <ele>1089.02</ele>
        <time>2025-12-20T09:16:30Z</time>
      </trkpt>
      <trkpt lat="45.75384" lon="3.70693">
        <ele>1089.3</ele>
        <time>2025-12-20T09:16:31Z</time>
      </trkpt>
      <trkpt lat="45.75394" lon="3.70679">
        <ele>1089.84</ele>
        <time>2025-12-20T09:16:33Z</time>
      </trkpt>
      <trkpt lat="45.75402" lon="3.70664">
        <ele>1089.28</ele>
        <time>2025-12-20T09:16:36Z</time>
      </trkpt>
      <trkpt lat="45.75412" lon="3.70653">
        <ele>1089.91</ele>
        <time>2025-12-20T09:16:39Z</time>
      </trkpt>
      <trkpt lat="45.75419" lon="3.70644">
        <ele>1090.61</ele>
        <time>2025-12-20T09:16:41Z</time>
      </trkpt>
      <trkpt lat="45.75426" lon="3.70629">
        <ele>1091.07</ele>
        <time>2025-12-20T09:16:44Z</time>
      </trkpt>
      <trkpt lat="45.75432" lon="3.70615">
        <ele>1091.63</ele>
        <time>2025-12-20T09:16:46Z</time>
      </trkpt>
      <trkpt lat="45.75438" lon="3.70599">
        <ele>1092</ele>
        <time>2025-12-20T09:16:48Z</time>
      </trkpt>
      <trkpt lat="45.75446" lon="3.70578">
        <ele>1092.67</ele>
        <time>2025-12-20T09:16:50Z</time>
      </trkpt>
      <trkpt lat="45.75451" lon="3.70566">
        <ele>1092.41</ele>
        <time>2025-12-20T09:16:51Z</time>
      </trkpt>
      <trkpt lat="45.7546" lon="3.70548">
        <ele>1091.61</ele>
        <time>2025-12-20T09:16:53Z</time>
      </trkpt>
      <trkpt lat="45.75467" lon="3.70531">
        <ele>1091.75</ele>
        <time>2025-12-20T09:16:55Z</time>
      </trkpt>
      <trkpt lat="45.75471" lon="3.70519">
        <ele>1091.24</ele>
        <time>2025-12-20T09:16:57Z</time>
      </trkpt>
      <trkpt lat="45.75475" lon="3.70505">
        <ele>1089.94</ele>
        <time>2025-12-20T09:17:00Z</time>
      </trkpt>
      <trkpt lat="45.75481" lon="3.70488">
        <ele>1089.39</ele>
        <time>2025-12-20T09:17:03Z</time>
      </trkpt>
      <trkpt lat="45.75485" lon="3.70477">
        <ele>1088.79</ele>
        <time>2025-12-20T09:17:05Z</time>
      </trkpt>
      <trkpt lat="45.75492" lon="3.70462">
        <ele>1088.23</ele>
        <time>2025-12-20T09:17:08Z</time>
      </trkpt>
      <trkpt lat="45.75499" lon="3.70452">
        <ele>1087.35</ele>
        <time>2025-12-20T09:17:10Z</time>
      </trkpt>
      <trkpt lat="45.75505" lon="3.70441">
        <ele>1086.67</ele>
        <time>2025-12-20T09:17:13Z</time>
      </trkpt>
      <trkpt lat="45.75511" lon="3.70429">
        <ele>1085.42</ele>
        <time>2025-12-20T09:17:17Z</time>
      </trkpt>
      <trkpt lat="45.75518" lon="3.70418">
        <ele>1084.07</ele>
        <time>2025-12-20T09:17:21Z</time>
      </trkpt>
      <trkpt lat="45.75524" lon="3.70407">
        <ele>1082.63</ele>
        <time>2025-12-20T09:17:26Z</time>
      </trkpt>
      <trkpt lat="45.7553" lon="3.70396">
        <ele>1081.06</ele>
        <time>2025-12-20T09:17:33Z</time>
      </trkpt>
      <trkpt lat="45.75536" lon="3.70385">
        <ele>1080.14</ele>
        <time>2025-12-20T09:17:40Z</time>
      </trkpt>
      <trkpt lat="45.75543" lon="3.7037">
        <ele>1078.31</ele>
        <time>2025-12-20T09:17:44Z</time>
      </trkpt>
      <trkpt lat="45.75548" lon="3.70359">
        <ele>1076.34</ele>
        <time>2025-12-20T09:17:48Z</time>
      </trkpt>
      <trkpt lat="45.75555" lon="3.7035">
        <ele>1074.28</ele>
        <time>2025-12-20T09:17:55Z</time>
      </trkpt>
      <trkpt lat="45.75561" lon="3.70337">
        <ele>1071.86</ele>
        <time>2025-12-20T09:18:01Z</time>
      </trkpt>
      <trkpt lat="45.75567" lon="3.70326">
        <ele>1070.05</ele>
        <time>2025-12-20T09:18:06Z</time>
      </trkpt>
      <trkpt lat="45.7557" lon="3.70311">
        <ele>1067.85</ele>
        <time>2025-12-20T09:18:11Z</time>
      </trkpt>
      <trkpt lat="45.75571" lon="3.70297">
        <ele>1066.92</ele>
        <time>2025-12-20T09:18:16Z</time>
      </trkpt>
      <trkpt lat="45.75573" lon="3.70284">
        <ele>1065.6</ele>
        <time>2025-12-20T09:18:21Z</time>
      </trkpt>
      <trkpt lat="45.75575" lon="3.70272">
        <ele>1064.28</ele>
        <time>2025-12-20T09:18:25Z</time>
      </trkpt>
      <trkpt lat="45.7558" lon="3.70258">
        <ele>1063</ele>
        <time>2025-12-20T09:18:29Z</time>
      </trkpt>
      <trkpt lat="45.75587" lon="3.70241">
        <ele>1061.34</ele>
        <time>2025-12-20T09:18:32Z</time>
      </trkpt>
      <trkpt lat="45.75591" lon="3.70225">
        <ele>1060.98</ele>
        <time>2025-12-20T09:18:35Z</time>
      </trkpt>
      <trkpt lat="45.75596" lon="3.7021">
        <ele>1058.91</ele>
        <time>2025-12-20T09:18:37Z</time>
      </trkpt>
      <trkpt lat="45.756" lon="3.70197">
        <ele>1058.33</ele>
        <time>2025-12-20T09:18:39Z</time>
      </trkpt>
      <trkpt lat="45.75604" lon="3.70182">
        <ele>1057.05</ele>
        <time>2025-12-20T09:18:41Z</time>
      </trkpt>
      <trkpt lat="45.75608" lon="3.70167">
        <ele>1056.41</ele>
        <time>2025-12-20T09:18:43Z</time>
      </trkpt>
      <trkpt lat="45.75613" lon="3.70153">
        <ele>1055.51</ele>
        <time>2025-12-20T09:18:45Z</time>
      </trkpt>
      <trkpt lat="45.75617" lon="3.7014">
        <ele>1055.45</ele>
        <time>2025-12-20T09:18:47Z</time>
      </trkpt>
      <trkpt lat="45.75624" lon="3.70125">
        <ele>1053.06</ele>
        <time>2025-12-20T09:18:50Z</time>
      </trkpt>
      <trkpt lat="45.75631" lon="3.70115">
        <ele>1052.4</ele>
        <time>2025-12-20T09:18:52Z</time>
      </trkpt>
      <trkpt lat="45.75641" lon="3.70106">
        <ele>1051.41</ele>
        <time>2025-12-20T09:18:55Z</time>
      </trkpt>
      <trkpt lat="45.75649" lon="3.701">
        <ele>1050.48</ele>
        <time>2025-12-20T09:18:58Z</time>
      </trkpt>
      <trkpt lat="45.75663" lon="3.70089">
        <ele>1050.3</ele>
        <time>2025-12-20T09:19:00Z</time>
      </trkpt>
      <trkpt lat="45.75675" lon="3.70074">
        <ele>1048.2</ele>
        <time>2025-12-20T09:19:02Z</time>
      </trkpt>
      <trkpt lat="45.75685" lon="3.7006">
        <ele>1047.51</ele>
        <time>2025-12-20T09:19:04Z</time>
      </trkpt>
      <trkpt lat="45.75695" lon="3.7005">
        <ele>1045.56</ele>
        <time>2025-12-20T09:19:06Z</time>
      </trkpt>
      <trkpt lat="45.75706" lon="3.70044">
        <ele>1042.94</ele>
        <time>2025-12-20T09:19:09Z</time>
      </trkpt>
      <trkpt lat="45.75715" lon="3.70042">
        <ele>1040.59</ele>
        <time>2025-12-20T09:19:14Z</time>
      </trkpt>
      <trkpt lat="45.75702" lon="3.70034">
        <ele>1039.48</ele>
        <time>2025-12-20T09:19:24Z</time>
      </trkpt>
      <trkpt lat="45.75693" lon="3.70033">
        <ele>1038.87</ele>
        <time>2025-12-20T09:19:25Z</time>
      </trkpt>
      <trkpt lat="45.75683" lon="3.70033">
        <ele>1039.08</ele>
        <time>2025-12-20T09:19:26Z</time>
      </trkpt>
      <trkpt lat="45.75672" lon="3.70035">
        <ele>1038.36</ele>
        <time>2025-12-20T09:19:28Z</time>
      </trkpt>
      <trkpt lat="45.75662" lon="3.70036">
        <ele>1038.57</ele>
        <time>2025-12-20T09:19:31Z</time>
      </trkpt>
      <trkpt lat="45.7565" lon="3.70036">
        <ele>1038.33</ele>
        <time>2025-12-20T09:19:34Z</time>
      </trkpt>
      <trkpt lat="45.75636" lon="3.70037">
        <ele>1038.25</ele>
        <time>2025-12-20T09:19:36Z</time>
      </trkpt>
      <trkpt lat="45.75622" lon="3.70039">
        <ele>1037.91</ele>
        <time>2025-12-20T09:19:38Z</time>
      </trkpt>
      <trkpt lat="45.75608" lon="3.70043">
        <ele>1037.62</ele>
        <time>2025-12-20T09:19:40Z</time>
      </trkpt>
      <trkpt lat="45.75595" lon="3.70048">
        <ele>1037.61</ele>
        <time>2025-12-20T09:19:42Z</time>
      </trkpt>
      <trkpt lat="45.75582" lon="3.70047">
        <ele>1038.17</ele>
        <time>2025-12-20T09:19:44Z</time>
      </trkpt>
      <trkpt lat="45.75569" lon="3.70042">
        <ele>1036.95</ele>
        <time>2025-12-20T09:19:46Z</time>
      </trkpt>
      <trkpt lat="45.75552" lon="3.70037">
        <ele>1036.37</ele>
        <time>2025-12-20T09:19:48Z</time>
      </trkpt>
      <trkpt lat="45.75537" lon="3.70033">
        <ele>1035.41</ele>
        <time>2025-12-20T09:19:50Z</time>
      </trkpt>
      <trkpt lat="45.75524" lon="3.7003">
        <ele>1034</ele>
        <time>2025-12-20T09:19:52Z</time>
      </trkpt>
      <trkpt lat="45.75509" lon="3.70031">
        <ele>1033.23</ele>
        <time>2025-12-20T09:19:54Z</time>
      </trkpt>
      <trkpt lat="45.75495" lon="3.70032">
        <ele>1030.92</ele>
        <time>2025-12-20T09:19:56Z</time>
      </trkpt>
      <trkpt lat="45.75483" lon="3.70035">
        <ele>1029.85</ele>
        <time>2025-12-20T09:19:58Z</time>
      </trkpt>
      <trkpt lat="45.75469" lon="3.70041">
        <ele>1028.04</ele>
        <time>2025-12-20T09:20:00Z</time>
      </trkpt>
      <trkpt lat="45.75457" lon="3.70048">
        <ele>1027.48</ele>
        <time>2025-12-20T09:20:02Z</time>
      </trkpt>
      <trkpt lat="45.75445" lon="3.70056">
        <ele>1026.96</ele>
        <time>2025-12-20T09:20:04Z</time>
      </trkpt>
      <trkpt lat="45.7543" lon="3.70055">
        <ele>1027.16</ele>
        <time>2025-12-20T09:20:06Z</time>
      </trkpt>
      <trkpt lat="45.75419" lon="3.7005">
        <ele>1025.65</ele>
        <time>2025-12-20T09:20:08Z</time>
      </trkpt>
      <trkpt lat="45.7541" lon="3.70041">
        <ele>1024.94</ele>
        <time>2025-12-20T09:20:10Z</time>
      </trkpt>
      <trkpt lat="45.75398" lon="3.70027">
        <ele>1024.49</ele>
        <time>2025-12-20T09:20:12Z</time>
      </trkpt>
      <trkpt lat="45.7539" lon="3.70019">
        <ele>1024.51</ele>
        <time>2025-12-20T09:20:13Z</time>
      </trkpt>
      <trkpt lat="45.75382" lon="3.70011">
        <ele>1024.31</ele>
        <time>2025-12-20T09:20:14Z</time>
      </trkpt>
      <trkpt lat="45.75373" lon="3.70002">
        <ele>1024.13</ele>
        <time>2025-12-20T09:20:15Z</time>
      </trkpt>
      <trkpt lat="45.75364" lon="3.69992">
        <ele>1024.02</ele>
        <time>2025-12-20T09:20:16Z</time>
      </trkpt>
      <trkpt lat="45.75355" lon="3.69982">
        <ele>1023.95</ele>
        <time>2025-12-20T09:20:17Z</time>
      </trkpt>
      <trkpt lat="45.75346" lon="3.6997">
        <ele>1023.92</ele>
        <time>2025-12-20T09:20:18Z</time>
      </trkpt>
      <trkpt lat="45.75338" lon="3.69957">
        <ele>1023.91</ele>
        <time>2025-12-20T09:20:19Z</time>
      </trkpt>
      <trkpt lat="45.75329" lon="3.69944">
        <ele>1023.89</ele>
        <time>2025-12-20T09:20:20Z</time>
      </trkpt>
      <trkpt lat="45.75321" lon="3.69931">
        <ele>1023.95</ele>
        <time>2025-12-20T09:20:21Z</time>
      </trkpt>
      <trkpt lat="45.75314" lon="3.69919">
        <ele>1023.98</ele>
        <time>2025-12-20T09:20:22Z</time>
      </trkpt>
      <trkpt lat="45.75307" lon="3.69909">
        <ele>1023.83</ele>
        <time>2025-12-20T09:20:23Z</time>
      </trkpt>
      <trkpt lat="45.753" lon="3.699">
        <ele>1023.36</ele>
        <time>2025-12-20T09:20:24Z</time>
      </trkpt>
      <trkpt lat="45.75285" lon="3.6989">
        <ele>1023.33</ele>
        <time>2025-12-20T09:20:26Z</time>
      </trkpt>
      <trkpt lat="45.75267" lon="3.69892">
        <ele>1023.78</ele>
        <time>2025-12-20T09:20:28Z</time>
      </trkpt>
      <trkpt lat="45.75258" lon="3.69893">
        <ele>1024.09</ele>
        <time>2025-12-20T09:20:29Z</time>
      </trkpt>
      <trkpt lat="45.75247" lon="3.69895">
        <ele>1024.21</ele>
        <time>2025-12-20T09:20:30Z</time>
      </trkpt>
      <trkpt lat="45.75236" lon="3.69895">
        <ele>1024.48</ele>
        <time>2025-12-20T09:20:31Z</time>
      </trkpt>
      <trkpt lat="45.75225" lon="3.69893">
        <ele>1024.62</ele>
        <time>2025-12-20T09:20:32Z</time>
      </trkpt>
      <trkpt lat="45.75213" lon="3.6989">
        <ele>1024.64</ele>
        <time>2025-12-20T09:20:33Z</time>
      </trkpt>
      <trkpt lat="45.75201" lon="3.69886">
        <ele>1024.71</ele>
        <time>2025-12-20T09:20:34Z</time>
      </trkpt>
      <trkpt lat="45.75188" lon="3.69881">
        <ele>1024.83</ele>
        <time>2025-12-20T09:20:35Z</time>
      </trkpt>
      <trkpt lat="45.75175" lon="3.69877">
        <ele>1024.92</ele>
        <time>2025-12-20T09:20:36Z</time>
      </trkpt>
      <trkpt lat="45.75162" lon="3.69873">
        <ele>1024.94</ele>
        <time>2025-12-20T09:20:37Z</time>
      </trkpt>
      <trkpt lat="45.75148" lon="3.69872">
        <ele>1024.99</ele>
        <time>2025-12-20T09:20:38Z</time>
      </trkpt>
      <trkpt lat="45.75134" lon="3.69872">
        <ele>1025.08</ele>
        <time>2025-12-20T09:20:39Z</time>
      </trkpt>
      <trkpt lat="45.7512" lon="3.69875">
        <ele>1025.15</ele>
        <time>2025-12-20T09:20:40Z</time>
      </trkpt>
      <trkpt lat="45.75106" lon="3.69879">
        <ele>1025.6</ele>
        <time>2025-12-20T09:20:41Z</time>
      </trkpt>
      <trkpt lat="45.75091" lon="3.69883">
        <ele>1025.62</ele>
        <time>2025-12-20T09:20:42Z</time>
      </trkpt>
      <trkpt lat="45.75078" lon="3.69886">
        <ele>1026.18</ele>
        <time>2025-12-20T09:20:43Z</time>
      </trkpt>
      <trkpt lat="45.75068" lon="3.6989">
        <ele>1026.17</ele>
        <time>2025-12-20T09:20:44Z</time>
      </trkpt>
      <trkpt lat="45.75059" lon="3.69894">
        <ele>1026.28</ele>
        <time>2025-12-20T09:20:45Z</time>
      </trkpt>
      <trkpt lat="45.75046" lon="3.69904">
        <ele>1026.33</ele>
        <time>2025-12-20T09:20:47Z</time>
      </trkpt>
      <trkpt lat="45.75039" lon="3.69913">
        <ele>1026.11</ele>
        <time>2025-12-20T09:20:52Z</time>
      </trkpt>
      <trkpt lat="45.75034" lon="3.69923">
        <ele>1025.58</ele>
        <time>2025-12-20T09:20:56Z</time>
      </trkpt>
      <trkpt lat="45.7504" lon="3.69912">
        <ele>1025.37</ele>
        <time>2025-12-20T09:21:01Z</time>
      </trkpt>
      <trkpt lat="45.75019" lon="3.69894">
        <ele>1021.93</ele>
        <time>2025-12-20T09:23:09Z</time>
      </trkpt>
      <trkpt lat="45.75007" lon="3.69887">
        <ele>1020.87</ele>
        <time>2025-12-20T09:23:13Z</time>
      </trkpt>
      <trkpt lat="45.74998" lon="3.69882">
        <ele>1019.29</ele>
        <time>2025-12-20T09:23:16Z</time>
      </trkpt>
      <trkpt lat="45.74986" lon="3.69882">
        <ele>1017.39</ele>
        <time>2025-12-20T09:23:21Z</time>
      </trkpt>
      <trkpt lat="45.74974" lon="3.69867">
        <ele>1016.66</ele>
        <time>2025-12-20T09:23:23Z</time>
      </trkpt>
      <trkpt lat="45.74969" lon="3.69856">
        <ele>1015.97</ele>
        <time>2025-12-20T09:23:24Z</time>
      </trkpt>
      <trkpt lat="45.74965" lon="3.69845">
        <ele>1016.09</ele>
        <time>2025-12-20T09:23:25Z</time>
      </trkpt>
      <trkpt lat="45.74955" lon="3.69826">
        <ele>1014</ele>
        <time>2025-12-20T09:23:27Z</time>
      </trkpt>
      <trkpt lat="45.74949" lon="3.69814">
        <ele>1013.35</ele>
        <time>2025-12-20T09:23:29Z</time>
      </trkpt>
      <trkpt lat="45.74944" lon="3.69803">
        <ele>1013.51</ele>
        <time>2025-12-20T09:23:31Z</time>
      </trkpt>
      <trkpt lat="45.74936" lon="3.69793">
        <ele>1011.32</ele>
        <time>2025-12-20T09:23:33Z</time>
      </trkpt>
      <trkpt lat="45.74927" lon="3.69786">
        <ele>1011.03</ele>
        <time>2025-12-20T09:23:35Z</time>
      </trkpt>
      <trkpt lat="45.74917" lon="3.69778">
        <ele>1009.48</ele>
        <time>2025-12-20T09:23:37Z</time>
      </trkpt>
      <trkpt lat="45.74901" lon="3.69771">
        <ele>1008.51</ele>
        <time>2025-12-20T09:23:40Z</time>
      </trkpt>
      <trkpt lat="45.74886" lon="3.69742">
        <ele>1007.28</ele>
        <time>2025-12-20T09:23:43Z</time>
      </trkpt>
      <trkpt lat="45.7488" lon="3.69729">
        <ele>1006.73</ele>
        <time>2025-12-20T09:23:44Z</time>
      </trkpt>
      <trkpt lat="45.74874" lon="3.69717">
        <ele>1006.4</ele>
        <time>2025-12-20T09:23:45Z</time>
      </trkpt>
      <trkpt lat="45.74865" lon="3.69699">
        <ele>1006.17</ele>
        <time>2025-12-20T09:23:47Z</time>
      </trkpt>
      <trkpt lat="45.7486" lon="3.69688">
        <ele>1005.9</ele>
        <time>2025-12-20T09:23:49Z</time>
      </trkpt>
      <trkpt lat="45.74853" lon="3.69676">
        <ele>1006.05</ele>
        <time>2025-12-20T09:23:59Z</time>
      </trkpt>
      <trkpt lat="45.74846" lon="3.69665">
        <ele>1006.49</ele>
        <time>2025-12-20T09:24:04Z</time>
      </trkpt>
      <trkpt lat="45.7484" lon="3.69654">
        <ele>1006.78</ele>
        <time>2025-12-20T09:24:08Z</time>
      </trkpt>
      <trkpt lat="45.74837" lon="3.69639">
        <ele>1007.55</ele>
        <time>2025-12-20T09:24:13Z</time>
      </trkpt>
      <trkpt lat="45.74834" lon="3.69626">
        <ele>1008.21</ele>
        <time>2025-12-20T09:24:16Z</time>
      </trkpt>
      <trkpt lat="45.74833" lon="3.69611">
        <ele>1008.92</ele>
        <time>2025-12-20T09:24:19Z</time>
      </trkpt>
      <trkpt lat="45.74832" lon="3.69595">
        <ele>1010.03</ele>
        <time>2025-12-20T09:24:22Z</time>
      </trkpt>
      <trkpt lat="45.74831" lon="3.69577">
        <ele>1011.25</ele>
        <time>2025-12-20T09:24:25Z</time>
      </trkpt>
      <trkpt lat="45.74828" lon="3.69564">
        <ele>1012.05</ele>
        <time>2025-12-20T09:24:27Z</time>
      </trkpt>
      <trkpt lat="45.74825" lon="3.69551">
        <ele>1012.89</ele>
        <time>2025-12-20T09:24:29Z</time>
      </trkpt>
      <trkpt lat="45.74821" lon="3.69538">
        <ele>1013.88</ele>
        <time>2025-12-20T09:24:31Z</time>
      </trkpt>
      <trkpt lat="45.74819" lon="3.69524">
        <ele>1015.35</ele>
        <time>2025-12-20T09:24:33Z</time>
      </trkpt>
      <trkpt lat="45.74813" lon="3.69507">
        <ele>1016.63</ele>
        <time>2025-12-20T09:24:37Z</time>
      </trkpt>
      <trkpt lat="45.74804" lon="3.69492">
        <ele>1017.44</ele>
        <time>2025-12-20T09:24:39Z</time>
      </trkpt>
      <trkpt lat="45.74796" lon="3.69475">
        <ele>1017.16</ele>
        <time>2025-12-20T09:24:41Z</time>
      </trkpt>
      <trkpt lat="45.74789" lon="3.69459">
        <ele>1018.03</ele>
        <time>2025-12-20T09:24:43Z</time>
      </trkpt>
      <trkpt lat="45.74781" lon="3.69442">
        <ele>1018.51</ele>
        <time>2025-12-20T09:24:45Z</time>
      </trkpt>
      <trkpt lat="45.74771" lon="3.69427">
        <ele>1018.86</ele>
        <time>2025-12-20T09:24:47Z</time>
      </trkpt>
      <trkpt lat="45.7476" lon="3.69416">
        <ele>1018.78</ele>
        <time>2025-12-20T09:24:49Z</time>
      </trkpt>
      <trkpt lat="45.74747" lon="3.69408">
        <ele>1018</ele>
        <time>2025-12-20T09:24:51Z</time>
      </trkpt>
      <trkpt lat="45.74735" lon="3.69401">
        <ele>1017.67</ele>
        <time>2025-12-20T09:24:53Z</time>
      </trkpt>
      <trkpt lat="45.74725" lon="3.69396">
        <ele>1017.33</ele>
        <time>2025-12-20T09:24:55Z</time>
      </trkpt>
      <trkpt lat="45.74716" lon="3.69395">
        <ele>1017.09</ele>
        <time>2025-12-20T09:24:59Z</time>
      </trkpt>
      <trkpt lat="45.74704" lon="3.69397">
        <ele>1016.98</ele>
        <time>2025-12-20T09:25:03Z</time>
      </trkpt>
      <trkpt lat="45.74692" lon="3.69401">
        <ele>1017.13</ele>
        <time>2025-12-20T09:25:06Z</time>
      </trkpt>
      <trkpt lat="45.74682" lon="3.6941">
        <ele>1018.29</ele>
        <time>2025-12-20T09:25:09Z</time>
      </trkpt>
      <trkpt lat="45.7467" lon="3.69418">
        <ele>1018.5</ele>
        <time>2025-12-20T09:25:11Z</time>
      </trkpt>
      <trkpt lat="45.74658" lon="3.69429">
        <ele>1019.94</ele>
        <time>2025-12-20T09:25:13Z</time>
      </trkpt>
      <trkpt lat="45.7465" lon="3.69436">
        <ele>1019.56</ele>
        <time>2025-12-20T09:25:14Z</time>
      </trkpt>
      <trkpt lat="45.74636" lon="3.69448">
        <ele>1019.76</ele>
        <time>2025-12-20T09:25:16Z</time>
      </trkpt>
      <trkpt lat="45.74627" lon="3.69457">
        <ele>1019.84</ele>
        <time>2025-12-20T09:25:17Z</time>
      </trkpt>
      <trkpt lat="45.74619" lon="3.69463">
        <ele>1020.88</ele>
        <time>2025-12-20T09:25:18Z</time>
      </trkpt>
      <trkpt lat="45.7461" lon="3.69468">
        <ele>1020.9</ele>
        <time>2025-12-20T09:25:19Z</time>
      </trkpt>
      <trkpt lat="45.74593" lon="3.69476">
        <ele>1021.45</ele>
        <time>2025-12-20T09:25:21Z</time>
      </trkpt>
      <trkpt lat="45.74577" lon="3.69483">
        <ele>1021.98</ele>
        <time>2025-12-20T09:25:23Z</time>
      </trkpt>
      <trkpt lat="45.74559" lon="3.69488">
        <ele>1022.5</ele>
        <time>2025-12-20T09:25:25Z</time>
      </trkpt>
      <trkpt lat="45.74541" lon="3.6949">
        <ele>1022.97</ele>
        <time>2025-12-20T09:25:27Z</time>
      </trkpt>
      <trkpt lat="45.74524" lon="3.69491">
        <ele>1023.41</ele>
        <time>2025-12-20T09:25:29Z</time>
      </trkpt>
      <trkpt lat="45.74508" lon="3.69494">
        <ele>1023.81</ele>
        <time>2025-12-20T09:25:31Z</time>
      </trkpt>
      <trkpt lat="45.74499" lon="3.69495">
        <ele>1024.85</ele>
        <time>2025-12-20T09:25:32Z</time>
      </trkpt>
      <trkpt lat="45.74484" lon="3.69494">
        <ele>1025.26</ele>
        <time>2025-12-20T09:25:34Z</time>
      </trkpt>
      <trkpt lat="45.74471" lon="3.69493">
        <ele>1024.92</ele>
        <time>2025-12-20T09:25:36Z</time>
      </trkpt>
      <trkpt lat="45.7446" lon="3.69491">
        <ele>1024.91</ele>
        <time>2025-12-20T09:25:38Z</time>
      </trkpt>
      <trkpt lat="45.74449" lon="3.69488">
        <ele>1024.9</ele>
        <time>2025-12-20T09:25:40Z</time>
      </trkpt>
      <trkpt lat="45.7444" lon="3.69483">
        <ele>1023.78</ele>
        <time>2025-12-20T09:25:42Z</time>
      </trkpt>
      <trkpt lat="45.7443" lon="3.69478">
        <ele>1023.24</ele>
        <time>2025-12-20T09:25:44Z</time>
      </trkpt>
      <trkpt lat="45.74422" lon="3.69472">
        <ele>1023.45</ele>
        <time>2025-12-20T09:25:46Z</time>
      </trkpt>
      <trkpt lat="45.74411" lon="3.69464">
        <ele>1022.59</ele>
        <time>2025-12-20T09:25:48Z</time>
      </trkpt>
      <trkpt lat="45.74399" lon="3.69448">
        <ele>1021.75</ele>
        <time>2025-12-20T09:25:50Z</time>
      </trkpt>
      <trkpt lat="45.74393" lon="3.69434">
        <ele>1019.26</ele>
        <time>2025-12-20T09:25:52Z</time>
      </trkpt>
      <trkpt lat="45.74387" lon="3.69416">
        <ele>1016.78</ele>
        <time>2025-12-20T09:25:55Z</time>
      </trkpt>
      <trkpt lat="45.74384" lon="3.69402">
        <ele>1016.25</ele>
        <time>2025-12-20T09:25:57Z</time>
      </trkpt>
      <trkpt lat="45.74379" lon="3.69391">
        <ele>1015.4</ele>
        <time>2025-12-20T09:25:59Z</time>
      </trkpt>
      <trkpt lat="45.74374" lon="3.69376">
        <ele>1013.78</ele>
        <time>2025-12-20T09:26:02Z</time>
      </trkpt>
      <trkpt lat="45.74368" lon="3.69366">
        <ele>1012.51</ele>
        <time>2025-12-20T09:26:04Z</time>
      </trkpt>
      <trkpt lat="45.7436" lon="3.69353">
        <ele>1009.86</ele>
        <time>2025-12-20T09:26:07Z</time>
      </trkpt>
      <trkpt lat="45.74353" lon="3.69343">
        <ele>1007.48</ele>
        <time>2025-12-20T09:26:10Z</time>
      </trkpt>
      <trkpt lat="45.74343" lon="3.6933">
        <ele>1004.23</ele>
        <time>2025-12-20T09:26:13Z</time>
      </trkpt>
      <trkpt lat="45.74335" lon="3.69323">
        <ele>1002.37</ele>
        <time>2025-12-20T09:26:15Z</time>
      </trkpt>
      <trkpt lat="45.74326" lon="3.69314">
        <ele>999.99</ele>
        <time>2025-12-20T09:26:17Z</time>
      </trkpt>
      <trkpt lat="45.74317" lon="3.69303">
        <ele>997.86</ele>
        <time>2025-12-20T09:26:19Z</time>
      </trkpt>
      <trkpt lat="45.74307" lon="3.69291">
        <ele>995.1</ele>
        <time>2025-12-20T09:26:22Z</time>
      </trkpt>
      <trkpt lat="45.74298" lon="3.69282">
        <ele>992.67</ele>
        <time>2025-12-20T09:26:24Z</time>
      </trkpt>
      <trkpt lat="45.74288" lon="3.69273">
        <ele>990.42</ele>
        <time>2025-12-20T09:26:26Z</time>
      </trkpt>
      <trkpt lat="45.74277" lon="3.69263">
        <ele>988.33</ele>
        <time>2025-12-20T09:26:29Z</time>
      </trkpt>
      <trkpt lat="45.74271" lon="3.69246">
        <ele>984.77</ele>
        <time>2025-12-20T09:26:32Z</time>
      </trkpt>
      <trkpt lat="45.74267" lon="3.69233">
        <ele>982.92</ele>
        <time>2025-12-20T09:26:34Z</time>
      </trkpt>
      <trkpt lat="45.74261" lon="3.69217">
        <ele>979.09</ele>
        <time>2025-12-20T09:26:37Z</time>
      </trkpt>
      <trkpt lat="45.74256" lon="3.69207">
        <ele>976.83</ele>
        <time>2025-12-20T09:26:39Z</time>
      </trkpt>
      <trkpt lat="45.74246" lon="3.69194">
        <ele>973.42</ele>
        <time>2025-12-20T09:26:42Z</time>
      </trkpt>
      <trkpt lat="45.74236" lon="3.69187">
        <ele>971.22</ele>
        <time>2025-12-20T09:26:45Z</time>
      </trkpt>
      <trkpt lat="45.74226" lon="3.69184">
        <ele>967.48</ele>
        <time>2025-12-20T09:26:50Z</time>
      </trkpt>
      <trkpt lat="45.74217" lon="3.69181">
        <ele>964.91</ele>
        <time>2025-12-20T09:26:54Z</time>
      </trkpt>
      <trkpt lat="45.74207" lon="3.69178">
        <ele>962.03</ele>
        <time>2025-12-20T09:26:58Z</time>
      </trkpt>
      <trkpt lat="45.74197" lon="3.69177">
        <ele>960.21</ele>
        <time>2025-12-20T09:27:01Z</time>
      </trkpt>
      <trkpt lat="45.74188" lon="3.69165">
        <ele>957.04</ele>
        <time>2025-12-20T09:27:05Z</time>
      </trkpt>
      <trkpt lat="45.74183" lon="3.69147">
        <ele>954.86</ele>
        <time>2025-12-20T09:27:08Z</time>
      </trkpt>
      <trkpt lat="45.7418" lon="3.69132">
        <ele>952.34</ele>
        <time>2025-12-20T09:27:12Z</time>
      </trkpt>
      <trkpt lat="45.74183" lon="3.69119">
        <ele>950.76</ele>
        <time>2025-12-20T09:27:16Z</time>
      </trkpt>
      <trkpt lat="45.74181" lon="3.69105">
        <ele>948.27</ele>
        <time>2025-12-20T09:27:20Z</time>
      </trkpt>
      <trkpt lat="45.7417" lon="3.69108">
        <ele>945.26</ele>
        <time>2025-12-20T09:27:24Z</time>
      </trkpt>
      <trkpt lat="45.74162" lon="3.69112">
        <ele>943.21</ele>
        <time>2025-12-20T09:27:27Z</time>
      </trkpt>
      <trkpt lat="45.74153" lon="3.69116">
        <ele>941.38</ele>
        <time>2025-12-20T09:27:31Z</time>
      </trkpt>
      <trkpt lat="45.74145" lon="3.69123">
        <ele>939.78</ele>
        <time>2025-12-20T09:27:35Z</time>
      </trkpt>
      <trkpt lat="45.74135" lon="3.69127">
        <ele>939.39</ele>
        <time>2025-12-20T09:27:38Z</time>
      </trkpt>
      <trkpt lat="45.74124" lon="3.69125">
        <ele>936.34</ele>
        <time>2025-12-20T09:27:42Z</time>
      </trkpt>
      <trkpt lat="45.74115" lon="3.69117">
        <ele>934.48</ele>
        <time>2025-12-20T09:27:47Z</time>
      </trkpt>
      <trkpt lat="45.74106" lon="3.6911">
        <ele>932.35</ele>
        <time>2025-12-20T09:27:51Z</time>
      </trkpt>
      <trkpt lat="45.74099" lon="3.69096">
        <ele>929.63</ele>
        <time>2025-12-20T09:27:55Z</time>
      </trkpt>
      <trkpt lat="45.74094" lon="3.6908">
        <ele>928.65</ele>
        <time>2025-12-20T09:27:58Z</time>
      </trkpt>
      <trkpt lat="45.74096" lon="3.69063">
        <ele>929.08</ele>
        <time>2025-12-20T09:28:01Z</time>
      </trkpt>
      <trkpt lat="45.74104" lon="3.69054">
        <ele>927.27</ele>
        <time>2025-12-20T09:28:03Z</time>
      </trkpt>
      <trkpt lat="45.74116" lon="3.69032">
        <ele>924.46</ele>
        <time>2025-12-20T09:28:05Z</time>
      </trkpt>
      <trkpt lat="45.74118" lon="3.69016">
        <ele>923.64</ele>
        <time>2025-12-20T09:28:06Z</time>
      </trkpt>
      <trkpt lat="45.7412" lon="3.69001">
        <ele>924.35</ele>
        <time>2025-12-20T09:28:07Z</time>
      </trkpt>
      <trkpt lat="45.74124" lon="3.68978">
        <ele>924.32</ele>
        <time>2025-12-20T09:28:09Z</time>
      </trkpt>
      <trkpt lat="45.74132" lon="3.68961">
        <ele>923.45</ele>
        <time>2025-12-20T09:28:11Z</time>
      </trkpt>
      <trkpt lat="45.74137" lon="3.68949">
        <ele>924.28</ele>
        <time>2025-12-20T09:28:13Z</time>
      </trkpt>
      <trkpt lat="45.74138" lon="3.68935">
        <ele>924.8</ele>
        <time>2025-12-20T09:28:15Z</time>
      </trkpt>
      <trkpt lat="45.74132" lon="3.68919">
        <ele>924.75</ele>
        <time>2025-12-20T09:28:17Z</time>
      </trkpt>
      <trkpt lat="45.74123" lon="3.68903">
        <ele>924.47</ele>
        <time>2025-12-20T09:28:19Z</time>
      </trkpt>
      <trkpt lat="45.74115" lon="3.68891">
        <ele>923.12</ele>
        <time>2025-12-20T09:28:21Z</time>
      </trkpt>
      <trkpt lat="45.74105" lon="3.68887">
        <ele>922.1</ele>
        <time>2025-12-20T09:28:24Z</time>
      </trkpt>
      <trkpt lat="45.74095" lon="3.68879">
        <ele>921.84</ele>
        <time>2025-12-20T09:28:27Z</time>
      </trkpt>
      <trkpt lat="45.74088" lon="3.68869">
        <ele>919.96</ele>
        <time>2025-12-20T09:28:29Z</time>
      </trkpt>
      <trkpt lat="45.74081" lon="3.6886">
        <ele>916.77</ele>
        <time>2025-12-20T09:28:32Z</time>
      </trkpt>
      <trkpt lat="45.74072" lon="3.6885">
        <ele>914.18</ele>
        <time>2025-12-20T09:28:35Z</time>
      </trkpt>
      <trkpt lat="45.74061" lon="3.68843">
        <ele>911.56</ele>
        <time>2025-12-20T09:28:37Z</time>
      </trkpt>
      <trkpt lat="45.7405" lon="3.68835">
        <ele>910.16</ele>
        <time>2025-12-20T09:28:39Z</time>
      </trkpt>
      <trkpt lat="45.74036" lon="3.68822">
        <ele>910.58</ele>
        <time>2025-12-20T09:28:41Z</time>
      </trkpt>
      <trkpt lat="45.74028" lon="3.68815">
        <ele>909.46</ele>
        <time>2025-12-20T09:28:42Z</time>
      </trkpt>
      <trkpt lat="45.74019" lon="3.68807">
        <ele>908.19</ele>
        <time>2025-12-20T09:28:43Z</time>
      </trkpt>
      <trkpt lat="45.74005" lon="3.68795">
        <ele>905.12</ele>
        <time>2025-12-20T09:28:45Z</time>
      </trkpt>
      <trkpt lat="45.73995" lon="3.68781">
        <ele>904.27</ele>
        <time>2025-12-20T09:28:47Z</time>
      </trkpt>
      <trkpt lat="45.73984" lon="3.68764">
        <ele>902.15</ele>
        <time>2025-12-20T09:28:49Z</time>
      </trkpt>
      <trkpt lat="45.73975" lon="3.68746">
        <ele>900.75</ele>
        <time>2025-12-20T09:28:51Z</time>
      </trkpt>
      <trkpt lat="45.73969" lon="3.68732">
        <ele>898.39</ele>
        <time>2025-12-20T09:28:53Z</time>
      </trkpt>
      <trkpt lat="45.73963" lon="3.6872">
        <ele>895.89</ele>
        <time>2025-12-20T09:28:55Z</time>
      </trkpt>
      <trkpt lat="45.73954" lon="3.68704">
        <ele>893.46</ele>
        <time>2025-12-20T09:28:57Z</time>
      </trkpt>
      <trkpt lat="45.73945" lon="3.68687">
        <ele>891.37</ele>
        <time>2025-12-20T09:28:59Z</time>
      </trkpt>
      <trkpt lat="45.73938" lon="3.68665">
        <ele>889.85</ele>
        <time>2025-12-20T09:29:01Z</time>
      </trkpt>
      <trkpt lat="45.73933" lon="3.68646">
        <ele>888.58</ele>
        <time>2025-12-20T09:29:03Z</time>
      </trkpt>
      <trkpt lat="45.73927" lon="3.68624">
        <ele>885.91</ele>
        <time>2025-12-20T09:29:05Z</time>
      </trkpt>
      <trkpt lat="45.73923" lon="3.68611">
        <ele>885.28</ele>
        <time>2025-12-20T09:29:06Z</time>
      </trkpt>
      <trkpt lat="45.73915" lon="3.68592">
        <ele>884.56</ele>
        <time>2025-12-20T09:29:08Z</time>
      </trkpt>
      <trkpt lat="45.73906" lon="3.68577">
        <ele>882.13</ele>
        <time>2025-12-20T09:29:10Z</time>
      </trkpt>
      <trkpt lat="45.73901" lon="3.68566">
        <ele>879.94</ele>
        <time>2025-12-20T09:29:12Z</time>
      </trkpt>
      <trkpt lat="45.73894" lon="3.68553">
        <ele>878.09</ele>
        <time>2025-12-20T09:29:14Z</time>
      </trkpt>
      <trkpt lat="45.7389" lon="3.68542">
        <ele>876.61</ele>
        <time>2025-12-20T09:29:16Z</time>
      </trkpt>
      <trkpt lat="45.73883" lon="3.68529">
        <ele>874.97</ele>
        <time>2025-12-20T09:29:18Z</time>
      </trkpt>
      <trkpt lat="45.73877" lon="3.68517">
        <ele>872.93</ele>
        <time>2025-12-20T09:29:20Z</time>
      </trkpt>
      <trkpt lat="45.73871" lon="3.68505">
        <ele>870.47</ele>
        <time>2025-12-20T09:29:22Z</time>
      </trkpt>
      <trkpt lat="45.73865" lon="3.68494">
        <ele>868.5</ele>
        <time>2025-12-20T09:29:24Z</time>
      </trkpt>
      <trkpt lat="45.73858" lon="3.68485">
        <ele>866.37</ele>
        <time>2025-12-20T09:29:26Z</time>
      </trkpt>
      <trkpt lat="45.73849" lon="3.68473">
        <ele>864.21</ele>
        <time>2025-12-20T09:29:29Z</time>
      </trkpt>
      <trkpt lat="45.73835" lon="3.68463">
        <ele>861.35</ele>
        <time>2025-12-20T09:29:32Z</time>
      </trkpt>
      <trkpt lat="45.73826" lon="3.68459">
        <ele>859.45</ele>
        <time>2025-12-20T09:29:34Z</time>
      </trkpt>
      <trkpt lat="45.73816" lon="3.68455">
        <ele>859.33</ele>
        <time>2025-12-20T09:29:37Z</time>
      </trkpt>
      <trkpt lat="45.73802" lon="3.68452">
        <ele>857.89</ele>
        <time>2025-12-20T09:29:40Z</time>
      </trkpt>
      <trkpt lat="45.73781" lon="3.68448">
        <ele>857.13</ele>
        <time>2025-12-20T09:29:42Z</time>
      </trkpt>
      <trkpt lat="45.7377" lon="3.68444">
        <ele>856.46</ele>
        <time>2025-12-20T09:29:43Z</time>
      </trkpt>
      <trkpt lat="45.73758" lon="3.68441">
        <ele>855.77</ele>
        <time>2025-12-20T09:29:44Z</time>
      </trkpt>
      <trkpt lat="45.73748" lon="3.68438">
        <ele>855.58</ele>
        <time>2025-12-20T09:29:45Z</time>
      </trkpt>
      <trkpt lat="45.73737" lon="3.68436">
        <ele>854.87</ele>
        <time>2025-12-20T09:29:46Z</time>
      </trkpt>
      <trkpt lat="45.73727" lon="3.68434">
        <ele>854.25</ele>
        <time>2025-12-20T09:29:47Z</time>
      </trkpt>
      <trkpt lat="45.73717" lon="3.68431">
        <ele>853.5</ele>
        <time>2025-12-20T09:29:48Z</time>
      </trkpt>
      <trkpt lat="45.737" lon="3.68427">
        <ele>852.58</ele>
        <time>2025-12-20T09:29:50Z</time>
      </trkpt>
      <trkpt lat="45.7369" lon="3.68425">
        <ele>852.38</ele>
        <time>2025-12-20T09:29:51Z</time>
      </trkpt>
      <trkpt lat="45.7368" lon="3.68426">
        <ele>851.46</ele>
        <time>2025-12-20T09:29:52Z</time>
      </trkpt>
      <trkpt lat="45.7367" lon="3.68428">
        <ele>851.04</ele>
        <time>2025-12-20T09:29:53Z</time>
      </trkpt>
      <trkpt lat="45.73658" lon="3.6843">
        <ele>850.76</ele>
        <time>2025-12-20T09:29:54Z</time>
      </trkpt>
      <trkpt lat="45.73648" lon="3.68433">
        <ele>850.5</ele>
        <time>2025-12-20T09:29:55Z</time>
      </trkpt>
      <trkpt lat="45.73638" lon="3.68435">
        <ele>850.32</ele>
        <time>2025-12-20T09:29:56Z</time>
      </trkpt>
      <trkpt lat="45.73621" lon="3.68437">
        <ele>849.17</ele>
        <time>2025-12-20T09:29:58Z</time>
      </trkpt>
      <trkpt lat="45.73607" lon="3.6843">
        <ele>847.02</ele>
        <time>2025-12-20T09:30:00Z</time>
      </trkpt>
      <trkpt lat="45.73595" lon="3.68415">
        <ele>844.33</ele>
        <time>2025-12-20T09:30:02Z</time>
      </trkpt>
      <trkpt lat="45.73585" lon="3.68405">
        <ele>843.34</ele>
        <time>2025-12-20T09:30:04Z</time>
      </trkpt>
      <trkpt lat="45.7357" lon="3.68399">
        <ele>841.25</ele>
        <time>2025-12-20T09:30:06Z</time>
      </trkpt>
      <trkpt lat="45.73552" lon="3.68403">
        <ele>840.64</ele>
        <time>2025-12-20T09:30:08Z</time>
      </trkpt>
      <trkpt lat="45.73542" lon="3.68407">
        <ele>839.86</ele>
        <time>2025-12-20T09:30:09Z</time>
      </trkpt>
      <trkpt lat="45.73532" lon="3.68414">
        <ele>838.26</ele>
        <time>2025-12-20T09:30:10Z</time>
      </trkpt>
      <trkpt lat="45.73524" lon="3.68422">
        <ele>837.12</ele>
        <time>2025-12-20T09:30:11Z</time>
      </trkpt>
      <trkpt lat="45.7351" lon="3.68434">
        <ele>836.32</ele>
        <time>2025-12-20T09:30:13Z</time>
      </trkpt>
      <trkpt lat="45.73502" lon="3.6844">
        <ele>835.79</ele>
        <time>2025-12-20T09:30:14Z</time>
      </trkpt>
      <trkpt lat="45.73485" lon="3.68449">
        <ele>833.59</ele>
        <time>2025-12-20T09:30:16Z</time>
      </trkpt>
      <trkpt lat="45.73477" lon="3.68453">
        <ele>833.06</ele>
        <time>2025-12-20T09:30:17Z</time>
      </trkpt>
      <trkpt lat="45.7346" lon="3.68463">
        <ele>833.66</ele>
        <time>2025-12-20T09:30:19Z</time>
      </trkpt>
      <trkpt lat="45.73452" lon="3.68469">
        <ele>833.77</ele>
        <time>2025-12-20T09:30:20Z</time>
      </trkpt>
      <trkpt lat="45.73445" lon="3.68477">
        <ele>833.46</ele>
        <time>2025-12-20T09:30:21Z</time>
      </trkpt>
      <trkpt lat="45.73435" lon="3.68491">
        <ele>833.37</ele>
        <time>2025-12-20T09:30:23Z</time>
      </trkpt>
      <trkpt lat="45.73427" lon="3.68502">
        <ele>832.52</ele>
        <time>2025-12-20T09:30:25Z</time>
      </trkpt>
      <trkpt lat="45.73421" lon="3.68517">
        <ele>832.14</ele>
        <time>2025-12-20T09:30:28Z</time>
      </trkpt>
      <trkpt lat="45.7342" lon="3.68533">
        <ele>831.28</ele>
        <time>2025-12-20T09:30:31Z</time>
      </trkpt>
      <trkpt lat="45.73424" lon="3.68546">
        <ele>829.41</ele>
        <time>2025-12-20T09:30:35Z</time>
      </trkpt>
      <trkpt lat="45.73427" lon="3.68558">
        <ele>828.16</ele>
        <time>2025-12-20T09:30:39Z</time>
      </trkpt>
      <trkpt lat="45.73433" lon="3.68571">
        <ele>825.67</ele>
        <time>2025-12-20T09:30:44Z</time>
      </trkpt>
      <trkpt lat="45.73439" lon="3.68584">
        <ele>823.52</ele>
        <time>2025-12-20T09:30:47Z</time>
      </trkpt>
      <trkpt lat="45.73447" lon="3.68598">
        <ele>822.48</ele>
        <time>2025-12-20T09:30:49Z</time>
      </trkpt>
      <trkpt lat="45.73452" lon="3.68609">
        <ele>820.45</ele>
        <time>2025-12-20T09:30:51Z</time>
      </trkpt>
      <trkpt lat="45.73458" lon="3.68624">
        <ele>819.38</ele>
        <time>2025-12-20T09:30:54Z</time>
      </trkpt>
      <trkpt lat="45.7346" lon="3.68638">
        <ele>817.41</ele>
        <time>2025-12-20T09:30:56Z</time>
      </trkpt>
      <trkpt lat="45.7346" lon="3.68652">
        <ele>817.15</ele>
        <time>2025-12-20T09:30:58Z</time>
      </trkpt>
      <trkpt lat="45.73462" lon="3.68667">
        <ele>815.15</ele>
        <time>2025-12-20T09:31:01Z</time>
      </trkpt>
      <trkpt lat="45.73467" lon="3.68683">
        <ele>814.47</ele>
        <time>2025-12-20T09:31:04Z</time>
      </trkpt>
      <trkpt lat="45.7347" lon="3.68699">
        <ele>811.64</ele>
        <time>2025-12-20T09:31:08Z</time>
      </trkpt>
      <trkpt lat="45.73474" lon="3.6871">
        <ele>810.04</ele>
        <time>2025-12-20T09:31:11Z</time>
      </trkpt>
      <trkpt lat="45.7348" lon="3.68724">
        <ele>807.84</ele>
        <time>2025-12-20T09:31:14Z</time>
      </trkpt>
      <trkpt lat="45.73488" lon="3.68733">
        <ele>805.35</ele>
        <time>2025-12-20T09:31:18Z</time>
      </trkpt>
      <trkpt lat="45.73498" lon="3.6874">
        <ele>800.98</ele>
        <time>2025-12-20T09:31:23Z</time>
      </trkpt>
      <trkpt lat="45.73497" lon="3.68757">
        <ele>799.21</ele>
        <time>2025-12-20T09:31:27Z</time>
      </trkpt>
      <trkpt lat="45.73495" lon="3.68772">
        <ele>798.86</ele>
        <time>2025-12-20T09:31:29Z</time>
      </trkpt>
      <trkpt lat="45.73492" lon="3.68794">
        <ele>796.1</ele>
        <time>2025-12-20T09:31:31Z</time>
      </trkpt>
      <trkpt lat="45.73492" lon="3.68807">
        <ele>795.43</ele>
        <time>2025-12-20T09:31:32Z</time>
      </trkpt>
      <trkpt lat="45.73492" lon="3.68827">
        <ele>793.75</ele>
        <time>2025-12-20T09:31:34Z</time>
      </trkpt>
      <trkpt lat="45.7349" lon="3.68842">
        <ele>792.94</ele>
        <time>2025-12-20T09:31:36Z</time>
      </trkpt>
      <trkpt lat="45.73486" lon="3.68856">
        <ele>793.7</ele>
        <time>2025-12-20T09:31:38Z</time>
      </trkpt>
      <trkpt lat="45.73479" lon="3.68871">
        <ele>793.19</ele>
        <time>2025-12-20T09:31:41Z</time>
      </trkpt>
      <trkpt lat="45.73471" lon="3.6888">
        <ele>793.12</ele>
        <time>2025-12-20T09:31:44Z</time>
      </trkpt>
      <trkpt lat="45.73465" lon="3.6889">
        <ele>793.69</ele>
        <time>2025-12-20T09:31:46Z</time>
      </trkpt>
      <trkpt lat="45.73456" lon="3.689">
        <ele>794.64</ele>
        <time>2025-12-20T09:31:49Z</time>
      </trkpt>
      <trkpt lat="45.73444" lon="3.68908">
        <ele>796.18</ele>
        <time>2025-12-20T09:31:52Z</time>
      </trkpt>
      <trkpt lat="45.73431" lon="3.6891">
        <ele>797.22</ele>
        <time>2025-12-20T09:31:55Z</time>
      </trkpt>
      <trkpt lat="45.7342" lon="3.6891">
        <ele>798.56</ele>
        <time>2025-12-20T09:31:57Z</time>
      </trkpt>
      <trkpt lat="45.73404" lon="3.68909">
        <ele>798.93</ele>
        <time>2025-12-20T09:31:59Z</time>
      </trkpt>
      <trkpt lat="45.73395" lon="3.68907">
        <ele>799.54</ele>
        <time>2025-12-20T09:32:00Z</time>
      </trkpt>
      <trkpt lat="45.73377" lon="3.68904">
        <ele>802.04</ele>
        <time>2025-12-20T09:32:02Z</time>
      </trkpt>
      <trkpt lat="45.73363" lon="3.68905">
        <ele>804.74</ele>
        <time>2025-12-20T09:32:04Z</time>
      </trkpt>
      <trkpt lat="45.7335" lon="3.68911">
        <ele>805.51</ele>
        <time>2025-12-20T09:32:06Z</time>
      </trkpt>
      <trkpt lat="45.73342" lon="3.68917">
        <ele>805.74</ele>
        <time>2025-12-20T09:32:08Z</time>
      </trkpt>
      <trkpt lat="45.73331" lon="3.68922">
        <ele>807.17</ele>
        <time>2025-12-20T09:32:10Z</time>
      </trkpt>
      <trkpt lat="45.73317" lon="3.68922">
        <ele>809.04</ele>
        <time>2025-12-20T09:32:12Z</time>
      </trkpt>
      <trkpt lat="45.73304" lon="3.68916">
        <ele>809.45</ele>
        <time>2025-12-20T09:32:14Z</time>
      </trkpt>
      <trkpt lat="45.73298" lon="3.68904">
        <ele>811.02</ele>
        <time>2025-12-20T09:32:16Z</time>
      </trkpt>
      <trkpt lat="45.73291" lon="3.68916">
        <ele>812.04</ele>
        <time>2025-12-20T09:32:20Z</time>
      </trkpt>
      <trkpt lat="45.73294" lon="3.68933">
        <ele>812.5</ele>
        <time>2025-12-20T09:32:23Z</time>
      </trkpt>
      <trkpt lat="45.733" lon="3.68949">
        <ele>813.69</ele>
        <time>2025-12-20T09:32:26Z</time>
      </trkpt>
      <trkpt lat="45.73305" lon="3.68961">
        <ele>815.6</ele>
        <time>2025-12-20T09:32:28Z</time>
      </trkpt>
      <trkpt lat="45.73312" lon="3.68976">
        <ele>816.97</ele>
        <time>2025-12-20T09:32:31Z</time>
      </trkpt>
      <trkpt lat="45.73318" lon="3.68989">
        <ele>818.82</ele>
        <time>2025-12-20T09:32:41Z</time>
      </trkpt>
      <trkpt lat="45.73308" lon="3.68996">
        <ele>820.21</ele>
        <time>2025-12-20T09:32:45Z</time>
      </trkpt>
      <trkpt lat="45.73298" lon="3.68997">
        <ele>821.94</ele>
        <time>2025-12-20T09:32:47Z</time>
      </trkpt>
      <trkpt lat="45.73284" lon="3.69001">
        <ele>823.66</ele>
        <time>2025-12-20T09:32:49Z</time>
      </trkpt>
      <trkpt lat="45.7327" lon="3.6901">
        <ele>825.42</ele>
        <time>2025-12-20T09:32:51Z</time>
      </trkpt>
      <trkpt lat="45.73258" lon="3.69022">
        <ele>827.22</ele>
        <time>2025-12-20T09:32:53Z</time>
      </trkpt>
      <trkpt lat="45.73246" lon="3.69038">
        <ele>828.04</ele>
        <time>2025-12-20T09:32:55Z</time>
      </trkpt>
      <trkpt lat="45.73231" lon="3.69062">
        <ele>830.1</ele>
        <time>2025-12-20T09:32:58Z</time>
      </trkpt>
      <trkpt lat="45.73223" lon="3.69077">
        <ele>830.26</ele>
        <time>2025-12-20T09:33:00Z</time>
      </trkpt>
      <trkpt lat="45.73206" lon="3.69104">
        <ele>827.88</ele>
        <time>2025-12-20T09:33:03Z</time>
      </trkpt>
      <trkpt lat="45.73196" lon="3.69118">
        <ele>826.8</ele>
        <time>2025-12-20T09:33:05Z</time>
      </trkpt>
      <trkpt lat="45.73186" lon="3.69132">
        <ele>825.73</ele>
        <time>2025-12-20T09:33:07Z</time>
      </trkpt>
      <trkpt lat="45.73174" lon="3.69148">
        <ele>824.08</ele>
        <time>2025-12-20T09:33:09Z</time>
      </trkpt>
      <trkpt lat="45.73165" lon="3.69161">
        <ele>823.21</ele>
        <time>2025-12-20T09:33:11Z</time>
      </trkpt>
      <trkpt lat="45.73155" lon="3.69173">
        <ele>821.82</ele>
        <time>2025-12-20T09:33:13Z</time>
      </trkpt>
      <trkpt lat="45.73144" lon="3.69183">
        <ele>820.21</ele>
        <time>2025-12-20T09:33:15Z</time>
      </trkpt>
      <trkpt lat="45.73133" lon="3.6919">
        <ele>818.9</ele>
        <time>2025-12-20T09:33:17Z</time>
      </trkpt>
      <trkpt lat="45.73119" lon="3.69199">
        <ele>816.41</ele>
        <time>2025-12-20T09:33:20Z</time>
      </trkpt>
      <trkpt lat="45.7311" lon="3.6921">
        <ele>815.56</ele>
        <time>2025-12-20T09:33:22Z</time>
      </trkpt>
      <trkpt lat="45.73102" lon="3.69224">
        <ele>813.76</ele>
        <time>2025-12-20T09:33:24Z</time>
      </trkpt>
      <trkpt lat="45.73093" lon="3.69234">
        <ele>811.89</ele>
        <time>2025-12-20T09:33:26Z</time>
      </trkpt>
      <trkpt lat="45.73082" lon="3.69238">
        <ele>809.84</ele>
        <time>2025-12-20T09:33:28Z</time>
      </trkpt>
      <trkpt lat="45.73069" lon="3.6924">
        <ele>809.25</ele>
        <time>2025-12-20T09:33:30Z</time>
      </trkpt>
      <trkpt lat="45.73055" lon="3.69242">
        <ele>807.41</ele>
        <time>2025-12-20T09:33:32Z</time>
      </trkpt>
      <trkpt lat="45.73039" lon="3.69241">
        <ele>805.86</ele>
        <time>2025-12-20T09:33:34Z</time>
      </trkpt>
      <trkpt lat="45.7302" lon="3.69243">
        <ele>804.43</ele>
        <time>2025-12-20T09:33:37Z</time>
      </trkpt>
      <trkpt lat="45.73007" lon="3.69249">
        <ele>803.29</ele>
        <time>2025-12-20T09:33:39Z</time>
      </trkpt>
      <trkpt lat="45.72994" lon="3.69253">
        <ele>801.94</ele>
        <time>2025-12-20T09:33:41Z</time>
      </trkpt>
      <trkpt lat="45.72984" lon="3.69256">
        <ele>800.75</ele>
        <time>2025-12-20T09:33:43Z</time>
      </trkpt>
      <trkpt lat="45.72974" lon="3.6926">
        <ele>799.1</ele>
        <time>2025-12-20T09:33:46Z</time>
      </trkpt>
      <trkpt lat="45.72964" lon="3.69264">
        <ele>797.48</ele>
        <time>2025-12-20T09:33:48Z</time>
      </trkpt>
      <trkpt lat="45.72953" lon="3.6927">
        <ele>796.34</ele>
        <time>2025-12-20T09:33:50Z</time>
      </trkpt>
      <trkpt lat="45.72941" lon="3.6928">
        <ele>794.44</ele>
        <time>2025-12-20T09:33:52Z</time>
      </trkpt>
      <trkpt lat="45.72933" lon="3.69291">
        <ele>794.43</ele>
        <time>2025-12-20T09:33:54Z</time>
      </trkpt>
      <trkpt lat="45.72926" lon="3.69303">
        <ele>793.54</ele>
        <time>2025-12-20T09:33:57Z</time>
      </trkpt>
      <trkpt lat="45.72927" lon="3.69321">
        <ele>792.57</ele>
        <time>2025-12-20T09:34:00Z</time>
      </trkpt>
      <trkpt lat="45.7293" lon="3.69336">
        <ele>792.06</ele>
        <time>2025-12-20T09:34:02Z</time>
      </trkpt>
      <trkpt lat="45.72931" lon="3.69351">
        <ele>792.62</ele>
        <time>2025-12-20T09:34:04Z</time>
      </trkpt>
      <trkpt lat="45.72934" lon="3.69364">
        <ele>791.63</ele>
        <time>2025-12-20T09:34:06Z</time>
      </trkpt>
      <trkpt lat="45.72936" lon="3.69375">
        <ele>793.23</ele>
        <time>2025-12-20T09:36:07Z</time>
      </trkpt>
      <trkpt lat="45.72936" lon="3.69375">
        <ele>792.33</ele>
        <time>2025-12-20T09:39:47Z</time>
      </trkpt>
      <trkpt lat="45.72936" lon="3.69375">
        <ele>794.14</ele>
        <time>2025-12-20T09:41:48Z</time>
      </trkpt>
      <trkpt lat="45.72936" lon="3.69375">
        <ele>793.96</ele>
        <time>2025-12-20T09:43:49Z</time>
      </trkpt>
      <trkpt lat="45.72927" lon="3.69383">
        <ele>792.6</ele>
        <time>2025-12-20T09:45:28Z</time>
      </trkpt>
      <trkpt lat="45.72915" lon="3.69382">
        <ele>793.3</ele>
        <time>2025-12-20T09:46:10Z</time>
      </trkpt>
      <trkpt lat="45.72904" lon="3.69378">
        <ele>795.54</ele>
        <time>2025-12-20T09:46:22Z</time>
      </trkpt>
      <trkpt lat="45.72894" lon="3.69371">
        <ele>796.44</ele>
        <time>2025-12-20T09:46:25Z</time>
      </trkpt>
      <trkpt lat="45.72882" lon="3.69367">
        <ele>797.11</ele>
        <time>2025-12-20T09:46:28Z</time>
      </trkpt>
      <trkpt lat="45.72873" lon="3.69365">
        <ele>796.84</ele>
        <time>2025-12-20T09:46:30Z</time>
      </trkpt>
      <trkpt lat="45.72862" lon="3.69362">
        <ele>797</ele>
        <time>2025-12-20T09:46:33Z</time>
      </trkpt>
      <trkpt lat="45.7285" lon="3.69364">
        <ele>797.01</ele>
        <time>2025-12-20T09:46:36Z</time>
      </trkpt>
      <trkpt lat="45.72837" lon="3.69369">
        <ele>795.29</ele>
        <time>2025-12-20T09:46:38Z</time>
      </trkpt>
      <trkpt lat="45.72824" lon="3.69376">
        <ele>795.62</ele>
        <time>2025-12-20T09:46:40Z</time>
      </trkpt>
      <trkpt lat="45.72812" lon="3.69382">
        <ele>795.41</ele>
        <time>2025-12-20T09:46:42Z</time>
      </trkpt>
      <trkpt lat="45.72802" lon="3.69377">
        <ele>794.91</ele>
        <time>2025-12-20T09:46:45Z</time>
      </trkpt>
      <trkpt lat="45.72795" lon="3.69361">
        <ele>794.67</ele>
        <time>2025-12-20T09:46:48Z</time>
      </trkpt>
      <trkpt lat="45.72791" lon="3.69343">
        <ele>796.58</ele>
        <time>2025-12-20T09:46:51Z</time>
      </trkpt>
      <trkpt lat="45.72786" lon="3.6933">
        <ele>797.95</ele>
        <time>2025-12-20T09:46:53Z</time>
      </trkpt>
      <trkpt lat="45.7278" lon="3.69317">
        <ele>798.23</ele>
        <time>2025-12-20T09:46:55Z</time>
      </trkpt>
      <trkpt lat="45.72769" lon="3.69306">
        <ele>799.38</ele>
        <time>2025-12-20T09:46:57Z</time>
      </trkpt>
      <trkpt lat="45.72757" lon="3.69294">
        <ele>800.28</ele>
        <time>2025-12-20T09:46:59Z</time>
      </trkpt>
      <trkpt lat="45.72746" lon="3.69288">
        <ele>800.63</ele>
        <time>2025-12-20T09:47:01Z</time>
      </trkpt>
      <trkpt lat="45.72735" lon="3.69291">
        <ele>801.72</ele>
        <time>2025-12-20T09:47:03Z</time>
      </trkpt>
      <trkpt lat="45.72724" lon="3.69297">
        <ele>803.75</ele>
        <time>2025-12-20T09:47:05Z</time>
      </trkpt>
      <trkpt lat="45.72714" lon="3.69302">
        <ele>804.75</ele>
        <time>2025-12-20T09:47:07Z</time>
      </trkpt>
      <trkpt lat="45.72698" lon="3.6931">
        <ele>805.99</ele>
        <time>2025-12-20T09:47:09Z</time>
      </trkpt>
      <trkpt lat="45.72683" lon="3.69319">
        <ele>808</ele>
        <time>2025-12-20T09:47:11Z</time>
      </trkpt>
      <trkpt lat="45.72667" lon="3.69329">
        <ele>807.03</ele>
        <time>2025-12-20T09:47:13Z</time>
      </trkpt>
      <trkpt lat="45.72654" lon="3.69337">
        <ele>805.9</ele>
        <time>2025-12-20T09:47:15Z</time>
      </trkpt>
      <trkpt lat="45.72639" lon="3.69345">
        <ele>805.83</ele>
        <time>2025-12-20T09:47:17Z</time>
      </trkpt>
      <trkpt lat="45.72628" lon="3.69351">
        <ele>805.47</ele>
        <time>2025-12-20T09:47:19Z</time>
      </trkpt>
      <trkpt lat="45.72615" lon="3.69358">
        <ele>804.5</ele>
        <time>2025-12-20T09:47:21Z</time>
      </trkpt>
      <trkpt lat="45.72606" lon="3.69363">
        <ele>804.25</ele>
        <time>2025-12-20T09:47:23Z</time>
      </trkpt>
      <trkpt lat="45.72595" lon="3.69372">
        <ele>803.83</ele>
        <time>2025-12-20T09:47:25Z</time>
      </trkpt>
      <trkpt lat="45.72586" lon="3.69379">
        <ele>802.87</ele>
        <time>2025-12-20T09:47:26Z</time>
      </trkpt>
      <trkpt lat="45.72579" lon="3.69386">
        <ele>802.38</ele>
        <time>2025-12-20T09:47:27Z</time>
      </trkpt>
      <trkpt lat="45.72567" lon="3.694">
        <ele>800.03</ele>
        <time>2025-12-20T09:47:29Z</time>
      </trkpt>
      <trkpt lat="45.72557" lon="3.69416">
        <ele>798.73</ele>
        <time>2025-12-20T09:47:31Z</time>
      </trkpt>
      <trkpt lat="45.72548" lon="3.6943">
        <ele>799.52</ele>
        <time>2025-12-20T09:47:33Z</time>
      </trkpt>
      <trkpt lat="45.72535" lon="3.69434">
        <ele>799.27</ele>
        <time>2025-12-20T09:47:35Z</time>
      </trkpt>
      <trkpt lat="45.72522" lon="3.69434">
        <ele>799.29</ele>
        <time>2025-12-20T09:47:37Z</time>
      </trkpt>
      <trkpt lat="45.7251" lon="3.69436">
        <ele>798.91</ele>
        <time>2025-12-20T09:47:39Z</time>
      </trkpt>
      <trkpt lat="45.72497" lon="3.69439">
        <ele>801.44</ele>
        <time>2025-12-20T09:47:42Z</time>
      </trkpt>
      <trkpt lat="45.72486" lon="3.69442">
        <ele>801.42</ele>
        <time>2025-12-20T09:47:44Z</time>
      </trkpt>
      <trkpt lat="45.72472" lon="3.69447">
        <ele>801.58</ele>
        <time>2025-12-20T09:47:46Z</time>
      </trkpt>
      <trkpt lat="45.72458" lon="3.6945">
        <ele>803.16</ele>
        <time>2025-12-20T09:47:48Z</time>
      </trkpt>
      <trkpt lat="45.72447" lon="3.69455">
        <ele>805.1</ele>
        <time>2025-12-20T09:47:51Z</time>
      </trkpt>
      <trkpt lat="45.72438" lon="3.69459">
        <ele>805.4</ele>
        <time>2025-12-20T09:47:53Z</time>
      </trkpt>
      <trkpt lat="45.72425" lon="3.69462">
        <ele>805.26</ele>
        <time>2025-12-20T09:47:55Z</time>
      </trkpt>
      <trkpt lat="45.72408" lon="3.69466">
        <ele>804.92</ele>
        <time>2025-12-20T09:47:57Z</time>
      </trkpt>
      <trkpt lat="45.724" lon="3.69472">
        <ele>804.56</ele>
        <time>2025-12-20T09:47:58Z</time>
      </trkpt>
      <trkpt lat="45.72392" lon="3.69478">
        <ele>804.47</ele>
        <time>2025-12-20T09:47:59Z</time>
      </trkpt>
      <trkpt lat="45.72384" lon="3.69486">
        <ele>804.34</ele>
        <time>2025-12-20T09:48:00Z</time>
      </trkpt>
      <trkpt lat="45.72375" lon="3.69496">
        <ele>803.83</ele>
        <time>2025-12-20T09:48:01Z</time>
      </trkpt>
      <trkpt lat="45.72367" lon="3.69506">
        <ele>802.99</ele>
        <time>2025-12-20T09:48:02Z</time>
      </trkpt>
      <trkpt lat="45.72359" lon="3.69516">
        <ele>802.87</ele>
        <time>2025-12-20T09:48:03Z</time>
      </trkpt>
      <trkpt lat="45.72352" lon="3.69525">
        <ele>802.73</ele>
        <time>2025-12-20T09:48:04Z</time>
      </trkpt>
      <trkpt lat="45.72345" lon="3.69548">
        <ele>801.81</ele>
        <time>2025-12-20T09:48:06Z</time>
      </trkpt>
      <trkpt lat="45.72347" lon="3.69573">
        <ele>800.91</ele>
        <time>2025-12-20T09:48:08Z</time>
      </trkpt>
      <trkpt lat="45.7235" lon="3.69587">
        <ele>800.9</ele>
        <time>2025-12-20T09:48:09Z</time>
      </trkpt>
      <trkpt lat="45.72353" lon="3.69601">
        <ele>800.27</ele>
        <time>2025-12-20T09:48:10Z</time>
      </trkpt>
      <trkpt lat="45.72355" lon="3.69618">
        <ele>799.44</ele>
        <time>2025-12-20T09:48:11Z</time>
      </trkpt>
      <trkpt lat="45.72356" lon="3.69634">
        <ele>799.37</ele>
        <time>2025-12-20T09:48:12Z</time>
      </trkpt>
      <trkpt lat="45.72357" lon="3.69647">
        <ele>798.7</ele>
        <time>2025-12-20T09:48:13Z</time>
      </trkpt>
      <trkpt lat="45.72355" lon="3.69661">
        <ele>798.02</ele>
        <time>2025-12-20T09:48:14Z</time>
      </trkpt>
      <trkpt lat="45.72353" lon="3.69675">
        <ele>797</ele>
        <time>2025-12-20T09:48:15Z</time>
      </trkpt>
      <trkpt lat="45.72352" lon="3.69688">
        <ele>796.38</ele>
        <time>2025-12-20T09:48:16Z</time>
      </trkpt>
      <trkpt lat="45.72352" lon="3.69701">
        <ele>795.76</ele>
        <time>2025-12-20T09:48:17Z</time>
      </trkpt>
      <trkpt lat="45.72357" lon="3.69723">
        <ele>795.4</ele>
        <time>2025-12-20T09:48:19Z</time>
      </trkpt>
      <trkpt lat="45.72369" lon="3.69737">
        <ele>794.39</ele>
        <time>2025-12-20T09:48:21Z</time>
      </trkpt>
      <trkpt lat="45.72386" lon="3.69746">
        <ele>793.03</ele>
        <time>2025-12-20T09:48:23Z</time>
      </trkpt>
      <trkpt lat="45.72391" lon="3.69756">
        <ele>792.77</ele>
        <time>2025-12-20T09:48:24Z</time>
      </trkpt>
      <trkpt lat="45.72393" lon="3.69779">
        <ele>791.98</ele>
        <time>2025-12-20T09:48:26Z</time>
      </trkpt>
      <trkpt lat="45.72388" lon="3.698">
        <ele>791.67</ele>
        <time>2025-12-20T09:48:28Z</time>
      </trkpt>
      <trkpt lat="45.72377" lon="3.69816">
        <ele>791.54</ele>
        <time>2025-12-20T09:48:30Z</time>
      </trkpt>
      <trkpt lat="45.72361" lon="3.69832">
        <ele>791.17</ele>
        <time>2025-12-20T09:48:32Z</time>
      </trkpt>
      <trkpt lat="45.72352" lon="3.69842">
        <ele>790.66</ele>
        <time>2025-12-20T09:48:33Z</time>
      </trkpt>
      <trkpt lat="45.72343" lon="3.69853">
        <ele>789.6</ele>
        <time>2025-12-20T09:48:34Z</time>
      </trkpt>
      <trkpt lat="45.72333" lon="3.69864">
        <ele>788.89</ele>
        <time>2025-12-20T09:48:35Z</time>
      </trkpt>
      <trkpt lat="45.72324" lon="3.69876">
        <ele>788.15</ele>
        <time>2025-12-20T09:48:36Z</time>
      </trkpt>
      <trkpt lat="45.72314" lon="3.69888">
        <ele>787.55</ele>
        <time>2025-12-20T09:48:37Z</time>
      </trkpt>
      <trkpt lat="45.72304" lon="3.69897">
        <ele>787.27</ele>
        <time>2025-12-20T09:48:38Z</time>
      </trkpt>
      <trkpt lat="45.72292" lon="3.69903">
        <ele>786.37</ele>
        <time>2025-12-20T09:48:39Z</time>
      </trkpt>
      <trkpt lat="45.7228" lon="3.69907">
        <ele>785.99</ele>
        <time>2025-12-20T09:48:40Z</time>
      </trkpt>
      <trkpt lat="45.72267" lon="3.69909">
        <ele>786.01</ele>
        <time>2025-12-20T09:48:41Z</time>
      </trkpt>
      <trkpt lat="45.72254" lon="3.69912">
        <ele>785.39</ele>
        <time>2025-12-20T09:48:42Z</time>
      </trkpt>
      <trkpt lat="45.72244" lon="3.69913">
        <ele>785.08</ele>
        <time>2025-12-20T09:48:43Z</time>
      </trkpt>
      <trkpt lat="45.72234" lon="3.69911">
        <ele>784.88</ele>
        <time>2025-12-20T09:48:44Z</time>
      </trkpt>
      <trkpt lat="45.7222" lon="3.69898">
        <ele>785.08</ele>
        <time>2025-12-20T09:48:46Z</time>
      </trkpt>
      <trkpt lat="45.72213" lon="3.69879">
        <ele>785.05</ele>
        <time>2025-12-20T09:48:48Z</time>
      </trkpt>
      <trkpt lat="45.72206" lon="3.69858">
        <ele>784.96</ele>
        <time>2025-12-20T09:48:50Z</time>
      </trkpt>
      <trkpt lat="45.72198" lon="3.69841">
        <ele>785.07</ele>
        <time>2025-12-20T09:48:52Z</time>
      </trkpt>
      <trkpt lat="45.72188" lon="3.69833">
        <ele>785.4</ele>
        <time>2025-12-20T09:48:55Z</time>
      </trkpt>
      <trkpt lat="45.72183" lon="3.69849">
        <ele>787.66</ele>
        <time>2025-12-20T09:48:58Z</time>
      </trkpt>
      <trkpt lat="45.72182" lon="3.69866">
        <ele>788.84</ele>
        <time>2025-12-20T09:49:01Z</time>
      </trkpt>
      <trkpt lat="45.72182" lon="3.6988">
        <ele>789.77</ele>
        <time>2025-12-20T09:49:03Z</time>
      </trkpt>
      <trkpt lat="45.7218" lon="3.69893">
        <ele>791.07</ele>
        <time>2025-12-20T09:49:05Z</time>
      </trkpt>
      <trkpt lat="45.72176" lon="3.69907">
        <ele>792.82</ele>
        <time>2025-12-20T09:49:07Z</time>
      </trkpt>
      <trkpt lat="45.72174" lon="3.6992">
        <ele>792.83</ele>
        <time>2025-12-20T09:49:09Z</time>
      </trkpt>
      <trkpt lat="45.7217" lon="3.69937">
        <ele>794.49</ele>
        <time>2025-12-20T09:49:12Z</time>
      </trkpt>
      <trkpt lat="45.72167" lon="3.6995">
        <ele>795.94</ele>
        <time>2025-12-20T09:49:14Z</time>
      </trkpt>
      <trkpt lat="45.72164" lon="3.69962">
        <ele>797.47</ele>
        <time>2025-12-20T09:49:16Z</time>
      </trkpt>
      <trkpt lat="45.72161" lon="3.69975">
        <ele>798.2</ele>
        <time>2025-12-20T09:49:18Z</time>
      </trkpt>
      <trkpt lat="45.72159" lon="3.69993">
        <ele>799.6</ele>
        <time>2025-12-20T09:49:21Z</time>
      </trkpt>
      <trkpt lat="45.72157" lon="3.70009">
        <ele>801.56</ele>
        <time>2025-12-20T09:49:23Z</time>
      </trkpt>
      <trkpt lat="45.72158" lon="3.70025">
        <ele>802.91</ele>
        <time>2025-12-20T09:49:25Z</time>
      </trkpt>
      <trkpt lat="45.72157" lon="3.70044">
        <ele>805.44</ele>
        <time>2025-12-20T09:49:28Z</time>
      </trkpt>
      <trkpt lat="45.72156" lon="3.70059">
        <ele>808</ele>
        <time>2025-12-20T09:49:30Z</time>
      </trkpt>
      <trkpt lat="45.72155" lon="3.70074">
        <ele>809.19</ele>
        <time>2025-12-20T09:49:32Z</time>
      </trkpt>
      <trkpt lat="45.72155" lon="3.70089">
        <ele>810.93</ele>
        <time>2025-12-20T09:49:34Z</time>
      </trkpt>
      <trkpt lat="45.72155" lon="3.70106">
        <ele>812.38</ele>
        <time>2025-12-20T09:49:36Z</time>
      </trkpt>
      <trkpt lat="45.72153" lon="3.7012">
        <ele>814.02</ele>
        <time>2025-12-20T09:49:38Z</time>
      </trkpt>
      <trkpt lat="45.72148" lon="3.70135">
        <ele>816.11</ele>
        <time>2025-12-20T09:49:40Z</time>
      </trkpt>
      <trkpt lat="45.72144" lon="3.7015">
        <ele>817.05</ele>
        <time>2025-12-20T09:49:42Z</time>
      </trkpt>
      <trkpt lat="45.72139" lon="3.70168">
        <ele>818.88</ele>
        <time>2025-12-20T09:49:44Z</time>
      </trkpt>
      <trkpt lat="45.72131" lon="3.70192">
        <ele>819.58</ele>
        <time>2025-12-20T09:49:46Z</time>
      </trkpt>
      <trkpt lat="45.72123" lon="3.70213">
        <ele>820.17</ele>
        <time>2025-12-20T09:49:48Z</time>
      </trkpt>
      <trkpt lat="45.72116" lon="3.70231">
        <ele>822.13</ele>
        <time>2025-12-20T09:49:50Z</time>
      </trkpt>
      <trkpt lat="45.7211" lon="3.7025">
        <ele>823.58</ele>
        <time>2025-12-20T09:49:52Z</time>
      </trkpt>
      <trkpt lat="45.72104" lon="3.70266">
        <ele>824.27</ele>
        <time>2025-12-20T09:49:54Z</time>
      </trkpt>
      <trkpt lat="45.72095" lon="3.70272">
        <ele>824.77</ele>
        <time>2025-12-20T09:49:56Z</time>
      </trkpt>
      <trkpt lat="45.72083" lon="3.70273">
        <ele>826.4</ele>
        <time>2025-12-20T09:49:58Z</time>
      </trkpt>
      <trkpt lat="45.72067" lon="3.70272">
        <ele>827.93</ele>
        <time>2025-12-20T09:50:00Z</time>
      </trkpt>
      <trkpt lat="45.72052" lon="3.70266">
        <ele>828.27</ele>
        <time>2025-12-20T09:50:02Z</time>
      </trkpt>
      <trkpt lat="45.72042" lon="3.70252">
        <ele>828.72</ele>
        <time>2025-12-20T09:50:04Z</time>
      </trkpt>
      <trkpt lat="45.72037" lon="3.70236">
        <ele>829.36</ele>
        <time>2025-12-20T09:50:06Z</time>
      </trkpt>
      <trkpt lat="45.7203" lon="3.70227">
        <ele>829.3</ele>
        <time>2025-12-20T09:50:08Z</time>
      </trkpt>
      <trkpt lat="45.72021" lon="3.70216">
        <ele>830.4</ele>
        <time>2025-12-20T09:50:10Z</time>
      </trkpt>
      <trkpt lat="45.72009" lon="3.70201">
        <ele>829.18</ele>
        <time>2025-12-20T09:50:12Z</time>
      </trkpt>
      <trkpt lat="45.71997" lon="3.70185">
        <ele>830.31</ele>
        <time>2025-12-20T09:50:14Z</time>
      </trkpt>
      <trkpt lat="45.71984" lon="3.70167">
        <ele>831.65</ele>
        <time>2025-12-20T09:50:16Z</time>
      </trkpt>
      <trkpt lat="45.71976" lon="3.70159">
        <ele>832.79</ele>
        <time>2025-12-20T09:50:17Z</time>
      </trkpt>
      <trkpt lat="45.71963" lon="3.7014">
        <ele>834.74</ele>
        <time>2025-12-20T09:50:19Z</time>
      </trkpt>
      <trkpt lat="45.7195" lon="3.70131">
        <ele>836.98</ele>
        <time>2025-12-20T09:50:21Z</time>
      </trkpt>
      <trkpt lat="45.7194" lon="3.70126">
        <ele>837.71</ele>
        <time>2025-12-20T09:50:23Z</time>
      </trkpt>
      <trkpt lat="45.71928" lon="3.70119">
        <ele>840.46</ele>
        <time>2025-12-20T09:50:25Z</time>
      </trkpt>
      <trkpt lat="45.71916" lon="3.70119">
        <ele>842.36</ele>
        <time>2025-12-20T09:50:27Z</time>
      </trkpt>
      <trkpt lat="45.71903" lon="3.70123">
        <ele>845.34</ele>
        <time>2025-12-20T09:50:29Z</time>
      </trkpt>
      <trkpt lat="45.71894" lon="3.70132">
        <ele>846.58</ele>
        <time>2025-12-20T09:50:31Z</time>
      </trkpt>
      <trkpt lat="45.71883" lon="3.70144">
        <ele>848.88</ele>
        <time>2025-12-20T09:50:33Z</time>
      </trkpt>
      <trkpt lat="45.71871" lon="3.70156">
        <ele>851.04</ele>
        <time>2025-12-20T09:50:35Z</time>
      </trkpt>
      <trkpt lat="45.7186" lon="3.70171">
        <ele>852.94</ele>
        <time>2025-12-20T09:50:37Z</time>
      </trkpt>
      <trkpt lat="45.71849" lon="3.70188">
        <ele>854.84</ele>
        <time>2025-12-20T09:50:39Z</time>
      </trkpt>
      <trkpt lat="45.71844" lon="3.702">
        <ele>856.55</ele>
        <time>2025-12-20T09:50:40Z</time>
      </trkpt>
      <trkpt lat="45.71839" lon="3.70211">
        <ele>857.11</ele>
        <time>2025-12-20T09:50:41Z</time>
      </trkpt>
      <trkpt lat="45.71826" lon="3.70226">
        <ele>859.7</ele>
        <time>2025-12-20T09:50:43Z</time>
      </trkpt>
      <trkpt lat="45.71817" lon="3.7023">
        <ele>860.93</ele>
        <time>2025-12-20T09:50:44Z</time>
      </trkpt>
      <trkpt lat="45.71805" lon="3.70233">
        <ele>859.9</ele>
        <time>2025-12-20T09:50:45Z</time>
      </trkpt>
      <trkpt lat="45.71793" lon="3.70236">
        <ele>859.32</ele>
        <time>2025-12-20T09:50:46Z</time>
      </trkpt>
      <trkpt lat="45.71781" lon="3.70238">
        <ele>858.69</ele>
        <time>2025-12-20T09:50:47Z</time>
      </trkpt>
      <trkpt lat="45.7177" lon="3.70241">
        <ele>858.55</ele>
        <time>2025-12-20T09:50:48Z</time>
      </trkpt>
      <trkpt lat="45.71758" lon="3.70244">
        <ele>858.29</ele>
        <time>2025-12-20T09:50:49Z</time>
      </trkpt>
      <trkpt lat="45.71746" lon="3.70247">
        <ele>857.61</ele>
        <time>2025-12-20T09:50:50Z</time>
      </trkpt>
      <trkpt lat="45.71734" lon="3.70249">
        <ele>856.98</ele>
        <time>2025-12-20T09:50:51Z</time>
      </trkpt>
      <trkpt lat="45.71723" lon="3.70252">
        <ele>856.5</ele>
        <time>2025-12-20T09:50:52Z</time>
      </trkpt>
      <trkpt lat="45.71713" lon="3.70254">
        <ele>855.86</ele>
        <time>2025-12-20T09:50:53Z</time>
      </trkpt>
      <trkpt lat="45.71703" lon="3.70257">
        <ele>855.58</ele>
        <time>2025-12-20T09:50:54Z</time>
      </trkpt>
      <trkpt lat="45.71686" lon="3.70262">
        <ele>854.19</ele>
        <time>2025-12-20T09:50:56Z</time>
      </trkpt>
      <trkpt lat="45.71677" lon="3.70264">
        <ele>853.58</ele>
        <time>2025-12-20T09:50:57Z</time>
      </trkpt>
      <trkpt lat="45.7166" lon="3.70269">
        <ele>852.82</ele>
        <time>2025-12-20T09:50:59Z</time>
      </trkpt>
      <trkpt lat="45.71645" lon="3.70274">
        <ele>851.42</ele>
        <time>2025-12-20T09:51:01Z</time>
      </trkpt>
      <trkpt lat="45.71631" lon="3.70279">
        <ele>850.02</ele>
        <time>2025-12-20T09:51:03Z</time>
      </trkpt>
      <trkpt lat="45.71621" lon="3.70282">
        <ele>848.7</ele>
        <time>2025-12-20T09:51:05Z</time>
      </trkpt>
      <trkpt lat="45.71611" lon="3.70286">
        <ele>847.72</ele>
        <time>2025-12-20T09:51:07Z</time>
      </trkpt>
      <trkpt lat="45.716" lon="3.70289">
        <ele>846.66</ele>
        <time>2025-12-20T09:51:10Z</time>
      </trkpt>
      <trkpt lat="45.71591" lon="3.7029">
        <ele>845.75</ele>
        <time>2025-12-20T09:51:13Z</time>
      </trkpt>
      <trkpt lat="45.71586" lon="3.70275">
        <ele>845</ele>
        <time>2025-12-20T09:51:16Z</time>
      </trkpt>
      <trkpt lat="45.71583" lon="3.70254">
        <ele>844.15</ele>
        <time>2025-12-20T09:51:18Z</time>
      </trkpt>
      <trkpt lat="45.71582" lon="3.7024">
        <ele>843.48</ele>
        <time>2025-12-20T09:51:19Z</time>
      </trkpt>
      <trkpt lat="45.7158" lon="3.70224">
        <ele>842.58</ele>
        <time>2025-12-20T09:51:20Z</time>
      </trkpt>
      <trkpt lat="45.71579" lon="3.70208">
        <ele>841.9</ele>
        <time>2025-12-20T09:51:21Z</time>
      </trkpt>
      <trkpt lat="45.71578" lon="3.7019">
        <ele>841.11</ele>
        <time>2025-12-20T09:51:22Z</time>
      </trkpt>
      <trkpt lat="45.71578" lon="3.70172">
        <ele>840.35</ele>
        <time>2025-12-20T09:51:23Z</time>
      </trkpt>
      <trkpt lat="45.71578" lon="3.70153">
        <ele>839.63</ele>
        <time>2025-12-20T09:51:24Z</time>
      </trkpt>
      <trkpt lat="45.71581" lon="3.70135">
        <ele>838.97</ele>
        <time>2025-12-20T09:51:25Z</time>
      </trkpt>
      <trkpt lat="45.71585" lon="3.70118">
        <ele>838.16</ele>
        <time>2025-12-20T09:51:26Z</time>
      </trkpt>
      <trkpt lat="45.71592" lon="3.70101">
        <ele>837.39</ele>
        <time>2025-12-20T09:51:27Z</time>
      </trkpt>
      <trkpt lat="45.71599" lon="3.70085">
        <ele>836.54</ele>
        <time>2025-12-20T09:51:28Z</time>
      </trkpt>
      <trkpt lat="45.71606" lon="3.70068">
        <ele>835.8</ele>
        <time>2025-12-20T09:51:29Z</time>
      </trkpt>
      <trkpt lat="45.71614" lon="3.70052">
        <ele>835.1</ele>
        <time>2025-12-20T09:51:30Z</time>
      </trkpt>
      <trkpt lat="45.71622" lon="3.70035">
        <ele>834.19</ele>
        <time>2025-12-20T09:51:31Z</time>
      </trkpt>
      <trkpt lat="45.71629" lon="3.70019">
        <ele>833.22</ele>
        <time>2025-12-20T09:51:32Z</time>
      </trkpt>
      <trkpt lat="45.71636" lon="3.70003">
        <ele>833.32</ele>
        <time>2025-12-20T09:51:33Z</time>
      </trkpt>
      <trkpt lat="45.71642" lon="3.69985">
        <ele>832.17</ele>
        <time>2025-12-20T09:51:34Z</time>
      </trkpt>
      <trkpt lat="45.71646" lon="3.69967">
        <ele>831.16</ele>
        <time>2025-12-20T09:51:35Z</time>
      </trkpt>
      <trkpt lat="45.71651" lon="3.69948">
        <ele>830.87</ele>
        <time>2025-12-20T09:51:36Z</time>
      </trkpt>
      <trkpt lat="45.71654" lon="3.69928">
        <ele>829.72</ele>
        <time>2025-12-20T09:51:37Z</time>
      </trkpt>
      <trkpt lat="45.71658" lon="3.69907">
        <ele>828.56</ele>
        <time>2025-12-20T09:51:38Z</time>
      </trkpt>
      <trkpt lat="45.71661" lon="3.69886">
        <ele>828.51</ele>
        <time>2025-12-20T09:51:39Z</time>
      </trkpt>
      <trkpt lat="45.71664" lon="3.69867">
        <ele>828.24</ele>
        <time>2025-12-20T09:51:40Z</time>
      </trkpt>
      <trkpt lat="45.71668" lon="3.69847">
        <ele>827.27</ele>
        <time>2025-12-20T09:51:41Z</time>
      </trkpt>
      <trkpt lat="45.71671" lon="3.69828">
        <ele>826.88</ele>
        <time>2025-12-20T09:51:42Z</time>
      </trkpt>
      <trkpt lat="45.71674" lon="3.69811">
        <ele>825.66</ele>
        <time>2025-12-20T09:51:43Z</time>
      </trkpt>
      <trkpt lat="45.71676" lon="3.69793">
        <ele>824.52</ele>
        <time>2025-12-20T09:51:44Z</time>
      </trkpt>
      <trkpt lat="45.71676" lon="3.69778">
        <ele>823.65</ele>
        <time>2025-12-20T09:51:45Z</time>
      </trkpt>
      <trkpt lat="45.71674" lon="3.69763">
        <ele>822.77</ele>
        <time>2025-12-20T09:51:46Z</time>
      </trkpt>
      <trkpt lat="45.71671" lon="3.69749">
        <ele>822.1</ele>
        <time>2025-12-20T09:51:47Z</time>
      </trkpt>
      <trkpt lat="45.71668" lon="3.69726">
        <ele>820.67</ele>
        <time>2025-12-20T09:51:49Z</time>
      </trkpt>
      <trkpt lat="45.71671" lon="3.69705">
        <ele>819.37</ele>
        <time>2025-12-20T09:51:51Z</time>
      </trkpt>
      <trkpt lat="45.71681" lon="3.6969">
        <ele>818.56</ele>
        <time>2025-12-20T09:51:53Z</time>
      </trkpt>
      <trkpt lat="45.71696" lon="3.69681">
        <ele>818.22</ele>
        <time>2025-12-20T09:51:55Z</time>
      </trkpt>
      <trkpt lat="45.71711" lon="3.6967">
        <ele>817.82</ele>
        <time>2025-12-20T09:51:57Z</time>
      </trkpt>
      <trkpt lat="45.71725" lon="3.69656">
        <ele>817.77</ele>
        <time>2025-12-20T09:51:59Z</time>
      </trkpt>
      <trkpt lat="45.71732" lon="3.69634">
        <ele>818.45</ele>
        <time>2025-12-20T09:52:01Z</time>
      </trkpt>
      <trkpt lat="45.71737" lon="3.69609">
        <ele>819.07</ele>
        <time>2025-12-20T09:52:03Z</time>
      </trkpt>
      <trkpt lat="45.71739" lon="3.69596">
        <ele>819.76</ele>
        <time>2025-12-20T09:52:04Z</time>
      </trkpt>
      <trkpt lat="45.71742" lon="3.69582">
        <ele>820.55</ele>
        <time>2025-12-20T09:52:05Z</time>
      </trkpt>
      <trkpt lat="45.71744" lon="3.69568">
        <ele>820.57</ele>
        <time>2025-12-20T09:52:06Z</time>
      </trkpt>
      <trkpt lat="45.71744" lon="3.69554">
        <ele>821.93</ele>
        <time>2025-12-20T09:52:07Z</time>
      </trkpt>
      <trkpt lat="45.71741" lon="3.6954">
        <ele>823.38</ele>
        <time>2025-12-20T09:52:08Z</time>
      </trkpt>
      <trkpt lat="45.71737" lon="3.69527">
        <ele>824.77</ele>
        <time>2025-12-20T09:52:09Z</time>
      </trkpt>
      <trkpt lat="45.71732" lon="3.69514">
        <ele>826.18</ele>
        <time>2025-12-20T09:52:10Z</time>
      </trkpt>
      <trkpt lat="45.71727" lon="3.69502">
        <ele>827.39</ele>
        <time>2025-12-20T09:52:11Z</time>
      </trkpt>
      <trkpt lat="45.71722" lon="3.69489">
        <ele>828.63</ele>
        <time>2025-12-20T09:52:12Z</time>
      </trkpt>
      <trkpt lat="45.71717" lon="3.69476">
        <ele>829.74</ele>
        <time>2025-12-20T09:52:13Z</time>
      </trkpt>
      <trkpt lat="45.71713" lon="3.69464">
        <ele>830.09</ele>
        <time>2025-12-20T09:52:14Z</time>
      </trkpt>
      <trkpt lat="45.71708" lon="3.69452">
        <ele>830.3</ele>
        <time>2025-12-20T09:52:15Z</time>
      </trkpt>
      <trkpt lat="45.71704" lon="3.69439">
        <ele>830.88</ele>
        <time>2025-12-20T09:52:16Z</time>
      </trkpt>
      <trkpt lat="45.71699" lon="3.69427">
        <ele>831.38</ele>
        <time>2025-12-20T09:52:17Z</time>
      </trkpt>
      <trkpt lat="45.71695" lon="3.69415">
        <ele>831.75</ele>
        <time>2025-12-20T09:52:18Z</time>
      </trkpt>
      <trkpt lat="45.7169" lon="3.69401">
        <ele>832.41</ele>
        <time>2025-12-20T09:52:19Z</time>
      </trkpt>
      <trkpt lat="45.71686" lon="3.69387">
        <ele>833.44</ele>
        <time>2025-12-20T09:52:20Z</time>
      </trkpt>
      <trkpt lat="45.71681" lon="3.69372">
        <ele>834.4</ele>
        <time>2025-12-20T09:52:21Z</time>
      </trkpt>
      <trkpt lat="45.71676" lon="3.69358">
        <ele>835.26</ele>
        <time>2025-12-20T09:52:22Z</time>
      </trkpt>
      <trkpt lat="45.7167" lon="3.69343">
        <ele>835.31</ele>
        <time>2025-12-20T09:52:23Z</time>
      </trkpt>
      <trkpt lat="45.71664" lon="3.69329">
        <ele>836.58</ele>
        <time>2025-12-20T09:52:24Z</time>
      </trkpt>
      <trkpt lat="45.71657" lon="3.69315">
        <ele>838.13</ele>
        <time>2025-12-20T09:52:25Z</time>
      </trkpt>
      <trkpt lat="45.7165" lon="3.69302">
        <ele>839.51</ele>
        <time>2025-12-20T09:52:26Z</time>
      </trkpt>
      <trkpt lat="45.71642" lon="3.69289">
        <ele>839.89</ele>
        <time>2025-12-20T09:52:27Z</time>
      </trkpt>
      <trkpt lat="45.71632" lon="3.69275">
        <ele>839.78</ele>
        <time>2025-12-20T09:52:28Z</time>
      </trkpt>
      <trkpt lat="45.71622" lon="3.69263">
        <ele>841.17</ele>
        <time>2025-12-20T09:52:29Z</time>
      </trkpt>
      <trkpt lat="45.7161" lon="3.69253">
        <ele>842.56</ele>
        <time>2025-12-20T09:52:30Z</time>
      </trkpt>
      <trkpt lat="45.71598" lon="3.69244">
        <ele>843.58</ele>
        <time>2025-12-20T09:52:31Z</time>
      </trkpt>
      <trkpt lat="45.71586" lon="3.69234">
        <ele>843.98</ele>
        <time>2025-12-20T09:52:32Z</time>
      </trkpt>
      <trkpt lat="45.71572" lon="3.69226">
        <ele>843.48</ele>
        <time>2025-12-20T09:52:33Z</time>
      </trkpt>
      <trkpt lat="45.7156" lon="3.69217">
        <ele>843.95</ele>
        <time>2025-12-20T09:52:34Z</time>
      </trkpt>
      <trkpt lat="45.71548" lon="3.69208">
        <ele>844.81</ele>
        <time>2025-12-20T09:52:35Z</time>
      </trkpt>
      <trkpt lat="45.71538" lon="3.69199">
        <ele>845.58</ele>
        <time>2025-12-20T09:52:36Z</time>
      </trkpt>
      <trkpt lat="45.71527" lon="3.6919">
        <ele>846.15</ele>
        <time>2025-12-20T09:52:37Z</time>
      </trkpt>
      <trkpt lat="45.71517" lon="3.69179">
        <ele>846.33</ele>
        <time>2025-12-20T09:52:38Z</time>
      </trkpt>
      <trkpt lat="45.71507" lon="3.69168">
        <ele>847.21</ele>
        <time>2025-12-20T09:52:39Z</time>
      </trkpt>
      <trkpt lat="45.71497" lon="3.69155">
        <ele>847.06</ele>
        <time>2025-12-20T09:52:40Z</time>
      </trkpt>
      <trkpt lat="45.71487" lon="3.69142">
        <ele>848.56</ele>
        <time>2025-12-20T09:52:41Z</time>
      </trkpt>
      <trkpt lat="45.71479" lon="3.69126">
        <ele>849.06</ele>
        <time>2025-12-20T09:52:42Z</time>
      </trkpt>
      <trkpt lat="45.71471" lon="3.69111">
        <ele>849.31</ele>
        <time>2025-12-20T09:52:43Z</time>
      </trkpt>
      <trkpt lat="45.71464" lon="3.69095">
        <ele>849.71</ele>
        <time>2025-12-20T09:52:44Z</time>
      </trkpt>
      <trkpt lat="45.71455" lon="3.6908">
        <ele>850.8</ele>
        <time>2025-12-20T09:52:45Z</time>
      </trkpt>
      <trkpt lat="45.71446" lon="3.69063">
        <ele>851.39</ele>
        <time>2025-12-20T09:52:46Z</time>
      </trkpt>
      <trkpt lat="45.71436" lon="3.69049">
        <ele>852.8</ele>
        <time>2025-12-20T09:52:47Z</time>
      </trkpt>
      <trkpt lat="45.71426" lon="3.69034">
        <ele>853.34</ele>
        <time>2025-12-20T09:52:48Z</time>
      </trkpt>
      <trkpt lat="45.71418" lon="3.69018">
        <ele>854.69</ele>
        <time>2025-12-20T09:52:49Z</time>
      </trkpt>
      <trkpt lat="45.71411" lon="3.69">
        <ele>856.24</ele>
        <time>2025-12-20T09:52:50Z</time>
      </trkpt>
      <trkpt lat="45.71405" lon="3.68981">
        <ele>857.68</ele>
        <time>2025-12-20T09:52:51Z</time>
      </trkpt>
      <trkpt lat="45.714" lon="3.68961">
        <ele>858.92</ele>
        <time>2025-12-20T09:52:52Z</time>
      </trkpt>
      <trkpt lat="45.71396" lon="3.68942">
        <ele>860</ele>
        <time>2025-12-20T09:52:53Z</time>
      </trkpt>
      <trkpt lat="45.71392" lon="3.68922">
        <ele>860.77</ele>
        <time>2025-12-20T09:52:54Z</time>
      </trkpt>
      <trkpt lat="45.71387" lon="3.68901">
        <ele>861.09</ele>
        <time>2025-12-20T09:52:55Z</time>
      </trkpt>
      <trkpt lat="45.71384" lon="3.68882">
        <ele>861.7</ele>
        <time>2025-12-20T09:52:56Z</time>
      </trkpt>
      <trkpt lat="45.71381" lon="3.68863">
        <ele>862.43</ele>
        <time>2025-12-20T09:52:57Z</time>
      </trkpt>
      <trkpt lat="45.71379" lon="3.68844">
        <ele>863</ele>
        <time>2025-12-20T09:52:58Z</time>
      </trkpt>
      <trkpt lat="45.71378" lon="3.68828">
        <ele>864.11</ele>
        <time>2025-12-20T09:52:59Z</time>
      </trkpt>
      <trkpt lat="45.71381" lon="3.68814">
        <ele>864.3</ele>
        <time>2025-12-20T09:53:00Z</time>
      </trkpt>
      <trkpt lat="45.71386" lon="3.688">
        <ele>866.03</ele>
        <time>2025-12-20T09:53:02Z</time>
      </trkpt>
      <trkpt lat="45.71389" lon="3.68788">
        <ele>868.38</ele>
        <time>2025-12-20T09:53:34Z</time>
      </trkpt>
      <trkpt lat="45.71393" lon="3.68774">
        <ele>869.27</ele>
        <time>2025-12-20T09:53:36Z</time>
      </trkpt>
      <trkpt lat="45.714" lon="3.68758">
        <ele>869.28</ele>
        <time>2025-12-20T09:53:38Z</time>
      </trkpt>
      <trkpt lat="45.71407" lon="3.68739">
        <ele>870.55</ele>
        <time>2025-12-20T09:53:40Z</time>
      </trkpt>
      <trkpt lat="45.71407" lon="3.68714">
        <ele>872.84</ele>
        <time>2025-12-20T09:53:42Z</time>
      </trkpt>
      <trkpt lat="45.71406" lon="3.687">
        <ele>873.48</ele>
        <time>2025-12-20T09:53:43Z</time>
      </trkpt>
      <trkpt lat="45.71406" lon="3.68687">
        <ele>874.25</ele>
        <time>2025-12-20T09:53:44Z</time>
      </trkpt>
      <trkpt lat="45.71406" lon="3.68664">
        <ele>874.8</ele>
        <time>2025-12-20T09:53:46Z</time>
      </trkpt>
      <trkpt lat="45.71408" lon="3.68644">
        <ele>876.81</ele>
        <time>2025-12-20T09:53:48Z</time>
      </trkpt>
      <trkpt lat="45.71417" lon="3.68629">
        <ele>877.68</ele>
        <time>2025-12-20T09:53:50Z</time>
      </trkpt>
      <trkpt lat="45.71428" lon="3.68614">
        <ele>878.62</ele>
        <time>2025-12-20T09:53:52Z</time>
      </trkpt>
      <trkpt lat="45.71442" lon="3.68596">
        <ele>881.41</ele>
        <time>2025-12-20T09:53:54Z</time>
      </trkpt>
      <trkpt lat="45.71451" lon="3.6859">
        <ele>882.4</ele>
        <time>2025-12-20T09:53:55Z</time>
      </trkpt>
      <trkpt lat="45.7146" lon="3.68584">
        <ele>883.65</ele>
        <time>2025-12-20T09:53:57Z</time>
      </trkpt>
      <trkpt lat="45.71476" lon="3.68572">
        <ele>884.57</ele>
        <time>2025-12-20T09:53:59Z</time>
      </trkpt>
      <trkpt lat="45.71494" lon="3.68567">
        <ele>885.98</ele>
        <time>2025-12-20T09:54:01Z</time>
      </trkpt>
      <trkpt lat="45.71505" lon="3.68565">
        <ele>887.06</ele>
        <time>2025-12-20T09:54:02Z</time>
      </trkpt>
      <trkpt lat="45.71515" lon="3.68563">
        <ele>888.5</ele>
        <time>2025-12-20T09:54:03Z</time>
      </trkpt>
      <trkpt lat="45.71525" lon="3.68561">
        <ele>890</ele>
        <time>2025-12-20T09:54:04Z</time>
      </trkpt>
      <trkpt lat="45.71536" lon="3.6856">
        <ele>890.49</ele>
        <time>2025-12-20T09:54:05Z</time>
      </trkpt>
      <trkpt lat="45.71548" lon="3.68559">
        <ele>891.15</ele>
        <time>2025-12-20T09:54:06Z</time>
      </trkpt>
      <trkpt lat="45.7156" lon="3.68559">
        <ele>893.76</ele>
        <time>2025-12-20T09:54:07Z</time>
      </trkpt>
      <trkpt lat="45.71571" lon="3.68559">
        <ele>895.26</ele>
        <time>2025-12-20T09:54:08Z</time>
      </trkpt>
      <trkpt lat="45.71582" lon="3.6856">
        <ele>896.34</ele>
        <time>2025-12-20T09:54:09Z</time>
      </trkpt>
      <trkpt lat="45.71593" lon="3.68563">
        <ele>896.86</ele>
        <time>2025-12-20T09:54:10Z</time>
      </trkpt>
      <trkpt lat="45.71606" lon="3.68565">
        <ele>897.9</ele>
        <time>2025-12-20T09:54:11Z</time>
      </trkpt>
      <trkpt lat="45.71619" lon="3.68566">
        <ele>898.14</ele>
        <time>2025-12-20T09:54:12Z</time>
      </trkpt>
      <trkpt lat="45.71631" lon="3.68567">
        <ele>899.13</ele>
        <time>2025-12-20T09:54:13Z</time>
      </trkpt>
      <trkpt lat="45.71645" lon="3.6857">
        <ele>900.8</ele>
        <time>2025-12-20T09:54:14Z</time>
      </trkpt>
      <trkpt lat="45.71657" lon="3.68571">
        <ele>901.93</ele>
        <time>2025-12-20T09:54:15Z</time>
      </trkpt>
      <trkpt lat="45.71669" lon="3.68572">
        <ele>902.89</ele>
        <time>2025-12-20T09:54:16Z</time>
      </trkpt>
      <trkpt lat="45.7168" lon="3.68572">
        <ele>902.3</ele>
        <time>2025-12-20T09:54:17Z</time>
      </trkpt>
      <trkpt lat="45.71691" lon="3.6857">
        <ele>902.53</ele>
        <time>2025-12-20T09:54:18Z</time>
      </trkpt>
      <trkpt lat="45.71702" lon="3.68567">
        <ele>903.7</ele>
        <time>2025-12-20T09:54:19Z</time>
      </trkpt>
      <trkpt lat="45.71713" lon="3.68561">
        <ele>904.6</ele>
        <time>2025-12-20T09:54:20Z</time>
      </trkpt>
      <trkpt lat="45.71723" lon="3.68554">
        <ele>905.06</ele>
        <time>2025-12-20T09:54:21Z</time>
      </trkpt>
      <trkpt lat="45.71732" lon="3.68546">
        <ele>907.7</ele>
        <time>2025-12-20T09:54:22Z</time>
      </trkpt>
      <trkpt lat="45.71742" lon="3.68539">
        <ele>909.41</ele>
        <time>2025-12-20T09:54:23Z</time>
      </trkpt>
      <trkpt lat="45.71751" lon="3.68531">
        <ele>910.27</ele>
        <time>2025-12-20T09:54:24Z</time>
      </trkpt>
      <trkpt lat="45.71762" lon="3.68523">
        <ele>911.22</ele>
        <time>2025-12-20T09:54:25Z</time>
      </trkpt>
      <trkpt lat="45.71773" lon="3.68516">
        <ele>912.53</ele>
        <time>2025-12-20T09:54:26Z</time>
      </trkpt>
      <trkpt lat="45.71783" lon="3.6851">
        <ele>914.38</ele>
        <time>2025-12-20T09:54:27Z</time>
      </trkpt>
      <trkpt lat="45.71793" lon="3.68505">
        <ele>916.35</ele>
        <time>2025-12-20T09:54:28Z</time>
      </trkpt>
      <trkpt lat="45.71806" lon="3.685">
        <ele>916.58</ele>
        <time>2025-12-20T09:54:29Z</time>
      </trkpt>
      <trkpt lat="45.71818" lon="3.68495">
        <ele>917.59</ele>
        <time>2025-12-20T09:54:30Z</time>
      </trkpt>
      <trkpt lat="45.71828" lon="3.68488">
        <ele>918.21</ele>
        <time>2025-12-20T09:54:31Z</time>
      </trkpt>
      <trkpt lat="45.71837" lon="3.68482">
        <ele>918.88</ele>
        <time>2025-12-20T09:54:32Z</time>
      </trkpt>
      <trkpt lat="45.71845" lon="3.68474">
        <ele>919.42</ele>
        <time>2025-12-20T09:54:33Z</time>
      </trkpt>
      <trkpt lat="45.71851" lon="3.68463">
        <ele>917.92</ele>
        <time>2025-12-20T09:54:34Z</time>
      </trkpt>
      <trkpt lat="45.71856" lon="3.68452">
        <ele>918.06</ele>
        <time>2025-12-20T09:54:35Z</time>
      </trkpt>
      <trkpt lat="45.71866" lon="3.68432">
        <ele>920.43</ele>
        <time>2025-12-20T09:54:37Z</time>
      </trkpt>
      <trkpt lat="45.71873" lon="3.68424">
        <ele>921.84</ele>
        <time>2025-12-20T09:54:38Z</time>
      </trkpt>
      <trkpt lat="45.7188" lon="3.68415">
        <ele>922.71</ele>
        <time>2025-12-20T09:54:39Z</time>
      </trkpt>
      <trkpt lat="45.71889" lon="3.6841">
        <ele>924.4</ele>
        <time>2025-12-20T09:54:40Z</time>
      </trkpt>
      <trkpt lat="45.71905" lon="3.68403">
        <ele>927.63</ele>
        <time>2025-12-20T09:54:42Z</time>
      </trkpt>
      <trkpt lat="45.71918" lon="3.68396">
        <ele>927.64</ele>
        <time>2025-12-20T09:54:44Z</time>
      </trkpt>
      <trkpt lat="45.71925" lon="3.68381">
        <ele>927.73</ele>
        <time>2025-12-20T09:54:46Z</time>
      </trkpt>
      <trkpt lat="45.71921" lon="3.68362">
        <ele>928.85</ele>
        <time>2025-12-20T09:54:49Z</time>
      </trkpt>
      <trkpt lat="45.7191" lon="3.68346">
        <ele>929.34</ele>
        <time>2025-12-20T09:54:51Z</time>
      </trkpt>
      <trkpt lat="45.71902" lon="3.68337">
        <ele>929.95</ele>
        <time>2025-12-20T09:54:52Z</time>
      </trkpt>
      <trkpt lat="45.71893" lon="3.68327">
        <ele>931.05</ele>
        <time>2025-12-20T09:54:53Z</time>
      </trkpt>
      <trkpt lat="45.71883" lon="3.68319">
        <ele>931.6</ele>
        <time>2025-12-20T09:54:54Z</time>
      </trkpt>
      <trkpt lat="45.71874" lon="3.68311">
        <ele>932.32</ele>
        <time>2025-12-20T09:54:55Z</time>
      </trkpt>
      <trkpt lat="45.71866" lon="3.68304">
        <ele>932.9</ele>
        <time>2025-12-20T09:54:56Z</time>
      </trkpt>
      <trkpt lat="45.71853" lon="3.68294">
        <ele>933.2</ele>
        <time>2025-12-20T09:54:58Z</time>
      </trkpt>
      <trkpt lat="45.71852" lon="3.68279">
        <ele>934.01</ele>
        <time>2025-12-20T09:55:01Z</time>
      </trkpt>
      <trkpt lat="45.71865" lon="3.68275">
        <ele>934.58</ele>
        <time>2025-12-20T09:55:03Z</time>
      </trkpt>
      <trkpt lat="45.71877" lon="3.68274">
        <ele>935.97</ele>
        <time>2025-12-20T09:55:04Z</time>
      </trkpt>
      <trkpt lat="45.71888" lon="3.68271">
        <ele>936.31</ele>
        <time>2025-12-20T09:55:05Z</time>
      </trkpt>
      <trkpt lat="45.71899" lon="3.68269">
        <ele>937.89</ele>
        <time>2025-12-20T09:55:06Z</time>
      </trkpt>
      <trkpt lat="45.7191" lon="3.68267">
        <ele>938.27</ele>
        <time>2025-12-20T09:55:07Z</time>
      </trkpt>
      <trkpt lat="45.71923" lon="3.68263">
        <ele>938.17</ele>
        <time>2025-12-20T09:55:08Z</time>
      </trkpt>
      <trkpt lat="45.71937" lon="3.68256">
        <ele>938.61</ele>
        <time>2025-12-20T09:55:09Z</time>
      </trkpt>
      <trkpt lat="45.71949" lon="3.68248">
        <ele>939.09</ele>
        <time>2025-12-20T09:55:10Z</time>
      </trkpt>
      <trkpt lat="45.7196" lon="3.6824">
        <ele>939.45</ele>
        <time>2025-12-20T09:55:11Z</time>
      </trkpt>
      <trkpt lat="45.71971" lon="3.68231">
        <ele>939.7</ele>
        <time>2025-12-20T09:55:12Z</time>
      </trkpt>
      <trkpt lat="45.71981" lon="3.68223">
        <ele>939.07</ele>
        <time>2025-12-20T09:55:13Z</time>
      </trkpt>
      <trkpt lat="45.7199" lon="3.68216">
        <ele>938.74</ele>
        <time>2025-12-20T09:55:14Z</time>
      </trkpt>
      <trkpt lat="45.71999" lon="3.68207">
        <ele>938.25</ele>
        <time>2025-12-20T09:55:15Z</time>
      </trkpt>
      <trkpt lat="45.72008" lon="3.68196">
        <ele>938.41</ele>
        <time>2025-12-20T09:55:16Z</time>
      </trkpt>
      <trkpt lat="45.72018" lon="3.68181">
        <ele>937.8</ele>
        <time>2025-12-20T09:55:17Z</time>
      </trkpt>
      <trkpt lat="45.72028" lon="3.68168">
        <ele>937.78</ele>
        <time>2025-12-20T09:55:18Z</time>
      </trkpt>
      <trkpt lat="45.72038" lon="3.68155">
        <ele>936.57</ele>
        <time>2025-12-20T09:55:19Z</time>
      </trkpt>
      <trkpt lat="45.72046" lon="3.68144">
        <ele>936.33</ele>
        <time>2025-12-20T09:55:20Z</time>
      </trkpt>
      <trkpt lat="45.72061" lon="3.68132">
        <ele>935.67</ele>
        <time>2025-12-20T09:55:22Z</time>
      </trkpt>
      <trkpt lat="45.72076" lon="3.68122">
        <ele>936.24</ele>
        <time>2025-12-20T09:55:24Z</time>
      </trkpt>
      <trkpt lat="45.72092" lon="3.68113">
        <ele>936.36</ele>
        <time>2025-12-20T09:55:26Z</time>
      </trkpt>
      <trkpt lat="45.72107" lon="3.68107">
        <ele>935.87</ele>
        <time>2025-12-20T09:55:28Z</time>
      </trkpt>
      <trkpt lat="45.72118" lon="3.68103">
        <ele>935.81</ele>
        <time>2025-12-20T09:55:30Z</time>
      </trkpt>
      <trkpt lat="45.72128" lon="3.68101">
        <ele>935.45</ele>
        <time>2025-12-20T09:55:32Z</time>
      </trkpt>
      <trkpt lat="45.72136" lon="3.68107">
        <ele>934.94</ele>
        <time>2025-12-20T09:55:34Z</time>
      </trkpt>
      <trkpt lat="45.72147" lon="3.68119">
        <ele>932.72</ele>
        <time>2025-12-20T09:55:36Z</time>
      </trkpt>
      <trkpt lat="45.72161" lon="3.6813">
        <ele>931.7</ele>
        <time>2025-12-20T09:55:38Z</time>
      </trkpt>
      <trkpt lat="45.72176" lon="3.68133">
        <ele>930.83</ele>
        <time>2025-12-20T09:55:40Z</time>
      </trkpt>
      <trkpt lat="45.72188" lon="3.68134">
        <ele>929.5</ele>
        <time>2025-12-20T09:55:42Z</time>
      </trkpt>
      <trkpt lat="45.72198" lon="3.68129">
        <ele>927.02</ele>
        <time>2025-12-20T09:55:46Z</time>
      </trkpt>
      <trkpt lat="45.72206" lon="3.68121">
        <ele>925.41</ele>
        <time>2025-12-20T09:55:51Z</time>
      </trkpt>
      <trkpt lat="45.72212" lon="3.68112">
        <ele>924.33</ele>
        <time>2025-12-20T09:55:54Z</time>
      </trkpt>
      <trkpt lat="45.72221" lon="3.68103">
        <ele>923.15</ele>
        <time>2025-12-20T09:55:57Z</time>
      </trkpt>
      <trkpt lat="45.7223" lon="3.68094">
        <ele>921.1</ele>
        <time>2025-12-20T09:56:01Z</time>
      </trkpt>
      <trkpt lat="45.72239" lon="3.68079">
        <ele>918.75</ele>
        <time>2025-12-20T09:56:04Z</time>
      </trkpt>
      <trkpt lat="45.72245" lon="3.68066">
        <ele>916.79</ele>
        <time>2025-12-20T09:56:07Z</time>
      </trkpt>
      <trkpt lat="45.7225" lon="3.68055">
        <ele>914.63</ele>
        <time>2025-12-20T09:56:09Z</time>
      </trkpt>
      <trkpt lat="45.72255" lon="3.68044">
        <ele>912.25</ele>
        <time>2025-12-20T09:56:11Z</time>
      </trkpt>
      <trkpt lat="45.7226" lon="3.6803">
        <ele>910.01</ele>
        <time>2025-12-20T09:56:13Z</time>
      </trkpt>
      <trkpt lat="45.72264" lon="3.68016">
        <ele>908.91</ele>
        <time>2025-12-20T09:56:15Z</time>
      </trkpt>
      <trkpt lat="45.72269" lon="3.68004">
        <ele>908.34</ele>
        <time>2025-12-20T09:56:25Z</time>
      </trkpt>
      <trkpt lat="45.72271" lon="3.67991">
        <ele>908.47</ele>
        <time>2025-12-20T09:56:27Z</time>
      </trkpt>
      <trkpt lat="45.72276" lon="3.67978">
        <ele>908.02</ele>
        <time>2025-12-20T09:56:29Z</time>
      </trkpt>
      <trkpt lat="45.72285" lon="3.67966">
        <ele>907.54</ele>
        <time>2025-12-20T09:56:32Z</time>
      </trkpt>
      <trkpt lat="45.72294" lon="3.67961">
        <ele>907.7</ele>
        <time>2025-12-20T09:56:35Z</time>
      </trkpt>
      <trkpt lat="45.72306" lon="3.67966">
        <ele>907.78</ele>
        <time>2025-12-20T09:56:54Z</time>
      </trkpt>
      <trkpt lat="45.72319" lon="3.6797">
        <ele>907.94</ele>
        <time>2025-12-20T09:56:56Z</time>
      </trkpt>
      <trkpt lat="45.72328" lon="3.67972">
        <ele>907.59</ele>
        <time>2025-12-20T09:56:58Z</time>
      </trkpt>
      <trkpt lat="45.72339" lon="3.67974">
        <ele>907.83</ele>
        <time>2025-12-20T09:57:00Z</time>
      </trkpt>
      <trkpt lat="45.72354" lon="3.67977">
        <ele>906.87</ele>
        <time>2025-12-20T09:57:02Z</time>
      </trkpt>
      <trkpt lat="45.7237" lon="3.67978">
        <ele>906.6</ele>
        <time>2025-12-20T09:57:04Z</time>
      </trkpt>
      <trkpt lat="45.72386" lon="3.67976">
        <ele>906.61</ele>
        <time>2025-12-20T09:57:06Z</time>
      </trkpt>
      <trkpt lat="45.72399" lon="3.67971">
        <ele>906.7</ele>
        <time>2025-12-20T09:57:08Z</time>
      </trkpt>
      <trkpt lat="45.72413" lon="3.67965">
        <ele>906.79</ele>
        <time>2025-12-20T09:57:10Z</time>
      </trkpt>
      <trkpt lat="45.72424" lon="3.67957">
        <ele>907.74</ele>
        <time>2025-12-20T09:57:12Z</time>
      </trkpt>
      <trkpt lat="45.72435" lon="3.67945">
        <ele>906.94</ele>
        <time>2025-12-20T09:57:14Z</time>
      </trkpt>
      <trkpt lat="45.72445" lon="3.67933">
        <ele>908.36</ele>
        <time>2025-12-20T09:57:16Z</time>
      </trkpt>
      <trkpt lat="45.72454" lon="3.6792">
        <ele>908.99</ele>
        <time>2025-12-20T09:57:18Z</time>
      </trkpt>
      <trkpt lat="45.72465" lon="3.67906">
        <ele>909.83</ele>
        <time>2025-12-20T09:57:20Z</time>
      </trkpt>
      <trkpt lat="45.72475" lon="3.67893">
        <ele>910.73</ele>
        <time>2025-12-20T09:57:22Z</time>
      </trkpt>
      <trkpt lat="45.72487" lon="3.67879">
        <ele>910.99</ele>
        <time>2025-12-20T09:57:24Z</time>
      </trkpt>
      <trkpt lat="45.72494" lon="3.67871">
        <ele>911.13</ele>
        <time>2025-12-20T09:57:25Z</time>
      </trkpt>
      <trkpt lat="45.72501" lon="3.67862">
        <ele>911.28</ele>
        <time>2025-12-20T09:57:26Z</time>
      </trkpt>
      <trkpt lat="45.72508" lon="3.67853">
        <ele>911.36</ele>
        <time>2025-12-20T09:57:27Z</time>
      </trkpt>
      <trkpt lat="45.72523" lon="3.67839">
        <ele>911.52</ele>
        <time>2025-12-20T09:57:29Z</time>
      </trkpt>
      <trkpt lat="45.72538" lon="3.67826">
        <ele>910.33</ele>
        <time>2025-12-20T09:57:31Z</time>
      </trkpt>
      <trkpt lat="45.72547" lon="3.67819">
        <ele>910.5</ele>
        <time>2025-12-20T09:57:32Z</time>
      </trkpt>
      <trkpt lat="45.72556" lon="3.6781">
        <ele>909.62</ele>
        <time>2025-12-20T09:57:33Z</time>
      </trkpt>
      <trkpt lat="45.72564" lon="3.67799">
        <ele>907.81</ele>
        <time>2025-12-20T09:57:34Z</time>
      </trkpt>
      <trkpt lat="45.72572" lon="3.67791">
        <ele>908.08</ele>
        <time>2025-12-20T09:57:35Z</time>
      </trkpt>
      <trkpt lat="45.72579" lon="3.67783">
        <ele>907.84</ele>
        <time>2025-12-20T09:57:36Z</time>
      </trkpt>
      <trkpt lat="45.72591" lon="3.67766">
        <ele>907.04</ele>
        <time>2025-12-20T09:57:38Z</time>
      </trkpt>
      <trkpt lat="45.72599" lon="3.67747">
        <ele>908.79</ele>
        <time>2025-12-20T09:57:40Z</time>
      </trkpt>
      <trkpt lat="45.72602" lon="3.67723">
        <ele>910.65</ele>
        <time>2025-12-20T09:57:42Z</time>
      </trkpt>
      <trkpt lat="45.72603" lon="3.67701">
        <ele>911.63</ele>
        <time>2025-12-20T09:57:44Z</time>
      </trkpt>
      <trkpt lat="45.72602" lon="3.6768">
        <ele>913.22</ele>
        <time>2025-12-20T09:57:46Z</time>
      </trkpt>
      <trkpt lat="45.72603" lon="3.67663">
        <ele>914.99</ele>
        <time>2025-12-20T09:57:48Z</time>
      </trkpt>
      <trkpt lat="45.72604" lon="3.67642">
        <ele>917.78</ele>
        <time>2025-12-20T09:57:50Z</time>
      </trkpt>
      <trkpt lat="45.72604" lon="3.67619">
        <ele>921.14</ele>
        <time>2025-12-20T09:57:52Z</time>
      </trkpt>
      <trkpt lat="45.72604" lon="3.67595">
        <ele>923.18</ele>
        <time>2025-12-20T09:57:54Z</time>
      </trkpt>
      <trkpt lat="45.72605" lon="3.67581">
        <ele>923.5</ele>
        <time>2025-12-20T09:57:55Z</time>
      </trkpt>
      <trkpt lat="45.72608" lon="3.67557">
        <ele>924.4</ele>
        <time>2025-12-20T09:57:57Z</time>
      </trkpt>
      <trkpt lat="45.72614" lon="3.67547">
        <ele>926.05</ele>
        <time>2025-12-20T09:57:58Z</time>
      </trkpt>
      <trkpt lat="45.72625" lon="3.6753">
        <ele>927.28</ele>
        <time>2025-12-20T09:58:00Z</time>
      </trkpt>
      <trkpt lat="45.72636" lon="3.67513">
        <ele>928.97</ele>
        <time>2025-12-20T09:58:02Z</time>
      </trkpt>
      <trkpt lat="45.72643" lon="3.67503">
        <ele>929.74</ele>
        <time>2025-12-20T09:58:03Z</time>
      </trkpt>
      <trkpt lat="45.72651" lon="3.67491">
        <ele>931.14</ele>
        <time>2025-12-20T09:58:04Z</time>
      </trkpt>
      <trkpt lat="45.72659" lon="3.67479">
        <ele>932.72</ele>
        <time>2025-12-20T09:58:05Z</time>
      </trkpt>
      <trkpt lat="45.72665" lon="3.67469">
        <ele>933.69</ele>
        <time>2025-12-20T09:58:06Z</time>
      </trkpt>
      <trkpt lat="45.72677" lon="3.67451">
        <ele>936.13</ele>
        <time>2025-12-20T09:58:08Z</time>
      </trkpt>
      <trkpt lat="45.72687" lon="3.67431">
        <ele>938.03</ele>
        <time>2025-12-20T09:58:10Z</time>
      </trkpt>
      <trkpt lat="45.72691" lon="3.67419">
        <ele>938.93</ele>
        <time>2025-12-20T09:58:11Z</time>
      </trkpt>
      <trkpt lat="45.72694" lon="3.67406">
        <ele>939.72</ele>
        <time>2025-12-20T09:58:12Z</time>
      </trkpt>
      <trkpt lat="45.72697" lon="3.67392">
        <ele>939.4</ele>
        <time>2025-12-20T09:58:13Z</time>
      </trkpt>
      <trkpt lat="45.72699" lon="3.67377">
        <ele>939.41</ele>
        <time>2025-12-20T09:58:14Z</time>
      </trkpt>
      <trkpt lat="45.72702" lon="3.6736">
        <ele>939.65</ele>
        <time>2025-12-20T09:58:15Z</time>
      </trkpt>
      <trkpt lat="45.72704" lon="3.67343">
        <ele>940.38</ele>
        <time>2025-12-20T09:58:16Z</time>
      </trkpt>
      <trkpt lat="45.72706" lon="3.67328">
        <ele>942.17</ele>
        <time>2025-12-20T09:58:17Z</time>
      </trkpt>
      <trkpt lat="45.72707" lon="3.67305">
        <ele>943.24</ele>
        <time>2025-12-20T09:58:19Z</time>
      </trkpt>
      <trkpt lat="45.72707" lon="3.67282">
        <ele>943.26</ele>
        <time>2025-12-20T09:58:21Z</time>
      </trkpt>
      <trkpt lat="45.72707" lon="3.67255">
        <ele>943.31</ele>
        <time>2025-12-20T09:58:23Z</time>
      </trkpt>
      <trkpt lat="45.72709" lon="3.6724">
        <ele>940.18</ele>
        <time>2025-12-20T09:58:24Z</time>
      </trkpt>
      <trkpt lat="45.72712" lon="3.67224">
        <ele>940.5</ele>
        <time>2025-12-20T09:58:25Z</time>
      </trkpt>
      <trkpt lat="45.72716" lon="3.67205">
        <ele>940.5</ele>
        <time>2025-12-20T09:58:26Z</time>
      </trkpt>
      <trkpt lat="45.72719" lon="3.67186">
        <ele>941.28</ele>
        <time>2025-12-20T09:58:27Z</time>
      </trkpt>
      <trkpt lat="45.72721" lon="3.67166">
        <ele>941.04</ele>
        <time>2025-12-20T09:58:28Z</time>
      </trkpt>
      <trkpt lat="45.72721" lon="3.67147">
        <ele>940.14</ele>
        <time>2025-12-20T09:58:29Z</time>
      </trkpt>
      <trkpt lat="45.72719" lon="3.67126">
        <ele>938.83</ele>
        <time>2025-12-20T09:58:30Z</time>
      </trkpt>
      <trkpt lat="45.72718" lon="3.67105">
        <ele>938.04</ele>
        <time>2025-12-20T09:58:31Z</time>
      </trkpt>
      <trkpt lat="45.72714" lon="3.67083">
        <ele>936.71</ele>
        <time>2025-12-20T09:58:32Z</time>
      </trkpt>
      <trkpt lat="45.72711" lon="3.67063">
        <ele>936.18</ele>
        <time>2025-12-20T09:58:33Z</time>
      </trkpt>
      <trkpt lat="45.72708" lon="3.67043">
        <ele>935.86</ele>
        <time>2025-12-20T09:58:34Z</time>
      </trkpt>
      <trkpt lat="45.72705" lon="3.67024">
        <ele>935.5</ele>
        <time>2025-12-20T09:58:35Z</time>
      </trkpt>
      <trkpt lat="45.72704" lon="3.67005">
        <ele>935.38</ele>
        <time>2025-12-20T09:58:36Z</time>
      </trkpt>
      <trkpt lat="45.72702" lon="3.66986">
        <ele>935.37</ele>
        <time>2025-12-20T09:58:37Z</time>
      </trkpt>
      <trkpt lat="45.72702" lon="3.66968">
        <ele>935.68</ele>
        <time>2025-12-20T09:58:38Z</time>
      </trkpt>
      <trkpt lat="45.72706" lon="3.66952">
        <ele>936.1</ele>
        <time>2025-12-20T09:58:39Z</time>
      </trkpt>
      <trkpt lat="45.7271" lon="3.66936">
        <ele>936.28</ele>
        <time>2025-12-20T09:58:40Z</time>
      </trkpt>
      <trkpt lat="45.72717" lon="3.66923">
        <ele>936.13</ele>
        <time>2025-12-20T09:58:41Z</time>
      </trkpt>
      <trkpt lat="45.72723" lon="3.66909">
        <ele>935.8</ele>
        <time>2025-12-20T09:58:42Z</time>
      </trkpt>
      <trkpt lat="45.72729" lon="3.66895">
        <ele>935.67</ele>
        <time>2025-12-20T09:58:43Z</time>
      </trkpt>
      <trkpt lat="45.72735" lon="3.66879">
        <ele>935.55</ele>
        <time>2025-12-20T09:58:44Z</time>
      </trkpt>
      <trkpt lat="45.72741" lon="3.66864">
        <ele>935.34</ele>
        <time>2025-12-20T09:58:45Z</time>
      </trkpt>
      <trkpt lat="45.72748" lon="3.66849">
        <ele>934.86</ele>
        <time>2025-12-20T09:58:46Z</time>
      </trkpt>
      <trkpt lat="45.72754" lon="3.66833">
        <ele>934.86</ele>
        <time>2025-12-20T09:58:47Z</time>
      </trkpt>
      <trkpt lat="45.72762" lon="3.66821">
        <ele>934.1</ele>
        <time>2025-12-20T09:58:48Z</time>
      </trkpt>
      <trkpt lat="45.72769" lon="3.6681">
        <ele>933.84</ele>
        <time>2025-12-20T09:58:49Z</time>
      </trkpt>
      <trkpt lat="45.72776" lon="3.668">
        <ele>933.6</ele>
        <time>2025-12-20T09:58:50Z</time>
      </trkpt>
      <trkpt lat="45.72786" lon="3.66781">
        <ele>932.73</ele>
        <time>2025-12-20T09:58:52Z</time>
      </trkpt>
      <trkpt lat="45.72795" lon="3.66764">
        <ele>931.43</ele>
        <time>2025-12-20T09:58:54Z</time>
      </trkpt>
      <trkpt lat="45.72801" lon="3.6675">
        <ele>931.15</ele>
        <time>2025-12-20T09:58:56Z</time>
      </trkpt>
      <trkpt lat="45.72807" lon="3.66737">
        <ele>929.84</ele>
        <time>2025-12-20T09:58:58Z</time>
      </trkpt>
      <trkpt lat="45.72804" lon="3.66718">
        <ele>931.46</ele>
        <time>2025-12-20T09:59:01Z</time>
      </trkpt>
      <trkpt lat="45.72798" lon="3.66703">
        <ele>932.52</ele>
        <time>2025-12-20T09:59:03Z</time>
      </trkpt>
      <trkpt lat="45.72792" lon="3.66682">
        <ele>934.42</ele>
        <time>2025-12-20T09:59:05Z</time>
      </trkpt>
      <trkpt lat="45.72787" lon="3.66663">
        <ele>935.38</ele>
        <time>2025-12-20T09:59:07Z</time>
      </trkpt>
      <trkpt lat="45.72781" lon="3.66649">
        <ele>936.56</ele>
        <time>2025-12-20T09:59:09Z</time>
      </trkpt>
      <trkpt lat="45.72776" lon="3.66636">
        <ele>936.8</ele>
        <time>2025-12-20T09:59:11Z</time>
      </trkpt>
      <trkpt lat="45.72766" lon="3.66623">
        <ele>937.59</ele>
        <time>2025-12-20T09:59:13Z</time>
      </trkpt>
      <trkpt lat="45.72751" lon="3.66606">
        <ele>938.23</ele>
        <time>2025-12-20T09:59:15Z</time>
      </trkpt>
      <trkpt lat="45.72742" lon="3.66596">
        <ele>938.76</ele>
        <time>2025-12-20T09:59:16Z</time>
      </trkpt>
      <trkpt lat="45.72731" lon="3.66586">
        <ele>939.07</ele>
        <time>2025-12-20T09:59:17Z</time>
      </trkpt>
      <trkpt lat="45.7272" lon="3.66574">
        <ele>939.27</ele>
        <time>2025-12-20T09:59:18Z</time>
      </trkpt>
      <trkpt lat="45.72709" lon="3.66562">
        <ele>938.97</ele>
        <time>2025-12-20T09:59:19Z</time>
      </trkpt>
      <trkpt lat="45.72698" lon="3.66551">
        <ele>938.71</ele>
        <time>2025-12-20T09:59:20Z</time>
      </trkpt>
      <trkpt lat="45.72687" lon="3.66539">
        <ele>938.85</ele>
        <time>2025-12-20T09:59:21Z</time>
      </trkpt>
      <trkpt lat="45.72677" lon="3.66527">
        <ele>938.6</ele>
        <time>2025-12-20T09:59:22Z</time>
      </trkpt>
      <trkpt lat="45.72667" lon="3.66518">
        <ele>938.2</ele>
        <time>2025-12-20T09:59:23Z</time>
      </trkpt>
      <trkpt lat="45.72656" lon="3.66511">
        <ele>937.69</ele>
        <time>2025-12-20T09:59:24Z</time>
      </trkpt>
      <trkpt lat="45.72645" lon="3.66504">
        <ele>937.54</ele>
        <time>2025-12-20T09:59:25Z</time>
      </trkpt>
      <trkpt lat="45.72636" lon="3.66497">
        <ele>937.26</ele>
        <time>2025-12-20T09:59:26Z</time>
      </trkpt>
      <trkpt lat="45.72627" lon="3.66489">
        <ele>935.96</ele>
        <time>2025-12-20T09:59:27Z</time>
      </trkpt>
      <trkpt lat="45.72619" lon="3.66478">
        <ele>934.29</ele>
        <time>2025-12-20T09:59:28Z</time>
      </trkpt>
      <trkpt lat="45.72613" lon="3.66464">
        <ele>932.32</ele>
        <time>2025-12-20T09:59:29Z</time>
      </trkpt>
      <trkpt lat="45.72607" lon="3.6645">
        <ele>932.03</ele>
        <time>2025-12-20T09:59:30Z</time>
      </trkpt>
      <trkpt lat="45.72605" lon="3.66435">
        <ele>931.25</ele>
        <time>2025-12-20T09:59:31Z</time>
      </trkpt>
      <trkpt lat="45.72603" lon="3.66417">
        <ele>931.26</ele>
        <time>2025-12-20T09:59:32Z</time>
      </trkpt>
      <trkpt lat="45.72604" lon="3.66401">
        <ele>933.48</ele>
        <time>2025-12-20T09:59:33Z</time>
      </trkpt>
      <trkpt lat="45.72605" lon="3.66387">
        <ele>931.97</ele>
        <time>2025-12-20T09:59:34Z</time>
      </trkpt>
      <trkpt lat="45.72606" lon="3.66374">
        <ele>929.49</ele>
        <time>2025-12-20T09:59:36Z</time>
      </trkpt>
      <trkpt lat="45.72607" lon="3.66361">
        <ele>926.58</ele>
        <time>2025-12-20T09:59:40Z</time>
      </trkpt>
      <trkpt lat="45.72609" lon="3.66346">
        <ele>925</ele>
        <time>2025-12-20T09:59:45Z</time>
      </trkpt>
      <trkpt lat="45.7261" lon="3.6636">
        <ele>924.56</ele>
        <time>2025-12-20T10:00:40Z</time>
      </trkpt>
      <trkpt lat="45.72611" lon="3.6634">
        <ele>922.99</ele>
        <time>2025-12-20T10:02:05Z</time>
      </trkpt>
      <trkpt lat="45.72606" lon="3.66329">
        <ele>921.76</ele>
        <time>2025-12-20T10:02:17Z</time>
      </trkpt>
      <trkpt lat="45.72609" lon="3.66324">
        <ele>920.83</ele>
        <time>2025-12-20T10:05:27Z</time>
      </trkpt>
      <trkpt lat="45.72612" lon="3.66328">
        <ele>921.6</ele>
        <time>2025-12-20T10:07:37Z</time>
      </trkpt>
      <trkpt lat="45.72615" lon="3.66316">
        <ele>920.49</ele>
        <time>2025-12-20T10:08:15Z</time>
      </trkpt>
      <trkpt lat="45.72618" lon="3.66315">
        <ele>921.03</ele>
        <time>2025-12-20T10:10:16Z</time>
      </trkpt>
      <trkpt lat="45.7262" lon="3.66316">
        <ele>920.76</ele>
        <time>2025-12-20T10:12:17Z</time>
      </trkpt>
      <trkpt lat="45.72621" lon="3.66316">
        <ele>921.09</ele>
        <time>2025-12-20T10:15:07Z</time>
      </trkpt>
      <trkpt lat="45.72621" lon="3.66316">
        <ele>921.2</ele>
        <time>2025-12-20T10:17:08Z</time>
      </trkpt>
      <trkpt lat="45.72618" lon="3.66321">
        <ele>921.61</ele>
        <time>2025-12-20T10:19:09Z</time>
      </trkpt>
      <trkpt lat="45.72612" lon="3.66333">
        <ele>922.37</ele>
        <time>2025-12-20T10:19:33Z</time>
      </trkpt>
      <trkpt lat="45.72606" lon="3.66322">
        <ele>921.94</ele>
        <time>2025-12-20T10:21:09Z</time>
      </trkpt>
      <trkpt lat="45.72595" lon="3.66325">
        <ele>920.12</ele>
        <time>2025-12-20T10:21:26Z</time>
      </trkpt>
      <trkpt lat="45.72584" lon="3.66333">
        <ele>919.75</ele>
        <time>2025-12-20T10:21:30Z</time>
      </trkpt>
      <trkpt lat="45.72574" lon="3.6634">
        <ele>920.11</ele>
        <time>2025-12-20T10:21:33Z</time>
      </trkpt>
      <trkpt lat="45.72563" lon="3.66347">
        <ele>919.37</ele>
        <time>2025-12-20T10:21:37Z</time>
      </trkpt>
      <trkpt lat="45.72553" lon="3.66354">
        <ele>918.2</ele>
        <time>2025-12-20T10:21:40Z</time>
      </trkpt>
      <trkpt lat="45.72542" lon="3.66363">
        <ele>916.52</ele>
        <time>2025-12-20T10:21:44Z</time>
      </trkpt>
      <trkpt lat="45.72533" lon="3.6637">
        <ele>916.46</ele>
        <time>2025-12-20T10:21:46Z</time>
      </trkpt>
      <trkpt lat="45.72519" lon="3.66377">
        <ele>916.05</ele>
        <time>2025-12-20T10:21:48Z</time>
      </trkpt>
      <trkpt lat="45.72509" lon="3.6638">
        <ele>914.02</ele>
        <time>2025-12-20T10:21:49Z</time>
      </trkpt>
      <trkpt lat="45.725" lon="3.66382">
        <ele>912.73</ele>
        <time>2025-12-20T10:21:50Z</time>
      </trkpt>
      <trkpt lat="45.72483" lon="3.6638">
        <ele>911.83</ele>
        <time>2025-12-20T10:21:52Z</time>
      </trkpt>
      <trkpt lat="45.72469" lon="3.66376">
        <ele>910.27</ele>
        <time>2025-12-20T10:21:54Z</time>
      </trkpt>
      <trkpt lat="45.72455" lon="3.66371">
        <ele>909.02</ele>
        <time>2025-12-20T10:21:56Z</time>
      </trkpt>
      <trkpt lat="45.72441" lon="3.66365">
        <ele>907.04</ele>
        <time>2025-12-20T10:21:58Z</time>
      </trkpt>
      <trkpt lat="45.72425" lon="3.66363">
        <ele>906.24</ele>
        <time>2025-12-20T10:22:00Z</time>
      </trkpt>
      <trkpt lat="45.72409" lon="3.66365">
        <ele>903.59</ele>
        <time>2025-12-20T10:22:02Z</time>
      </trkpt>
      <trkpt lat="45.72392" lon="3.66367">
        <ele>901.59</ele>
        <time>2025-12-20T10:22:04Z</time>
      </trkpt>
      <trkpt lat="45.72378" lon="3.66369">
        <ele>898.96</ele>
        <time>2025-12-20T10:22:06Z</time>
      </trkpt>
      <trkpt lat="45.72366" lon="3.66363">
        <ele>895.84</ele>
        <time>2025-12-20T10:22:08Z</time>
      </trkpt>
      <trkpt lat="45.72362" lon="3.66345">
        <ele>893.13</ele>
        <time>2025-12-20T10:22:10Z</time>
      </trkpt>
      <trkpt lat="45.7236" lon="3.66325">
        <ele>890.09</ele>
        <time>2025-12-20T10:22:12Z</time>
      </trkpt>
      <trkpt lat="45.72359" lon="3.66308">
        <ele>888.1</ele>
        <time>2025-12-20T10:22:14Z</time>
      </trkpt>
      <trkpt lat="45.72359" lon="3.66293">
        <ele>885.62</ele>
        <time>2025-12-20T10:22:17Z</time>
      </trkpt>
      <trkpt lat="45.72361" lon="3.6628">
        <ele>883.9</ele>
        <time>2025-12-20T10:22:20Z</time>
      </trkpt>
      <trkpt lat="45.72369" lon="3.66266">
        <ele>883.65</ele>
        <time>2025-12-20T10:22:23Z</time>
      </trkpt>
      <trkpt lat="45.72376" lon="3.66255">
        <ele>883.38</ele>
        <time>2025-12-20T10:22:25Z</time>
      </trkpt>
      <trkpt lat="45.72378" lon="3.66242">
        <ele>882.54</ele>
        <time>2025-12-20T10:22:27Z</time>
      </trkpt>
      <trkpt lat="45.72377" lon="3.66226">
        <ele>881.68</ele>
        <time>2025-12-20T10:22:29Z</time>
      </trkpt>
      <trkpt lat="45.72374" lon="3.66207">
        <ele>879.68</ele>
        <time>2025-12-20T10:22:31Z</time>
      </trkpt>
      <trkpt lat="45.7237" lon="3.66188">
        <ele>876.79</ele>
        <time>2025-12-20T10:22:33Z</time>
      </trkpt>
      <trkpt lat="45.72364" lon="3.66171">
        <ele>875.92</ele>
        <time>2025-12-20T10:22:35Z</time>
      </trkpt>
      <trkpt lat="45.72353" lon="3.66159">
        <ele>872.17</ele>
        <time>2025-12-20T10:22:37Z</time>
      </trkpt>
      <trkpt lat="45.72344" lon="3.6615">
        <ele>868.82</ele>
        <time>2025-12-20T10:22:39Z</time>
      </trkpt>
      <trkpt lat="45.72341" lon="3.66136">
        <ele>866.26</ele>
        <time>2025-12-20T10:22:42Z</time>
      </trkpt>
      <trkpt lat="45.72357" lon="3.6613">
        <ele>865.69</ele>
        <time>2025-12-20T10:22:44Z</time>
      </trkpt>
      <trkpt lat="45.72368" lon="3.66127">
        <ele>865.17</ele>
        <time>2025-12-20T10:22:45Z</time>
      </trkpt>
      <trkpt lat="45.72379" lon="3.66125">
        <ele>865.3</ele>
        <time>2025-12-20T10:22:46Z</time>
      </trkpt>
      <trkpt lat="45.72388" lon="3.66125">
        <ele>865.48</ele>
        <time>2025-12-20T10:22:47Z</time>
      </trkpt>
      <trkpt lat="45.72407" lon="3.66132">
        <ele>864.98</ele>
        <time>2025-12-20T10:22:49Z</time>
      </trkpt>
      <trkpt lat="45.72416" lon="3.66139">
        <ele>864.75</ele>
        <time>2025-12-20T10:22:50Z</time>
      </trkpt>
      <trkpt lat="45.72425" lon="3.66145">
        <ele>864.77</ele>
        <time>2025-12-20T10:22:51Z</time>
      </trkpt>
      <trkpt lat="45.72435" lon="3.6615">
        <ele>865.15</ele>
        <time>2025-12-20T10:22:52Z</time>
      </trkpt>
      <trkpt lat="45.72446" lon="3.66147">
        <ele>865.2</ele>
        <time>2025-12-20T10:22:53Z</time>
      </trkpt>
      <trkpt lat="45.72456" lon="3.66141">
        <ele>866.54</ele>
        <time>2025-12-20T10:22:54Z</time>
      </trkpt>
      <trkpt lat="45.72467" lon="3.66137">
        <ele>867.06</ele>
        <time>2025-12-20T10:22:55Z</time>
      </trkpt>
      <trkpt lat="45.72479" lon="3.66133">
        <ele>866.7</ele>
        <time>2025-12-20T10:22:56Z</time>
      </trkpt>
      <trkpt lat="45.72491" lon="3.66128">
        <ele>867.74</ele>
        <time>2025-12-20T10:22:57Z</time>
      </trkpt>
      <trkpt lat="45.72504" lon="3.66123">
        <ele>868.74</ele>
        <time>2025-12-20T10:22:58Z</time>
      </trkpt>
      <trkpt lat="45.72515" lon="3.66118">
        <ele>869.26</ele>
        <time>2025-12-20T10:22:59Z</time>
      </trkpt>
      <trkpt lat="45.72527" lon="3.66113">
        <ele>870.03</ele>
        <time>2025-12-20T10:23:00Z</time>
      </trkpt>
      <trkpt lat="45.72538" lon="3.66108">
        <ele>871.05</ele>
        <time>2025-12-20T10:23:01Z</time>
      </trkpt>
      <trkpt lat="45.72551" lon="3.66105">
        <ele>871.79</ele>
        <time>2025-12-20T10:23:02Z</time>
      </trkpt>
      <trkpt lat="45.72564" lon="3.66102">
        <ele>871.99</ele>
        <time>2025-12-20T10:23:03Z</time>
      </trkpt>
      <trkpt lat="45.72577" lon="3.661">
        <ele>871.98</ele>
        <time>2025-12-20T10:23:04Z</time>
      </trkpt>
      <trkpt lat="45.72591" lon="3.66101">
        <ele>872.61</ele>
        <time>2025-12-20T10:23:05Z</time>
      </trkpt>
      <trkpt lat="45.72604" lon="3.66102">
        <ele>873.07</ele>
        <time>2025-12-20T10:23:06Z</time>
      </trkpt>
      <trkpt lat="45.72617" lon="3.66104">
        <ele>873.43</ele>
        <time>2025-12-20T10:23:07Z</time>
      </trkpt>
      <trkpt lat="45.7263" lon="3.66107">
        <ele>874.42</ele>
        <time>2025-12-20T10:23:08Z</time>
      </trkpt>
      <trkpt lat="45.72642" lon="3.66113">
        <ele>874.87</ele>
        <time>2025-12-20T10:23:09Z</time>
      </trkpt>
      <trkpt lat="45.72654" lon="3.66117">
        <ele>874.85</ele>
        <time>2025-12-20T10:23:10Z</time>
      </trkpt>
      <trkpt lat="45.72665" lon="3.66119">
        <ele>875.48</ele>
        <time>2025-12-20T10:23:11Z</time>
      </trkpt>
      <trkpt lat="45.72677" lon="3.66122">
        <ele>876.75</ele>
        <time>2025-12-20T10:23:12Z</time>
      </trkpt>
      <trkpt lat="45.72688" lon="3.66124">
        <ele>877.48</ele>
        <time>2025-12-20T10:23:13Z</time>
      </trkpt>
      <trkpt lat="45.727" lon="3.66126">
        <ele>878.44</ele>
        <time>2025-12-20T10:23:14Z</time>
      </trkpt>
      <trkpt lat="45.7271" lon="3.66128">
        <ele>879.27</ele>
        <time>2025-12-20T10:23:15Z</time>
      </trkpt>
      <trkpt lat="45.72719" lon="3.66129">
        <ele>880.75</ele>
        <time>2025-12-20T10:23:16Z</time>
      </trkpt>
      <trkpt lat="45.72731" lon="3.66129">
        <ele>881.41</ele>
        <time>2025-12-20T10:23:17Z</time>
      </trkpt>
      <trkpt lat="45.72742" lon="3.66128">
        <ele>881.63</ele>
        <time>2025-12-20T10:23:18Z</time>
      </trkpt>
      <trkpt lat="45.72755" lon="3.66127">
        <ele>882.17</ele>
        <time>2025-12-20T10:23:19Z</time>
      </trkpt>
      <trkpt lat="45.72767" lon="3.66125">
        <ele>883.08</ele>
        <time>2025-12-20T10:23:20Z</time>
      </trkpt>
      <trkpt lat="45.7278" lon="3.66123">
        <ele>882.75</ele>
        <time>2025-12-20T10:23:21Z</time>
      </trkpt>
      <trkpt lat="45.72793" lon="3.66122">
        <ele>883.09</ele>
        <time>2025-12-20T10:23:22Z</time>
      </trkpt>
      <trkpt lat="45.72807" lon="3.66123">
        <ele>883.78</ele>
        <time>2025-12-20T10:23:23Z</time>
      </trkpt>
      <trkpt lat="45.72823" lon="3.66124">
        <ele>883.3</ele>
        <time>2025-12-20T10:23:24Z</time>
      </trkpt>
      <trkpt lat="45.72839" lon="3.66126">
        <ele>883.13</ele>
        <time>2025-12-20T10:23:25Z</time>
      </trkpt>
      <trkpt lat="45.72854" lon="3.66127">
        <ele>883.27</ele>
        <time>2025-12-20T10:23:26Z</time>
      </trkpt>
      <trkpt lat="45.72869" lon="3.66127">
        <ele>882.46</ele>
        <time>2025-12-20T10:23:27Z</time>
      </trkpt>
      <trkpt lat="45.72883" lon="3.66126">
        <ele>882.35</ele>
        <time>2025-12-20T10:23:28Z</time>
      </trkpt>
      <trkpt lat="45.72896" lon="3.66126">
        <ele>882.02</ele>
        <time>2025-12-20T10:23:29Z</time>
      </trkpt>
      <trkpt lat="45.72908" lon="3.66126">
        <ele>881.98</ele>
        <time>2025-12-20T10:23:30Z</time>
      </trkpt>
      <trkpt lat="45.72921" lon="3.66128">
        <ele>882</ele>
        <time>2025-12-20T10:23:31Z</time>
      </trkpt>
      <trkpt lat="45.72933" lon="3.66132">
        <ele>882.31</ele>
        <time>2025-12-20T10:23:32Z</time>
      </trkpt>
      <trkpt lat="45.72945" lon="3.66136">
        <ele>881.8</ele>
        <time>2025-12-20T10:23:33Z</time>
      </trkpt>
      <trkpt lat="45.72959" lon="3.66142">
        <ele>880.49</ele>
        <time>2025-12-20T10:23:34Z</time>
      </trkpt>
      <trkpt lat="45.72973" lon="3.66148">
        <ele>880.31</ele>
        <time>2025-12-20T10:23:35Z</time>
      </trkpt>
      <trkpt lat="45.72985" lon="3.66156">
        <ele>880.6</ele>
        <time>2025-12-20T10:23:36Z</time>
      </trkpt>
      <trkpt lat="45.72995" lon="3.66163">
        <ele>880.47</ele>
        <time>2025-12-20T10:23:37Z</time>
      </trkpt>
      <trkpt lat="45.73004" lon="3.66167">
        <ele>880.3</ele>
        <time>2025-12-20T10:23:38Z</time>
      </trkpt>
      <trkpt lat="45.73021" lon="3.66166">
        <ele>878.58</ele>
        <time>2025-12-20T10:23:40Z</time>
      </trkpt>
      <trkpt lat="45.73037" lon="3.66165">
        <ele>877.44</ele>
        <time>2025-12-20T10:23:42Z</time>
      </trkpt>
      <trkpt lat="45.7305" lon="3.66163">
        <ele>875.45</ele>
        <time>2025-12-20T10:23:44Z</time>
      </trkpt>
      <trkpt lat="45.73067" lon="3.66165">
        <ele>874.56</ele>
        <time>2025-12-20T10:23:46Z</time>
      </trkpt>
      <trkpt lat="45.73077" lon="3.66165">
        <ele>873.5</ele>
        <time>2025-12-20T10:23:47Z</time>
      </trkpt>
      <trkpt lat="45.73089" lon="3.66165">
        <ele>872.57</ele>
        <time>2025-12-20T10:23:48Z</time>
      </trkpt>
      <trkpt lat="45.73101" lon="3.66164">
        <ele>871.69</ele>
        <time>2025-12-20T10:23:49Z</time>
      </trkpt>
      <trkpt lat="45.73114" lon="3.66163">
        <ele>871.53</ele>
        <time>2025-12-20T10:23:50Z</time>
      </trkpt>
      <trkpt lat="45.73126" lon="3.66161">
        <ele>870.43</ele>
        <time>2025-12-20T10:23:51Z</time>
      </trkpt>
      <trkpt lat="45.73139" lon="3.66159">
        <ele>869.75</ele>
        <time>2025-12-20T10:23:52Z</time>
      </trkpt>
      <trkpt lat="45.73152" lon="3.66157">
        <ele>868.84</ele>
        <time>2025-12-20T10:23:53Z</time>
      </trkpt>
      <trkpt lat="45.73166" lon="3.66155">
        <ele>868.53</ele>
        <time>2025-12-20T10:23:54Z</time>
      </trkpt>
      <trkpt lat="45.73179" lon="3.66153">
        <ele>867.31</ele>
        <time>2025-12-20T10:23:55Z</time>
      </trkpt>
      <trkpt lat="45.73192" lon="3.66152">
        <ele>866.04</ele>
        <time>2025-12-20T10:23:56Z</time>
      </trkpt>
      <trkpt lat="45.73204" lon="3.6615">
        <ele>865</ele>
        <time>2025-12-20T10:23:57Z</time>
      </trkpt>
      <trkpt lat="45.73215" lon="3.66149">
        <ele>864.67</ele>
        <time>2025-12-20T10:23:58Z</time>
      </trkpt>
      <trkpt lat="45.73228" lon="3.66148">
        <ele>864.08</ele>
        <time>2025-12-20T10:23:59Z</time>
      </trkpt>
      <trkpt lat="45.73241" lon="3.6615">
        <ele>862.74</ele>
        <time>2025-12-20T10:24:00Z</time>
      </trkpt>
      <trkpt lat="45.73255" lon="3.66152">
        <ele>862.49</ele>
        <time>2025-12-20T10:24:01Z</time>
      </trkpt>
      <trkpt lat="45.73268" lon="3.66157">
        <ele>859.95</ele>
        <time>2025-12-20T10:24:02Z</time>
      </trkpt>
      <trkpt lat="45.73282" lon="3.66165">
        <ele>859.54</ele>
        <time>2025-12-20T10:24:03Z</time>
      </trkpt>
      <trkpt lat="45.73297" lon="3.66174">
        <ele>858.58</ele>
        <time>2025-12-20T10:24:04Z</time>
      </trkpt>
      <trkpt lat="45.73312" lon="3.66182">
        <ele>857.46</ele>
        <time>2025-12-20T10:24:05Z</time>
      </trkpt>
      <trkpt lat="45.73322" lon="3.66189">
        <ele>856.1</ele>
        <time>2025-12-20T10:24:06Z</time>
      </trkpt>
      <trkpt lat="45.73331" lon="3.66194">
        <ele>856.45</ele>
        <time>2025-12-20T10:24:07Z</time>
      </trkpt>
      <trkpt lat="45.73341" lon="3.662">
        <ele>855.65</ele>
        <time>2025-12-20T10:24:09Z</time>
      </trkpt>
      <trkpt lat="45.73347" lon="3.6619">
        <ele>852.38</ele>
        <time>2025-12-20T10:24:16Z</time>
      </trkpt>
      <trkpt lat="45.73343" lon="3.66178">
        <ele>852.58</ele>
        <time>2025-12-20T10:24:23Z</time>
      </trkpt>
      <trkpt lat="45.73336" lon="3.66163">
        <ele>850.61</ele>
        <time>2025-12-20T10:24:25Z</time>
      </trkpt>
      <trkpt lat="45.73326" lon="3.66143">
        <ele>848.65</ele>
        <time>2025-12-20T10:24:27Z</time>
      </trkpt>
      <trkpt lat="45.73328" lon="3.66121">
        <ele>848.14</ele>
        <time>2025-12-20T10:24:29Z</time>
      </trkpt>
      <trkpt lat="45.73331" lon="3.66107">
        <ele>847.56</ele>
        <time>2025-12-20T10:24:30Z</time>
      </trkpt>
      <trkpt lat="45.73333" lon="3.66089">
        <ele>847.72</ele>
        <time>2025-12-20T10:24:31Z</time>
      </trkpt>
      <trkpt lat="45.73334" lon="3.66073">
        <ele>846.24</ele>
        <time>2025-12-20T10:24:32Z</time>
      </trkpt>
      <trkpt lat="45.73335" lon="3.66056">
        <ele>844.62</ele>
        <time>2025-12-20T10:24:33Z</time>
      </trkpt>
      <trkpt lat="45.73335" lon="3.66039">
        <ele>844.2</ele>
        <time>2025-12-20T10:24:34Z</time>
      </trkpt>
      <trkpt lat="45.73335" lon="3.66023">
        <ele>843.72</ele>
        <time>2025-12-20T10:24:35Z</time>
      </trkpt>
      <trkpt lat="45.73334" lon="3.66007">
        <ele>842.42</ele>
        <time>2025-12-20T10:24:36Z</time>
      </trkpt>
      <trkpt lat="45.7333" lon="3.6599">
        <ele>841.86</ele>
        <time>2025-12-20T10:24:37Z</time>
      </trkpt>
      <trkpt lat="45.73327" lon="3.65975">
        <ele>840.78</ele>
        <time>2025-12-20T10:24:38Z</time>
      </trkpt>
      <trkpt lat="45.73324" lon="3.65959">
        <ele>839.25</ele>
        <time>2025-12-20T10:24:39Z</time>
      </trkpt>
      <trkpt lat="45.73321" lon="3.65946">
        <ele>837.37</ele>
        <time>2025-12-20T10:24:40Z</time>
      </trkpt>
      <trkpt lat="45.73317" lon="3.65934">
        <ele>836.65</ele>
        <time>2025-12-20T10:24:41Z</time>
      </trkpt>
      <trkpt lat="45.73301" lon="3.65915">
        <ele>835.71</ele>
        <time>2025-12-20T10:24:43Z</time>
      </trkpt>
      <trkpt lat="45.73292" lon="3.65906">
        <ele>835.1</ele>
        <time>2025-12-20T10:24:44Z</time>
      </trkpt>
      <trkpt lat="45.73282" lon="3.65898">
        <ele>834.54</ele>
        <time>2025-12-20T10:24:45Z</time>
      </trkpt>
      <trkpt lat="45.73273" lon="3.65892">
        <ele>832.93</ele>
        <time>2025-12-20T10:24:46Z</time>
      </trkpt>
      <trkpt lat="45.73263" lon="3.65886">
        <ele>831.58</ele>
        <time>2025-12-20T10:24:47Z</time>
      </trkpt>
      <trkpt lat="45.73253" lon="3.6588">
        <ele>830.05</ele>
        <time>2025-12-20T10:24:48Z</time>
      </trkpt>
      <trkpt lat="45.73242" lon="3.65875">
        <ele>828.75</ele>
        <time>2025-12-20T10:24:49Z</time>
      </trkpt>
      <trkpt lat="45.7323" lon="3.65871">
        <ele>827.11</ele>
        <time>2025-12-20T10:24:50Z</time>
      </trkpt>
      <trkpt lat="45.73218" lon="3.65866">
        <ele>826.74</ele>
        <time>2025-12-20T10:24:51Z</time>
      </trkpt>
      <trkpt lat="45.73206" lon="3.6586">
        <ele>825.94</ele>
        <time>2025-12-20T10:24:52Z</time>
      </trkpt>
      <trkpt lat="45.73194" lon="3.65856">
        <ele>824.46</ele>
        <time>2025-12-20T10:24:53Z</time>
      </trkpt>
      <trkpt lat="45.73182" lon="3.65854">
        <ele>822.41</ele>
        <time>2025-12-20T10:24:54Z</time>
      </trkpt>
      <trkpt lat="45.73172" lon="3.65854">
        <ele>821.24</ele>
        <time>2025-12-20T10:24:55Z</time>
      </trkpt>
      <trkpt lat="45.73162" lon="3.65853">
        <ele>819.77</ele>
        <time>2025-12-20T10:24:56Z</time>
      </trkpt>
      <trkpt lat="45.73154" lon="3.65846">
        <ele>820.27</ele>
        <time>2025-12-20T10:24:57Z</time>
      </trkpt>
      <trkpt lat="45.73148" lon="3.65836">
        <ele>819.46</ele>
        <time>2025-12-20T10:24:58Z</time>
      </trkpt>
      <trkpt lat="45.73142" lon="3.65818">
        <ele>818.54</ele>
        <time>2025-12-20T10:25:00Z</time>
      </trkpt>
      <trkpt lat="45.73137" lon="3.658">
        <ele>818.22</ele>
        <time>2025-12-20T10:25:02Z</time>
      </trkpt>
      <trkpt lat="45.73128" lon="3.65781">
        <ele>816.78</ele>
        <time>2025-12-20T10:25:04Z</time>
      </trkpt>
      <trkpt lat="45.73121" lon="3.6576">
        <ele>816.67</ele>
        <time>2025-12-20T10:25:06Z</time>
      </trkpt>
      <trkpt lat="45.73109" lon="3.65741">
        <ele>816.73</ele>
        <time>2025-12-20T10:25:08Z</time>
      </trkpt>
      <trkpt lat="45.73102" lon="3.65732">
        <ele>816.29</ele>
        <time>2025-12-20T10:25:09Z</time>
      </trkpt>
      <trkpt lat="45.73094" lon="3.65723">
        <ele>815.93</ele>
        <time>2025-12-20T10:25:10Z</time>
      </trkpt>
      <trkpt lat="45.73086" lon="3.65716">
        <ele>815.89</ele>
        <time>2025-12-20T10:25:11Z</time>
      </trkpt>
      <trkpt lat="45.73072" lon="3.65704">
        <ele>816.69</ele>
        <time>2025-12-20T10:25:13Z</time>
      </trkpt>
      <trkpt lat="45.73062" lon="3.65693">
        <ele>816.01</ele>
        <time>2025-12-20T10:25:15Z</time>
      </trkpt>
      <trkpt lat="45.73056" lon="3.65682">
        <ele>816.94</ele>
        <time>2025-12-20T10:25:18Z</time>
      </trkpt>
      <trkpt lat="45.73046" lon="3.65683">
        <ele>816.65</ele>
        <time>2025-12-20T10:25:49Z</time>
      </trkpt>
      <trkpt lat="45.73034" lon="3.65676">
        <ele>816.14</ele>
        <time>2025-12-20T10:25:51Z</time>
      </trkpt>
      <trkpt lat="45.73019" lon="3.6566">
        <ele>813.71</ele>
        <time>2025-12-20T10:25:53Z</time>
      </trkpt>
      <trkpt lat="45.73012" lon="3.65651">
        <ele>812.55</ele>
        <time>2025-12-20T10:25:54Z</time>
      </trkpt>
      <trkpt lat="45.72997" lon="3.65636">
        <ele>809.58</ele>
        <time>2025-12-20T10:25:56Z</time>
      </trkpt>
      <trkpt lat="45.72989" lon="3.65629">
        <ele>808.78</ele>
        <time>2025-12-20T10:25:57Z</time>
      </trkpt>
      <trkpt lat="45.7298" lon="3.65622">
        <ele>806.82</ele>
        <time>2025-12-20T10:25:58Z</time>
      </trkpt>
      <trkpt lat="45.72971" lon="3.65614">
        <ele>804.87</ele>
        <time>2025-12-20T10:25:59Z</time>
      </trkpt>
      <trkpt lat="45.72962" lon="3.65606">
        <ele>803.89</ele>
        <time>2025-12-20T10:26:00Z</time>
      </trkpt>
      <trkpt lat="45.72952" lon="3.65596">
        <ele>802.73</ele>
        <time>2025-12-20T10:26:01Z</time>
      </trkpt>
      <trkpt lat="45.72943" lon="3.65587">
        <ele>802.18</ele>
        <time>2025-12-20T10:26:02Z</time>
      </trkpt>
      <trkpt lat="45.72933" lon="3.65578">
        <ele>799.94</ele>
        <time>2025-12-20T10:26:03Z</time>
      </trkpt>
      <trkpt lat="45.72924" lon="3.65568">
        <ele>798.83</ele>
        <time>2025-12-20T10:26:04Z</time>
      </trkpt>
      <trkpt lat="45.72915" lon="3.65557">
        <ele>797.77</ele>
        <time>2025-12-20T10:26:05Z</time>
      </trkpt>
      <trkpt lat="45.72906" lon="3.65546">
        <ele>796.36</ele>
        <time>2025-12-20T10:26:06Z</time>
      </trkpt>
      <trkpt lat="45.72897" lon="3.65533">
        <ele>795</ele>
        <time>2025-12-20T10:26:07Z</time>
      </trkpt>
      <trkpt lat="45.72889" lon="3.65521">
        <ele>794.22</ele>
        <time>2025-12-20T10:26:08Z</time>
      </trkpt>
      <trkpt lat="45.72879" lon="3.65511">
        <ele>791.76</ele>
        <time>2025-12-20T10:26:09Z</time>
      </trkpt>
      <trkpt lat="45.7287" lon="3.65504">
        <ele>790.84</ele>
        <time>2025-12-20T10:26:10Z</time>
      </trkpt>
      <trkpt lat="45.7286" lon="3.65499">
        <ele>790.28</ele>
        <time>2025-12-20T10:26:11Z</time>
      </trkpt>
      <trkpt lat="45.72851" lon="3.65496">
        <ele>789.59</ele>
        <time>2025-12-20T10:26:12Z</time>
      </trkpt>
      <trkpt lat="45.72839" lon="3.65496">
        <ele>787.58</ele>
        <time>2025-12-20T10:26:14Z</time>
      </trkpt>
      <trkpt lat="45.7283" lon="3.65493">
        <ele>786.09</ele>
        <time>2025-12-20T10:26:16Z</time>
      </trkpt>
      <trkpt lat="45.72825" lon="3.65482">
        <ele>785.52</ele>
        <time>2025-12-20T10:26:18Z</time>
      </trkpt>
      <trkpt lat="45.72821" lon="3.65469">
        <ele>783.84</ele>
        <time>2025-12-20T10:26:20Z</time>
      </trkpt>
      <trkpt lat="45.72819" lon="3.65455">
        <ele>782.8</ele>
        <time>2025-12-20T10:26:24Z</time>
      </trkpt>
      <trkpt lat="45.72818" lon="3.65441">
        <ele>781.73</ele>
        <time>2025-12-20T10:26:28Z</time>
      </trkpt>
      <trkpt lat="45.72829" lon="3.65435">
        <ele>781.06</ele>
        <time>2025-12-20T10:26:32Z</time>
      </trkpt>
      <trkpt lat="45.7284" lon="3.65432">
        <ele>781.15</ele>
        <time>2025-12-20T10:26:35Z</time>
      </trkpt>
      <trkpt lat="45.72849" lon="3.65428">
        <ele>780.98</ele>
        <time>2025-12-20T10:26:38Z</time>
      </trkpt>
      <trkpt lat="45.72859" lon="3.65423">
        <ele>780.58</ele>
        <time>2025-12-20T10:26:40Z</time>
      </trkpt>
      <trkpt lat="45.72871" lon="3.65416">
        <ele>780.87</ele>
        <time>2025-12-20T10:26:42Z</time>
      </trkpt>
      <trkpt lat="45.72882" lon="3.65409">
        <ele>780.84</ele>
        <time>2025-12-20T10:26:44Z</time>
      </trkpt>
      <trkpt lat="45.72891" lon="3.65399">
        <ele>780.29</ele>
        <time>2025-12-20T10:26:46Z</time>
      </trkpt>
      <trkpt lat="45.72894" lon="3.65382">
        <ele>778.88</ele>
        <time>2025-12-20T10:26:49Z</time>
      </trkpt>
      <trkpt lat="45.72892" lon="3.65368">
        <ele>776.24</ele>
        <time>2025-12-20T10:26:52Z</time>
      </trkpt>
      <trkpt lat="45.72889" lon="3.65354">
        <ele>775.93</ele>
        <time>2025-12-20T10:27:01Z</time>
      </trkpt>
      <trkpt lat="45.72887" lon="3.65341">
        <ele>774.42</ele>
        <time>2025-12-20T10:27:05Z</time>
      </trkpt>
      <trkpt lat="45.72882" lon="3.65328">
        <ele>772.64</ele>
        <time>2025-12-20T10:27:07Z</time>
      </trkpt>
      <trkpt lat="45.72872" lon="3.65316">
        <ele>770.8</ele>
        <time>2025-12-20T10:27:09Z</time>
      </trkpt>
      <trkpt lat="45.72864" lon="3.65304">
        <ele>769.62</ele>
        <time>2025-12-20T10:27:11Z</time>
      </trkpt>
      <trkpt lat="45.72859" lon="3.65291">
        <ele>766.97</ele>
        <time>2025-12-20T10:27:13Z</time>
      </trkpt>
      <trkpt lat="45.72853" lon="3.65274">
        <ele>764.87</ele>
        <time>2025-12-20T10:27:15Z</time>
      </trkpt>
      <trkpt lat="45.72845" lon="3.65258">
        <ele>762.72</ele>
        <time>2025-12-20T10:27:17Z</time>
      </trkpt>
      <trkpt lat="45.72838" lon="3.65244">
        <ele>761.67</ele>
        <time>2025-12-20T10:27:19Z</time>
      </trkpt>
      <trkpt lat="45.72833" lon="3.6523">
        <ele>759.74</ele>
        <time>2025-12-20T10:27:21Z</time>
      </trkpt>
      <trkpt lat="45.72831" lon="3.65211">
        <ele>756.54</ele>
        <time>2025-12-20T10:27:23Z</time>
      </trkpt>
      <trkpt lat="45.72829" lon="3.65187">
        <ele>755.31</ele>
        <time>2025-12-20T10:27:25Z</time>
      </trkpt>
      <trkpt lat="45.72823" lon="3.65164">
        <ele>751.37</ele>
        <time>2025-12-20T10:27:27Z</time>
      </trkpt>
      <trkpt lat="45.72812" lon="3.65148">
        <ele>751.13</ele>
        <time>2025-12-20T10:27:29Z</time>
      </trkpt>
      <trkpt lat="45.72798" lon="3.65138">
        <ele>748.93</ele>
        <time>2025-12-20T10:27:31Z</time>
      </trkpt>
      <trkpt lat="45.72786" lon="3.65133">
        <ele>746.22</ele>
        <time>2025-12-20T10:27:33Z</time>
      </trkpt>
      <trkpt lat="45.72776" lon="3.65127">
        <ele>744.2</ele>
        <time>2025-12-20T10:27:35Z</time>
      </trkpt>
      <trkpt lat="45.72767" lon="3.65121">
        <ele>742.26</ele>
        <time>2025-12-20T10:27:37Z</time>
      </trkpt>
      <trkpt lat="45.72759" lon="3.65114">
        <ele>739.88</ele>
        <time>2025-12-20T10:27:39Z</time>
      </trkpt>
      <trkpt lat="45.72751" lon="3.65106">
        <ele>739.08</ele>
        <time>2025-12-20T10:27:41Z</time>
      </trkpt>
      <trkpt lat="45.72739" lon="3.65102">
        <ele>738.41</ele>
        <time>2025-12-20T10:27:43Z</time>
      </trkpt>
      <trkpt lat="45.72725" lon="3.65111">
        <ele>736.27</ele>
        <time>2025-12-20T10:27:45Z</time>
      </trkpt>
      <trkpt lat="45.72713" lon="3.65119">
        <ele>734.89</ele>
        <time>2025-12-20T10:27:47Z</time>
      </trkpt>
      <trkpt lat="45.72704" lon="3.65124">
        <ele>732.88</ele>
        <time>2025-12-20T10:27:49Z</time>
      </trkpt>
      <trkpt lat="45.72694" lon="3.65128">
        <ele>730.01</ele>
        <time>2025-12-20T10:27:51Z</time>
      </trkpt>
      <trkpt lat="45.72688" lon="3.65113">
        <ele>728.72</ele>
        <time>2025-12-20T10:27:54Z</time>
      </trkpt>
      <trkpt lat="45.72694" lon="3.65097">
        <ele>725.28</ele>
        <time>2025-12-20T10:27:56Z</time>
      </trkpt>
      <trkpt lat="45.72698" lon="3.65085">
        <ele>724.23</ele>
        <time>2025-12-20T10:27:57Z</time>
      </trkpt>
      <trkpt lat="45.72707" lon="3.65067">
        <ele>722.01</ele>
        <time>2025-12-20T10:27:59Z</time>
      </trkpt>
      <trkpt lat="45.72714" lon="3.65054">
        <ele>721.28</ele>
        <time>2025-12-20T10:28:01Z</time>
      </trkpt>
      <trkpt lat="45.72722" lon="3.65043">
        <ele>719.24</ele>
        <time>2025-12-20T10:28:03Z</time>
      </trkpt>
      <trkpt lat="45.72731" lon="3.65032">
        <ele>716.15</ele>
        <time>2025-12-20T10:28:06Z</time>
      </trkpt>
      <trkpt lat="45.72718" lon="3.65029">
        <ele>714.06</ele>
        <time>2025-12-20T10:28:15Z</time>
      </trkpt>
      <trkpt lat="45.72701" lon="3.6504">
        <ele>713.73</ele>
        <time>2025-12-20T10:28:17Z</time>
      </trkpt>
      <trkpt lat="45.72693" lon="3.65048">
        <ele>713.76</ele>
        <time>2025-12-20T10:28:18Z</time>
      </trkpt>
      <trkpt lat="45.72686" lon="3.65058">
        <ele>713.36</ele>
        <time>2025-12-20T10:28:19Z</time>
      </trkpt>
      <trkpt lat="45.72675" lon="3.65077">
        <ele>713.97</ele>
        <time>2025-12-20T10:28:21Z</time>
      </trkpt>
      <trkpt lat="45.72669" lon="3.6509">
        <ele>714.18</ele>
        <time>2025-12-20T10:28:23Z</time>
      </trkpt>
      <trkpt lat="45.72662" lon="3.65074">
        <ele>711.03</ele>
        <time>2025-12-20T10:28:29Z</time>
      </trkpt>
      <trkpt lat="45.72666" lon="3.65053">
        <ele>709.51</ele>
        <time>2025-12-20T10:28:31Z</time>
      </trkpt>
      <trkpt lat="45.7267" lon="3.65041">
        <ele>708.83</ele>
        <time>2025-12-20T10:28:32Z</time>
      </trkpt>
      <trkpt lat="45.72681" lon="3.65027">
        <ele>705.88</ele>
        <time>2025-12-20T10:28:34Z</time>
      </trkpt>
      <trkpt lat="45.72681" lon="3.65013">
        <ele>702.94</ele>
        <time>2025-12-20T10:28:37Z</time>
      </trkpt>
      <trkpt lat="45.72669" lon="3.6501">
        <ele>701.44</ele>
        <time>2025-12-20T10:28:41Z</time>
      </trkpt>
      <trkpt lat="45.72658" lon="3.65016">
        <ele>700.76</ele>
        <time>2025-12-20T10:28:43Z</time>
      </trkpt>
      <trkpt lat="45.72648" lon="3.6502">
        <ele>699.38</ele>
        <time>2025-12-20T10:28:45Z</time>
      </trkpt>
      <trkpt lat="45.72639" lon="3.65024">
        <ele>697.53</ele>
        <time>2025-12-20T10:28:47Z</time>
      </trkpt>
      <trkpt lat="45.72627" lon="3.65019">
        <ele>696.62</ele>
        <time>2025-12-20T10:28:50Z</time>
      </trkpt>
      <trkpt lat="45.72621" lon="3.65002">
        <ele>691.74</ele>
        <time>2025-12-20T10:28:53Z</time>
      </trkpt>
      <trkpt lat="45.72617" lon="3.64986">
        <ele>690.67</ele>
        <time>2025-12-20T10:28:55Z</time>
      </trkpt>
      <trkpt lat="45.72612" lon="3.64973">
        <ele>689.75</ele>
        <time>2025-12-20T10:28:57Z</time>
      </trkpt>
      <trkpt lat="45.72609" lon="3.64959">
        <ele>688.08</ele>
        <time>2025-12-20T10:28:59Z</time>
      </trkpt>
      <trkpt lat="45.72606" lon="3.64944">
        <ele>685.87</ele>
        <time>2025-12-20T10:29:01Z</time>
      </trkpt>
      <trkpt lat="45.726" lon="3.64932">
        <ele>683.17</ele>
        <time>2025-12-20T10:29:03Z</time>
      </trkpt>
      <trkpt lat="45.7259" lon="3.64931">
        <ele>681.45</ele>
        <time>2025-12-20T10:29:06Z</time>
      </trkpt>
      <trkpt lat="45.72578" lon="3.64934">
        <ele>677.64</ele>
        <time>2025-12-20T10:29:10Z</time>
      </trkpt>
      <trkpt lat="45.72566" lon="3.64918">
        <ele>676.85</ele>
        <time>2025-12-20T10:29:12Z</time>
      </trkpt>
      <trkpt lat="45.7256" lon="3.64908">
        <ele>675.04</ele>
        <time>2025-12-20T10:29:13Z</time>
      </trkpt>
      <trkpt lat="45.72547" lon="3.64895">
        <ele>671.25</ele>
        <time>2025-12-20T10:29:15Z</time>
      </trkpt>
      <trkpt lat="45.72534" lon="3.64882">
        <ele>668.42</ele>
        <time>2025-12-20T10:29:17Z</time>
      </trkpt>
      <trkpt lat="45.72523" lon="3.64867">
        <ele>664.75</ele>
        <time>2025-12-20T10:29:19Z</time>
      </trkpt>
      <trkpt lat="45.72508" lon="3.64844">
        <ele>660.21</ele>
        <time>2025-12-20T10:29:22Z</time>
      </trkpt>
      <trkpt lat="45.72497" lon="3.64827">
        <ele>658.2</ele>
        <time>2025-12-20T10:29:24Z</time>
      </trkpt>
      <trkpt lat="45.72485" lon="3.64815">
        <ele>656.14</ele>
        <time>2025-12-20T10:29:26Z</time>
      </trkpt>
      <trkpt lat="45.72473" lon="3.64806">
        <ele>653.79</ele>
        <time>2025-12-20T10:29:28Z</time>
      </trkpt>
      <trkpt lat="45.7246" lon="3.64803">
        <ele>650.93</ele>
        <time>2025-12-20T10:29:30Z</time>
      </trkpt>
      <trkpt lat="45.72446" lon="3.64806">
        <ele>649.72</ele>
        <time>2025-12-20T10:29:32Z</time>
      </trkpt>
      <trkpt lat="45.72434" lon="3.64818">
        <ele>647.71</ele>
        <time>2025-12-20T10:29:34Z</time>
      </trkpt>
      <trkpt lat="45.72416" lon="3.64827">
        <ele>642.82</ele>
        <time>2025-12-20T10:29:37Z</time>
      </trkpt>
      <trkpt lat="45.724" lon="3.64814">
        <ele>639.94</ele>
        <time>2025-12-20T10:29:40Z</time>
      </trkpt>
      <trkpt lat="45.72395" lon="3.64797">
        <ele>636.28</ele>
        <time>2025-12-20T10:29:42Z</time>
      </trkpt>
      <trkpt lat="45.72388" lon="3.64777">
        <ele>632.83</ele>
        <time>2025-12-20T10:29:44Z</time>
      </trkpt>
      <trkpt lat="45.72382" lon="3.64762">
        <ele>630.79</ele>
        <time>2025-12-20T10:29:46Z</time>
      </trkpt>
      <trkpt lat="45.72375" lon="3.64747">
        <ele>628.37</ele>
        <time>2025-12-20T10:29:48Z</time>
      </trkpt>
      <trkpt lat="45.72368" lon="3.64728">
        <ele>625.76</ele>
        <time>2025-12-20T10:29:50Z</time>
      </trkpt>
      <trkpt lat="45.72362" lon="3.64708">
        <ele>622.96</ele>
        <time>2025-12-20T10:29:52Z</time>
      </trkpt>
      <trkpt lat="45.72358" lon="3.6469">
        <ele>619.62</ele>
        <time>2025-12-20T10:29:54Z</time>
      </trkpt>
      <trkpt lat="45.72355" lon="3.64673">
        <ele>617.78</ele>
        <time>2025-12-20T10:29:56Z</time>
      </trkpt>
      <trkpt lat="45.72359" lon="3.64659">
        <ele>615.05</ele>
        <time>2025-12-20T10:29:58Z</time>
      </trkpt>
      <trkpt lat="45.72365" lon="3.64648">
        <ele>612.51</ele>
        <time>2025-12-20T10:30:00Z</time>
      </trkpt>
      <trkpt lat="45.72369" lon="3.64632">
        <ele>609.83</ele>
        <time>2025-12-20T10:30:03Z</time>
      </trkpt>
      <trkpt lat="45.72366" lon="3.6462">
        <ele>607.37</ele>
        <time>2025-12-20T10:30:07Z</time>
      </trkpt>
      <trkpt lat="45.72353" lon="3.64621">
        <ele>604.79</ele>
        <time>2025-12-20T10:30:11Z</time>
      </trkpt>
      <trkpt lat="45.72343" lon="3.6462">
        <ele>603.73</ele>
        <time>2025-12-20T10:30:13Z</time>
      </trkpt>
      <trkpt lat="45.7233" lon="3.64613">
        <ele>602.75</ele>
        <time>2025-12-20T10:30:16Z</time>
      </trkpt>
      <trkpt lat="45.72322" lon="3.64602">
        <ele>602.34</ele>
        <time>2025-12-20T10:30:19Z</time>
      </trkpt>
      <trkpt lat="45.72316" lon="3.64588">
        <ele>600.78</ele>
        <time>2025-12-20T10:30:23Z</time>
      </trkpt>
      <trkpt lat="45.72312" lon="3.64574">
        <ele>600.21</ele>
        <time>2025-12-20T10:30:26Z</time>
      </trkpt>
      <trkpt lat="45.72317" lon="3.64559">
        <ele>600.1</ele>
        <time>2025-12-20T10:30:28Z</time>
      </trkpt>
      <trkpt lat="45.72328" lon="3.64542">
        <ele>597.38</ele>
        <time>2025-12-20T10:30:30Z</time>
      </trkpt>
      <trkpt lat="45.72338" lon="3.6453">
        <ele>594.76</ele>
        <time>2025-12-20T10:30:32Z</time>
      </trkpt>
      <trkpt lat="45.72346" lon="3.6452">
        <ele>593.94</ele>
        <time>2025-12-20T10:30:34Z</time>
      </trkpt>
      <trkpt lat="45.72356" lon="3.64515">
        <ele>592.52</ele>
        <time>2025-12-20T10:30:36Z</time>
      </trkpt>
      <trkpt lat="45.72367" lon="3.64508">
        <ele>591.47</ele>
        <time>2025-12-20T10:30:38Z</time>
      </trkpt>
      <trkpt lat="45.72378" lon="3.64501">
        <ele>589.02</ele>
        <time>2025-12-20T10:30:40Z</time>
      </trkpt>
      <trkpt lat="45.72389" lon="3.64494">
        <ele>587.67</ele>
        <time>2025-12-20T10:30:43Z</time>
      </trkpt>
      <trkpt lat="45.724" lon="3.64489">
        <ele>587.01</ele>
        <time>2025-12-20T10:30:45Z</time>
      </trkpt>
      <trkpt lat="45.72413" lon="3.64481">
        <ele>586.05</ele>
        <time>2025-12-20T10:30:47Z</time>
      </trkpt>
      <trkpt lat="45.72428" lon="3.6447">
        <ele>584.65</ele>
        <time>2025-12-20T10:30:49Z</time>
      </trkpt>
      <trkpt lat="45.72438" lon="3.64462">
        <ele>583.25</ele>
        <time>2025-12-20T10:30:51Z</time>
      </trkpt>
      <trkpt lat="45.72447" lon="3.64455">
        <ele>582.37</ele>
        <time>2025-12-20T10:30:53Z</time>
      </trkpt>
      <trkpt lat="45.72459" lon="3.6445">
        <ele>581.91</ele>
        <time>2025-12-20T10:30:55Z</time>
      </trkpt>
      <trkpt lat="45.72471" lon="3.64447">
        <ele>581.32</ele>
        <time>2025-12-20T10:30:58Z</time>
      </trkpt>
      <trkpt lat="45.72473" lon="3.64427">
        <ele>579.49</ele>
        <time>2025-12-20T10:31:33Z</time>
      </trkpt>
      <trkpt lat="45.72473" lon="3.64411">
        <ele>579.29</ele>
        <time>2025-12-20T10:31:35Z</time>
      </trkpt>
      <trkpt lat="45.72471" lon="3.64398">
        <ele>577.5</ele>
        <time>2025-12-20T10:31:37Z</time>
      </trkpt>
      <trkpt lat="45.72466" lon="3.64384">
        <ele>574.41</ele>
        <time>2025-12-20T10:31:40Z</time>
      </trkpt>
      <trkpt lat="45.72471" lon="3.64363">
        <ele>571.49</ele>
        <time>2025-12-20T10:31:43Z</time>
      </trkpt>
      <trkpt lat="45.72482" lon="3.64353">
        <ele>569.63</ele>
        <time>2025-12-20T10:31:45Z</time>
      </trkpt>
      <trkpt lat="45.72491" lon="3.64346">
        <ele>567.69</ele>
        <time>2025-12-20T10:31:47Z</time>
      </trkpt>
      <trkpt lat="45.72501" lon="3.64338">
        <ele>565.37</ele>
        <time>2025-12-20T10:31:50Z</time>
      </trkpt>
      <trkpt lat="45.72509" lon="3.64332">
        <ele>562.99</ele>
        <time>2025-12-20T10:31:52Z</time>
      </trkpt>
      <trkpt lat="45.72518" lon="3.64325">
        <ele>561.62</ele>
        <time>2025-12-20T10:31:54Z</time>
      </trkpt>
      <trkpt lat="45.72529" lon="3.6432">
        <ele>559.45</ele>
        <time>2025-12-20T10:31:56Z</time>
      </trkpt>
      <trkpt lat="45.72539" lon="3.64314">
        <ele>558.34</ele>
        <time>2025-12-20T10:31:58Z</time>
      </trkpt>
      <trkpt lat="45.72549" lon="3.6431">
        <ele>556.61</ele>
        <time>2025-12-20T10:32:01Z</time>
      </trkpt>
      <trkpt lat="45.7256" lon="3.64305">
        <ele>554.67</ele>
        <time>2025-12-20T10:32:05Z</time>
      </trkpt>
      <trkpt lat="45.72568" lon="3.64302">
        <ele>553.16</ele>
        <time>2025-12-20T10:32:13Z</time>
      </trkpt>
      <trkpt lat="45.72578" lon="3.64302">
        <ele>552.44</ele>
        <time>2025-12-20T10:32:17Z</time>
      </trkpt>
      <trkpt lat="45.72587" lon="3.64295">
        <ele>550.69</ele>
        <time>2025-12-20T10:32:20Z</time>
      </trkpt>
      <trkpt lat="45.72579" lon="3.64283">
        <ele>550.9</ele>
        <time>2025-12-20T10:32:23Z</time>
      </trkpt>
      <trkpt lat="45.72567" lon="3.64276">
        <ele>548.36</ele>
        <time>2025-12-20T10:32:25Z</time>
      </trkpt>
      <trkpt lat="45.72556" lon="3.64269">
        <ele>547.28</ele>
        <time>2025-12-20T10:32:27Z</time>
      </trkpt>
      <trkpt lat="45.72543" lon="3.64265">
        <ele>544.9</ele>
        <time>2025-12-20T10:32:30Z</time>
      </trkpt>
      <trkpt lat="45.72533" lon="3.6426">
        <ele>542.65</ele>
        <time>2025-12-20T10:32:33Z</time>
      </trkpt>
      <trkpt lat="45.72521" lon="3.64254">
        <ele>542.87</ele>
        <time>2025-12-20T10:32:36Z</time>
      </trkpt>
      <trkpt lat="45.72513" lon="3.64243">
        <ele>543.05</ele>
        <time>2025-12-20T10:32:40Z</time>
      </trkpt>
      <trkpt lat="45.72505" lon="3.64223">
        <ele>542.89</ele>
        <time>2025-12-20T10:32:43Z</time>
      </trkpt>
      <trkpt lat="45.725" lon="3.64209">
        <ele>543.18</ele>
        <time>2025-12-20T10:32:44Z</time>
      </trkpt>
      <trkpt lat="45.72497" lon="3.64196">
        <ele>541.88</ele>
        <time>2025-12-20T10:32:45Z</time>
      </trkpt>
      <trkpt lat="45.72496" lon="3.64177">
        <ele>542.93</ele>
        <time>2025-12-20T10:32:47Z</time>
      </trkpt>
      <trkpt lat="45.72496" lon="3.64161">
        <ele>543.68</ele>
        <time>2025-12-20T10:32:49Z</time>
      </trkpt>
      <trkpt lat="45.72499" lon="3.64146">
        <ele>544.6</ele>
        <time>2025-12-20T10:32:51Z</time>
      </trkpt>
      <trkpt lat="45.72501" lon="3.64131">
        <ele>545.25</ele>
        <time>2025-12-20T10:32:53Z</time>
      </trkpt>
      <trkpt lat="45.72496" lon="3.64118">
        <ele>546.3</ele>
        <time>2025-12-20T10:32:55Z</time>
      </trkpt>
      <trkpt lat="45.72488" lon="3.64106">
        <ele>547.18</ele>
        <time>2025-12-20T10:32:57Z</time>
      </trkpt>
      <trkpt lat="45.7248" lon="3.64089">
        <ele>548.32</ele>
        <time>2025-12-20T10:32:59Z</time>
      </trkpt>
      <trkpt lat="45.72472" lon="3.6407">
        <ele>548.47</ele>
        <time>2025-12-20T10:33:01Z</time>
      </trkpt>
      <trkpt lat="45.72463" lon="3.6405">
        <ele>549.56</ele>
        <time>2025-12-20T10:33:03Z</time>
      </trkpt>
      <trkpt lat="45.72454" lon="3.64031">
        <ele>550.1</ele>
        <time>2025-12-20T10:33:05Z</time>
      </trkpt>
      <trkpt lat="45.72444" lon="3.64011">
        <ele>550.71</ele>
        <time>2025-12-20T10:33:07Z</time>
      </trkpt>
      <trkpt lat="45.72436" lon="3.63994">
        <ele>551.95</ele>
        <time>2025-12-20T10:33:09Z</time>
      </trkpt>
      <trkpt lat="45.72432" lon="3.6398">
        <ele>552.63</ele>
        <time>2025-12-20T10:33:11Z</time>
      </trkpt>
      <trkpt lat="45.72426" lon="3.63966">
        <ele>553.44</ele>
        <time>2025-12-20T10:33:13Z</time>
      </trkpt>
      <trkpt lat="45.72417" lon="3.63957">
        <ele>554.01</ele>
        <time>2025-12-20T10:33:15Z</time>
      </trkpt>
      <trkpt lat="45.7241" lon="3.63949">
        <ele>555.27</ele>
        <time>2025-12-20T10:33:17Z</time>
      </trkpt>
      <trkpt lat="45.72402" lon="3.6394">
        <ele>556.56</ele>
        <time>2025-12-20T10:33:19Z</time>
      </trkpt>
      <trkpt lat="45.72395" lon="3.6393">
        <ele>557.82</ele>
        <time>2025-12-20T10:33:21Z</time>
      </trkpt>
      <trkpt lat="45.72386" lon="3.63915">
        <ele>559.26</ele>
        <time>2025-12-20T10:33:23Z</time>
      </trkpt>
      <trkpt lat="45.72379" lon="3.63902">
        <ele>560.51</ele>
        <time>2025-12-20T10:33:25Z</time>
      </trkpt>
      <trkpt lat="45.7237" lon="3.63888">
        <ele>563.66</ele>
        <time>2025-12-20T10:33:27Z</time>
      </trkpt>
      <trkpt lat="45.72362" lon="3.63875">
        <ele>565.35</ele>
        <time>2025-12-20T10:33:29Z</time>
      </trkpt>
      <trkpt lat="45.72354" lon="3.63862">
        <ele>567</ele>
        <time>2025-12-20T10:33:31Z</time>
      </trkpt>
      <trkpt lat="45.72346" lon="3.63844">
        <ele>568.77</ele>
        <time>2025-12-20T10:33:33Z</time>
      </trkpt>
      <trkpt lat="45.72336" lon="3.63831">
        <ele>571.35</ele>
        <time>2025-12-20T10:33:35Z</time>
      </trkpt>
      <trkpt lat="45.72323" lon="3.63821">
        <ele>573.07</ele>
        <time>2025-12-20T10:33:37Z</time>
      </trkpt>
      <trkpt lat="45.7231" lon="3.63807">
        <ele>573.88</ele>
        <time>2025-12-20T10:33:39Z</time>
      </trkpt>
      <trkpt lat="45.72301" lon="3.63795">
        <ele>576.05</ele>
        <time>2025-12-20T10:33:41Z</time>
      </trkpt>
      <trkpt lat="45.72302" lon="3.63775">
        <ele>578.99</ele>
        <time>2025-12-20T10:33:53Z</time>
      </trkpt>
      <trkpt lat="45.72308" lon="3.63761">
        <ele>578.81</ele>
        <time>2025-12-20T10:33:57Z</time>
      </trkpt>
      <trkpt lat="45.72315" lon="3.63751">
        <ele>579.69</ele>
        <time>2025-12-20T10:34:00Z</time>
      </trkpt>
      <trkpt lat="45.72327" lon="3.63741">
        <ele>581.22</ele>
        <time>2025-12-20T10:34:03Z</time>
      </trkpt>
      <trkpt lat="45.72335" lon="3.63735">
        <ele>582.7</ele>
        <time>2025-12-20T10:34:05Z</time>
      </trkpt>
      <trkpt lat="45.72346" lon="3.63724">
        <ele>585.07</ele>
        <time>2025-12-20T10:34:08Z</time>
      </trkpt>
      <trkpt lat="45.72355" lon="3.63715">
        <ele>585.95</ele>
        <time>2025-12-20T10:34:10Z</time>
      </trkpt>
      <trkpt lat="45.72361" lon="3.63703">
        <ele>587.13</ele>
        <time>2025-12-20T10:34:12Z</time>
      </trkpt>
      <trkpt lat="45.72365" lon="3.6369">
        <ele>588.32</ele>
        <time>2025-12-20T10:34:14Z</time>
      </trkpt>
      <trkpt lat="45.7237" lon="3.63676">
        <ele>589.54</ele>
        <time>2025-12-20T10:34:16Z</time>
      </trkpt>
      <trkpt lat="45.72374" lon="3.6366">
        <ele>591.6</ele>
        <time>2025-12-20T10:34:19Z</time>
      </trkpt>
      <trkpt lat="45.72378" lon="3.63647">
        <ele>593.31</ele>
        <time>2025-12-20T10:34:21Z</time>
      </trkpt>
      <trkpt lat="45.72387" lon="3.63635">
        <ele>595.68</ele>
        <time>2025-12-20T10:34:24Z</time>
      </trkpt>
      <trkpt lat="45.72398" lon="3.63632">
        <ele>598.14</ele>
        <time>2025-12-20T10:34:26Z</time>
      </trkpt>
      <trkpt lat="45.72411" lon="3.63626">
        <ele>599.94</ele>
        <time>2025-12-20T10:34:28Z</time>
      </trkpt>
      <trkpt lat="45.72421" lon="3.63619">
        <ele>602.09</ele>
        <time>2025-12-20T10:34:30Z</time>
      </trkpt>
      <trkpt lat="45.72431" lon="3.63614">
        <ele>603.23</ele>
        <time>2025-12-20T10:34:32Z</time>
      </trkpt>
      <trkpt lat="45.72444" lon="3.63605">
        <ele>603.95</ele>
        <time>2025-12-20T10:34:34Z</time>
      </trkpt>
      <trkpt lat="45.72456" lon="3.6359">
        <ele>605.49</ele>
        <time>2025-12-20T10:34:36Z</time>
      </trkpt>
      <trkpt lat="45.72465" lon="3.63572">
        <ele>607.72</ele>
        <time>2025-12-20T10:34:38Z</time>
      </trkpt>
      <trkpt lat="45.72475" lon="3.63556">
        <ele>609.09</ele>
        <time>2025-12-20T10:34:40Z</time>
      </trkpt>
      <trkpt lat="45.72484" lon="3.63535">
        <ele>610.55</ele>
        <time>2025-12-20T10:34:42Z</time>
      </trkpt>
      <trkpt lat="45.72491" lon="3.63523">
        <ele>611.39</ele>
        <time>2025-12-20T10:34:43Z</time>
      </trkpt>
      <trkpt lat="45.72497" lon="3.63513">
        <ele>612.16</ele>
        <time>2025-12-20T10:34:44Z</time>
      </trkpt>
      <trkpt lat="45.72505" lon="3.63502">
        <ele>613.19</ele>
        <time>2025-12-20T10:34:45Z</time>
      </trkpt>
      <trkpt lat="45.72512" lon="3.63493">
        <ele>613.15</ele>
        <time>2025-12-20T10:34:46Z</time>
      </trkpt>
      <trkpt lat="45.72519" lon="3.63482">
        <ele>613.51</ele>
        <time>2025-12-20T10:34:47Z</time>
      </trkpt>
      <trkpt lat="45.72526" lon="3.63472">
        <ele>614.14</ele>
        <time>2025-12-20T10:34:48Z</time>
      </trkpt>
      <trkpt lat="45.72533" lon="3.6346">
        <ele>614.72</ele>
        <time>2025-12-20T10:34:49Z</time>
      </trkpt>
      <trkpt lat="45.7254" lon="3.63449">
        <ele>615.55</ele>
        <time>2025-12-20T10:34:50Z</time>
      </trkpt>
      <trkpt lat="45.72547" lon="3.63438">
        <ele>616.41</ele>
        <time>2025-12-20T10:34:51Z</time>
      </trkpt>
      <trkpt lat="45.72553" lon="3.63427">
        <ele>617.28</ele>
        <time>2025-12-20T10:34:52Z</time>
      </trkpt>
      <trkpt lat="45.72563" lon="3.63408">
        <ele>618.83</ele>
        <time>2025-12-20T10:34:54Z</time>
      </trkpt>
      <trkpt lat="45.72573" lon="3.63389">
        <ele>619.93</ele>
        <time>2025-12-20T10:34:56Z</time>
      </trkpt>
      <trkpt lat="45.72582" lon="3.63374">
        <ele>620.45</ele>
        <time>2025-12-20T10:34:58Z</time>
      </trkpt>
      <trkpt lat="45.72597" lon="3.63371">
        <ele>623</ele>
        <time>2025-12-20T10:35:00Z</time>
      </trkpt>
      <trkpt lat="45.72606" lon="3.6337">
        <ele>622.08</ele>
        <time>2025-12-20T10:35:01Z</time>
      </trkpt>
      <trkpt lat="45.72617" lon="3.63368">
        <ele>622.68</ele>
        <time>2025-12-20T10:35:02Z</time>
      </trkpt>
      <trkpt lat="45.72628" lon="3.63366">
        <ele>623.09</ele>
        <time>2025-12-20T10:35:03Z</time>
      </trkpt>
      <trkpt lat="45.72639" lon="3.63364">
        <ele>624.29</ele>
        <time>2025-12-20T10:35:04Z</time>
      </trkpt>
      <trkpt lat="45.72651" lon="3.63362">
        <ele>625.41</ele>
        <time>2025-12-20T10:35:05Z</time>
      </trkpt>
      <trkpt lat="45.72662" lon="3.6336">
        <ele>625.74</ele>
        <time>2025-12-20T10:35:06Z</time>
      </trkpt>
      <trkpt lat="45.72674" lon="3.63356">
        <ele>626.34</ele>
        <time>2025-12-20T10:35:07Z</time>
      </trkpt>
      <trkpt lat="45.72687" lon="3.63353">
        <ele>627.03</ele>
        <time>2025-12-20T10:35:08Z</time>
      </trkpt>
      <trkpt lat="45.727" lon="3.63352">
        <ele>627.68</ele>
        <time>2025-12-20T10:35:09Z</time>
      </trkpt>
      <trkpt lat="45.72714" lon="3.63352">
        <ele>628.48</ele>
        <time>2025-12-20T10:35:10Z</time>
      </trkpt>
      <trkpt lat="45.72728" lon="3.63354">
        <ele>629.67</ele>
        <time>2025-12-20T10:35:11Z</time>
      </trkpt>
      <trkpt lat="45.72741" lon="3.63355">
        <ele>630.93</ele>
        <time>2025-12-20T10:35:12Z</time>
      </trkpt>
      <trkpt lat="45.72752" lon="3.63358">
        <ele>632.2</ele>
        <time>2025-12-20T10:35:13Z</time>
      </trkpt>
      <trkpt lat="45.72762" lon="3.63362">
        <ele>632.1</ele>
        <time>2025-12-20T10:35:14Z</time>
      </trkpt>
      <trkpt lat="45.72773" lon="3.63367">
        <ele>632.24</ele>
        <time>2025-12-20T10:35:15Z</time>
      </trkpt>
      <trkpt lat="45.72783" lon="3.63371">
        <ele>632.67</ele>
        <time>2025-12-20T10:35:16Z</time>
      </trkpt>
      <trkpt lat="45.72792" lon="3.63375">
        <ele>633.36</ele>
        <time>2025-12-20T10:35:17Z</time>
      </trkpt>
      <trkpt lat="45.72804" lon="3.6338">
        <ele>634.41</ele>
        <time>2025-12-20T10:35:19Z</time>
      </trkpt>
      <trkpt lat="45.72813" lon="3.63384">
        <ele>635.14</ele>
        <time>2025-12-20T10:35:21Z</time>
      </trkpt>
      <trkpt lat="45.72821" lon="3.63388">
        <ele>635.79</ele>
        <time>2025-12-20T10:35:23Z</time>
      </trkpt>
      <trkpt lat="45.7283" lon="3.6339">
        <ele>636.5</ele>
        <time>2025-12-20T10:35:26Z</time>
      </trkpt>
      <trkpt lat="45.72839" lon="3.6338">
        <ele>637.56</ele>
        <time>2025-12-20T10:35:29Z</time>
      </trkpt>
      <trkpt lat="45.72847" lon="3.63368">
        <ele>638.25</ele>
        <time>2025-12-20T10:35:31Z</time>
      </trkpt>
      <trkpt lat="45.72855" lon="3.63352">
        <ele>638.76</ele>
        <time>2025-12-20T10:35:33Z</time>
      </trkpt>
      <trkpt lat="45.72866" lon="3.63331">
        <ele>638.58</ele>
        <time>2025-12-20T10:35:35Z</time>
      </trkpt>
      <trkpt lat="45.72871" lon="3.63319">
        <ele>638.56</ele>
        <time>2025-12-20T10:35:36Z</time>
      </trkpt>
      <trkpt lat="45.72876" lon="3.63306">
        <ele>638.62</ele>
        <time>2025-12-20T10:35:37Z</time>
      </trkpt>
      <trkpt lat="45.72881" lon="3.63293">
        <ele>638.89</ele>
        <time>2025-12-20T10:35:38Z</time>
      </trkpt>
      <trkpt lat="45.72886" lon="3.6328">
        <ele>639.02</ele>
        <time>2025-12-20T10:35:39Z</time>
      </trkpt>
      <trkpt lat="45.72894" lon="3.63261">
        <ele>639.29</ele>
        <time>2025-12-20T10:35:41Z</time>
      </trkpt>
      <trkpt lat="45.72899" lon="3.63248">
        <ele>639.43</ele>
        <time>2025-12-20T10:35:43Z</time>
      </trkpt>
      <trkpt lat="45.72904" lon="3.63234">
        <ele>639.07</ele>
        <time>2025-12-20T10:35:47Z</time>
      </trkpt>
      <trkpt lat="45.72906" lon="3.63231">
        <ele>639.02</ele>
        <time>2025-12-20T10:37:48Z</time>
      </trkpt>
      <trkpt lat="45.72906" lon="3.63231">
        <ele>640.12</ele>
        <time>2025-12-20T10:41:28Z</time>
      </trkpt>
      <trkpt lat="45.72906" lon="3.63231">
        <ele>640.74</ele>
        <time>2025-12-20T10:43:29Z</time>
      </trkpt>
      <trkpt lat="45.72906" lon="3.63231">
        <ele>641.09</ele>
        <time>2025-12-20T10:45:30Z</time>
      </trkpt>
      <trkpt lat="45.72906" lon="3.63231">
        <ele>640.17</ele>
        <time>2025-12-20T10:47:31Z</time>
      </trkpt>
      <trkpt lat="45.72908" lon="3.63218">
        <ele>640.65</ele>
        <time>2025-12-20T10:49:24Z</time>
      </trkpt>
      <trkpt lat="45.7291" lon="3.63204">
        <ele>640.33</ele>
        <time>2025-12-20T10:49:26Z</time>
      </trkpt>
      <trkpt lat="45.72904" lon="3.6319">
        <ele>640.14</ele>
        <time>2025-12-20T10:49:28Z</time>
      </trkpt>
      <trkpt lat="45.72896" lon="3.63174">
        <ele>640.21</ele>
        <time>2025-12-20T10:49:30Z</time>
      </trkpt>
      <trkpt lat="45.72886" lon="3.63157">
        <ele>639.86</ele>
        <time>2025-12-20T10:49:32Z</time>
      </trkpt>
      <trkpt lat="45.72879" lon="3.63141">
        <ele>639.51</ele>
        <time>2025-12-20T10:49:34Z</time>
      </trkpt>
      <trkpt lat="45.72873" lon="3.6313">
        <ele>639.22</ele>
        <time>2025-12-20T10:49:36Z</time>
      </trkpt>
      <trkpt lat="45.72868" lon="3.63118">
        <ele>638.83</ele>
        <time>2025-12-20T10:49:41Z</time>
      </trkpt>
      <trkpt lat="45.72862" lon="3.63107">
        <ele>638.14</ele>
        <time>2025-12-20T10:49:46Z</time>
      </trkpt>
      <trkpt lat="45.72855" lon="3.6309">
        <ele>637.68</ele>
        <time>2025-12-20T10:49:49Z</time>
      </trkpt>
      <trkpt lat="45.72847" lon="3.63071">
        <ele>637.06</ele>
        <time>2025-12-20T10:49:51Z</time>
      </trkpt>
      <trkpt lat="45.72841" lon="3.6306">
        <ele>636.9</ele>
        <time>2025-12-20T10:49:52Z</time>
      </trkpt>
      <trkpt lat="45.72835" lon="3.63048">
        <ele>636.76</ele>
        <time>2025-12-20T10:49:53Z</time>
      </trkpt>
      <trkpt lat="45.72827" lon="3.63036">
        <ele>636.9</ele>
        <time>2025-12-20T10:49:54Z</time>
      </trkpt>
      <trkpt lat="45.72819" lon="3.63025">
        <ele>636.94</ele>
        <time>2025-12-20T10:49:55Z</time>
      </trkpt>
      <trkpt lat="45.7281" lon="3.63013">
        <ele>637.08</ele>
        <time>2025-12-20T10:49:56Z</time>
      </trkpt>
      <trkpt lat="45.728" lon="3.63003">
        <ele>637.03</ele>
        <time>2025-12-20T10:49:57Z</time>
      </trkpt>
      <trkpt lat="45.72789" lon="3.62993">
        <ele>637.19</ele>
        <time>2025-12-20T10:49:58Z</time>
      </trkpt>
      <trkpt lat="45.72778" lon="3.62982">
        <ele>637.34</ele>
        <time>2025-12-20T10:49:59Z</time>
      </trkpt>
      <trkpt lat="45.72767" lon="3.62972">
        <ele>637.89</ele>
        <time>2025-12-20T10:50:00Z</time>
      </trkpt>
      <trkpt lat="45.72755" lon="3.62962">
        <ele>638.45</ele>
        <time>2025-12-20T10:50:01Z</time>
      </trkpt>
      <trkpt lat="45.72744" lon="3.62952">
        <ele>638.9</ele>
        <time>2025-12-20T10:50:02Z</time>
      </trkpt>
      <trkpt lat="45.72732" lon="3.62942">
        <ele>639.36</ele>
        <time>2025-12-20T10:50:03Z</time>
      </trkpt>
      <trkpt lat="45.7272" lon="3.62932">
        <ele>639.87</ele>
        <time>2025-12-20T10:50:04Z</time>
      </trkpt>
      <trkpt lat="45.72709" lon="3.62922">
        <ele>640.27</ele>
        <time>2025-12-20T10:50:05Z</time>
      </trkpt>
      <trkpt lat="45.72697" lon="3.62912">
        <ele>640.86</ele>
        <time>2025-12-20T10:50:06Z</time>
      </trkpt>
      <trkpt lat="45.72685" lon="3.62902">
        <ele>641.32</ele>
        <time>2025-12-20T10:50:07Z</time>
      </trkpt>
      <trkpt lat="45.72674" lon="3.62891">
        <ele>641.78</ele>
        <time>2025-12-20T10:50:08Z</time>
      </trkpt>
      <trkpt lat="45.72664" lon="3.62878">
        <ele>642.17</ele>
        <time>2025-12-20T10:50:09Z</time>
      </trkpt>
      <trkpt lat="45.72654" lon="3.62864">
        <ele>642.61</ele>
        <time>2025-12-20T10:50:10Z</time>
      </trkpt>
      <trkpt lat="45.72646" lon="3.62849">
        <ele>642.96</ele>
        <time>2025-12-20T10:50:11Z</time>
      </trkpt>
      <trkpt lat="45.72638" lon="3.62833">
        <ele>643.59</ele>
        <time>2025-12-20T10:50:12Z</time>
      </trkpt>
      <trkpt lat="45.7263" lon="3.62818">
        <ele>644.37</ele>
        <time>2025-12-20T10:50:13Z</time>
      </trkpt>
      <trkpt lat="45.72622" lon="3.62802">
        <ele>644.87</ele>
        <time>2025-12-20T10:50:14Z</time>
      </trkpt>
      <trkpt lat="45.72614" lon="3.62787">
        <ele>645.27</ele>
        <time>2025-12-20T10:50:15Z</time>
      </trkpt>
      <trkpt lat="45.72607" lon="3.62771">
        <ele>645.46</ele>
        <time>2025-12-20T10:50:16Z</time>
      </trkpt>
      <trkpt lat="45.72599" lon="3.62756">
        <ele>645.47</ele>
        <time>2025-12-20T10:50:17Z</time>
      </trkpt>
      <trkpt lat="45.72592" lon="3.62741">
        <ele>645.3</ele>
        <time>2025-12-20T10:50:18Z</time>
      </trkpt>
      <trkpt lat="45.72586" lon="3.62728">
        <ele>644.88</ele>
        <time>2025-12-20T10:50:19Z</time>
      </trkpt>
      <trkpt lat="45.7258" lon="3.62714">
        <ele>644.79</ele>
        <time>2025-12-20T10:50:20Z</time>
      </trkpt>
      <trkpt lat="45.72575" lon="3.62702">
        <ele>644.26</ele>
        <time>2025-12-20T10:50:21Z</time>
      </trkpt>
      <trkpt lat="45.7257" lon="3.6269">
        <ele>643.69</ele>
        <time>2025-12-20T10:50:22Z</time>
      </trkpt>
      <trkpt lat="45.72562" lon="3.6267">
        <ele>643.32</ele>
        <time>2025-12-20T10:50:24Z</time>
      </trkpt>
      <trkpt lat="45.72558" lon="3.62656">
        <ele>642.7</ele>
        <time>2025-12-20T10:50:26Z</time>
      </trkpt>
      <trkpt lat="45.72562" lon="3.62645">
        <ele>643.22</ele>
        <time>2025-12-20T10:50:28Z</time>
      </trkpt>
      <trkpt lat="45.72575" lon="3.62633">
        <ele>644.21</ele>
        <time>2025-12-20T10:50:30Z</time>
      </trkpt>
      <trkpt lat="45.7259" lon="3.6262">
        <ele>645.32</ele>
        <time>2025-12-20T10:50:32Z</time>
      </trkpt>
      <trkpt lat="45.72599" lon="3.62614">
        <ele>645.63</ele>
        <time>2025-12-20T10:50:33Z</time>
      </trkpt>
      <trkpt lat="45.72608" lon="3.62609">
        <ele>645.62</ele>
        <time>2025-12-20T10:50:34Z</time>
      </trkpt>
      <trkpt lat="45.72617" lon="3.62604">
        <ele>645.61</ele>
        <time>2025-12-20T10:50:35Z</time>
      </trkpt>
      <trkpt lat="45.72627" lon="3.626">
        <ele>645.56</ele>
        <time>2025-12-20T10:50:36Z</time>
      </trkpt>
      <trkpt lat="45.72638" lon="3.62596">
        <ele>645.34</ele>
        <time>2025-12-20T10:50:37Z</time>
      </trkpt>
      <trkpt lat="45.72649" lon="3.62592">
        <ele>644.98</ele>
        <time>2025-12-20T10:50:38Z</time>
      </trkpt>
      <trkpt lat="45.7266" lon="3.62588">
        <ele>644.6</ele>
        <time>2025-12-20T10:50:39Z</time>
      </trkpt>
      <trkpt lat="45.72671" lon="3.62585">
        <ele>644.13</ele>
        <time>2025-12-20T10:50:40Z</time>
      </trkpt>
      <trkpt lat="45.72682" lon="3.62581">
        <ele>643.68</ele>
        <time>2025-12-20T10:50:41Z</time>
      </trkpt>
      <trkpt lat="45.72694" lon="3.62578">
        <ele>643.05</ele>
        <time>2025-12-20T10:50:42Z</time>
      </trkpt>
      <trkpt lat="45.72706" lon="3.62574">
        <ele>642.34</ele>
        <time>2025-12-20T10:50:43Z</time>
      </trkpt>
      <trkpt lat="45.72719" lon="3.6257">
        <ele>641.23</ele>
        <time>2025-12-20T10:50:44Z</time>
      </trkpt>
      <trkpt lat="45.72732" lon="3.62565">
        <ele>639.74</ele>
        <time>2025-12-20T10:50:45Z</time>
      </trkpt>
      <trkpt lat="45.72747" lon="3.62558">
        <ele>638.51</ele>
        <time>2025-12-20T10:50:46Z</time>
      </trkpt>
      <trkpt lat="45.72762" lon="3.6255">
        <ele>637.84</ele>
        <time>2025-12-20T10:50:47Z</time>
      </trkpt>
      <trkpt lat="45.72776" lon="3.62541">
        <ele>637.35</ele>
        <time>2025-12-20T10:50:48Z</time>
      </trkpt>
      <trkpt lat="45.72791" lon="3.6253">
        <ele>636.86</ele>
        <time>2025-12-20T10:50:49Z</time>
      </trkpt>
      <trkpt lat="45.72805" lon="3.62521">
        <ele>636.38</ele>
        <time>2025-12-20T10:50:50Z</time>
      </trkpt>
      <trkpt lat="45.72819" lon="3.62512">
        <ele>635.8</ele>
        <time>2025-12-20T10:50:51Z</time>
      </trkpt>
      <trkpt lat="45.72834" lon="3.62503">
        <ele>635.2</ele>
        <time>2025-12-20T10:50:52Z</time>
      </trkpt>
      <trkpt lat="45.72849" lon="3.62494">
        <ele>634.68</ele>
        <time>2025-12-20T10:50:53Z</time>
      </trkpt>
      <trkpt lat="45.72863" lon="3.62486">
        <ele>634.02</ele>
        <time>2025-12-20T10:50:54Z</time>
      </trkpt>
      <trkpt lat="45.72878" lon="3.62478">
        <ele>633.34</ele>
        <time>2025-12-20T10:50:55Z</time>
      </trkpt>
      <trkpt lat="45.72893" lon="3.62469">
        <ele>632.77</ele>
        <time>2025-12-20T10:50:56Z</time>
      </trkpt>
      <trkpt lat="45.72907" lon="3.6246">
        <ele>632.23</ele>
        <time>2025-12-20T10:50:57Z</time>
      </trkpt>
      <trkpt lat="45.72922" lon="3.62451">
        <ele>631.86</ele>
        <time>2025-12-20T10:50:58Z</time>
      </trkpt>
      <trkpt lat="45.72936" lon="3.62441">
        <ele>631.53</ele>
        <time>2025-12-20T10:50:59Z</time>
      </trkpt>
      <trkpt lat="45.7295" lon="3.6243">
        <ele>631.26</ele>
        <time>2025-12-20T10:51:00Z</time>
      </trkpt>
      <trkpt lat="45.72964" lon="3.62418">
        <ele>630.98</ele>
        <time>2025-12-20T10:51:01Z</time>
      </trkpt>
      <trkpt lat="45.72977" lon="3.62405">
        <ele>630.89</ele>
        <time>2025-12-20T10:51:02Z</time>
      </trkpt>
      <trkpt lat="45.72989" lon="3.62392">
        <ele>630.69</ele>
        <time>2025-12-20T10:51:03Z</time>
      </trkpt>
      <trkpt lat="45.73002" lon="3.6238">
        <ele>630.44</ele>
        <time>2025-12-20T10:51:04Z</time>
      </trkpt>
      <trkpt lat="45.73014" lon="3.62367">
        <ele>630.16</ele>
        <time>2025-12-20T10:51:05Z</time>
      </trkpt>
      <trkpt lat="45.73026" lon="3.62355">
        <ele>630.21</ele>
        <time>2025-12-20T10:51:06Z</time>
      </trkpt>
      <trkpt lat="45.73038" lon="3.62341">
        <ele>630.01</ele>
        <time>2025-12-20T10:51:07Z</time>
      </trkpt>
      <trkpt lat="45.7305" lon="3.62327">
        <ele>629.73</ele>
        <time>2025-12-20T10:51:08Z</time>
      </trkpt>
      <trkpt lat="45.73061" lon="3.62313">
        <ele>629.39</ele>
        <time>2025-12-20T10:51:09Z</time>
      </trkpt>
      <trkpt lat="45.73072" lon="3.62298">
        <ele>628.87</ele>
        <time>2025-12-20T10:51:10Z</time>
      </trkpt>
      <trkpt lat="45.73083" lon="3.62283">
        <ele>628.25</ele>
        <time>2025-12-20T10:51:11Z</time>
      </trkpt>
      <trkpt lat="45.73094" lon="3.62268">
        <ele>627.29</ele>
        <time>2025-12-20T10:51:12Z</time>
      </trkpt>
      <trkpt lat="45.73105" lon="3.62253">
        <ele>626.2</ele>
        <time>2025-12-20T10:51:13Z</time>
      </trkpt>
      <trkpt lat="45.73117" lon="3.62238">
        <ele>625.16</ele>
        <time>2025-12-20T10:51:14Z</time>
      </trkpt>
      <trkpt lat="45.73129" lon="3.62224">
        <ele>624.19</ele>
        <time>2025-12-20T10:51:15Z</time>
      </trkpt>
      <trkpt lat="45.73141" lon="3.62209">
        <ele>623.15</ele>
        <time>2025-12-20T10:51:16Z</time>
      </trkpt>
      <trkpt lat="45.73153" lon="3.62195">
        <ele>621.86</ele>
        <time>2025-12-20T10:51:17Z</time>
      </trkpt>
      <trkpt lat="45.73166" lon="3.6218">
        <ele>620.63</ele>
        <time>2025-12-20T10:51:18Z</time>
      </trkpt>
      <trkpt lat="45.73178" lon="3.62166">
        <ele>619.5</ele>
        <time>2025-12-20T10:51:19Z</time>
      </trkpt>
      <trkpt lat="45.7319" lon="3.62154">
        <ele>618.31</ele>
        <time>2025-12-20T10:51:20Z</time>
      </trkpt>
      <trkpt lat="45.73202" lon="3.62143">
        <ele>617.22</ele>
        <time>2025-12-20T10:51:21Z</time>
      </trkpt>
      <trkpt lat="45.73215" lon="3.62135">
        <ele>616.1</ele>
        <time>2025-12-20T10:51:22Z</time>
      </trkpt>
      <trkpt lat="45.73228" lon="3.6213">
        <ele>615.05</ele>
        <time>2025-12-20T10:51:23Z</time>
      </trkpt>
      <trkpt lat="45.73241" lon="3.62126">
        <ele>613.99</ele>
        <time>2025-12-20T10:51:24Z</time>
      </trkpt>
      <trkpt lat="45.73252" lon="3.62121">
        <ele>613.08</ele>
        <time>2025-12-20T10:51:25Z</time>
      </trkpt>
      <trkpt lat="45.73263" lon="3.62115">
        <ele>613</ele>
        <time>2025-12-20T10:51:26Z</time>
      </trkpt>
      <trkpt lat="45.73271" lon="3.62105">
        <ele>612.1</ele>
        <time>2025-12-20T10:51:27Z</time>
      </trkpt>
      <trkpt lat="45.73278" lon="3.62093">
        <ele>611.24</ele>
        <time>2025-12-20T10:51:28Z</time>
      </trkpt>
      <trkpt lat="45.73285" lon="3.6208">
        <ele>610.47</ele>
        <time>2025-12-20T10:51:29Z</time>
      </trkpt>
      <trkpt lat="45.7329" lon="3.62067">
        <ele>609.72</ele>
        <time>2025-12-20T10:51:30Z</time>
      </trkpt>
      <trkpt lat="45.73294" lon="3.62055">
        <ele>609.19</ele>
        <time>2025-12-20T10:51:31Z</time>
      </trkpt>
      <trkpt lat="45.73301" lon="3.62038">
        <ele>608.48</ele>
        <time>2025-12-20T10:51:33Z</time>
      </trkpt>
      <trkpt lat="45.73305" lon="3.62027">
        <ele>607.72</ele>
        <time>2025-12-20T10:51:35Z</time>
      </trkpt>
      <trkpt lat="45.73311" lon="3.62014">
        <ele>606.87</ele>
        <time>2025-12-20T10:51:39Z</time>
      </trkpt>
      <trkpt lat="45.73317" lon="3.62002">
        <ele>606.25</ele>
        <time>2025-12-20T10:51:43Z</time>
      </trkpt>
      <trkpt lat="45.73326" lon="3.61994">
        <ele>605.77</ele>
        <time>2025-12-20T10:51:47Z</time>
      </trkpt>
      <trkpt lat="45.73338" lon="3.61989">
        <ele>605.4</ele>
        <time>2025-12-20T10:51:50Z</time>
      </trkpt>
      <trkpt lat="45.73349" lon="3.61986">
        <ele>604.78</ele>
        <time>2025-12-20T10:51:52Z</time>
      </trkpt>
      <trkpt lat="45.73362" lon="3.61985">
        <ele>603.92</ele>
        <time>2025-12-20T10:51:54Z</time>
      </trkpt>
      <trkpt lat="45.73376" lon="3.61982">
        <ele>602.58</ele>
        <time>2025-12-20T10:51:56Z</time>
      </trkpt>
      <trkpt lat="45.73393" lon="3.61977">
        <ele>600.61</ele>
        <time>2025-12-20T10:51:58Z</time>
      </trkpt>
      <trkpt lat="45.73403" lon="3.61972">
        <ele>599.54</ele>
        <time>2025-12-20T10:51:59Z</time>
      </trkpt>
      <trkpt lat="45.73414" lon="3.61967">
        <ele>599.43</ele>
        <time>2025-12-20T10:52:00Z</time>
      </trkpt>
      <trkpt lat="45.73427" lon="3.61962">
        <ele>598.33</ele>
        <time>2025-12-20T10:52:01Z</time>
      </trkpt>
      <trkpt lat="45.73439" lon="3.61956">
        <ele>596.94</ele>
        <time>2025-12-20T10:52:02Z</time>
      </trkpt>
      <trkpt lat="45.73452" lon="3.6195">
        <ele>595.07</ele>
        <time>2025-12-20T10:52:03Z</time>
      </trkpt>
      <trkpt lat="45.73464" lon="3.61944">
        <ele>593.38</ele>
        <time>2025-12-20T10:52:04Z</time>
      </trkpt>
      <trkpt lat="45.73476" lon="3.61939">
        <ele>591.41</ele>
        <time>2025-12-20T10:52:05Z</time>
      </trkpt>
      <trkpt lat="45.73487" lon="3.61934">
        <ele>591.22</ele>
        <time>2025-12-20T10:52:06Z</time>
      </trkpt>
      <trkpt lat="45.73498" lon="3.6193">
        <ele>589.17</ele>
        <time>2025-12-20T10:52:07Z</time>
      </trkpt>
      <trkpt lat="45.73509" lon="3.61926">
        <ele>589.03</ele>
        <time>2025-12-20T10:52:08Z</time>
      </trkpt>
      <trkpt lat="45.7352" lon="3.61923">
        <ele>587.13</ele>
        <time>2025-12-20T10:52:09Z</time>
      </trkpt>
      <trkpt lat="45.73531" lon="3.61919">
        <ele>587.01</ele>
        <time>2025-12-20T10:52:10Z</time>
      </trkpt>
      <trkpt lat="45.73543" lon="3.61916">
        <ele>587.2</ele>
        <time>2025-12-20T10:52:11Z</time>
      </trkpt>
      <trkpt lat="45.73557" lon="3.61916">
        <ele>586.82</ele>
        <time>2025-12-20T10:52:12Z</time>
      </trkpt>
      <trkpt lat="45.73571" lon="3.61917">
        <ele>586.23</ele>
        <time>2025-12-20T10:52:13Z</time>
      </trkpt>
      <trkpt lat="45.73584" lon="3.61917">
        <ele>585.83</ele>
        <time>2025-12-20T10:52:14Z</time>
      </trkpt>
      <trkpt lat="45.73597" lon="3.61918">
        <ele>584.51</ele>
        <time>2025-12-20T10:52:15Z</time>
      </trkpt>
      <trkpt lat="45.73613" lon="3.61915">
        <ele>581.86</ele>
        <time>2025-12-20T10:52:16Z</time>
      </trkpt>
      <trkpt lat="45.73631" lon="3.6191">
        <ele>578.81</ele>
        <time>2025-12-20T10:52:17Z</time>
      </trkpt>
      <trkpt lat="45.73647" lon="3.61907">
        <ele>576.52</ele>
        <time>2025-12-20T10:52:18Z</time>
      </trkpt>
      <trkpt lat="45.73663" lon="3.61904">
        <ele>574.34</ele>
        <time>2025-12-20T10:52:19Z</time>
      </trkpt>
      <trkpt lat="45.73677" lon="3.61904">
        <ele>574.09</ele>
        <time>2025-12-20T10:52:20Z</time>
      </trkpt>
      <trkpt lat="45.73693" lon="3.61906">
        <ele>573.03</ele>
        <time>2025-12-20T10:52:21Z</time>
      </trkpt>
      <trkpt lat="45.7371" lon="3.61907">
        <ele>571.95</ele>
        <time>2025-12-20T10:52:22Z</time>
      </trkpt>
      <trkpt lat="45.73727" lon="3.61908">
        <ele>570.93</ele>
        <time>2025-12-20T10:52:23Z</time>
      </trkpt>
      <trkpt lat="45.73743" lon="3.61909">
        <ele>569.81</ele>
        <time>2025-12-20T10:52:24Z</time>
      </trkpt>
      <trkpt lat="45.73757" lon="3.6191">
        <ele>568.21</ele>
        <time>2025-12-20T10:52:25Z</time>
      </trkpt>
      <trkpt lat="45.73772" lon="3.61909">
        <ele>567.59</ele>
        <time>2025-12-20T10:52:26Z</time>
      </trkpt>
      <trkpt lat="45.73787" lon="3.61906">
        <ele>566.81</ele>
        <time>2025-12-20T10:52:27Z</time>
      </trkpt>
      <trkpt lat="45.73799" lon="3.61903">
        <ele>564.88</ele>
        <time>2025-12-20T10:52:28Z</time>
      </trkpt>
      <trkpt lat="45.73812" lon="3.61898">
        <ele>562.76</ele>
        <time>2025-12-20T10:52:29Z</time>
      </trkpt>
      <trkpt lat="45.73825" lon="3.61894">
        <ele>561.57</ele>
        <time>2025-12-20T10:52:30Z</time>
      </trkpt>
      <trkpt lat="45.73834" lon="3.61888">
        <ele>563.49</ele>
        <time>2025-12-20T10:52:31Z</time>
      </trkpt>
      <trkpt lat="45.73842" lon="3.61882">
        <ele>561.92</ele>
        <time>2025-12-20T10:52:32Z</time>
      </trkpt>
      <trkpt lat="45.73852" lon="3.61877">
        <ele>560.96</ele>
        <time>2025-12-20T10:52:33Z</time>
      </trkpt>
      <trkpt lat="45.73861" lon="3.61873">
        <ele>559.72</ele>
        <time>2025-12-20T10:52:34Z</time>
      </trkpt>
      <trkpt lat="45.73879" lon="3.61872">
        <ele>558.07</ele>
        <time>2025-12-20T10:52:36Z</time>
      </trkpt>
      <trkpt lat="45.73889" lon="3.61879">
        <ele>556.56</ele>
        <time>2025-12-20T10:52:37Z</time>
      </trkpt>
      <trkpt lat="45.739" lon="3.61886">
        <ele>555.56</ele>
        <time>2025-12-20T10:52:38Z</time>
      </trkpt>
      <trkpt lat="45.73909" lon="3.61893">
        <ele>554.36</ele>
        <time>2025-12-20T10:52:39Z</time>
      </trkpt>
      <trkpt lat="45.73919" lon="3.619">
        <ele>551.19</ele>
        <time>2025-12-20T10:52:40Z</time>
      </trkpt>
      <trkpt lat="45.73928" lon="3.61906">
        <ele>549.95</ele>
        <time>2025-12-20T10:52:41Z</time>
      </trkpt>
      <trkpt lat="45.73937" lon="3.61912">
        <ele>549.01</ele>
        <time>2025-12-20T10:52:42Z</time>
      </trkpt>
      <trkpt lat="45.73949" lon="3.61924">
        <ele>545.81</ele>
        <time>2025-12-20T10:52:44Z</time>
      </trkpt>
      <trkpt lat="45.73958" lon="3.61937">
        <ele>541.67</ele>
        <time>2025-12-20T10:52:46Z</time>
      </trkpt>
      <trkpt lat="45.73964" lon="3.61951">
        <ele>538.23</ele>
        <time>2025-12-20T10:52:49Z</time>
      </trkpt>
      <trkpt lat="45.73973" lon="3.61971">
        <ele>534.86</ele>
        <time>2025-12-20T10:52:51Z</time>
      </trkpt>
      <trkpt lat="45.7398" lon="3.61984">
        <ele>533.25</ele>
        <time>2025-12-20T10:52:52Z</time>
      </trkpt>
      <trkpt lat="45.73988" lon="3.61993">
        <ele>532.18</ele>
        <time>2025-12-20T10:52:53Z</time>
      </trkpt>
      <trkpt lat="45.73998" lon="3.62001">
        <ele>531.57</ele>
        <time>2025-12-20T10:52:54Z</time>
      </trkpt>
      <trkpt lat="45.74008" lon="3.62006">
        <ele>530.78</ele>
        <time>2025-12-20T10:52:55Z</time>
      </trkpt>
      <trkpt lat="45.74019" lon="3.62007">
        <ele>528.04</ele>
        <time>2025-12-20T10:52:56Z</time>
      </trkpt>
      <trkpt lat="45.7403" lon="3.62003">
        <ele>525.82</ele>
        <time>2025-12-20T10:52:57Z</time>
      </trkpt>
      <trkpt lat="45.74038" lon="3.61996">
        <ele>523.27</ele>
        <time>2025-12-20T10:52:58Z</time>
      </trkpt>
      <trkpt lat="45.74047" lon="3.61989">
        <ele>521.03</ele>
        <time>2025-12-20T10:52:59Z</time>
      </trkpt>
      <trkpt lat="45.74055" lon="3.61983">
        <ele>519.22</ele>
        <time>2025-12-20T10:53:00Z</time>
      </trkpt>
      <trkpt lat="45.74064" lon="3.61978">
        <ele>518.88</ele>
        <time>2025-12-20T10:53:01Z</time>
      </trkpt>
      <trkpt lat="45.74072" lon="3.61971">
        <ele>518.44</ele>
        <time>2025-12-20T10:53:02Z</time>
      </trkpt>
      <trkpt lat="45.74081" lon="3.61963">
        <ele>518.37</ele>
        <time>2025-12-20T10:53:03Z</time>
      </trkpt>
      <trkpt lat="45.74089" lon="3.61952">
        <ele>516.96</ele>
        <time>2025-12-20T10:53:04Z</time>
      </trkpt>
      <trkpt lat="45.74095" lon="3.61938">
        <ele>515.28</ele>
        <time>2025-12-20T10:53:05Z</time>
      </trkpt>
      <trkpt lat="45.74102" lon="3.61922">
        <ele>513.78</ele>
        <time>2025-12-20T10:53:06Z</time>
      </trkpt>
      <trkpt lat="45.7411" lon="3.61907">
        <ele>513.12</ele>
        <time>2025-12-20T10:53:07Z</time>
      </trkpt>
      <trkpt lat="45.74118" lon="3.61895">
        <ele>511.54</ele>
        <time>2025-12-20T10:53:08Z</time>
      </trkpt>
      <trkpt lat="45.74126" lon="3.61882">
        <ele>509.69</ele>
        <time>2025-12-20T10:53:09Z</time>
      </trkpt>
      <trkpt lat="45.74134" lon="3.6187">
        <ele>508.13</ele>
        <time>2025-12-20T10:53:10Z</time>
      </trkpt>
      <trkpt lat="45.7414" lon="3.6186">
        <ele>507.74</ele>
        <time>2025-12-20T10:53:11Z</time>
      </trkpt>
      <trkpt lat="45.7415" lon="3.61842">
        <ele>507.21</ele>
        <time>2025-12-20T10:53:13Z</time>
      </trkpt>
      <trkpt lat="45.74164" lon="3.61826">
        <ele>505.34</ele>
        <time>2025-12-20T10:53:15Z</time>
      </trkpt>
      <trkpt lat="45.74172" lon="3.61821">
        <ele>505.61</ele>
        <time>2025-12-20T10:53:16Z</time>
      </trkpt>
      <trkpt lat="45.74188" lon="3.61817">
        <ele>504.2</ele>
        <time>2025-12-20T10:53:18Z</time>
      </trkpt>
      <trkpt lat="45.742" lon="3.61822">
        <ele>502.56</ele>
        <time>2025-12-20T10:53:20Z</time>
      </trkpt>
      <trkpt lat="45.74207" lon="3.61833">
        <ele>502.26</ele>
        <time>2025-12-20T10:53:22Z</time>
      </trkpt>
      <trkpt lat="45.74212" lon="3.61846">
        <ele>503.72</ele>
        <time>2025-12-20T10:53:25Z</time>
      </trkpt>
      <trkpt lat="45.74225" lon="3.61853">
        <ele>502.93</ele>
        <time>2025-12-20T10:53:47Z</time>
      </trkpt>
      <trkpt lat="45.7424" lon="3.61869">
        <ele>502.37</ele>
        <time>2025-12-20T10:53:49Z</time>
      </trkpt>
      <trkpt lat="45.74251" lon="3.61875">
        <ele>504.64</ele>
        <time>2025-12-20T10:53:50Z</time>
      </trkpt>
      <trkpt lat="45.74264" lon="3.61881">
        <ele>505.91</ele>
        <time>2025-12-20T10:53:51Z</time>
      </trkpt>
      <trkpt lat="45.74276" lon="3.6189">
        <ele>505.44</ele>
        <time>2025-12-20T10:53:52Z</time>
      </trkpt>
      <trkpt lat="45.74289" lon="3.61896">
        <ele>506.64</ele>
        <time>2025-12-20T10:53:53Z</time>
      </trkpt>
      <trkpt lat="45.743" lon="3.61901">
        <ele>508.28</ele>
        <time>2025-12-20T10:53:54Z</time>
      </trkpt>
      <trkpt lat="45.74309" lon="3.61909">
        <ele>507.46</ele>
        <time>2025-12-20T10:53:55Z</time>
      </trkpt>
      <trkpt lat="45.74318" lon="3.61915">
        <ele>508.38</ele>
        <time>2025-12-20T10:53:56Z</time>
      </trkpt>
      <trkpt lat="45.74327" lon="3.61921">
        <ele>509.33</ele>
        <time>2025-12-20T10:53:57Z</time>
      </trkpt>
      <trkpt lat="45.74336" lon="3.6193">
        <ele>510.89</ele>
        <time>2025-12-20T10:53:58Z</time>
      </trkpt>
      <trkpt lat="45.74345" lon="3.61938">
        <ele>511.57</ele>
        <time>2025-12-20T10:53:59Z</time>
      </trkpt>
      <trkpt lat="45.74361" lon="3.61951">
        <ele>515.43</ele>
        <time>2025-12-20T10:54:01Z</time>
      </trkpt>
      <trkpt lat="45.7437" lon="3.61958">
        <ele>516.9</ele>
        <time>2025-12-20T10:54:02Z</time>
      </trkpt>
      <trkpt lat="45.7438" lon="3.61964">
        <ele>518.48</ele>
        <time>2025-12-20T10:54:03Z</time>
      </trkpt>
      <trkpt lat="45.7439" lon="3.61971">
        <ele>518.83</ele>
        <time>2025-12-20T10:54:04Z</time>
      </trkpt>
      <trkpt lat="45.74399" lon="3.61979">
        <ele>519.62</ele>
        <time>2025-12-20T10:54:05Z</time>
      </trkpt>
      <trkpt lat="45.74407" lon="3.61988">
        <ele>520.03</ele>
        <time>2025-12-20T10:54:06Z</time>
      </trkpt>
      <trkpt lat="45.74417" lon="3.61996">
        <ele>520.76</ele>
        <time>2025-12-20T10:54:07Z</time>
      </trkpt>
      <trkpt lat="45.74428" lon="3.62">
        <ele>521.39</ele>
        <time>2025-12-20T10:54:08Z</time>
      </trkpt>
      <trkpt lat="45.74438" lon="3.62">
        <ele>522.02</ele>
        <time>2025-12-20T10:54:09Z</time>
      </trkpt>
      <trkpt lat="45.74448" lon="3.61998">
        <ele>522.76</ele>
        <time>2025-12-20T10:54:10Z</time>
      </trkpt>
      <trkpt lat="45.74458" lon="3.61995">
        <ele>523.53</ele>
        <time>2025-12-20T10:54:11Z</time>
      </trkpt>
      <trkpt lat="45.74469" lon="3.61991">
        <ele>524.37</ele>
        <time>2025-12-20T10:54:12Z</time>
      </trkpt>
      <trkpt lat="45.74479" lon="3.61985">
        <ele>524.79</ele>
        <time>2025-12-20T10:54:13Z</time>
      </trkpt>
      <trkpt lat="45.74489" lon="3.61978">
        <ele>524.91</ele>
        <time>2025-12-20T10:54:14Z</time>
      </trkpt>
      <trkpt lat="45.74498" lon="3.61968">
        <ele>525.82</ele>
        <time>2025-12-20T10:54:15Z</time>
      </trkpt>
      <trkpt lat="45.74506" lon="3.6196">
        <ele>526.41</ele>
        <time>2025-12-20T10:54:16Z</time>
      </trkpt>
      <trkpt lat="45.74518" lon="3.61946">
        <ele>526.83</ele>
        <time>2025-12-20T10:54:18Z</time>
      </trkpt>
      <trkpt lat="45.74527" lon="3.61941">
        <ele>526.73</ele>
        <time>2025-12-20T10:54:20Z</time>
      </trkpt>
      <trkpt lat="45.74539" lon="3.61939">
        <ele>527.11</ele>
        <time>2025-12-20T10:54:22Z</time>
      </trkpt>
      <trkpt lat="45.74549" lon="3.61939">
        <ele>526.74</ele>
        <time>2025-12-20T10:54:24Z</time>
      </trkpt>
      <trkpt lat="45.7456" lon="3.61941">
        <ele>526.83</ele>
        <time>2025-12-20T10:54:27Z</time>
      </trkpt>
      <trkpt lat="45.74569" lon="3.61943">
        <ele>526.37</ele>
        <time>2025-12-20T10:54:30Z</time>
      </trkpt>
      <trkpt lat="45.7458" lon="3.61946">
        <ele>526.25</ele>
        <time>2025-12-20T10:54:34Z</time>
      </trkpt>
      <trkpt lat="45.74592" lon="3.61951">
        <ele>526.36</ele>
        <time>2025-12-20T10:54:37Z</time>
      </trkpt>
      <trkpt lat="45.74602" lon="3.61953">
        <ele>526.68</ele>
        <time>2025-12-20T10:54:39Z</time>
      </trkpt>
      <trkpt lat="45.74611" lon="3.61954">
        <ele>527.15</ele>
        <time>2025-12-20T10:54:41Z</time>
      </trkpt>
      <trkpt lat="45.7462" lon="3.61955">
        <ele>526.97</ele>
        <time>2025-12-20T10:54:45Z</time>
      </trkpt>
      <trkpt lat="45.7463" lon="3.61954">
        <ele>526.99</ele>
        <time>2025-12-20T10:54:49Z</time>
      </trkpt>
      <trkpt lat="45.74643" lon="3.61952">
        <ele>528.01</ele>
        <time>2025-12-20T10:54:52Z</time>
      </trkpt>
      <trkpt lat="45.74655" lon="3.6195">
        <ele>528.6</ele>
        <time>2025-12-20T10:54:54Z</time>
      </trkpt>
      <trkpt lat="45.74668" lon="3.61948">
        <ele>529.5</ele>
        <time>2025-12-20T10:54:56Z</time>
      </trkpt>
      <trkpt lat="45.7468" lon="3.61945">
        <ele>529.64</ele>
        <time>2025-12-20T10:54:58Z</time>
      </trkpt>
      <trkpt lat="45.74691" lon="3.61942">
        <ele>530.08</ele>
        <time>2025-12-20T10:55:00Z</time>
      </trkpt>
      <trkpt lat="45.74701" lon="3.61938">
        <ele>530.85</ele>
        <time>2025-12-20T10:55:02Z</time>
      </trkpt>
      <trkpt lat="45.74711" lon="3.61934">
        <ele>531.33</ele>
        <time>2025-12-20T10:55:04Z</time>
      </trkpt>
      <trkpt lat="45.74721" lon="3.61927">
        <ele>532.04</ele>
        <time>2025-12-20T10:55:06Z</time>
      </trkpt>
      <trkpt lat="45.74731" lon="3.61918">
        <ele>531.88</ele>
        <time>2025-12-20T10:55:08Z</time>
      </trkpt>
      <trkpt lat="45.74741" lon="3.61906">
        <ele>531.69</ele>
        <time>2025-12-20T10:55:10Z</time>
      </trkpt>
      <trkpt lat="45.74752" lon="3.61896">
        <ele>531.24</ele>
        <time>2025-12-20T10:55:12Z</time>
      </trkpt>
      <trkpt lat="45.74763" lon="3.61885">
        <ele>531.36</ele>
        <time>2025-12-20T10:55:14Z</time>
      </trkpt>
      <trkpt lat="45.74771" lon="3.61878">
        <ele>531.21</ele>
        <time>2025-12-20T10:55:16Z</time>
      </trkpt>
      <trkpt lat="45.74784" lon="3.6187">
        <ele>531.6</ele>
        <time>2025-12-20T10:55:19Z</time>
      </trkpt>
      <trkpt lat="45.74794" lon="3.61865">
        <ele>531.59</ele>
        <time>2025-12-20T10:55:21Z</time>
      </trkpt>
      <trkpt lat="45.74805" lon="3.61861">
        <ele>531.94</ele>
        <time>2025-12-20T10:55:23Z</time>
      </trkpt>
      <trkpt lat="45.74815" lon="3.61857">
        <ele>531.68</ele>
        <time>2025-12-20T10:55:25Z</time>
      </trkpt>
      <trkpt lat="45.74828" lon="3.61851">
        <ele>530.2</ele>
        <time>2025-12-20T10:55:27Z</time>
      </trkpt>
      <trkpt lat="45.74839" lon="3.61847">
        <ele>529.57</ele>
        <time>2025-12-20T10:55:30Z</time>
      </trkpt>
      <trkpt lat="45.74851" lon="3.61847">
        <ele>527.64</ele>
        <time>2025-12-20T10:55:33Z</time>
      </trkpt>
      <trkpt lat="45.74863" lon="3.61847">
        <ele>525.39</ele>
        <time>2025-12-20T10:55:35Z</time>
      </trkpt>
      <trkpt lat="45.74877" lon="3.61848">
        <ele>523.92</ele>
        <time>2025-12-20T10:55:37Z</time>
      </trkpt>
      <trkpt lat="45.74889" lon="3.61848">
        <ele>521.76</ele>
        <time>2025-12-20T10:55:39Z</time>
      </trkpt>
      <trkpt lat="45.74904" lon="3.61848">
        <ele>519.42</ele>
        <time>2025-12-20T10:55:41Z</time>
      </trkpt>
      <trkpt lat="45.74915" lon="3.61848">
        <ele>518</ele>
        <time>2025-12-20T10:55:42Z</time>
      </trkpt>
      <trkpt lat="45.74926" lon="3.6185">
        <ele>516.59</ele>
        <time>2025-12-20T10:55:43Z</time>
      </trkpt>
      <trkpt lat="45.74936" lon="3.61851">
        <ele>515.82</ele>
        <time>2025-12-20T10:55:44Z</time>
      </trkpt>
      <trkpt lat="45.74953" lon="3.6185">
        <ele>514.91</ele>
        <time>2025-12-20T10:55:46Z</time>
      </trkpt>
      <trkpt lat="45.74964" lon="3.61848">
        <ele>513.13</ele>
        <time>2025-12-20T10:55:48Z</time>
      </trkpt>
      <trkpt lat="45.7497" lon="3.61839">
        <ele>513.07</ele>
        <time>2025-12-20T10:55:50Z</time>
      </trkpt>
      <trkpt lat="45.74979" lon="3.61829">
        <ele>512.42</ele>
        <time>2025-12-20T10:55:52Z</time>
      </trkpt>
      <trkpt lat="45.74988" lon="3.61822">
        <ele>512.11</ele>
        <time>2025-12-20T10:55:54Z</time>
      </trkpt>
      <trkpt lat="45.74998" lon="3.6182">
        <ele>512.41</ele>
        <time>2025-12-20T10:55:56Z</time>
      </trkpt>
      <trkpt lat="45.7501" lon="3.61822">
        <ele>512.48</ele>
        <time>2025-12-20T10:55:58Z</time>
      </trkpt>
      <trkpt lat="45.75024" lon="3.6183">
        <ele>512.7</ele>
        <time>2025-12-20T10:56:00Z</time>
      </trkpt>
      <trkpt lat="45.7504" lon="3.61838">
        <ele>513.43</ele>
        <time>2025-12-20T10:56:02Z</time>
      </trkpt>
      <trkpt lat="45.75055" lon="3.61848">
        <ele>514.62</ele>
        <time>2025-12-20T10:56:04Z</time>
      </trkpt>
      <trkpt lat="45.75071" lon="3.61856">
        <ele>515.28</ele>
        <time>2025-12-20T10:56:06Z</time>
      </trkpt>
      <trkpt lat="45.75086" lon="3.61865">
        <ele>516.23</ele>
        <time>2025-12-20T10:56:08Z</time>
      </trkpt>
      <trkpt lat="45.75101" lon="3.61877">
        <ele>517.83</ele>
        <time>2025-12-20T10:56:10Z</time>
      </trkpt>
      <trkpt lat="45.75113" lon="3.61892">
        <ele>519.48</ele>
        <time>2025-12-20T10:56:12Z</time>
      </trkpt>
      <trkpt lat="45.75123" lon="3.61906">
        <ele>520.26</ele>
        <time>2025-12-20T10:56:14Z</time>
      </trkpt>
      <trkpt lat="45.75131" lon="3.6192">
        <ele>520.38</ele>
        <time>2025-12-20T10:56:16Z</time>
      </trkpt>
      <trkpt lat="45.75138" lon="3.61934">
        <ele>520.28</ele>
        <time>2025-12-20T10:56:18Z</time>
      </trkpt>
      <trkpt lat="45.75146" lon="3.61948">
        <ele>520.53</ele>
        <time>2025-12-20T10:56:20Z</time>
      </trkpt>
      <trkpt lat="45.75154" lon="3.61961">
        <ele>520.87</ele>
        <time>2025-12-20T10:56:22Z</time>
      </trkpt>
      <trkpt lat="45.75164" lon="3.61969">
        <ele>521.24</ele>
        <time>2025-12-20T10:56:24Z</time>
      </trkpt>
      <trkpt lat="45.75175" lon="3.61971">
        <ele>521.48</ele>
        <time>2025-12-20T10:56:26Z</time>
      </trkpt>
      <trkpt lat="45.75186" lon="3.61972">
        <ele>521.37</ele>
        <time>2025-12-20T10:56:28Z</time>
      </trkpt>
      <trkpt lat="45.75198" lon="3.61978">
        <ele>522.05</ele>
        <time>2025-12-20T10:56:30Z</time>
      </trkpt>
      <trkpt lat="45.75208" lon="3.61984">
        <ele>523.3</ele>
        <time>2025-12-20T10:56:32Z</time>
      </trkpt>
      <trkpt lat="45.75219" lon="3.6199">
        <ele>523.39</ele>
        <time>2025-12-20T10:56:34Z</time>
      </trkpt>
      <trkpt lat="45.75233" lon="3.61998">
        <ele>523.21</ele>
        <time>2025-12-20T10:56:36Z</time>
      </trkpt>
      <trkpt lat="45.75249" lon="3.62009">
        <ele>522.89</ele>
        <time>2025-12-20T10:56:38Z</time>
      </trkpt>
      <trkpt lat="45.75257" lon="3.62016">
        <ele>522.67</ele>
        <time>2025-12-20T10:56:39Z</time>
      </trkpt>
      <trkpt lat="45.75268" lon="3.6202">
        <ele>522.26</ele>
        <time>2025-12-20T10:56:40Z</time>
      </trkpt>
      <trkpt lat="45.75278" lon="3.62023">
        <ele>522.82</ele>
        <time>2025-12-20T10:56:41Z</time>
      </trkpt>
      <trkpt lat="45.75289" lon="3.62022">
        <ele>522.56</ele>
        <time>2025-12-20T10:56:42Z</time>
      </trkpt>
      <trkpt lat="45.753" lon="3.62021">
        <ele>521.89</ele>
        <time>2025-12-20T10:56:43Z</time>
      </trkpt>
      <trkpt lat="45.75312" lon="3.62021">
        <ele>522.03</ele>
        <time>2025-12-20T10:56:44Z</time>
      </trkpt>
      <trkpt lat="45.75321" lon="3.62021">
        <ele>520.86</ele>
        <time>2025-12-20T10:56:45Z</time>
      </trkpt>
      <trkpt lat="45.75331" lon="3.62021">
        <ele>520.57</ele>
        <time>2025-12-20T10:56:46Z</time>
      </trkpt>
      <trkpt lat="45.75348" lon="3.62007">
        <ele>519.65</ele>
        <time>2025-12-20T10:56:48Z</time>
      </trkpt>
      <trkpt lat="45.75355" lon="3.61996">
        <ele>519.94</ele>
        <time>2025-12-20T10:56:49Z</time>
      </trkpt>
      <trkpt lat="45.75365" lon="3.61981">
        <ele>517.92</ele>
        <time>2025-12-20T10:56:51Z</time>
      </trkpt>
      <trkpt lat="45.75377" lon="3.6197">
        <ele>515.62</ele>
        <time>2025-12-20T10:56:53Z</time>
      </trkpt>
      <trkpt lat="45.75388" lon="3.61961">
        <ele>512.7</ele>
        <time>2025-12-20T10:56:55Z</time>
      </trkpt>
      <trkpt lat="45.75398" lon="3.61956">
        <ele>511.46</ele>
        <time>2025-12-20T10:56:58Z</time>
      </trkpt>
      <trkpt lat="45.75403" lon="3.61969">
        <ele>510.51</ele>
        <time>2025-12-20T10:57:04Z</time>
      </trkpt>
      <trkpt lat="45.75393" lon="3.61976">
        <ele>511.7</ele>
        <time>2025-12-20T10:57:07Z</time>
      </trkpt>
      <trkpt lat="45.75384" lon="3.61983">
        <ele>514.45</ele>
        <time>2025-12-20T10:57:09Z</time>
      </trkpt>
      <trkpt lat="45.75375" lon="3.61994">
        <ele>516.11</ele>
        <time>2025-12-20T10:57:11Z</time>
      </trkpt>
      <trkpt lat="45.7537" lon="3.62004">
        <ele>517.4</ele>
        <time>2025-12-20T10:57:13Z</time>
      </trkpt>
      <trkpt lat="45.75361" lon="3.62012">
        <ele>522.61</ele>
        <time>2025-12-20T10:57:27Z</time>
      </trkpt>
      <trkpt lat="45.75353" lon="3.62024">
        <ele>526.21</ele>
        <time>2025-12-20T10:57:41Z</time>
      </trkpt>
      <trkpt lat="45.75346" lon="3.62037">
        <ele>527.95</ele>
        <time>2025-12-20T10:57:44Z</time>
      </trkpt>
      <trkpt lat="45.75345" lon="3.62054">
        <ele>529.83</ele>
        <time>2025-12-20T10:57:47Z</time>
      </trkpt>
      <trkpt lat="45.75345" lon="3.62066">
        <ele>532.41</ele>
        <time>2025-12-20T10:57:50Z</time>
      </trkpt>
      <trkpt lat="45.75343" lon="3.62081">
        <ele>535.1</ele>
        <time>2025-12-20T10:57:53Z</time>
      </trkpt>
      <trkpt lat="45.7534" lon="3.62099">
        <ele>537.73</ele>
        <time>2025-12-20T10:57:56Z</time>
      </trkpt>
      <trkpt lat="45.75338" lon="3.62113">
        <ele>539.97</ele>
        <time>2025-12-20T10:57:59Z</time>
      </trkpt>
      <trkpt lat="45.75335" lon="3.62128">
        <ele>542.68</ele>
        <time>2025-12-20T10:58:02Z</time>
      </trkpt>
      <trkpt lat="45.75333" lon="3.6214">
        <ele>543.37</ele>
        <time>2025-12-20T10:58:05Z</time>
      </trkpt>
      <trkpt lat="45.75333" lon="3.62155">
        <ele>546.26</ele>
        <time>2025-12-20T10:58:08Z</time>
      </trkpt>
      <trkpt lat="45.75342" lon="3.62164">
        <ele>549.99</ele>
        <time>2025-12-20T10:58:12Z</time>
      </trkpt>
      <trkpt lat="45.75352" lon="3.62168">
        <ele>552.93</ele>
        <time>2025-12-20T10:58:20Z</time>
      </trkpt>
      <trkpt lat="45.75362" lon="3.62168">
        <ele>554.85</ele>
        <time>2025-12-20T10:58:27Z</time>
      </trkpt>
      <trkpt lat="45.75372" lon="3.62163">
        <ele>557.33</ele>
        <time>2025-12-20T10:58:32Z</time>
      </trkpt>
      <trkpt lat="45.75381" lon="3.62158">
        <ele>558.68</ele>
        <time>2025-12-20T10:58:35Z</time>
      </trkpt>
      <trkpt lat="45.75393" lon="3.62154">
        <ele>560.46</ele>
        <time>2025-12-20T10:58:39Z</time>
      </trkpt>
      <trkpt lat="45.75403" lon="3.62151">
        <ele>561.83</ele>
        <time>2025-12-20T10:58:44Z</time>
      </trkpt>
      <trkpt lat="45.75417" lon="3.62149">
        <ele>563.26</ele>
        <time>2025-12-20T10:58:48Z</time>
      </trkpt>
      <trkpt lat="45.75428" lon="3.62148">
        <ele>564.51</ele>
        <time>2025-12-20T10:58:51Z</time>
      </trkpt>
      <trkpt lat="45.75436" lon="3.62151">
        <ele>566.13</ele>
        <time>2025-12-20T10:59:21Z</time>
      </trkpt>
      <trkpt lat="45.75448" lon="3.62152">
        <ele>567.21</ele>
        <time>2025-12-20T10:59:26Z</time>
      </trkpt>
      <trkpt lat="45.75458" lon="3.62155">
        <ele>567.86</ele>
        <time>2025-12-20T10:59:28Z</time>
      </trkpt>
      <trkpt lat="45.75467" lon="3.62159">
        <ele>569.2</ele>
        <time>2025-12-20T10:59:30Z</time>
      </trkpt>
      <trkpt lat="45.75479" lon="3.62164">
        <ele>571.21</ele>
        <time>2025-12-20T10:59:33Z</time>
      </trkpt>
      <trkpt lat="45.7549" lon="3.62168">
        <ele>572.47</ele>
        <time>2025-12-20T10:59:36Z</time>
      </trkpt>
      <trkpt lat="45.75502" lon="3.62175">
        <ele>574.77</ele>
        <time>2025-12-20T10:59:39Z</time>
      </trkpt>
      <trkpt lat="45.75511" lon="3.62181">
        <ele>575.03</ele>
        <time>2025-12-20T10:59:42Z</time>
      </trkpt>
      <trkpt lat="45.75521" lon="3.62189">
        <ele>577.27</ele>
        <time>2025-12-20T10:59:46Z</time>
      </trkpt>
      <trkpt lat="45.75531" lon="3.62196">
        <ele>579.39</ele>
        <time>2025-12-20T10:59:49Z</time>
      </trkpt>
      <trkpt lat="45.75541" lon="3.62204">
        <ele>581.74</ele>
        <time>2025-12-20T10:59:52Z</time>
      </trkpt>
      <trkpt lat="45.75547" lon="3.62217">
        <ele>583.65</ele>
        <time>2025-12-20T10:59:55Z</time>
      </trkpt>
      <trkpt lat="45.75552" lon="3.62233">
        <ele>585.45</ele>
        <time>2025-12-20T10:59:57Z</time>
      </trkpt>
      <trkpt lat="45.75556" lon="3.62246">
        <ele>586.97</ele>
        <time>2025-12-20T10:59:59Z</time>
      </trkpt>
      <trkpt lat="45.7556" lon="3.62264">
        <ele>588.19</ele>
        <time>2025-12-20T11:00:01Z</time>
      </trkpt>
      <trkpt lat="45.75563" lon="3.62279">
        <ele>589.05</ele>
        <time>2025-12-20T11:00:03Z</time>
      </trkpt>
      <trkpt lat="45.75566" lon="3.62292">
        <ele>590.27</ele>
        <time>2025-12-20T11:00:05Z</time>
      </trkpt>
      <trkpt lat="45.75576" lon="3.62304">
        <ele>593.59</ele>
        <time>2025-12-20T11:00:08Z</time>
      </trkpt>
      <trkpt lat="45.75589" lon="3.62313">
        <ele>596.75</ele>
        <time>2025-12-20T11:00:11Z</time>
      </trkpt>
      <trkpt lat="45.75598" lon="3.62322">
        <ele>598.28</ele>
        <time>2025-12-20T11:00:13Z</time>
      </trkpt>
      <trkpt lat="45.75606" lon="3.6233">
        <ele>600.06</ele>
        <time>2025-12-20T11:00:15Z</time>
      </trkpt>
      <trkpt lat="45.75612" lon="3.62341">
        <ele>602.07</ele>
        <time>2025-12-20T11:00:17Z</time>
      </trkpt>
      <trkpt lat="45.75614" lon="3.62356">
        <ele>603.47</ele>
        <time>2025-12-20T11:00:19Z</time>
      </trkpt>
      <trkpt lat="45.75615" lon="3.6237">
        <ele>607.25</ele>
        <time>2025-12-20T11:00:51Z</time>
      </trkpt>
      <trkpt lat="45.75618" lon="3.62384">
        <ele>607.19</ele>
        <time>2025-12-20T11:00:55Z</time>
      </trkpt>
      <trkpt lat="45.7562" lon="3.62397">
        <ele>606.45</ele>
        <time>2025-12-20T11:00:58Z</time>
      </trkpt>
      <trkpt lat="45.7563" lon="3.62407">
        <ele>607.33</ele>
        <time>2025-12-20T11:01:03Z</time>
      </trkpt>
      <trkpt lat="45.7564" lon="3.62414">
        <ele>608.68</ele>
        <time>2025-12-20T11:01:06Z</time>
      </trkpt>
      <trkpt lat="45.75653" lon="3.62417">
        <ele>611.08</ele>
        <time>2025-12-20T11:01:09Z</time>
      </trkpt>
      <trkpt lat="45.75664" lon="3.62422">
        <ele>612.4</ele>
        <time>2025-12-20T11:01:12Z</time>
      </trkpt>
      <trkpt lat="45.75672" lon="3.62429">
        <ele>612.41</ele>
        <time>2025-12-20T11:01:14Z</time>
      </trkpt>
      <trkpt lat="45.75678" lon="3.62442">
        <ele>613.4</ele>
        <time>2025-12-20T11:01:16Z</time>
      </trkpt>
      <trkpt lat="45.75683" lon="3.62456">
        <ele>614.79</ele>
        <time>2025-12-20T11:01:18Z</time>
      </trkpt>
      <trkpt lat="45.75686" lon="3.62469">
        <ele>616.42</ele>
        <time>2025-12-20T11:01:20Z</time>
      </trkpt>
      <trkpt lat="45.75687" lon="3.62484">
        <ele>617.4</ele>
        <time>2025-12-20T11:01:23Z</time>
      </trkpt>
      <trkpt lat="45.75687" lon="3.62488">
        <ele>621.72</ele>
        <time>2025-12-20T11:03:24Z</time>
      </trkpt>
      <trkpt lat="45.75689" lon="3.62483">
        <ele>622.62</ele>
        <time>2025-12-20T11:07:05Z</time>
      </trkpt>
      <trkpt lat="45.75689" lon="3.62483">
        <ele>623.61</ele>
        <time>2025-12-20T11:09:06Z</time>
      </trkpt>
      <trkpt lat="45.75693" lon="3.62489">
        <ele>622.48</ele>
        <time>2025-12-20T11:11:07Z</time>
      </trkpt>
      <trkpt lat="45.75693" lon="3.62489">
        <ele>622.56</ele>
        <time>2025-12-20T11:13:08Z</time>
      </trkpt>
      <trkpt lat="45.75689" lon="3.62501">
        <ele>624.06</ele>
        <time>2025-12-20T11:15:05Z</time>
      </trkpt>
      <trkpt lat="45.75689" lon="3.62515">
        <ele>625.17</ele>
        <time>2025-12-20T11:15:29Z</time>
      </trkpt>
      <trkpt lat="45.75686" lon="3.62529">
        <ele>627.42</ele>
        <time>2025-12-20T11:15:32Z</time>
      </trkpt>
      <trkpt lat="45.75684" lon="3.62543">
        <ele>630.03</ele>
        <time>2025-12-20T11:15:35Z</time>
      </trkpt>
      <trkpt lat="45.75682" lon="3.6256">
        <ele>631.7</ele>
        <time>2025-12-20T11:15:38Z</time>
      </trkpt>
      <trkpt lat="45.75681" lon="3.62575">
        <ele>632.3</ele>
        <time>2025-12-20T11:15:40Z</time>
      </trkpt>
      <trkpt lat="45.75682" lon="3.62592">
        <ele>632.9</ele>
        <time>2025-12-20T11:15:43Z</time>
      </trkpt>
      <trkpt lat="45.75688" lon="3.62605">
        <ele>633.43</ele>
        <time>2025-12-20T11:15:46Z</time>
      </trkpt>
      <trkpt lat="45.75697" lon="3.62614">
        <ele>635.06</ele>
        <time>2025-12-20T11:15:49Z</time>
      </trkpt>
      <trkpt lat="45.75706" lon="3.62624">
        <ele>635.82</ele>
        <time>2025-12-20T11:15:52Z</time>
      </trkpt>
      <trkpt lat="45.75714" lon="3.62633">
        <ele>636.46</ele>
        <time>2025-12-20T11:15:54Z</time>
      </trkpt>
      <trkpt lat="45.75721" lon="3.62645">
        <ele>637.23</ele>
        <time>2025-12-20T11:15:56Z</time>
      </trkpt>
      <trkpt lat="45.75727" lon="3.62658">
        <ele>636.06</ele>
        <time>2025-12-20T11:15:58Z</time>
      </trkpt>
      <trkpt lat="45.75731" lon="3.62672">
        <ele>636.63</ele>
        <time>2025-12-20T11:16:00Z</time>
      </trkpt>
      <trkpt lat="45.75737" lon="3.62691">
        <ele>637.55</ele>
        <time>2025-12-20T11:16:02Z</time>
      </trkpt>
      <trkpt lat="45.75743" lon="3.62705">
        <ele>638.28</ele>
        <time>2025-12-20T11:16:04Z</time>
      </trkpt>
      <trkpt lat="45.75751" lon="3.62718">
        <ele>637.77</ele>
        <time>2025-12-20T11:16:06Z</time>
      </trkpt>
      <trkpt lat="45.75759" lon="3.62731">
        <ele>637.79</ele>
        <time>2025-12-20T11:16:08Z</time>
      </trkpt>
      <trkpt lat="45.7577" lon="3.62746">
        <ele>638.66</ele>
        <time>2025-12-20T11:16:10Z</time>
      </trkpt>
      <trkpt lat="45.7578" lon="3.62759">
        <ele>639.22</ele>
        <time>2025-12-20T11:16:12Z</time>
      </trkpt>
      <trkpt lat="45.75792" lon="3.62776">
        <ele>639.46</ele>
        <time>2025-12-20T11:16:14Z</time>
      </trkpt>
      <trkpt lat="45.75799" lon="3.62789">
        <ele>640.26</ele>
        <time>2025-12-20T11:16:17Z</time>
      </trkpt>
      <trkpt lat="45.75799" lon="3.62804">
        <ele>642.78</ele>
        <time>2025-12-20T11:16:22Z</time>
      </trkpt>
      <trkpt lat="45.75788" lon="3.62805">
        <ele>651.26</ele>
        <time>2025-12-20T11:16:44Z</time>
      </trkpt>
      <trkpt lat="45.75778" lon="3.62807">
        <ele>656.37</ele>
        <time>2025-12-20T11:17:09Z</time>
      </trkpt>
      <trkpt lat="45.75768" lon="3.62805">
        <ele>659.69</ele>
        <time>2025-12-20T11:17:22Z</time>
      </trkpt>
      <trkpt lat="45.75757" lon="3.62813">
        <ele>662.93</ele>
        <time>2025-12-20T11:17:30Z</time>
      </trkpt>
      <trkpt lat="45.7575" lon="3.62824">
        <ele>664.87</ele>
        <time>2025-12-20T11:17:32Z</time>
      </trkpt>
      <trkpt lat="45.7574" lon="3.62836">
        <ele>666.25</ele>
        <time>2025-12-20T11:17:34Z</time>
      </trkpt>
      <trkpt lat="45.75729" lon="3.62849">
        <ele>667.16</ele>
        <time>2025-12-20T11:17:37Z</time>
      </trkpt>
      <trkpt lat="45.7572" lon="3.62865">
        <ele>669.15</ele>
        <time>2025-12-20T11:17:40Z</time>
      </trkpt>
      <trkpt lat="45.75713" lon="3.62879">
        <ele>670.7</ele>
        <time>2025-12-20T11:17:42Z</time>
      </trkpt>
      <trkpt lat="45.75702" lon="3.62896">
        <ele>669.13</ele>
        <time>2025-12-20T11:17:44Z</time>
      </trkpt>
      <trkpt lat="45.75696" lon="3.62905">
        <ele>668.5</ele>
        <time>2025-12-20T11:17:45Z</time>
      </trkpt>
      <trkpt lat="45.75686" lon="3.62925">
        <ele>670.28</ele>
        <time>2025-12-20T11:17:47Z</time>
      </trkpt>
      <trkpt lat="45.75678" lon="3.62947">
        <ele>670.77</ele>
        <time>2025-12-20T11:17:49Z</time>
      </trkpt>
      <trkpt lat="45.75673" lon="3.62959">
        <ele>670.33</ele>
        <time>2025-12-20T11:17:50Z</time>
      </trkpt>
      <trkpt lat="45.75663" lon="3.62978">
        <ele>672.24</ele>
        <time>2025-12-20T11:17:52Z</time>
      </trkpt>
      <trkpt lat="45.75655" lon="3.62997">
        <ele>673.32</ele>
        <time>2025-12-20T11:17:54Z</time>
      </trkpt>
      <trkpt lat="45.75652" lon="3.63013">
        <ele>675.56</ele>
        <time>2025-12-20T11:17:56Z</time>
      </trkpt>
      <trkpt lat="45.75648" lon="3.63032">
        <ele>676.49</ele>
        <time>2025-12-20T11:17:58Z</time>
      </trkpt>
      <trkpt lat="45.75642" lon="3.63052">
        <ele>677.42</ele>
        <time>2025-12-20T11:18:00Z</time>
      </trkpt>
      <trkpt lat="45.75635" lon="3.63075">
        <ele>678.05</ele>
        <time>2025-12-20T11:18:02Z</time>
      </trkpt>
      <trkpt lat="45.75632" lon="3.63088">
        <ele>678.92</ele>
        <time>2025-12-20T11:18:03Z</time>
      </trkpt>
      <trkpt lat="45.75628" lon="3.63114">
        <ele>679.69</ele>
        <time>2025-12-20T11:18:05Z</time>
      </trkpt>
      <trkpt lat="45.75626" lon="3.63135">
        <ele>679.99</ele>
        <time>2025-12-20T11:18:07Z</time>
      </trkpt>
      <trkpt lat="45.75623" lon="3.63151">
        <ele>680.6</ele>
        <time>2025-12-20T11:18:09Z</time>
      </trkpt>
      <trkpt lat="45.7562" lon="3.63167">
        <ele>681.68</ele>
        <time>2025-12-20T11:18:11Z</time>
      </trkpt>
      <trkpt lat="45.75616" lon="3.63183">
        <ele>682.23</ele>
        <time>2025-12-20T11:18:13Z</time>
      </trkpt>
      <trkpt lat="45.75612" lon="3.63204">
        <ele>684.28</ele>
        <time>2025-12-20T11:18:16Z</time>
      </trkpt>
      <trkpt lat="45.75613" lon="3.63218">
        <ele>686.37</ele>
        <time>2025-12-20T11:18:18Z</time>
      </trkpt>
      <trkpt lat="45.75618" lon="3.63231">
        <ele>686.71</ele>
        <time>2025-12-20T11:18:20Z</time>
      </trkpt>
      <trkpt lat="45.75623" lon="3.6325">
        <ele>689.11</ele>
        <time>2025-12-20T11:18:22Z</time>
      </trkpt>
      <trkpt lat="45.75628" lon="3.6327">
        <ele>691.04</ele>
        <time>2025-12-20T11:18:24Z</time>
      </trkpt>
      <trkpt lat="45.7563" lon="3.63283">
        <ele>691.93</ele>
        <time>2025-12-20T11:18:25Z</time>
      </trkpt>
      <trkpt lat="45.75632" lon="3.63301">
        <ele>693.04</ele>
        <time>2025-12-20T11:18:27Z</time>
      </trkpt>
      <trkpt lat="45.75633" lon="3.63318">
        <ele>695.42</ele>
        <time>2025-12-20T11:18:29Z</time>
      </trkpt>
      <trkpt lat="45.75634" lon="3.63334">
        <ele>698.4</ele>
        <time>2025-12-20T11:18:31Z</time>
      </trkpt>
      <trkpt lat="45.75632" lon="3.63352">
        <ele>699.33</ele>
        <time>2025-12-20T11:18:33Z</time>
      </trkpt>
      <trkpt lat="45.75632" lon="3.63369">
        <ele>701.47</ele>
        <time>2025-12-20T11:18:35Z</time>
      </trkpt>
      <trkpt lat="45.75632" lon="3.63386">
        <ele>703.5</ele>
        <time>2025-12-20T11:18:37Z</time>
      </trkpt>
      <trkpt lat="45.75633" lon="3.63405">
        <ele>705.76</ele>
        <time>2025-12-20T11:18:39Z</time>
      </trkpt>
      <trkpt lat="45.75633" lon="3.63419">
        <ele>707.69</ele>
        <time>2025-12-20T11:18:41Z</time>
      </trkpt>
      <trkpt lat="45.75635" lon="3.63434">
        <ele>710.42</ele>
        <time>2025-12-20T11:18:56Z</time>
      </trkpt>
      <trkpt lat="45.75635" lon="3.63447">
        <ele>711.21</ele>
        <time>2025-12-20T11:19:03Z</time>
      </trkpt>
      <trkpt lat="45.75634" lon="3.63463">
        <ele>710.75</ele>
        <time>2025-12-20T11:19:08Z</time>
      </trkpt>
      <trkpt lat="45.75622" lon="3.63476">
        <ele>712.59</ele>
        <time>2025-12-20T11:19:17Z</time>
      </trkpt>
      <trkpt lat="45.75622" lon="3.63495">
        <ele>713.23</ele>
        <time>2025-12-20T11:19:20Z</time>
      </trkpt>
      <trkpt lat="45.75622" lon="3.63513">
        <ele>714.26</ele>
        <time>2025-12-20T11:19:22Z</time>
      </trkpt>
      <trkpt lat="45.75622" lon="3.63535">
        <ele>715.07</ele>
        <time>2025-12-20T11:19:24Z</time>
      </trkpt>
      <trkpt lat="45.7562" lon="3.63559">
        <ele>716.15</ele>
        <time>2025-12-20T11:19:26Z</time>
      </trkpt>
      <trkpt lat="45.75619" lon="3.63572">
        <ele>716.21</ele>
        <time>2025-12-20T11:19:27Z</time>
      </trkpt>
      <trkpt lat="45.75617" lon="3.63586">
        <ele>716.81</ele>
        <time>2025-12-20T11:19:28Z</time>
      </trkpt>
      <trkpt lat="45.75613" lon="3.6361">
        <ele>718.33</ele>
        <time>2025-12-20T11:19:30Z</time>
      </trkpt>
      <trkpt lat="45.75609" lon="3.63631">
        <ele>719.9</ele>
        <time>2025-12-20T11:19:32Z</time>
      </trkpt>
      <trkpt lat="45.75605" lon="3.63651">
        <ele>721.22</ele>
        <time>2025-12-20T11:19:34Z</time>
      </trkpt>
      <trkpt lat="45.75601" lon="3.63665">
        <ele>722.25</ele>
        <time>2025-12-20T11:19:36Z</time>
      </trkpt>
      <trkpt lat="45.75598" lon="3.63681">
        <ele>723.83</ele>
        <time>2025-12-20T11:19:39Z</time>
      </trkpt>
      <trkpt lat="45.75609" lon="3.63683">
        <ele>724.11</ele>
        <time>2025-12-20T11:19:44Z</time>
      </trkpt>
      <trkpt lat="45.7562" lon="3.63678">
        <ele>722.75</ele>
        <time>2025-12-20T11:19:45Z</time>
      </trkpt>
      <trkpt lat="45.75631" lon="3.63673">
        <ele>722.36</ele>
        <time>2025-12-20T11:19:46Z</time>
      </trkpt>
      <trkpt lat="45.75644" lon="3.63666">
        <ele>721.03</ele>
        <time>2025-12-20T11:19:47Z</time>
      </trkpt>
      <trkpt lat="45.75657" lon="3.63659">
        <ele>719.11</ele>
        <time>2025-12-20T11:19:48Z</time>
      </trkpt>
      <trkpt lat="45.75669" lon="3.63655">
        <ele>718.57</ele>
        <time>2025-12-20T11:19:49Z</time>
      </trkpt>
      <trkpt lat="45.75682" lon="3.63651">
        <ele>717.94</ele>
        <time>2025-12-20T11:19:50Z</time>
      </trkpt>
      <trkpt lat="45.75695" lon="3.63646">
        <ele>717.01</ele>
        <time>2025-12-20T11:19:51Z</time>
      </trkpt>
      <trkpt lat="45.75706" lon="3.63641">
        <ele>716.02</ele>
        <time>2025-12-20T11:19:52Z</time>
      </trkpt>
      <trkpt lat="45.75716" lon="3.63637">
        <ele>715.21</ele>
        <time>2025-12-20T11:19:53Z</time>
      </trkpt>
      <trkpt lat="45.75725" lon="3.63632">
        <ele>714.5</ele>
        <time>2025-12-20T11:19:54Z</time>
      </trkpt>
      <trkpt lat="45.75733" lon="3.63628">
        <ele>713.93</ele>
        <time>2025-12-20T11:19:55Z</time>
      </trkpt>
      <trkpt lat="45.75742" lon="3.63624">
        <ele>713.13</ele>
        <time>2025-12-20T11:19:56Z</time>
      </trkpt>
      <trkpt lat="45.75756" lon="3.63626">
        <ele>711.97</ele>
        <time>2025-12-20T11:19:58Z</time>
      </trkpt>
      <trkpt lat="45.75765" lon="3.63637">
        <ele>711.16</ele>
        <time>2025-12-20T11:20:00Z</time>
      </trkpt>
      <trkpt lat="45.75776" lon="3.63644">
        <ele>711.33</ele>
        <time>2025-12-20T11:20:02Z</time>
      </trkpt>
      <trkpt lat="45.75785" lon="3.63651">
        <ele>711.23</ele>
        <time>2025-12-20T11:20:04Z</time>
      </trkpt>
      <trkpt lat="45.75794" lon="3.6366">
        <ele>711.41</ele>
        <time>2025-12-20T11:20:06Z</time>
      </trkpt>
      <trkpt lat="45.75799" lon="3.63673">
        <ele>711.05</ele>
        <time>2025-12-20T11:20:08Z</time>
      </trkpt>
      <trkpt lat="45.75801" lon="3.63686">
        <ele>712.86</ele>
        <time>2025-12-20T11:20:10Z</time>
      </trkpt>
      <trkpt lat="45.75803" lon="3.63699">
        <ele>713.15</ele>
        <time>2025-12-20T11:20:12Z</time>
      </trkpt>
      <trkpt lat="45.75807" lon="3.63715">
        <ele>715.55</ele>
        <time>2025-12-20T11:20:14Z</time>
      </trkpt>
      <trkpt lat="45.7581" lon="3.63728">
        <ele>717.62</ele>
        <time>2025-12-20T11:20:16Z</time>
      </trkpt>
      <trkpt lat="45.75809" lon="3.63746">
        <ele>719.79</ele>
        <time>2025-12-20T11:20:18Z</time>
      </trkpt>
      <trkpt lat="45.75808" lon="3.63763">
        <ele>720.02</ele>
        <time>2025-12-20T11:20:20Z</time>
      </trkpt>
      <trkpt lat="45.75808" lon="3.6378">
        <ele>722.01</ele>
        <time>2025-12-20T11:20:22Z</time>
      </trkpt>
      <trkpt lat="45.75807" lon="3.63796">
        <ele>723.27</ele>
        <time>2025-12-20T11:20:24Z</time>
      </trkpt>
      <trkpt lat="45.75806" lon="3.63811">
        <ele>725.33</ele>
        <time>2025-12-20T11:20:26Z</time>
      </trkpt>
      <trkpt lat="45.75803" lon="3.63824">
        <ele>727.13</ele>
        <time>2025-12-20T11:20:29Z</time>
      </trkpt>
      <trkpt lat="45.75799" lon="3.63836">
        <ele>729.43</ele>
        <time>2025-12-20T11:20:46Z</time>
      </trkpt>
      <trkpt lat="45.75795" lon="3.63849">
        <ele>729.9</ele>
        <time>2025-12-20T11:20:58Z</time>
      </trkpt>
      <trkpt lat="45.75789" lon="3.63864">
        <ele>729.6</ele>
        <time>2025-12-20T11:21:51Z</time>
      </trkpt>
      <trkpt lat="45.75788" lon="3.63882">
        <ele>730.59</ele>
        <time>2025-12-20T11:21:54Z</time>
      </trkpt>
      <trkpt lat="45.75788" lon="3.63897">
        <ele>730.99</ele>
        <time>2025-12-20T11:21:56Z</time>
      </trkpt>
      <trkpt lat="45.75786" lon="3.63914">
        <ele>732.06</ele>
        <time>2025-12-20T11:21:59Z</time>
      </trkpt>
      <trkpt lat="45.75784" lon="3.63928">
        <ele>733.74</ele>
        <time>2025-12-20T11:22:01Z</time>
      </trkpt>
      <trkpt lat="45.75781" lon="3.63946">
        <ele>734.35</ele>
        <time>2025-12-20T11:22:04Z</time>
      </trkpt>
      <trkpt lat="45.75778" lon="3.6396">
        <ele>735.73</ele>
        <time>2025-12-20T11:22:06Z</time>
      </trkpt>
      <trkpt lat="45.75773" lon="3.63976">
        <ele>736.93</ele>
        <time>2025-12-20T11:22:09Z</time>
      </trkpt>
      <trkpt lat="45.75767" lon="3.63989">
        <ele>738.15</ele>
        <time>2025-12-20T11:22:12Z</time>
      </trkpt>
      <trkpt lat="45.75764" lon="3.64002">
        <ele>739.55</ele>
        <time>2025-12-20T11:22:15Z</time>
      </trkpt>
      <trkpt lat="45.75762" lon="3.64019">
        <ele>740.86</ele>
        <time>2025-12-20T11:22:18Z</time>
      </trkpt>
      <trkpt lat="45.7576" lon="3.64037">
        <ele>741.82</ele>
        <time>2025-12-20T11:22:21Z</time>
      </trkpt>
      <trkpt lat="45.75757" lon="3.64055">
        <ele>743.69</ele>
        <time>2025-12-20T11:22:24Z</time>
      </trkpt>
      <trkpt lat="45.75753" lon="3.64068">
        <ele>744.3</ele>
        <time>2025-12-20T11:22:26Z</time>
      </trkpt>
      <trkpt lat="45.75751" lon="3.64081">
        <ele>744.75</ele>
        <time>2025-12-20T11:22:28Z</time>
      </trkpt>
      <trkpt lat="45.75747" lon="3.64098">
        <ele>746.99</ele>
        <time>2025-12-20T11:22:31Z</time>
      </trkpt>
      <trkpt lat="45.75743" lon="3.64116">
        <ele>748.62</ele>
        <time>2025-12-20T11:22:34Z</time>
      </trkpt>
      <trkpt lat="45.7574" lon="3.64132">
        <ele>749.64</ele>
        <time>2025-12-20T11:22:37Z</time>
      </trkpt>
      <trkpt lat="45.75738" lon="3.64149">
        <ele>750.81</ele>
        <time>2025-12-20T11:22:40Z</time>
      </trkpt>
      <trkpt lat="45.75748" lon="3.64153">
        <ele>750.7</ele>
        <time>2025-12-20T11:22:50Z</time>
      </trkpt>
      <trkpt lat="45.75765" lon="3.64145">
        <ele>750.38</ele>
        <time>2025-12-20T11:22:52Z</time>
      </trkpt>
      <trkpt lat="45.75778" lon="3.64139">
        <ele>749.03</ele>
        <time>2025-12-20T11:22:54Z</time>
      </trkpt>
      <trkpt lat="45.75791" lon="3.64139">
        <ele>748.13</ele>
        <time>2025-12-20T11:23:30Z</time>
      </trkpt>
      <trkpt lat="45.75805" lon="3.64148">
        <ele>747.49</ele>
        <time>2025-12-20T11:23:32Z</time>
      </trkpt>
      <trkpt lat="45.75815" lon="3.64154">
        <ele>748.07</ele>
        <time>2025-12-20T11:23:34Z</time>
      </trkpt>
      <trkpt lat="45.75825" lon="3.64159">
        <ele>745.43</ele>
        <time>2025-12-20T11:23:36Z</time>
      </trkpt>
      <trkpt lat="45.75837" lon="3.64169">
        <ele>744.11</ele>
        <time>2025-12-20T11:23:38Z</time>
      </trkpt>
      <trkpt lat="45.75848" lon="3.64177">
        <ele>742.29</ele>
        <time>2025-12-20T11:23:40Z</time>
      </trkpt>
      <trkpt lat="45.75856" lon="3.64183">
        <ele>741.24</ele>
        <time>2025-12-20T11:23:42Z</time>
      </trkpt>
      <trkpt lat="45.75867" lon="3.6419">
        <ele>738.83</ele>
        <time>2025-12-20T11:23:44Z</time>
      </trkpt>
      <trkpt lat="45.75876" lon="3.64193">
        <ele>736.64</ele>
        <time>2025-12-20T11:23:46Z</time>
      </trkpt>
      <trkpt lat="45.75886" lon="3.64192">
        <ele>734.72</ele>
        <time>2025-12-20T11:23:48Z</time>
      </trkpt>
      <trkpt lat="45.75898" lon="3.64189">
        <ele>733.56</ele>
        <time>2025-12-20T11:23:50Z</time>
      </trkpt>
      <trkpt lat="45.75908" lon="3.64184">
        <ele>731.37</ele>
        <time>2025-12-20T11:23:52Z</time>
      </trkpt>
      <trkpt lat="45.75921" lon="3.64179">
        <ele>729.92</ele>
        <time>2025-12-20T11:23:54Z</time>
      </trkpt>
      <trkpt lat="45.75932" lon="3.64175">
        <ele>727.92</ele>
        <time>2025-12-20T11:23:56Z</time>
      </trkpt>
      <trkpt lat="45.75943" lon="3.6417">
        <ele>726.75</ele>
        <time>2025-12-20T11:23:58Z</time>
      </trkpt>
      <trkpt lat="45.75951" lon="3.64163">
        <ele>725.08</ele>
        <time>2025-12-20T11:24:00Z</time>
      </trkpt>
      <trkpt lat="45.75963" lon="3.64154">
        <ele>723.41</ele>
        <time>2025-12-20T11:24:02Z</time>
      </trkpt>
      <trkpt lat="45.75972" lon="3.6415">
        <ele>722.33</ele>
        <time>2025-12-20T11:24:03Z</time>
      </trkpt>
      <trkpt lat="45.75986" lon="3.64141">
        <ele>720.48</ele>
        <time>2025-12-20T11:24:05Z</time>
      </trkpt>
      <trkpt lat="45.75994" lon="3.64131">
        <ele>718.26</ele>
        <time>2025-12-20T11:24:07Z</time>
      </trkpt>
      <trkpt lat="45.75998" lon="3.64118">
        <ele>716.09</ele>
        <time>2025-12-20T11:24:09Z</time>
      </trkpt>
      <trkpt lat="45.76005" lon="3.64104">
        <ele>713.77</ele>
        <time>2025-12-20T11:24:11Z</time>
      </trkpt>
      <trkpt lat="45.76011" lon="3.64093">
        <ele>712.24</ele>
        <time>2025-12-20T11:24:13Z</time>
      </trkpt>
      <trkpt lat="45.76021" lon="3.64082">
        <ele>710.68</ele>
        <time>2025-12-20T11:24:15Z</time>
      </trkpt>
      <trkpt lat="45.76032" lon="3.64072">
        <ele>708.2</ele>
        <time>2025-12-20T11:24:17Z</time>
      </trkpt>
      <trkpt lat="45.76039" lon="3.64063">
        <ele>706.95</ele>
        <time>2025-12-20T11:24:19Z</time>
      </trkpt>
      <trkpt lat="45.76047" lon="3.64047">
        <ele>705.06</ele>
        <time>2025-12-20T11:24:21Z</time>
      </trkpt>
      <trkpt lat="45.76052" lon="3.64032">
        <ele>703.68</ele>
        <time>2025-12-20T11:24:23Z</time>
      </trkpt>
      <trkpt lat="45.76058" lon="3.64021">
        <ele>701.71</ele>
        <time>2025-12-20T11:24:25Z</time>
      </trkpt>
      <trkpt lat="45.76063" lon="3.64008">
        <ele>700.37</ele>
        <time>2025-12-20T11:24:27Z</time>
      </trkpt>
      <trkpt lat="45.76068" lon="3.63996">
        <ele>698.9</ele>
        <time>2025-12-20T11:24:29Z</time>
      </trkpt>
      <trkpt lat="45.76076" lon="3.63981">
        <ele>697.46</ele>
        <time>2025-12-20T11:24:32Z</time>
      </trkpt>
      <trkpt lat="45.76081" lon="3.63969">
        <ele>695.88</ele>
        <time>2025-12-20T11:24:34Z</time>
      </trkpt>
      <trkpt lat="45.76089" lon="3.63954">
        <ele>693.76</ele>
        <time>2025-12-20T11:24:36Z</time>
      </trkpt>
      <trkpt lat="45.76098" lon="3.6394">
        <ele>691.96</ele>
        <time>2025-12-20T11:24:38Z</time>
      </trkpt>
      <trkpt lat="45.76103" lon="3.6393">
        <ele>690.9</ele>
        <time>2025-12-20T11:24:40Z</time>
      </trkpt>
      <trkpt lat="45.76108" lon="3.63917">
        <ele>689.19</ele>
        <time>2025-12-20T11:24:43Z</time>
      </trkpt>
      <trkpt lat="45.76117" lon="3.63917">
        <ele>687.15</ele>
        <time>2025-12-20T11:24:50Z</time>
      </trkpt>
      <trkpt lat="45.76121" lon="3.6393">
        <ele>686.77</ele>
        <time>2025-12-20T11:24:52Z</time>
      </trkpt>
      <trkpt lat="45.76124" lon="3.63946">
        <ele>686.02</ele>
        <time>2025-12-20T11:24:54Z</time>
      </trkpt>
      <trkpt lat="45.76127" lon="3.63962">
        <ele>684.95</ele>
        <time>2025-12-20T11:24:56Z</time>
      </trkpt>
      <trkpt lat="45.76128" lon="3.63976">
        <ele>683.6</ele>
        <time>2025-12-20T11:24:58Z</time>
      </trkpt>
      <trkpt lat="45.76132" lon="3.63993">
        <ele>681.24</ele>
        <time>2025-12-20T11:25:00Z</time>
      </trkpt>
      <trkpt lat="45.76139" lon="3.64007">
        <ele>679.02</ele>
        <time>2025-12-20T11:25:02Z</time>
      </trkpt>
      <trkpt lat="45.76148" lon="3.64013">
        <ele>676.34</ele>
        <time>2025-12-20T11:25:04Z</time>
      </trkpt>
      <trkpt lat="45.7616" lon="3.64014">
        <ele>675.43</ele>
        <time>2025-12-20T11:25:06Z</time>
      </trkpt>
      <trkpt lat="45.76173" lon="3.64005">
        <ele>674.42</ele>
        <time>2025-12-20T11:25:08Z</time>
      </trkpt>
      <trkpt lat="45.76186" lon="3.63995">
        <ele>672.36</ele>
        <time>2025-12-20T11:25:10Z</time>
      </trkpt>
      <trkpt lat="45.76197" lon="3.63987">
        <ele>671.99</ele>
        <time>2025-12-20T11:25:12Z</time>
      </trkpt>
      <trkpt lat="45.76208" lon="3.63979">
        <ele>669.1</ele>
        <time>2025-12-20T11:25:14Z</time>
      </trkpt>
      <trkpt lat="45.7622" lon="3.63971">
        <ele>667.59</ele>
        <time>2025-12-20T11:25:16Z</time>
      </trkpt>
      <trkpt lat="45.76228" lon="3.63962">
        <ele>667.39</ele>
        <time>2025-12-20T11:25:18Z</time>
      </trkpt>
      <trkpt lat="45.76237" lon="3.63958">
        <ele>666.51</ele>
        <time>2025-12-20T11:25:21Z</time>
      </trkpt>
      <trkpt lat="45.76246" lon="3.6397">
        <ele>667.45</ele>
        <time>2025-12-20T11:25:24Z</time>
      </trkpt>
      <trkpt lat="45.76255" lon="3.63985">
        <ele>668.12</ele>
        <time>2025-12-20T11:25:27Z</time>
      </trkpt>
      <trkpt lat="45.76262" lon="3.63994">
        <ele>669.23</ele>
        <time>2025-12-20T11:25:29Z</time>
      </trkpt>
      <trkpt lat="45.76271" lon="3.64001">
        <ele>671.14</ele>
        <time>2025-12-20T11:25:31Z</time>
      </trkpt>
      <trkpt lat="45.76278" lon="3.64007">
        <ele>672.25</ele>
        <time>2025-12-20T11:25:33Z</time>
      </trkpt>
      <trkpt lat="45.76289" lon="3.64018">
        <ele>674.11</ele>
        <time>2025-12-20T11:25:36Z</time>
      </trkpt>
      <trkpt lat="45.763" lon="3.64024">
        <ele>675.19</ele>
        <time>2025-12-20T11:25:39Z</time>
      </trkpt>
      <trkpt lat="45.76311" lon="3.6403">
        <ele>675.86</ele>
        <time>2025-12-20T11:25:42Z</time>
      </trkpt>
      <trkpt lat="45.76319" lon="3.64036">
        <ele>676.43</ele>
        <time>2025-12-20T11:25:45Z</time>
      </trkpt>
      <trkpt lat="45.76326" lon="3.64045">
        <ele>676.03</ele>
        <time>2025-12-20T11:25:57Z</time>
      </trkpt>
      <trkpt lat="45.7634" lon="3.64048">
        <ele>674.8</ele>
        <time>2025-12-20T11:26:00Z</time>
      </trkpt>
      <trkpt lat="45.76351" lon="3.64045">
        <ele>673.13</ele>
        <time>2025-12-20T11:26:02Z</time>
      </trkpt>
      <trkpt lat="45.76361" lon="3.64036">
        <ele>671.84</ele>
        <time>2025-12-20T11:26:04Z</time>
      </trkpt>
      <trkpt lat="45.76374" lon="3.64032">
        <ele>670.49</ele>
        <time>2025-12-20T11:26:07Z</time>
      </trkpt>
      <trkpt lat="45.76382" lon="3.64038">
        <ele>668.92</ele>
        <time>2025-12-20T11:26:09Z</time>
      </trkpt>
      <trkpt lat="45.7639" lon="3.64047">
        <ele>667.59</ele>
        <time>2025-12-20T11:26:11Z</time>
      </trkpt>
      <trkpt lat="45.76397" lon="3.64057">
        <ele>666.73</ele>
        <time>2025-12-20T11:26:13Z</time>
      </trkpt>
      <trkpt lat="45.76405" lon="3.64069">
        <ele>665.04</ele>
        <time>2025-12-20T11:26:15Z</time>
      </trkpt>
      <trkpt lat="45.76414" lon="3.64087">
        <ele>663.85</ele>
        <time>2025-12-20T11:26:17Z</time>
      </trkpt>
      <trkpt lat="45.76421" lon="3.6411">
        <ele>662.26</ele>
        <time>2025-12-20T11:26:19Z</time>
      </trkpt>
      <trkpt lat="45.76427" lon="3.6413">
        <ele>661.47</ele>
        <time>2025-12-20T11:26:21Z</time>
      </trkpt>
      <trkpt lat="45.76432" lon="3.64146">
        <ele>660.73</ele>
        <time>2025-12-20T11:26:23Z</time>
      </trkpt>
      <trkpt lat="45.76439" lon="3.64153">
        <ele>660.34</ele>
        <time>2025-12-20T11:26:26Z</time>
      </trkpt>
      <trkpt lat="45.7645" lon="3.64138">
        <ele>659.77</ele>
        <time>2025-12-20T11:26:28Z</time>
      </trkpt>
      <trkpt lat="45.76457" lon="3.64115">
        <ele>659.04</ele>
        <time>2025-12-20T11:26:30Z</time>
      </trkpt>
      <trkpt lat="45.76464" lon="3.64092">
        <ele>658.79</ele>
        <time>2025-12-20T11:26:32Z</time>
      </trkpt>
      <trkpt lat="45.76469" lon="3.64067">
        <ele>658.09</ele>
        <time>2025-12-20T11:26:34Z</time>
      </trkpt>
      <trkpt lat="45.76471" lon="3.64054">
        <ele>658.04</ele>
        <time>2025-12-20T11:26:35Z</time>
      </trkpt>
      <trkpt lat="45.76473" lon="3.64041">
        <ele>658.05</ele>
        <time>2025-12-20T11:26:36Z</time>
      </trkpt>
      <trkpt lat="45.76475" lon="3.64028">
        <ele>657.58</ele>
        <time>2025-12-20T11:26:37Z</time>
      </trkpt>
      <trkpt lat="45.76477" lon="3.64014">
        <ele>657.32</ele>
        <time>2025-12-20T11:26:38Z</time>
      </trkpt>
      <trkpt lat="45.76479" lon="3.64001">
        <ele>656.78</ele>
        <time>2025-12-20T11:26:39Z</time>
      </trkpt>
      <trkpt lat="45.7648" lon="3.63988">
        <ele>656.25</ele>
        <time>2025-12-20T11:26:40Z</time>
      </trkpt>
      <trkpt lat="45.76482" lon="3.63962">
        <ele>654.9</ele>
        <time>2025-12-20T11:26:42Z</time>
      </trkpt>
      <trkpt lat="45.76482" lon="3.63948">
        <ele>654.92</ele>
        <time>2025-12-20T11:26:43Z</time>
      </trkpt>
      <trkpt lat="45.76482" lon="3.63935">
        <ele>654.55</ele>
        <time>2025-12-20T11:26:44Z</time>
      </trkpt>
      <trkpt lat="45.7648" lon="3.63922">
        <ele>654.2</ele>
        <time>2025-12-20T11:26:45Z</time>
      </trkpt>
      <trkpt lat="45.76479" lon="3.63908">
        <ele>654.06</ele>
        <time>2025-12-20T11:26:46Z</time>
      </trkpt>
      <trkpt lat="45.76478" lon="3.63894">
        <ele>653.69</ele>
        <time>2025-12-20T11:26:47Z</time>
      </trkpt>
      <trkpt lat="45.76478" lon="3.6388">
        <ele>653.38</ele>
        <time>2025-12-20T11:26:48Z</time>
      </trkpt>
      <trkpt lat="45.76477" lon="3.63866">
        <ele>653.23</ele>
        <time>2025-12-20T11:26:49Z</time>
      </trkpt>
      <trkpt lat="45.76476" lon="3.63851">
        <ele>652.43</ele>
        <time>2025-12-20T11:26:50Z</time>
      </trkpt>
      <trkpt lat="45.76476" lon="3.63837">
        <ele>652.32</ele>
        <time>2025-12-20T11:26:51Z</time>
      </trkpt>
      <trkpt lat="45.76475" lon="3.63823">
        <ele>652.3</ele>
        <time>2025-12-20T11:26:52Z</time>
      </trkpt>
      <trkpt lat="45.76476" lon="3.63801">
        <ele>651.55</ele>
        <time>2025-12-20T11:26:54Z</time>
      </trkpt>
      <trkpt lat="45.76481" lon="3.63779">
        <ele>651</ele>
        <time>2025-12-20T11:26:56Z</time>
      </trkpt>
      <trkpt lat="45.7649" lon="3.63758">
        <ele>650.84</ele>
        <time>2025-12-20T11:26:58Z</time>
      </trkpt>
      <trkpt lat="45.76494" lon="3.63747">
        <ele>650.81</ele>
        <time>2025-12-20T11:26:59Z</time>
      </trkpt>
      <trkpt lat="45.76504" lon="3.63726">
        <ele>651.31</ele>
        <time>2025-12-20T11:27:01Z</time>
      </trkpt>
      <trkpt lat="45.76509" lon="3.63703">
        <ele>651.12</ele>
        <time>2025-12-20T11:27:03Z</time>
      </trkpt>
      <trkpt lat="45.76512" lon="3.6369">
        <ele>650.51</ele>
        <time>2025-12-20T11:27:04Z</time>
      </trkpt>
      <trkpt lat="45.76515" lon="3.63677">
        <ele>649.94</ele>
        <time>2025-12-20T11:27:05Z</time>
      </trkpt>
      <trkpt lat="45.76517" lon="3.63663">
        <ele>649.64</ele>
        <time>2025-12-20T11:27:06Z</time>
      </trkpt>
      <trkpt lat="45.76519" lon="3.63651">
        <ele>649.34</ele>
        <time>2025-12-20T11:27:07Z</time>
      </trkpt>
      <trkpt lat="45.76523" lon="3.63632">
        <ele>648.56</ele>
        <time>2025-12-20T11:27:09Z</time>
      </trkpt>
      <trkpt lat="45.76526" lon="3.63615">
        <ele>648.25</ele>
        <time>2025-12-20T11:27:11Z</time>
      </trkpt>
      <trkpt lat="45.76528" lon="3.63601">
        <ele>647.51</ele>
        <time>2025-12-20T11:27:13Z</time>
      </trkpt>
      <trkpt lat="45.76532" lon="3.63589">
        <ele>648.44</ele>
        <time>2025-12-20T11:27:21Z</time>
      </trkpt>
      <trkpt lat="45.76534" lon="3.63576">
        <ele>648.85</ele>
        <time>2025-12-20T11:27:26Z</time>
      </trkpt>
      <trkpt lat="45.76539" lon="3.63563">
        <ele>648.69</ele>
        <time>2025-12-20T11:27:29Z</time>
      </trkpt>
      <trkpt lat="45.76552" lon="3.63547">
        <ele>647.59</ele>
        <time>2025-12-20T11:27:31Z</time>
      </trkpt>
      <trkpt lat="45.76561" lon="3.63537">
        <ele>646.63</ele>
        <time>2025-12-20T11:27:32Z</time>
      </trkpt>
      <trkpt lat="45.76569" lon="3.63528">
        <ele>646.48</ele>
        <time>2025-12-20T11:27:33Z</time>
      </trkpt>
      <trkpt lat="45.76579" lon="3.6352">
        <ele>645.96</ele>
        <time>2025-12-20T11:27:34Z</time>
      </trkpt>
      <trkpt lat="45.76588" lon="3.63514">
        <ele>645.21</ele>
        <time>2025-12-20T11:27:35Z</time>
      </trkpt>
      <trkpt lat="45.76599" lon="3.63509">
        <ele>644.94</ele>
        <time>2025-12-20T11:27:36Z</time>
      </trkpt>
      <trkpt lat="45.7661" lon="3.63507">
        <ele>644.86</ele>
        <time>2025-12-20T11:27:37Z</time>
      </trkpt>
      <trkpt lat="45.76621" lon="3.63506">
        <ele>644.27</ele>
        <time>2025-12-20T11:27:38Z</time>
      </trkpt>
      <trkpt lat="45.76631" lon="3.63505">
        <ele>643.71</ele>
        <time>2025-12-20T11:27:39Z</time>
      </trkpt>
      <trkpt lat="45.76642" lon="3.63503">
        <ele>644.03</ele>
        <time>2025-12-20T11:27:40Z</time>
      </trkpt>
      <trkpt lat="45.76651" lon="3.63502">
        <ele>643.29</ele>
        <time>2025-12-20T11:27:41Z</time>
      </trkpt>
      <trkpt lat="45.76666" lon="3.63505">
        <ele>642.13</ele>
        <time>2025-12-20T11:27:43Z</time>
      </trkpt>
      <trkpt lat="45.76671" lon="3.6352">
        <ele>642.09</ele>
        <time>2025-12-20T11:27:45Z</time>
      </trkpt>
      <trkpt lat="45.76674" lon="3.63541">
        <ele>641.89</ele>
        <time>2025-12-20T11:27:47Z</time>
      </trkpt>
      <trkpt lat="45.76677" lon="3.63566">
        <ele>641.49</ele>
        <time>2025-12-20T11:27:49Z</time>
      </trkpt>
      <trkpt lat="45.76677" lon="3.63581">
        <ele>641.98</ele>
        <time>2025-12-20T11:27:50Z</time>
      </trkpt>
      <trkpt lat="45.76678" lon="3.63596">
        <ele>641.95</ele>
        <time>2025-12-20T11:27:51Z</time>
      </trkpt>
      <trkpt lat="45.76679" lon="3.6361">
        <ele>642.45</ele>
        <time>2025-12-20T11:27:52Z</time>
      </trkpt>
      <trkpt lat="45.7668" lon="3.63624">
        <ele>642.35</ele>
        <time>2025-12-20T11:27:53Z</time>
      </trkpt>
      <trkpt lat="45.76682" lon="3.63636">
        <ele>642.75</ele>
        <time>2025-12-20T11:27:54Z</time>
      </trkpt>
      <trkpt lat="45.76692" lon="3.63656">
        <ele>641.83</ele>
        <time>2025-12-20T11:27:56Z</time>
      </trkpt>
      <trkpt lat="45.76705" lon="3.63672">
        <ele>642.05</ele>
        <time>2025-12-20T11:27:58Z</time>
      </trkpt>
      <trkpt lat="45.76719" lon="3.63689">
        <ele>642.16</ele>
        <time>2025-12-20T11:28:00Z</time>
      </trkpt>
      <trkpt lat="45.76726" lon="3.63698">
        <ele>642.01</ele>
        <time>2025-12-20T11:28:01Z</time>
      </trkpt>
      <trkpt lat="45.76734" lon="3.63706">
        <ele>641.69</ele>
        <time>2025-12-20T11:28:02Z</time>
      </trkpt>
      <trkpt lat="45.76744" lon="3.63712">
        <ele>641.3</ele>
        <time>2025-12-20T11:28:03Z</time>
      </trkpt>
      <trkpt lat="45.76756" lon="3.63714">
        <ele>640.39</ele>
        <time>2025-12-20T11:28:04Z</time>
      </trkpt>
      <trkpt lat="45.76767" lon="3.63714">
        <ele>640.61</ele>
        <time>2025-12-20T11:28:05Z</time>
      </trkpt>
      <trkpt lat="45.76777" lon="3.63712">
        <ele>641.11</ele>
        <time>2025-12-20T11:28:06Z</time>
      </trkpt>
      <trkpt lat="45.76788" lon="3.63706">
        <ele>641.15</ele>
        <time>2025-12-20T11:28:07Z</time>
      </trkpt>
      <trkpt lat="45.76799" lon="3.637">
        <ele>641.02</ele>
        <time>2025-12-20T11:28:08Z</time>
      </trkpt>
      <trkpt lat="45.7681" lon="3.63693">
        <ele>641.16</ele>
        <time>2025-12-20T11:28:09Z</time>
      </trkpt>
      <trkpt lat="45.76821" lon="3.63686">
        <ele>641.69</ele>
        <time>2025-12-20T11:28:10Z</time>
      </trkpt>
      <trkpt lat="45.76832" lon="3.63677">
        <ele>641.97</ele>
        <time>2025-12-20T11:28:11Z</time>
      </trkpt>
      <trkpt lat="45.76842" lon="3.63668">
        <ele>642.21</ele>
        <time>2025-12-20T11:28:12Z</time>
      </trkpt>
      <trkpt lat="45.76853" lon="3.6366">
        <ele>642.49</ele>
        <time>2025-12-20T11:28:13Z</time>
      </trkpt>
      <trkpt lat="45.76864" lon="3.63653">
        <ele>642.87</ele>
        <time>2025-12-20T11:28:14Z</time>
      </trkpt>
      <trkpt lat="45.76874" lon="3.63646">
        <ele>643.14</ele>
        <time>2025-12-20T11:28:15Z</time>
      </trkpt>
      <trkpt lat="45.76885" lon="3.63639">
        <ele>643.53</ele>
        <time>2025-12-20T11:28:16Z</time>
      </trkpt>
      <trkpt lat="45.76895" lon="3.63633">
        <ele>644.25</ele>
        <time>2025-12-20T11:28:17Z</time>
      </trkpt>
      <trkpt lat="45.76905" lon="3.63626">
        <ele>644.33</ele>
        <time>2025-12-20T11:28:18Z</time>
      </trkpt>
      <trkpt lat="45.76915" lon="3.6362">
        <ele>645.66</ele>
        <time>2025-12-20T11:28:19Z</time>
      </trkpt>
      <trkpt lat="45.76924" lon="3.63615">
        <ele>645.92</ele>
        <time>2025-12-20T11:28:20Z</time>
      </trkpt>
      <trkpt lat="45.76934" lon="3.63618">
        <ele>646.71</ele>
        <time>2025-12-20T11:28:21Z</time>
      </trkpt>
      <trkpt lat="45.76943" lon="3.63623">
        <ele>646.75</ele>
        <time>2025-12-20T11:28:22Z</time>
      </trkpt>
      <trkpt lat="45.76954" lon="3.63634">
        <ele>646.24</ele>
        <time>2025-12-20T11:28:24Z</time>
      </trkpt>
      <trkpt lat="45.7696" lon="3.63653">
        <ele>646.09</ele>
        <time>2025-12-20T11:28:26Z</time>
      </trkpt>
      <trkpt lat="45.76958" lon="3.63666">
        <ele>646.34</ele>
        <time>2025-12-20T11:28:27Z</time>
      </trkpt>
      <trkpt lat="45.76957" lon="3.63679">
        <ele>646.45</ele>
        <time>2025-12-20T11:28:28Z</time>
      </trkpt>
      <trkpt lat="45.76956" lon="3.63693">
        <ele>646.62</ele>
        <time>2025-12-20T11:28:29Z</time>
      </trkpt>
      <trkpt lat="45.76955" lon="3.63707">
        <ele>646.77</ele>
        <time>2025-12-20T11:28:30Z</time>
      </trkpt>
      <trkpt lat="45.76953" lon="3.63721">
        <ele>646.83</ele>
        <time>2025-12-20T11:28:31Z</time>
      </trkpt>
      <trkpt lat="45.76952" lon="3.63736">
        <ele>646.74</ele>
        <time>2025-12-20T11:28:32Z</time>
      </trkpt>
      <trkpt lat="45.7695" lon="3.63749">
        <ele>646.64</ele>
        <time>2025-12-20T11:28:33Z</time>
      </trkpt>
      <trkpt lat="45.76949" lon="3.63771">
        <ele>646.17</ele>
        <time>2025-12-20T11:28:35Z</time>
      </trkpt>
      <trkpt lat="45.76947" lon="3.63785">
        <ele>646.22</ele>
        <time>2025-12-20T11:28:37Z</time>
      </trkpt>
      <trkpt lat="45.76947" lon="3.63799">
        <ele>646.16</ele>
        <time>2025-12-20T11:28:39Z</time>
      </trkpt>
      <trkpt lat="45.76945" lon="3.63817">
        <ele>645.9</ele>
        <time>2025-12-20T11:28:41Z</time>
      </trkpt>
      <trkpt lat="45.76944" lon="3.63833">
        <ele>645.91</ele>
        <time>2025-12-20T11:28:43Z</time>
      </trkpt>
      <trkpt lat="45.76943" lon="3.63851">
        <ele>645.65</ele>
        <time>2025-12-20T11:28:45Z</time>
      </trkpt>
      <trkpt lat="45.7694" lon="3.63869">
        <ele>645.34</ele>
        <time>2025-12-20T11:28:47Z</time>
      </trkpt>
      <trkpt lat="45.76935" lon="3.63886">
        <ele>645.19</ele>
        <time>2025-12-20T11:28:49Z</time>
      </trkpt>
      <trkpt lat="45.76928" lon="3.63899">
        <ele>645.53</ele>
        <time>2025-12-20T11:28:51Z</time>
      </trkpt>
      <trkpt lat="45.76921" lon="3.63911">
        <ele>645.83</ele>
        <time>2025-12-20T11:28:53Z</time>
      </trkpt>
      <trkpt lat="45.76914" lon="3.63924">
        <ele>646.25</ele>
        <time>2025-12-20T11:28:55Z</time>
      </trkpt>
      <trkpt lat="45.76907" lon="3.63937">
        <ele>646.21</ele>
        <time>2025-12-20T11:28:57Z</time>
      </trkpt>
      <trkpt lat="45.769" lon="3.63952">
        <ele>646.76</ele>
        <time>2025-12-20T11:28:59Z</time>
      </trkpt>
      <trkpt lat="45.76892" lon="3.63966">
        <ele>647.08</ele>
        <time>2025-12-20T11:29:01Z</time>
      </trkpt>
      <trkpt lat="45.76884" lon="3.63981">
        <ele>647.01</ele>
        <time>2025-12-20T11:29:03Z</time>
      </trkpt>
      <trkpt lat="45.76875" lon="3.63998">
        <ele>647.23</ele>
        <time>2025-12-20T11:29:05Z</time>
      </trkpt>
      <trkpt lat="45.76866" lon="3.64015">
        <ele>647.33</ele>
        <time>2025-12-20T11:29:07Z</time>
      </trkpt>
      <trkpt lat="45.76855" lon="3.64033">
        <ele>647.12</ele>
        <time>2025-12-20T11:29:09Z</time>
      </trkpt>
      <trkpt lat="45.76844" lon="3.64051">
        <ele>646.99</ele>
        <time>2025-12-20T11:29:11Z</time>
      </trkpt>
      <trkpt lat="45.76834" lon="3.64069">
        <ele>646.94</ele>
        <time>2025-12-20T11:29:13Z</time>
      </trkpt>
      <trkpt lat="45.76823" lon="3.64085">
        <ele>647.14</ele>
        <time>2025-12-20T11:29:15Z</time>
      </trkpt>
      <trkpt lat="45.76812" lon="3.64102">
        <ele>647.53</ele>
        <time>2025-12-20T11:29:17Z</time>
      </trkpt>
      <trkpt lat="45.76801" lon="3.64116">
        <ele>647.22</ele>
        <time>2025-12-20T11:29:19Z</time>
      </trkpt>
      <trkpt lat="45.76793" lon="3.64129">
        <ele>647.81</ele>
        <time>2025-12-20T11:29:21Z</time>
      </trkpt>
      <trkpt lat="45.76785" lon="3.6414">
        <ele>648.48</ele>
        <time>2025-12-20T11:29:23Z</time>
      </trkpt>
      <trkpt lat="45.76777" lon="3.64151">
        <ele>648.68</ele>
        <time>2025-12-20T11:29:25Z</time>
      </trkpt>
      <trkpt lat="45.76769" lon="3.64162">
        <ele>648.89</ele>
        <time>2025-12-20T11:29:27Z</time>
      </trkpt>
      <trkpt lat="45.76761" lon="3.64171">
        <ele>649.43</ele>
        <time>2025-12-20T11:29:29Z</time>
      </trkpt>
      <trkpt lat="45.76752" lon="3.64181">
        <ele>649.42</ele>
        <time>2025-12-20T11:29:32Z</time>
      </trkpt>
      <trkpt lat="45.76746" lon="3.64192">
        <ele>650.52</ele>
        <time>2025-12-20T11:29:37Z</time>
      </trkpt>
      <trkpt lat="45.76743" lon="3.64205">
        <ele>651.42</ele>
        <time>2025-12-20T11:29:40Z</time>
      </trkpt>
      <trkpt lat="45.76744" lon="3.64219">
        <ele>652.55</ele>
        <time>2025-12-20T11:29:43Z</time>
      </trkpt>
      <trkpt lat="45.76746" lon="3.64235">
        <ele>654.15</ele>
        <time>2025-12-20T11:29:47Z</time>
      </trkpt>
      <trkpt lat="45.76748" lon="3.64247">
        <ele>655.19</ele>
        <time>2025-12-20T11:29:51Z</time>
      </trkpt>
      <trkpt lat="45.76753" lon="3.64258">
        <ele>656.13</ele>
        <time>2025-12-20T11:29:53Z</time>
      </trkpt>
      <trkpt lat="45.7676" lon="3.64272">
        <ele>658.04</ele>
        <time>2025-12-20T11:29:55Z</time>
      </trkpt>
      <trkpt lat="45.76767" lon="3.64288">
        <ele>659.11</ele>
        <time>2025-12-20T11:29:57Z</time>
      </trkpt>
      <trkpt lat="45.76776" lon="3.64302">
        <ele>660.9</ele>
        <time>2025-12-20T11:29:59Z</time>
      </trkpt>
      <trkpt lat="45.76786" lon="3.64315">
        <ele>662.75</ele>
        <time>2025-12-20T11:30:01Z</time>
      </trkpt>
      <trkpt lat="45.76801" lon="3.64316">
        <ele>664.71</ele>
        <time>2025-12-20T11:30:04Z</time>
      </trkpt>
      <trkpt lat="45.76815" lon="3.64313">
        <ele>665.43</ele>
        <time>2025-12-20T11:30:06Z</time>
      </trkpt>
      <trkpt lat="45.76829" lon="3.64311">
        <ele>665.4</ele>
        <time>2025-12-20T11:30:08Z</time>
      </trkpt>
      <trkpt lat="45.76843" lon="3.64308">
        <ele>666.94</ele>
        <time>2025-12-20T11:30:10Z</time>
      </trkpt>
      <trkpt lat="45.76858" lon="3.64304">
        <ele>668.14</ele>
        <time>2025-12-20T11:30:12Z</time>
      </trkpt>
      <trkpt lat="45.76881" lon="3.64299">
        <ele>670.32</ele>
        <time>2025-12-20T11:30:15Z</time>
      </trkpt>
      <trkpt lat="45.76897" lon="3.64296">
        <ele>671.67</ele>
        <time>2025-12-20T11:30:17Z</time>
      </trkpt>
      <trkpt lat="45.76913" lon="3.64292">
        <ele>671.97</ele>
        <time>2025-12-20T11:30:19Z</time>
      </trkpt>
      <trkpt lat="45.76922" lon="3.6429">
        <ele>671.69</ele>
        <time>2025-12-20T11:30:20Z</time>
      </trkpt>
      <trkpt lat="45.76931" lon="3.64289">
        <ele>671.34</ele>
        <time>2025-12-20T11:30:21Z</time>
      </trkpt>
      <trkpt lat="45.76941" lon="3.64287">
        <ele>670.88</ele>
        <time>2025-12-20T11:30:22Z</time>
      </trkpt>
      <trkpt lat="45.76951" lon="3.64284">
        <ele>671.11</ele>
        <time>2025-12-20T11:30:23Z</time>
      </trkpt>
      <trkpt lat="45.76961" lon="3.64283">
        <ele>671.56</ele>
        <time>2025-12-20T11:30:24Z</time>
      </trkpt>
      <trkpt lat="45.76971" lon="3.64282">
        <ele>671.82</ele>
        <time>2025-12-20T11:30:25Z</time>
      </trkpt>
      <trkpt lat="45.76981" lon="3.64282">
        <ele>671.95</ele>
        <time>2025-12-20T11:30:26Z</time>
      </trkpt>
      <trkpt lat="45.76998" lon="3.64281">
        <ele>673</ele>
        <time>2025-12-20T11:30:28Z</time>
      </trkpt>
      <trkpt lat="45.77012" lon="3.64283">
        <ele>674.11</ele>
        <time>2025-12-20T11:30:30Z</time>
      </trkpt>
      <trkpt lat="45.77026" lon="3.64284">
        <ele>675.09</ele>
        <time>2025-12-20T11:30:32Z</time>
      </trkpt>
      <trkpt lat="45.77042" lon="3.64282">
        <ele>676.94</ele>
        <time>2025-12-20T11:30:34Z</time>
      </trkpt>
      <trkpt lat="45.77057" lon="3.64278">
        <ele>677.63</ele>
        <time>2025-12-20T11:30:36Z</time>
      </trkpt>
      <trkpt lat="45.77078" lon="3.64264">
        <ele>679.53</ele>
        <time>2025-12-20T11:30:39Z</time>
      </trkpt>
      <trkpt lat="45.77093" lon="3.64254">
        <ele>680.5</ele>
        <time>2025-12-20T11:30:41Z</time>
      </trkpt>
      <trkpt lat="45.77107" lon="3.64244">
        <ele>682.22</ele>
        <time>2025-12-20T11:30:43Z</time>
      </trkpt>
      <trkpt lat="45.77119" lon="3.64232">
        <ele>683.7</ele>
        <time>2025-12-20T11:30:45Z</time>
      </trkpt>
      <trkpt lat="45.77124" lon="3.64218">
        <ele>684.89</ele>
        <time>2025-12-20T11:30:47Z</time>
      </trkpt>
      <trkpt lat="45.77129" lon="3.64205">
        <ele>686.8</ele>
        <time>2025-12-20T11:30:49Z</time>
      </trkpt>
      <trkpt lat="45.77134" lon="3.64192">
        <ele>687.84</ele>
        <time>2025-12-20T11:30:51Z</time>
      </trkpt>
      <trkpt lat="45.77143" lon="3.64183">
        <ele>689.78</ele>
        <time>2025-12-20T11:30:53Z</time>
      </trkpt>
      <trkpt lat="45.77153" lon="3.64176">
        <ele>691.6</ele>
        <time>2025-12-20T11:30:55Z</time>
      </trkpt>
      <trkpt lat="45.77165" lon="3.64168">
        <ele>692.52</ele>
        <time>2025-12-20T11:30:57Z</time>
      </trkpt>
      <trkpt lat="45.77177" lon="3.64162">
        <ele>694.06</ele>
        <time>2025-12-20T11:30:59Z</time>
      </trkpt>
      <trkpt lat="45.77191" lon="3.64156">
        <ele>695.76</ele>
        <time>2025-12-20T11:31:01Z</time>
      </trkpt>
      <trkpt lat="45.77205" lon="3.6415">
        <ele>697.34</ele>
        <time>2025-12-20T11:31:03Z</time>
      </trkpt>
      <trkpt lat="45.77219" lon="3.64144">
        <ele>698.96</ele>
        <time>2025-12-20T11:31:05Z</time>
      </trkpt>
      <trkpt lat="45.77233" lon="3.64138">
        <ele>701.02</ele>
        <time>2025-12-20T11:31:07Z</time>
      </trkpt>
      <trkpt lat="45.77247" lon="3.64133">
        <ele>702.73</ele>
        <time>2025-12-20T11:31:09Z</time>
      </trkpt>
      <trkpt lat="45.77263" lon="3.64133">
        <ele>703.93</ele>
        <time>2025-12-20T11:31:11Z</time>
      </trkpt>
      <trkpt lat="45.77277" lon="3.64134">
        <ele>706.43</ele>
        <time>2025-12-20T11:31:13Z</time>
      </trkpt>
      <trkpt lat="45.77291" lon="3.64134">
        <ele>709.23</ele>
        <time>2025-12-20T11:31:15Z</time>
      </trkpt>
      <trkpt lat="45.77306" lon="3.64133">
        <ele>711.42</ele>
        <time>2025-12-20T11:31:17Z</time>
      </trkpt>
      <trkpt lat="45.77322" lon="3.64131">
        <ele>712.49</ele>
        <time>2025-12-20T11:31:19Z</time>
      </trkpt>
      <trkpt lat="45.77338" lon="3.64128">
        <ele>714.25</ele>
        <time>2025-12-20T11:31:21Z</time>
      </trkpt>
      <trkpt lat="45.77355" lon="3.64124">
        <ele>715.2</ele>
        <time>2025-12-20T11:31:23Z</time>
      </trkpt>
      <trkpt lat="45.77364" lon="3.6412">
        <ele>715.81</ele>
        <time>2025-12-20T11:31:24Z</time>
      </trkpt>
      <trkpt lat="45.77374" lon="3.64115">
        <ele>716.32</ele>
        <time>2025-12-20T11:31:25Z</time>
      </trkpt>
      <trkpt lat="45.77383" lon="3.6411">
        <ele>716.48</ele>
        <time>2025-12-20T11:31:26Z</time>
      </trkpt>
      <trkpt lat="45.77391" lon="3.64104">
        <ele>716.34</ele>
        <time>2025-12-20T11:31:27Z</time>
      </trkpt>
      <trkpt lat="45.774" lon="3.64098">
        <ele>716.25</ele>
        <time>2025-12-20T11:31:28Z</time>
      </trkpt>
      <trkpt lat="45.77409" lon="3.64093">
        <ele>716.2</ele>
        <time>2025-12-20T11:31:29Z</time>
      </trkpt>
      <trkpt lat="45.77419" lon="3.64089">
        <ele>716.29</ele>
        <time>2025-12-20T11:31:30Z</time>
      </trkpt>
      <trkpt lat="45.77437" lon="3.64079">
        <ele>716.18</ele>
        <time>2025-12-20T11:31:32Z</time>
      </trkpt>
      <trkpt lat="45.77446" lon="3.64074">
        <ele>716.16</ele>
        <time>2025-12-20T11:31:33Z</time>
      </trkpt>
      <trkpt lat="45.77455" lon="3.6407">
        <ele>715.98</ele>
        <time>2025-12-20T11:31:34Z</time>
      </trkpt>
      <trkpt lat="45.77464" lon="3.64065">
        <ele>716.33</ele>
        <time>2025-12-20T11:31:35Z</time>
      </trkpt>
      <trkpt lat="45.77472" lon="3.6406">
        <ele>716.59</ele>
        <time>2025-12-20T11:31:36Z</time>
      </trkpt>
      <trkpt lat="45.77481" lon="3.64055">
        <ele>716.44</ele>
        <time>2025-12-20T11:31:37Z</time>
      </trkpt>
      <trkpt lat="45.77493" lon="3.64046">
        <ele>717.1</ele>
        <time>2025-12-20T11:31:39Z</time>
      </trkpt>
      <trkpt lat="45.77503" lon="3.64041">
        <ele>717.67</ele>
        <time>2025-12-20T11:31:41Z</time>
      </trkpt>
      <trkpt lat="45.77512" lon="3.6405">
        <ele>718.33</ele>
        <time>2025-12-20T11:31:44Z</time>
      </trkpt>
      <trkpt lat="45.77514" lon="3.64069">
        <ele>720.12</ele>
        <time>2025-12-20T11:31:47Z</time>
      </trkpt>
      <trkpt lat="45.77516" lon="3.64085">
        <ele>721.48</ele>
        <time>2025-12-20T11:31:49Z</time>
      </trkpt>
      <trkpt lat="45.77519" lon="3.64104">
        <ele>722.5</ele>
        <time>2025-12-20T11:31:51Z</time>
      </trkpt>
      <trkpt lat="45.77524" lon="3.6412">
        <ele>724.1</ele>
        <time>2025-12-20T11:31:53Z</time>
      </trkpt>
      <trkpt lat="45.77531" lon="3.64131">
        <ele>725.04</ele>
        <time>2025-12-20T11:31:55Z</time>
      </trkpt>
      <trkpt lat="45.7754" lon="3.64136">
        <ele>726.12</ele>
        <time>2025-12-20T11:31:57Z</time>
      </trkpt>
      <trkpt lat="45.77549" lon="3.64143">
        <ele>726.14</ele>
        <time>2025-12-20T11:32:00Z</time>
      </trkpt>
      <trkpt lat="45.7755" lon="3.64156">
        <ele>727.4</ele>
        <time>2025-12-20T11:32:24Z</time>
      </trkpt>
      <trkpt lat="45.77552" lon="3.64169">
        <ele>727.91</ele>
        <time>2025-12-20T11:32:26Z</time>
      </trkpt>
      <trkpt lat="45.77555" lon="3.64185">
        <ele>728.36</ele>
        <time>2025-12-20T11:32:28Z</time>
      </trkpt>
      <trkpt lat="45.77559" lon="3.64204">
        <ele>728.3</ele>
        <time>2025-12-20T11:32:30Z</time>
      </trkpt>
      <trkpt lat="45.77564" lon="3.64223">
        <ele>726.63</ele>
        <time>2025-12-20T11:32:32Z</time>
      </trkpt>
      <trkpt lat="45.77569" lon="3.64242">
        <ele>726.15</ele>
        <time>2025-12-20T11:32:34Z</time>
      </trkpt>
      <trkpt lat="45.77577" lon="3.64262">
        <ele>725.66</ele>
        <time>2025-12-20T11:32:36Z</time>
      </trkpt>
      <trkpt lat="45.77584" lon="3.64275">
        <ele>725.09</ele>
        <time>2025-12-20T11:32:38Z</time>
      </trkpt>
      <trkpt lat="45.77592" lon="3.64287">
        <ele>723.25</ele>
        <time>2025-12-20T11:32:41Z</time>
      </trkpt>
      <trkpt lat="45.776" lon="3.64298">
        <ele>721.98</ele>
        <time>2025-12-20T11:32:43Z</time>
      </trkpt>
      <trkpt lat="45.77607" lon="3.64316">
        <ele>719.34</ele>
        <time>2025-12-20T11:32:45Z</time>
      </trkpt>
      <trkpt lat="45.77613" lon="3.64331">
        <ele>718.37</ele>
        <time>2025-12-20T11:32:47Z</time>
      </trkpt>
      <trkpt lat="45.77617" lon="3.64347">
        <ele>717.85</ele>
        <time>2025-12-20T11:32:49Z</time>
      </trkpt>
      <trkpt lat="45.77622" lon="3.64361">
        <ele>717.88</ele>
        <time>2025-12-20T11:32:52Z</time>
      </trkpt>
      <trkpt lat="45.77629" lon="3.64371">
        <ele>717.68</ele>
        <time>2025-12-20T11:32:54Z</time>
      </trkpt>
      <trkpt lat="45.7764" lon="3.64374">
        <ele>715.83</ele>
        <time>2025-12-20T11:32:56Z</time>
      </trkpt>
      <trkpt lat="45.77651" lon="3.64372">
        <ele>715.46</ele>
        <time>2025-12-20T11:32:58Z</time>
      </trkpt>
      <trkpt lat="45.77659" lon="3.64366">
        <ele>713.05</ele>
        <time>2025-12-20T11:33:00Z</time>
      </trkpt>
      <trkpt lat="45.77669" lon="3.64358">
        <ele>710.07</ele>
        <time>2025-12-20T11:33:04Z</time>
      </trkpt>
      <trkpt lat="45.77677" lon="3.64349">
        <ele>707.63</ele>
        <time>2025-12-20T11:33:08Z</time>
      </trkpt>
      <trkpt lat="45.77687" lon="3.64358">
        <ele>705.32</ele>
        <time>2025-12-20T11:33:11Z</time>
      </trkpt>
      <trkpt lat="45.77694" lon="3.64366">
        <ele>703.84</ele>
        <time>2025-12-20T11:33:13Z</time>
      </trkpt>
      <trkpt lat="45.77704" lon="3.64377">
        <ele>702.9</ele>
        <time>2025-12-20T11:33:16Z</time>
      </trkpt>
      <trkpt lat="45.77715" lon="3.64387">
        <ele>701.03</ele>
        <time>2025-12-20T11:33:19Z</time>
      </trkpt>
      <trkpt lat="45.7772" lon="3.644">
        <ele>703</ele>
        <time>2025-12-20T11:33:22Z</time>
      </trkpt>
      <trkpt lat="45.77718" lon="3.64413">
        <ele>703.76</ele>
        <time>2025-12-20T11:33:24Z</time>
      </trkpt>
      <trkpt lat="45.77714" lon="3.64426">
        <ele>704.15</ele>
        <time>2025-12-20T11:33:26Z</time>
      </trkpt>
      <trkpt lat="45.77708" lon="3.64442">
        <ele>704.7</ele>
        <time>2025-12-20T11:33:29Z</time>
      </trkpt>
      <trkpt lat="45.77704" lon="3.64456">
        <ele>705.03</ele>
        <time>2025-12-20T11:33:31Z</time>
      </trkpt>
      <trkpt lat="45.77698" lon="3.64473">
        <ele>704.6</ele>
        <time>2025-12-20T11:33:34Z</time>
      </trkpt>
      <trkpt lat="45.77695" lon="3.64485">
        <ele>704.39</ele>
        <time>2025-12-20T11:33:36Z</time>
      </trkpt>
      <trkpt lat="45.77693" lon="3.645">
        <ele>704.93</ele>
        <time>2025-12-20T11:33:38Z</time>
      </trkpt>
      <trkpt lat="45.7769" lon="3.64514">
        <ele>705.25</ele>
        <time>2025-12-20T11:33:40Z</time>
      </trkpt>
      <trkpt lat="45.77685" lon="3.64525">
        <ele>706.4</ele>
        <time>2025-12-20T11:33:42Z</time>
      </trkpt>
      <trkpt lat="45.77682" lon="3.64537">
        <ele>707.6</ele>
        <time>2025-12-20T11:33:44Z</time>
      </trkpt>
      <trkpt lat="45.77677" lon="3.64551">
        <ele>709.56</ele>
        <time>2025-12-20T11:33:46Z</time>
      </trkpt>
      <trkpt lat="45.77676" lon="3.64566">
        <ele>710.8</ele>
        <time>2025-12-20T11:33:48Z</time>
      </trkpt>
      <trkpt lat="45.77676" lon="3.64581">
        <ele>712.9</ele>
        <time>2025-12-20T11:33:50Z</time>
      </trkpt>
      <trkpt lat="45.77675" lon="3.64598">
        <ele>714.24</ele>
        <time>2025-12-20T11:33:52Z</time>
      </trkpt>
      <trkpt lat="45.77677" lon="3.64612">
        <ele>715.24</ele>
        <time>2025-12-20T11:33:54Z</time>
      </trkpt>
      <trkpt lat="45.7769" lon="3.64612">
        <ele>717.89</ele>
        <time>2025-12-20T11:33:59Z</time>
      </trkpt>
      <trkpt lat="45.77702" lon="3.64605">
        <ele>718.67</ele>
        <time>2025-12-20T11:34:01Z</time>
      </trkpt>
      <trkpt lat="45.77714" lon="3.64596">
        <ele>719.42</ele>
        <time>2025-12-20T11:34:03Z</time>
      </trkpt>
      <trkpt lat="45.77726" lon="3.64586">
        <ele>720.46</ele>
        <time>2025-12-20T11:34:05Z</time>
      </trkpt>
      <trkpt lat="45.77741" lon="3.64577">
        <ele>722.31</ele>
        <time>2025-12-20T11:34:07Z</time>
      </trkpt>
      <trkpt lat="45.77756" lon="3.64567">
        <ele>724.2</ele>
        <time>2025-12-20T11:34:09Z</time>
      </trkpt>
      <trkpt lat="45.77768" lon="3.64555">
        <ele>725.89</ele>
        <time>2025-12-20T11:34:11Z</time>
      </trkpt>
      <trkpt lat="45.7778" lon="3.64543">
        <ele>727.31</ele>
        <time>2025-12-20T11:34:13Z</time>
      </trkpt>
      <trkpt lat="45.77794" lon="3.64537">
        <ele>728.42</ele>
        <time>2025-12-20T11:34:15Z</time>
      </trkpt>
      <trkpt lat="45.77808" lon="3.64547">
        <ele>730.72</ele>
        <time>2025-12-20T11:34:17Z</time>
      </trkpt>
      <trkpt lat="45.77819" lon="3.64563">
        <ele>732.78</ele>
        <time>2025-12-20T11:34:19Z</time>
      </trkpt>
      <trkpt lat="45.77832" lon="3.64579">
        <ele>734.06</ele>
        <time>2025-12-20T11:34:21Z</time>
      </trkpt>
      <trkpt lat="45.7784" lon="3.64587">
        <ele>734.56</ele>
        <time>2025-12-20T11:34:22Z</time>
      </trkpt>
      <trkpt lat="45.77848" lon="3.64594">
        <ele>735.08</ele>
        <time>2025-12-20T11:34:23Z</time>
      </trkpt>
      <trkpt lat="45.77864" lon="3.64606">
        <ele>735</ele>
        <time>2025-12-20T11:34:25Z</time>
      </trkpt>
      <trkpt lat="45.77872" lon="3.64612">
        <ele>735.47</ele>
        <time>2025-12-20T11:34:26Z</time>
      </trkpt>
      <trkpt lat="45.7788" lon="3.64619">
        <ele>736.04</ele>
        <time>2025-12-20T11:34:27Z</time>
      </trkpt>
      <trkpt lat="45.77895" lon="3.64634">
        <ele>736.84</ele>
        <time>2025-12-20T11:34:29Z</time>
      </trkpt>
      <trkpt lat="45.77903" lon="3.64642">
        <ele>737.01</ele>
        <time>2025-12-20T11:34:30Z</time>
      </trkpt>
      <trkpt lat="45.7791" lon="3.6465">
        <ele>737.19</ele>
        <time>2025-12-20T11:34:31Z</time>
      </trkpt>
      <trkpt lat="45.77918" lon="3.64658">
        <ele>737.49</ele>
        <time>2025-12-20T11:34:32Z</time>
      </trkpt>
      <trkpt lat="45.77926" lon="3.64666">
        <ele>737.49</ele>
        <time>2025-12-20T11:34:33Z</time>
      </trkpt>
      <trkpt lat="45.77934" lon="3.64674">
        <ele>737.74</ele>
        <time>2025-12-20T11:34:34Z</time>
      </trkpt>
      <trkpt lat="45.77941" lon="3.64682">
        <ele>738.02</ele>
        <time>2025-12-20T11:34:35Z</time>
      </trkpt>
      <trkpt lat="45.77955" lon="3.64696">
        <ele>738.57</ele>
        <time>2025-12-20T11:34:37Z</time>
      </trkpt>
      <trkpt lat="45.77966" lon="3.64709">
        <ele>739.28</ele>
        <time>2025-12-20T11:34:39Z</time>
      </trkpt>
      <trkpt lat="45.77976" lon="3.64722">
        <ele>740.62</ele>
        <time>2025-12-20T11:34:41Z</time>
      </trkpt>
      <trkpt lat="45.77985" lon="3.64735">
        <ele>741.61</ele>
        <time>2025-12-20T11:34:43Z</time>
      </trkpt>
      <trkpt lat="45.77992" lon="3.6475">
        <ele>742.1</ele>
        <time>2025-12-20T11:34:46Z</time>
      </trkpt>
      <trkpt lat="45.77999" lon="3.64765">
        <ele>742.74</ele>
        <time>2025-12-20T11:34:49Z</time>
      </trkpt>
      <trkpt lat="45.78004" lon="3.64783">
        <ele>743.3</ele>
        <time>2025-12-20T11:34:52Z</time>
      </trkpt>
      <trkpt lat="45.78004" lon="3.64796">
        <ele>743.94</ele>
        <time>2025-12-20T11:34:54Z</time>
      </trkpt>
      <trkpt lat="45.78" lon="3.6481">
        <ele>744.4</ele>
        <time>2025-12-20T11:34:56Z</time>
      </trkpt>
      <trkpt lat="45.77995" lon="3.64828">
        <ele>744.73</ele>
        <time>2025-12-20T11:34:58Z</time>
      </trkpt>
      <trkpt lat="45.77991" lon="3.64843">
        <ele>744.05</ele>
        <time>2025-12-20T11:35:00Z</time>
      </trkpt>
      <trkpt lat="45.77987" lon="3.64856">
        <ele>743.56</ele>
        <time>2025-12-20T11:35:02Z</time>
      </trkpt>
      <trkpt lat="45.77985" lon="3.64871">
        <ele>742.47</ele>
        <time>2025-12-20T11:35:04Z</time>
      </trkpt>
      <trkpt lat="45.77984" lon="3.64886">
        <ele>741.82</ele>
        <time>2025-12-20T11:35:06Z</time>
      </trkpt>
      <trkpt lat="45.77983" lon="3.649">
        <ele>741.27</ele>
        <time>2025-12-20T11:35:08Z</time>
      </trkpt>
      <trkpt lat="45.77981" lon="3.64916">
        <ele>739.88</ele>
        <time>2025-12-20T11:35:10Z</time>
      </trkpt>
      <trkpt lat="45.77977" lon="3.64933">
        <ele>737.66</ele>
        <time>2025-12-20T11:35:12Z</time>
      </trkpt>
      <trkpt lat="45.7797" lon="3.64943">
        <ele>735.88</ele>
        <time>2025-12-20T11:35:14Z</time>
      </trkpt>
      <trkpt lat="45.77958" lon="3.64944">
        <ele>734.81</ele>
        <time>2025-12-20T11:35:16Z</time>
      </trkpt>
      <trkpt lat="45.77945" lon="3.64945">
        <ele>732.41</ele>
        <time>2025-12-20T11:35:18Z</time>
      </trkpt>
      <trkpt lat="45.77934" lon="3.64952">
        <ele>731.33</ele>
        <time>2025-12-20T11:35:20Z</time>
      </trkpt>
      <trkpt lat="45.77926" lon="3.64964">
        <ele>729.55</ele>
        <time>2025-12-20T11:35:22Z</time>
      </trkpt>
      <trkpt lat="45.77918" lon="3.64979">
        <ele>728.27</ele>
        <time>2025-12-20T11:35:24Z</time>
      </trkpt>
      <trkpt lat="45.77911" lon="3.64993">
        <ele>727.01</ele>
        <time>2025-12-20T11:35:26Z</time>
      </trkpt>
      <trkpt lat="45.77904" lon="3.65007">
        <ele>725.34</ele>
        <time>2025-12-20T11:35:28Z</time>
      </trkpt>
      <trkpt lat="45.77895" lon="3.6502">
        <ele>723.93</ele>
        <time>2025-12-20T11:35:30Z</time>
      </trkpt>
      <trkpt lat="45.77886" lon="3.65035">
        <ele>723.08</ele>
        <time>2025-12-20T11:35:32Z</time>
      </trkpt>
      <trkpt lat="45.77878" lon="3.65047">
        <ele>721.98</ele>
        <time>2025-12-20T11:35:34Z</time>
      </trkpt>
      <trkpt lat="45.77872" lon="3.65062">
        <ele>722.06</ele>
        <time>2025-12-20T11:35:36Z</time>
      </trkpt>
      <trkpt lat="45.7787" lon="3.65077">
        <ele>722.95</ele>
        <time>2025-12-20T11:35:38Z</time>
      </trkpt>
      <trkpt lat="45.77871" lon="3.65092">
        <ele>724.76</ele>
        <time>2025-12-20T11:35:40Z</time>
      </trkpt>
      <trkpt lat="45.77871" lon="3.65105">
        <ele>726.08</ele>
        <time>2025-12-20T11:35:42Z</time>
      </trkpt>
      <trkpt lat="45.77872" lon="3.6512">
        <ele>727.66</ele>
        <time>2025-12-20T11:35:44Z</time>
      </trkpt>
      <trkpt lat="45.77874" lon="3.65134">
        <ele>730.1</ele>
        <time>2025-12-20T11:35:46Z</time>
      </trkpt>
      <trkpt lat="45.77874" lon="3.65149">
        <ele>732.8</ele>
        <time>2025-12-20T11:35:48Z</time>
      </trkpt>
      <trkpt lat="45.77876" lon="3.65167">
        <ele>734.15</ele>
        <time>2025-12-20T11:35:50Z</time>
      </trkpt>
      <trkpt lat="45.77876" lon="3.65189">
        <ele>735.12</ele>
        <time>2025-12-20T11:35:52Z</time>
      </trkpt>
      <trkpt lat="45.77868" lon="3.65211">
        <ele>736.82</ele>
        <time>2025-12-20T11:35:54Z</time>
      </trkpt>
      <trkpt lat="45.77856" lon="3.65229">
        <ele>738.23</ele>
        <time>2025-12-20T11:35:56Z</time>
      </trkpt>
      <trkpt lat="45.77843" lon="3.65234">
        <ele>738.09</ele>
        <time>2025-12-20T11:35:58Z</time>
      </trkpt>
      <trkpt lat="45.77829" lon="3.65232">
        <ele>740.21</ele>
        <time>2025-12-20T11:36:00Z</time>
      </trkpt>
      <trkpt lat="45.77815" lon="3.65229">
        <ele>741.48</ele>
        <time>2025-12-20T11:36:02Z</time>
      </trkpt>
      <trkpt lat="45.77802" lon="3.65226">
        <ele>741.61</ele>
        <time>2025-12-20T11:36:04Z</time>
      </trkpt>
      <trkpt lat="45.77792" lon="3.65227">
        <ele>742.03</ele>
        <time>2025-12-20T11:36:06Z</time>
      </trkpt>
      <trkpt lat="45.77785" lon="3.6524">
        <ele>742.81</ele>
        <time>2025-12-20T11:36:08Z</time>
      </trkpt>
      <trkpt lat="45.77778" lon="3.65258">
        <ele>743.37</ele>
        <time>2025-12-20T11:36:10Z</time>
      </trkpt>
      <trkpt lat="45.7777" lon="3.65277">
        <ele>743.98</ele>
        <time>2025-12-20T11:36:12Z</time>
      </trkpt>
      <trkpt lat="45.77763" lon="3.65296">
        <ele>745.02</ele>
        <time>2025-12-20T11:36:14Z</time>
      </trkpt>
      <trkpt lat="45.77756" lon="3.65315">
        <ele>746.41</ele>
        <time>2025-12-20T11:36:16Z</time>
      </trkpt>
      <trkpt lat="45.77749" lon="3.65333">
        <ele>747.99</ele>
        <time>2025-12-20T11:36:18Z</time>
      </trkpt>
      <trkpt lat="45.77743" lon="3.65349">
        <ele>748.41</ele>
        <time>2025-12-20T11:36:20Z</time>
      </trkpt>
      <trkpt lat="45.77738" lon="3.65363">
        <ele>749.76</ele>
        <time>2025-12-20T11:36:22Z</time>
      </trkpt>
      <trkpt lat="45.77731" lon="3.65377">
        <ele>750.93</ele>
        <time>2025-12-20T11:36:24Z</time>
      </trkpt>
      <trkpt lat="45.77724" lon="3.65386">
        <ele>752.74</ele>
        <time>2025-12-20T11:36:26Z</time>
      </trkpt>
      <trkpt lat="45.77714" lon="3.65392">
        <ele>754.47</ele>
        <time>2025-12-20T11:36:30Z</time>
      </trkpt>
      <trkpt lat="45.77715" lon="3.65408">
        <ele>757.44</ele>
        <time>2025-12-20T11:36:45Z</time>
      </trkpt>
      <trkpt lat="45.77723" lon="3.6542">
        <ele>758.92</ele>
        <time>2025-12-20T11:36:49Z</time>
      </trkpt>
      <trkpt lat="45.77732" lon="3.65428">
        <ele>760.23</ele>
        <time>2025-12-20T11:36:55Z</time>
      </trkpt>
      <trkpt lat="45.77738" lon="3.6544">
        <ele>760.89</ele>
        <time>2025-12-20T11:37:00Z</time>
      </trkpt>
      <trkpt lat="45.77742" lon="3.65452">
        <ele>762.92</ele>
        <time>2025-12-20T11:37:05Z</time>
      </trkpt>
      <trkpt lat="45.77745" lon="3.65468">
        <ele>765.24</ele>
        <time>2025-12-20T11:37:12Z</time>
      </trkpt>
      <trkpt lat="45.77749" lon="3.6548">
        <ele>766.31</ele>
        <time>2025-12-20T11:37:15Z</time>
      </trkpt>
      <trkpt lat="45.77755" lon="3.65491">
        <ele>768.15</ele>
        <time>2025-12-20T11:37:19Z</time>
      </trkpt>
      <trkpt lat="45.77763" lon="3.65502">
        <ele>770.75</ele>
        <time>2025-12-20T11:37:24Z</time>
      </trkpt>
      <trkpt lat="45.77772" lon="3.65507">
        <ele>771.99</ele>
        <time>2025-12-20T11:37:28Z</time>
      </trkpt>
      <trkpt lat="45.77781" lon="3.65511">
        <ele>775.43</ele>
        <time>2025-12-20T11:37:54Z</time>
      </trkpt>
      <trkpt lat="45.77792" lon="3.65521">
        <ele>775.23</ele>
        <time>2025-12-20T11:37:57Z</time>
      </trkpt>
      <trkpt lat="45.77802" lon="3.65526">
        <ele>776</ele>
        <time>2025-12-20T11:38:08Z</time>
      </trkpt>
      <trkpt lat="45.77811" lon="3.65528">
        <ele>777.64</ele>
        <time>2025-12-20T11:38:34Z</time>
      </trkpt>
      <trkpt lat="45.77822" lon="3.65532">
        <ele>777.95</ele>
        <time>2025-12-20T11:38:38Z</time>
      </trkpt>
      <trkpt lat="45.77831" lon="3.65534">
        <ele>778.96</ele>
        <time>2025-12-20T11:38:41Z</time>
      </trkpt>
      <trkpt lat="45.7784" lon="3.65535">
        <ele>779.09</ele>
        <time>2025-12-20T11:38:44Z</time>
      </trkpt>
      <trkpt lat="45.7785" lon="3.65536">
        <ele>780.27</ele>
        <time>2025-12-20T11:38:47Z</time>
      </trkpt>
      <trkpt lat="45.77859" lon="3.65539">
        <ele>782.11</ele>
        <time>2025-12-20T11:38:54Z</time>
      </trkpt>
      <trkpt lat="45.77869" lon="3.6554">
        <ele>785.13</ele>
        <time>2025-12-20T11:39:00Z</time>
      </trkpt>
      <trkpt lat="45.77878" lon="3.65543">
        <ele>787.13</ele>
        <time>2025-12-20T11:39:05Z</time>
      </trkpt>
      <trkpt lat="45.77886" lon="3.6555">
        <ele>789.13</ele>
        <time>2025-12-20T11:39:09Z</time>
      </trkpt>
      <trkpt lat="45.77896" lon="3.65553">
        <ele>790.2</ele>
        <time>2025-12-20T11:39:13Z</time>
      </trkpt>
      <trkpt lat="45.77906" lon="3.65555">
        <ele>791.88</ele>
        <time>2025-12-20T11:39:18Z</time>
      </trkpt>
      <trkpt lat="45.77917" lon="3.65561">
        <ele>795.05</ele>
        <time>2025-12-20T11:39:23Z</time>
      </trkpt>
      <trkpt lat="45.77928" lon="3.6557">
        <ele>794.73</ele>
        <time>2025-12-20T11:39:26Z</time>
      </trkpt>
      <trkpt lat="45.77937" lon="3.6558">
        <ele>795.45</ele>
        <time>2025-12-20T11:39:28Z</time>
      </trkpt>
      <trkpt lat="45.77943" lon="3.65591">
        <ele>795.72</ele>
        <time>2025-12-20T11:39:30Z</time>
      </trkpt>
      <trkpt lat="45.7795" lon="3.65605">
        <ele>796.78</ele>
        <time>2025-12-20T11:39:33Z</time>
      </trkpt>
      <trkpt lat="45.77957" lon="3.65621">
        <ele>796.7</ele>
        <time>2025-12-20T11:39:36Z</time>
      </trkpt>
      <trkpt lat="45.77962" lon="3.65634">
        <ele>797.71</ele>
        <time>2025-12-20T11:39:39Z</time>
      </trkpt>
      <trkpt lat="45.77968" lon="3.65645">
        <ele>801.11</ele>
        <time>2025-12-20T11:39:42Z</time>
      </trkpt>
      <trkpt lat="45.77979" lon="3.6565">
        <ele>805.68</ele>
        <time>2025-12-20T11:39:47Z</time>
      </trkpt>
      <trkpt lat="45.77991" lon="3.6565">
        <ele>808.57</ele>
        <time>2025-12-20T11:39:50Z</time>
      </trkpt>
      <trkpt lat="45.78002" lon="3.6565">
        <ele>811.11</ele>
        <time>2025-12-20T11:39:54Z</time>
      </trkpt>
      <trkpt lat="45.78012" lon="3.65654">
        <ele>812.34</ele>
        <time>2025-12-20T11:39:57Z</time>
      </trkpt>
      <trkpt lat="45.78022" lon="3.65656">
        <ele>814.23</ele>
        <time>2025-12-20T11:39:59Z</time>
      </trkpt>
      <trkpt lat="45.78033" lon="3.65655">
        <ele>814.73</ele>
        <time>2025-12-20T11:40:01Z</time>
      </trkpt>
      <trkpt lat="45.78043" lon="3.65656">
        <ele>816.84</ele>
        <time>2025-12-20T11:40:03Z</time>
      </trkpt>
      <trkpt lat="45.78054" lon="3.65658">
        <ele>817.95</ele>
        <time>2025-12-20T11:40:05Z</time>
      </trkpt>
      <trkpt lat="45.78065" lon="3.65659">
        <ele>818.04</ele>
        <time>2025-12-20T11:40:07Z</time>
      </trkpt>
      <trkpt lat="45.78077" lon="3.65661">
        <ele>819.45</ele>
        <time>2025-12-20T11:40:09Z</time>
      </trkpt>
      <trkpt lat="45.78093" lon="3.65662">
        <ele>820.53</ele>
        <time>2025-12-20T11:40:11Z</time>
      </trkpt>
      <trkpt lat="45.78109" lon="3.65669">
        <ele>820.49</ele>
        <time>2025-12-20T11:40:13Z</time>
      </trkpt>
      <trkpt lat="45.78124" lon="3.65678">
        <ele>821.57</ele>
        <time>2025-12-20T11:40:15Z</time>
      </trkpt>
      <trkpt lat="45.7814" lon="3.65686">
        <ele>822.49</ele>
        <time>2025-12-20T11:40:17Z</time>
      </trkpt>
      <trkpt lat="45.78156" lon="3.65692">
        <ele>823.45</ele>
        <time>2025-12-20T11:40:19Z</time>
      </trkpt>
      <trkpt lat="45.78171" lon="3.65698">
        <ele>824.51</ele>
        <time>2025-12-20T11:40:21Z</time>
      </trkpt>
      <trkpt lat="45.78185" lon="3.65707">
        <ele>826.04</ele>
        <time>2025-12-20T11:40:23Z</time>
      </trkpt>
      <trkpt lat="45.782" lon="3.65723">
        <ele>827.29</ele>
        <time>2025-12-20T11:40:25Z</time>
      </trkpt>
      <trkpt lat="45.78211" lon="3.65736">
        <ele>827.63</ele>
        <time>2025-12-20T11:40:27Z</time>
      </trkpt>
      <trkpt lat="45.7822" lon="3.65747">
        <ele>828.67</ele>
        <time>2025-12-20T11:40:29Z</time>
      </trkpt>
      <trkpt lat="45.7823" lon="3.65759">
        <ele>829.38</ele>
        <time>2025-12-20T11:40:31Z</time>
      </trkpt>
      <trkpt lat="45.7824" lon="3.65774">
        <ele>830.84</ele>
        <time>2025-12-20T11:40:33Z</time>
      </trkpt>
      <trkpt lat="45.78248" lon="3.65786">
        <ele>832.61</ele>
        <time>2025-12-20T11:40:35Z</time>
      </trkpt>
      <trkpt lat="45.78255" lon="3.65797">
        <ele>833.97</ele>
        <time>2025-12-20T11:40:37Z</time>
      </trkpt>
      <trkpt lat="45.78263" lon="3.65812">
        <ele>836.09</ele>
        <time>2025-12-20T11:40:39Z</time>
      </trkpt>
      <trkpt lat="45.7827" lon="3.65826">
        <ele>837.72</ele>
        <time>2025-12-20T11:40:41Z</time>
      </trkpt>
      <trkpt lat="45.78277" lon="3.65841">
        <ele>839.56</ele>
        <time>2025-12-20T11:40:43Z</time>
      </trkpt>
      <trkpt lat="45.78282" lon="3.65857">
        <ele>841.39</ele>
        <time>2025-12-20T11:40:45Z</time>
      </trkpt>
      <trkpt lat="45.78288" lon="3.65875">
        <ele>843.19</ele>
        <time>2025-12-20T11:40:47Z</time>
      </trkpt>
      <trkpt lat="45.78293" lon="3.65891">
        <ele>845.06</ele>
        <time>2025-12-20T11:40:49Z</time>
      </trkpt>
      <trkpt lat="45.78301" lon="3.65918">
        <ele>847.33</ele>
        <time>2025-12-20T11:40:52Z</time>
      </trkpt>
      <trkpt lat="45.78306" lon="3.65945">
        <ele>851.97</ele>
        <time>2025-12-20T11:40:55Z</time>
      </trkpt>
      <trkpt lat="45.78309" lon="3.6597">
        <ele>854.85</ele>
        <time>2025-12-20T11:40:58Z</time>
      </trkpt>
      <trkpt lat="45.78312" lon="3.65991">
        <ele>855.78</ele>
        <time>2025-12-20T11:41:00Z</time>
      </trkpt>
      <trkpt lat="45.78315" lon="3.6601">
        <ele>858.22</ele>
        <time>2025-12-20T11:41:02Z</time>
      </trkpt>
      <trkpt lat="45.78318" lon="3.66031">
        <ele>859.59</ele>
        <time>2025-12-20T11:41:04Z</time>
      </trkpt>
      <trkpt lat="45.78324" lon="3.6605">
        <ele>861.41</ele>
        <time>2025-12-20T11:41:06Z</time>
      </trkpt>
      <trkpt lat="45.78327" lon="3.66065">
        <ele>862.86</ele>
        <time>2025-12-20T11:41:08Z</time>
      </trkpt>
      <trkpt lat="45.7833" lon="3.66086">
        <ele>865</ele>
        <time>2025-12-20T11:41:11Z</time>
      </trkpt>
      <trkpt lat="45.78333" lon="3.66105">
        <ele>867.24</ele>
        <time>2025-12-20T11:41:14Z</time>
      </trkpt>
      <trkpt lat="45.78335" lon="3.66118">
        <ele>868.58</ele>
        <time>2025-12-20T11:41:16Z</time>
      </trkpt>
      <trkpt lat="45.78335" lon="3.66132">
        <ele>870.19</ele>
        <time>2025-12-20T11:41:18Z</time>
      </trkpt>
      <trkpt lat="45.78335" lon="3.66145">
        <ele>871.65</ele>
        <time>2025-12-20T11:41:20Z</time>
      </trkpt>
      <trkpt lat="45.78335" lon="3.66159">
        <ele>873.19</ele>
        <time>2025-12-20T11:41:22Z</time>
      </trkpt>
      <trkpt lat="45.78335" lon="3.66174">
        <ele>874.9</ele>
        <time>2025-12-20T11:41:24Z</time>
      </trkpt>
      <trkpt lat="45.78337" lon="3.66189">
        <ele>875.27</ele>
        <time>2025-12-20T11:41:26Z</time>
      </trkpt>
      <trkpt lat="45.78339" lon="3.66203">
        <ele>877.64</ele>
        <time>2025-12-20T11:41:28Z</time>
      </trkpt>
      <trkpt lat="45.7834" lon="3.6622">
        <ele>879.25</ele>
        <time>2025-12-20T11:41:30Z</time>
      </trkpt>
      <trkpt lat="45.7834" lon="3.66237">
        <ele>880.78</ele>
        <time>2025-12-20T11:41:32Z</time>
      </trkpt>
      <trkpt lat="45.78339" lon="3.66255">
        <ele>881.58</ele>
        <time>2025-12-20T11:41:34Z</time>
      </trkpt>
      <trkpt lat="45.78337" lon="3.66273">
        <ele>884.09</ele>
        <time>2025-12-20T11:41:37Z</time>
      </trkpt>
      <trkpt lat="45.78338" lon="3.66288">
        <ele>886.95</ele>
        <time>2025-12-20T11:41:39Z</time>
      </trkpt>
      <trkpt lat="45.78339" lon="3.66307">
        <ele>887.58</ele>
        <time>2025-12-20T11:41:41Z</time>
      </trkpt>
      <trkpt lat="45.78341" lon="3.66326">
        <ele>889.13</ele>
        <time>2025-12-20T11:41:43Z</time>
      </trkpt>
      <trkpt lat="45.78345" lon="3.66342">
        <ele>889.85</ele>
        <time>2025-12-20T11:41:45Z</time>
      </trkpt>
      <trkpt lat="45.7835" lon="3.66354">
        <ele>890.42</ele>
        <time>2025-12-20T11:41:47Z</time>
      </trkpt>
      <trkpt lat="45.78355" lon="3.66366">
        <ele>891.07</ele>
        <time>2025-12-20T11:41:49Z</time>
      </trkpt>
      <trkpt lat="45.78359" lon="3.66378">
        <ele>891.75</ele>
        <time>2025-12-20T11:41:51Z</time>
      </trkpt>
      <trkpt lat="45.78363" lon="3.66391">
        <ele>892.81</ele>
        <time>2025-12-20T11:41:53Z</time>
      </trkpt>
      <trkpt lat="45.78367" lon="3.66403">
        <ele>893.33</ele>
        <time>2025-12-20T11:41:55Z</time>
      </trkpt>
      <trkpt lat="45.78372" lon="3.66419">
        <ele>894.47</ele>
        <time>2025-12-20T11:41:58Z</time>
      </trkpt>
      <trkpt lat="45.78376" lon="3.66437">
        <ele>896.19</ele>
        <time>2025-12-20T11:42:01Z</time>
      </trkpt>
      <trkpt lat="45.78379" lon="3.66455">
        <ele>898.44</ele>
        <time>2025-12-20T11:42:04Z</time>
      </trkpt>
      <trkpt lat="45.78381" lon="3.66468">
        <ele>899.47</ele>
        <time>2025-12-20T11:42:06Z</time>
      </trkpt>
      <trkpt lat="45.78383" lon="3.66481">
        <ele>900.86</ele>
        <time>2025-12-20T11:42:08Z</time>
      </trkpt>
      <trkpt lat="45.78387" lon="3.66499">
        <ele>903.3</ele>
        <time>2025-12-20T11:42:11Z</time>
      </trkpt>
      <trkpt lat="45.78389" lon="3.66513">
        <ele>905.27</ele>
        <time>2025-12-20T11:42:13Z</time>
      </trkpt>
      <trkpt lat="45.78391" lon="3.66525">
        <ele>906.78</ele>
        <time>2025-12-20T11:42:15Z</time>
      </trkpt>
      <trkpt lat="45.78387" lon="3.66544">
        <ele>909.71</ele>
        <time>2025-12-20T11:42:18Z</time>
      </trkpt>
      <trkpt lat="45.78381" lon="3.66556">
        <ele>911.93</ele>
        <time>2025-12-20T11:42:20Z</time>
      </trkpt>
      <trkpt lat="45.78375" lon="3.6657">
        <ele>914.46</ele>
        <time>2025-12-20T11:42:22Z</time>
      </trkpt>
      <trkpt lat="45.78372" lon="3.66583">
        <ele>916.49</ele>
        <time>2025-12-20T11:42:24Z</time>
      </trkpt>
      <trkpt lat="45.78369" lon="3.66598">
        <ele>918.77</ele>
        <time>2025-12-20T11:42:26Z</time>
      </trkpt>
      <trkpt lat="45.78367" lon="3.66613">
        <ele>920.97</ele>
        <time>2025-12-20T11:42:28Z</time>
      </trkpt>
      <trkpt lat="45.78363" lon="3.6663">
        <ele>923.03</ele>
        <time>2025-12-20T11:42:30Z</time>
      </trkpt>
      <trkpt lat="45.78357" lon="3.66646">
        <ele>924.64</ele>
        <time>2025-12-20T11:42:32Z</time>
      </trkpt>
      <trkpt lat="45.78348" lon="3.66661">
        <ele>925.58</ele>
        <time>2025-12-20T11:42:34Z</time>
      </trkpt>
      <trkpt lat="45.78335" lon="3.66685">
        <ele>926.31</ele>
        <time>2025-12-20T11:42:36Z</time>
      </trkpt>
      <trkpt lat="45.78329" lon="3.66709">
        <ele>926.94</ele>
        <time>2025-12-20T11:42:38Z</time>
      </trkpt>
      <trkpt lat="45.78327" lon="3.66725">
        <ele>927.05</ele>
        <time>2025-12-20T11:42:39Z</time>
      </trkpt>
      <trkpt lat="45.78327" lon="3.66741">
        <ele>927.48</ele>
        <time>2025-12-20T11:42:40Z</time>
      </trkpt>
      <trkpt lat="45.78327" lon="3.66758">
        <ele>927.64</ele>
        <time>2025-12-20T11:42:41Z</time>
      </trkpt>
      <trkpt lat="45.78329" lon="3.66774">
        <ele>927.89</ele>
        <time>2025-12-20T11:42:42Z</time>
      </trkpt>
      <trkpt lat="45.78331" lon="3.6679">
        <ele>927.96</ele>
        <time>2025-12-20T11:42:43Z</time>
      </trkpt>
      <trkpt lat="45.78335" lon="3.66804">
        <ele>927.9</ele>
        <time>2025-12-20T11:42:44Z</time>
      </trkpt>
      <trkpt lat="45.78343" lon="3.66815">
        <ele>928.24</ele>
        <time>2025-12-20T11:42:45Z</time>
      </trkpt>
      <trkpt lat="45.78351" lon="3.66824">
        <ele>928.23</ele>
        <time>2025-12-20T11:42:46Z</time>
      </trkpt>
      <trkpt lat="45.78359" lon="3.66833">
        <ele>928.06</ele>
        <time>2025-12-20T11:42:47Z</time>
      </trkpt>
      <trkpt lat="45.78367" lon="3.66843">
        <ele>928.16</ele>
        <time>2025-12-20T11:42:48Z</time>
      </trkpt>
      <trkpt lat="45.78374" lon="3.66855">
        <ele>928.03</ele>
        <time>2025-12-20T11:42:49Z</time>
      </trkpt>
      <trkpt lat="45.7838" lon="3.66867">
        <ele>927.87</ele>
        <time>2025-12-20T11:42:50Z</time>
      </trkpt>
      <trkpt lat="45.78386" lon="3.6688">
        <ele>927.68</ele>
        <time>2025-12-20T11:42:51Z</time>
      </trkpt>
      <trkpt lat="45.78386" lon="3.66907">
        <ele>926.57</ele>
        <time>2025-12-20T11:42:53Z</time>
      </trkpt>
      <trkpt lat="45.78379" lon="3.66921">
        <ele>926.14</ele>
        <time>2025-12-20T11:42:54Z</time>
      </trkpt>
      <trkpt lat="45.78373" lon="3.66934">
        <ele>925.83</ele>
        <time>2025-12-20T11:42:55Z</time>
      </trkpt>
      <trkpt lat="45.78368" lon="3.66948">
        <ele>925.47</ele>
        <time>2025-12-20T11:42:56Z</time>
      </trkpt>
      <trkpt lat="45.7836" lon="3.66958">
        <ele>925.46</ele>
        <time>2025-12-20T11:42:57Z</time>
      </trkpt>
      <trkpt lat="45.78353" lon="3.66969">
        <ele>925.33</ele>
        <time>2025-12-20T11:42:58Z</time>
      </trkpt>
      <trkpt lat="45.78347" lon="3.6698">
        <ele>925.17</ele>
        <time>2025-12-20T11:42:59Z</time>
      </trkpt>
      <trkpt lat="45.78342" lon="3.66994">
        <ele>924.93</ele>
        <time>2025-12-20T11:43:00Z</time>
      </trkpt>
      <trkpt lat="45.78336" lon="3.67006">
        <ele>924.98</ele>
        <time>2025-12-20T11:43:01Z</time>
      </trkpt>
      <trkpt lat="45.78332" lon="3.6702">
        <ele>925.31</ele>
        <time>2025-12-20T11:43:02Z</time>
      </trkpt>
      <trkpt lat="45.78329" lon="3.67035">
        <ele>925.44</ele>
        <time>2025-12-20T11:43:03Z</time>
      </trkpt>
      <trkpt lat="45.78329" lon="3.67049">
        <ele>925.57</ele>
        <time>2025-12-20T11:43:04Z</time>
      </trkpt>
      <trkpt lat="45.7833" lon="3.67063">
        <ele>925.53</ele>
        <time>2025-12-20T11:43:05Z</time>
      </trkpt>
      <trkpt lat="45.78334" lon="3.67076">
        <ele>924.61</ele>
        <time>2025-12-20T11:43:06Z</time>
      </trkpt>
      <trkpt lat="45.78339" lon="3.67089">
        <ele>924.51</ele>
        <time>2025-12-20T11:43:07Z</time>
      </trkpt>
      <trkpt lat="45.78345" lon="3.67101">
        <ele>924.28</ele>
        <time>2025-12-20T11:43:08Z</time>
      </trkpt>
      <trkpt lat="45.7835" lon="3.67113">
        <ele>924.41</ele>
        <time>2025-12-20T11:43:09Z</time>
      </trkpt>
      <trkpt lat="45.78354" lon="3.67124">
        <ele>924.5</ele>
        <time>2025-12-20T11:43:10Z</time>
      </trkpt>
      <trkpt lat="45.78359" lon="3.67136">
        <ele>924.26</ele>
        <time>2025-12-20T11:43:11Z</time>
      </trkpt>
      <trkpt lat="45.78363" lon="3.67149">
        <ele>924.4</ele>
        <time>2025-12-20T11:43:12Z</time>
      </trkpt>
      <trkpt lat="45.78367" lon="3.67161">
        <ele>924.36</ele>
        <time>2025-12-20T11:43:13Z</time>
      </trkpt>
      <trkpt lat="45.78371" lon="3.67173">
        <ele>924.29</ele>
        <time>2025-12-20T11:43:14Z</time>
      </trkpt>
      <trkpt lat="45.78377" lon="3.67194">
        <ele>923.9</ele>
        <time>2025-12-20T11:43:16Z</time>
      </trkpt>
      <trkpt lat="45.78384" lon="3.67214">
        <ele>923.43</ele>
        <time>2025-12-20T11:43:18Z</time>
      </trkpt>
      <trkpt lat="45.78387" lon="3.67235">
        <ele>923.01</ele>
        <time>2025-12-20T11:43:20Z</time>
      </trkpt>
      <trkpt lat="45.7839" lon="3.67258">
        <ele>923.02</ele>
        <time>2025-12-20T11:43:22Z</time>
      </trkpt>
      <trkpt lat="45.78394" lon="3.6728">
        <ele>922.61</ele>
        <time>2025-12-20T11:43:24Z</time>
      </trkpt>
      <trkpt lat="45.78401" lon="3.67295">
        <ele>922.06</ele>
        <time>2025-12-20T11:43:26Z</time>
      </trkpt>
      <trkpt lat="45.78412" lon="3.67304">
        <ele>921.17</ele>
        <time>2025-12-20T11:43:28Z</time>
      </trkpt>
      <trkpt lat="45.78423" lon="3.67309">
        <ele>920.73</ele>
        <time>2025-12-20T11:43:30Z</time>
      </trkpt>
      <trkpt lat="45.78434" lon="3.67314">
        <ele>920.53</ele>
        <time>2025-12-20T11:43:32Z</time>
      </trkpt>
      <trkpt lat="45.78445" lon="3.6732">
        <ele>920.69</ele>
        <time>2025-12-20T11:43:34Z</time>
      </trkpt>
      <trkpt lat="45.78459" lon="3.67327">
        <ele>921.23</ele>
        <time>2025-12-20T11:43:36Z</time>
      </trkpt>
      <trkpt lat="45.78473" lon="3.67334">
        <ele>920.87</ele>
        <time>2025-12-20T11:43:38Z</time>
      </trkpt>
      <trkpt lat="45.7849" lon="3.67343">
        <ele>920.15</ele>
        <time>2025-12-20T11:43:40Z</time>
      </trkpt>
      <trkpt lat="45.78501" lon="3.67346">
        <ele>919.13</ele>
        <time>2025-12-20T11:43:41Z</time>
      </trkpt>
      <trkpt lat="45.78519" lon="3.67352">
        <ele>917.64</ele>
        <time>2025-12-20T11:43:43Z</time>
      </trkpt>
      <trkpt lat="45.78529" lon="3.67355">
        <ele>916.89</ele>
        <time>2025-12-20T11:43:44Z</time>
      </trkpt>
      <trkpt lat="45.78539" lon="3.67358">
        <ele>916.28</ele>
        <time>2025-12-20T11:43:45Z</time>
      </trkpt>
      <trkpt lat="45.7855" lon="3.67361">
        <ele>915.68</ele>
        <time>2025-12-20T11:43:46Z</time>
      </trkpt>
      <trkpt lat="45.7856" lon="3.67362">
        <ele>915.18</ele>
        <time>2025-12-20T11:43:47Z</time>
      </trkpt>
      <trkpt lat="45.78571" lon="3.67363">
        <ele>914.6</ele>
        <time>2025-12-20T11:43:48Z</time>
      </trkpt>
      <trkpt lat="45.78582" lon="3.67363">
        <ele>914.02</ele>
        <time>2025-12-20T11:43:49Z</time>
      </trkpt>
      <trkpt lat="45.78592" lon="3.67364">
        <ele>913.5</ele>
        <time>2025-12-20T11:43:50Z</time>
      </trkpt>
      <trkpt lat="45.78601" lon="3.67366">
        <ele>913.14</ele>
        <time>2025-12-20T11:43:51Z</time>
      </trkpt>
      <trkpt lat="45.78616" lon="3.67374">
        <ele>912.59</ele>
        <time>2025-12-20T11:43:53Z</time>
      </trkpt>
      <trkpt lat="45.78624" lon="3.67388">
        <ele>911.64</ele>
        <time>2025-12-20T11:43:55Z</time>
      </trkpt>
      <trkpt lat="45.78627" lon="3.67405">
        <ele>910.59</ele>
        <time>2025-12-20T11:43:57Z</time>
      </trkpt>
      <trkpt lat="45.78629" lon="3.67422">
        <ele>910.2</ele>
        <time>2025-12-20T11:43:59Z</time>
      </trkpt>
      <trkpt lat="45.78628" lon="3.67441">
        <ele>910.12</ele>
        <time>2025-12-20T11:44:01Z</time>
      </trkpt>
      <trkpt lat="45.78625" lon="3.6746">
        <ele>909.88</ele>
        <time>2025-12-20T11:44:03Z</time>
      </trkpt>
      <trkpt lat="45.78613" lon="3.67473">
        <ele>910</ele>
        <time>2025-12-20T11:44:05Z</time>
      </trkpt>
      <trkpt lat="45.78599" lon="3.67483">
        <ele>910.3</ele>
        <time>2025-12-20T11:44:07Z</time>
      </trkpt>
      <trkpt lat="45.78584" lon="3.67496">
        <ele>910.76</ele>
        <time>2025-12-20T11:44:09Z</time>
      </trkpt>
      <trkpt lat="45.78571" lon="3.67514">
        <ele>911.31</ele>
        <time>2025-12-20T11:44:11Z</time>
      </trkpt>
      <trkpt lat="45.78565" lon="3.67523">
        <ele>911.41</ele>
        <time>2025-12-20T11:44:12Z</time>
      </trkpt>
      <trkpt lat="45.78559" lon="3.67532">
        <ele>911.78</ele>
        <time>2025-12-20T11:44:13Z</time>
      </trkpt>
      <trkpt lat="45.78547" lon="3.6755">
        <ele>912.38</ele>
        <time>2025-12-20T11:44:15Z</time>
      </trkpt>
      <trkpt lat="45.78534" lon="3.67567">
        <ele>912.97</ele>
        <time>2025-12-20T11:44:17Z</time>
      </trkpt>
      <trkpt lat="45.78517" lon="3.67578">
        <ele>913.69</ele>
        <time>2025-12-20T11:44:19Z</time>
      </trkpt>
      <trkpt lat="45.78508" lon="3.67581">
        <ele>913.81</ele>
        <time>2025-12-20T11:44:20Z</time>
      </trkpt>
      <trkpt lat="45.78498" lon="3.67585">
        <ele>914.23</ele>
        <time>2025-12-20T11:44:21Z</time>
      </trkpt>
      <trkpt lat="45.78488" lon="3.67588">
        <ele>914.6</ele>
        <time>2025-12-20T11:44:22Z</time>
      </trkpt>
      <trkpt lat="45.78478" lon="3.67591">
        <ele>915.22</ele>
        <time>2025-12-20T11:44:23Z</time>
      </trkpt>
      <trkpt lat="45.78468" lon="3.67595">
        <ele>915.84</ele>
        <time>2025-12-20T11:44:24Z</time>
      </trkpt>
      <trkpt lat="45.78457" lon="3.67599">
        <ele>916.5</ele>
        <time>2025-12-20T11:44:25Z</time>
      </trkpt>
      <trkpt lat="45.78446" lon="3.67602">
        <ele>916.47</ele>
        <time>2025-12-20T11:44:26Z</time>
      </trkpt>
      <trkpt lat="45.78435" lon="3.67606">
        <ele>916.69</ele>
        <time>2025-12-20T11:44:27Z</time>
      </trkpt>
      <trkpt lat="45.78424" lon="3.67609">
        <ele>917.08</ele>
        <time>2025-12-20T11:44:28Z</time>
      </trkpt>
      <trkpt lat="45.78415" lon="3.67614">
        <ele>917.71</ele>
        <time>2025-12-20T11:44:29Z</time>
      </trkpt>
      <trkpt lat="45.78408" lon="3.67623">
        <ele>918.96</ele>
        <time>2025-12-20T11:44:30Z</time>
      </trkpt>
      <trkpt lat="45.78401" lon="3.67631">
        <ele>919.13</ele>
        <time>2025-12-20T11:44:31Z</time>
      </trkpt>
      <trkpt lat="45.78397" lon="3.67643">
        <ele>919.84</ele>
        <time>2025-12-20T11:44:32Z</time>
      </trkpt>
      <trkpt lat="45.78395" lon="3.67655">
        <ele>919.9</ele>
        <time>2025-12-20T11:44:33Z</time>
      </trkpt>
      <trkpt lat="45.78396" lon="3.67669">
        <ele>920.58</ele>
        <time>2025-12-20T11:44:34Z</time>
      </trkpt>
      <trkpt lat="45.78399" lon="3.67681">
        <ele>920.88</ele>
        <time>2025-12-20T11:44:35Z</time>
      </trkpt>
      <trkpt lat="45.78403" lon="3.67693">
        <ele>921.13</ele>
        <time>2025-12-20T11:44:36Z</time>
      </trkpt>
      <trkpt lat="45.78406" lon="3.67706">
        <ele>921.04</ele>
        <time>2025-12-20T11:44:37Z</time>
      </trkpt>
      <trkpt lat="45.78412" lon="3.67729">
        <ele>922.08</ele>
        <time>2025-12-20T11:44:39Z</time>
      </trkpt>
      <trkpt lat="45.78418" lon="3.67749">
        <ele>922.12</ele>
        <time>2025-12-20T11:44:41Z</time>
      </trkpt>
      <trkpt lat="45.78424" lon="3.67758">
        <ele>922.66</ele>
        <time>2025-12-20T11:44:43Z</time>
      </trkpt>
      <trkpt lat="45.78437" lon="3.67755">
        <ele>926.35</ele>
        <time>2025-12-20T11:45:04Z</time>
      </trkpt>
      <trkpt lat="45.7845" lon="3.67768">
        <ele>927.09</ele>
        <time>2025-12-20T11:45:06Z</time>
      </trkpt>
      <trkpt lat="45.78463" lon="3.67782">
        <ele>927.87</ele>
        <time>2025-12-20T11:45:08Z</time>
      </trkpt>
      <trkpt lat="45.78475" lon="3.67797">
        <ele>927.63</ele>
        <time>2025-12-20T11:45:10Z</time>
      </trkpt>
      <trkpt lat="45.78483" lon="3.67813">
        <ele>928.6</ele>
        <time>2025-12-20T11:45:12Z</time>
      </trkpt>
      <trkpt lat="45.78482" lon="3.67828">
        <ele>929.61</ele>
        <time>2025-12-20T11:45:14Z</time>
      </trkpt>
      <trkpt lat="45.78477" lon="3.67842">
        <ele>931.39</ele>
        <time>2025-12-20T11:45:17Z</time>
      </trkpt>
      <trkpt lat="45.78466" lon="3.67855">
        <ele>932.34</ele>
        <time>2025-12-20T11:45:19Z</time>
      </trkpt>
      <trkpt lat="45.78452" lon="3.67868">
        <ele>934.43</ele>
        <time>2025-12-20T11:45:21Z</time>
      </trkpt>
      <trkpt lat="45.78444" lon="3.67875">
        <ele>935.5</ele>
        <time>2025-12-20T11:45:22Z</time>
      </trkpt>
      <trkpt lat="45.78429" lon="3.67886">
        <ele>937.35</ele>
        <time>2025-12-20T11:45:24Z</time>
      </trkpt>
      <trkpt lat="45.78416" lon="3.67899">
        <ele>938.6</ele>
        <time>2025-12-20T11:45:26Z</time>
      </trkpt>
      <trkpt lat="45.78404" lon="3.67911">
        <ele>940.14</ele>
        <time>2025-12-20T11:45:28Z</time>
      </trkpt>
      <trkpt lat="45.78395" lon="3.67921">
        <ele>940.61</ele>
        <time>2025-12-20T11:45:30Z</time>
      </trkpt>
      <trkpt lat="45.78387" lon="3.67929">
        <ele>942.65</ele>
        <time>2025-12-20T11:45:34Z</time>
      </trkpt>
      <trkpt lat="45.78379" lon="3.67941">
        <ele>943.89</ele>
        <time>2025-12-20T11:45:37Z</time>
      </trkpt>
      <trkpt lat="45.7837" lon="3.67952">
        <ele>944.61</ele>
        <time>2025-12-20T11:45:40Z</time>
      </trkpt>
      <trkpt lat="45.78362" lon="3.67964">
        <ele>946.19</ele>
        <time>2025-12-20T11:45:43Z</time>
      </trkpt>
      <trkpt lat="45.78356" lon="3.67979">
        <ele>947.6</ele>
        <time>2025-12-20T11:45:47Z</time>
      </trkpt>
      <trkpt lat="45.78352" lon="3.67991">
        <ele>949.26</ele>
        <time>2025-12-20T11:45:49Z</time>
      </trkpt>
      <trkpt lat="45.78346" lon="3.68001">
        <ele>950.58</ele>
        <time>2025-12-20T11:45:51Z</time>
      </trkpt>
      <trkpt lat="45.78337" lon="3.68015">
        <ele>951.64</ele>
        <time>2025-12-20T11:45:54Z</time>
      </trkpt>
      <trkpt lat="45.7833" lon="3.68028">
        <ele>953.19</ele>
        <time>2025-12-20T11:45:57Z</time>
      </trkpt>
      <trkpt lat="45.78323" lon="3.68039">
        <ele>954.8</ele>
        <time>2025-12-20T11:46:00Z</time>
      </trkpt>
      <trkpt lat="45.78314" lon="3.68052">
        <ele>956.47</ele>
        <time>2025-12-20T11:46:03Z</time>
      </trkpt>
      <trkpt lat="45.78306" lon="3.68063">
        <ele>956.94</ele>
        <time>2025-12-20T11:46:05Z</time>
      </trkpt>
      <trkpt lat="45.78296" lon="3.68077">
        <ele>957.84</ele>
        <time>2025-12-20T11:46:07Z</time>
      </trkpt>
      <trkpt lat="45.78286" lon="3.68089">
        <ele>959.04</ele>
        <time>2025-12-20T11:46:09Z</time>
      </trkpt>
      <trkpt lat="45.78279" lon="3.68105">
        <ele>960.1</ele>
        <time>2025-12-20T11:46:11Z</time>
      </trkpt>
      <trkpt lat="45.78272" lon="3.6812">
        <ele>960.84</ele>
        <time>2025-12-20T11:46:13Z</time>
      </trkpt>
      <trkpt lat="45.78268" lon="3.68133">
        <ele>961.79</ele>
        <time>2025-12-20T11:46:15Z</time>
      </trkpt>
      <trkpt lat="45.78262" lon="3.68149">
        <ele>964.21</ele>
        <time>2025-12-20T11:46:18Z</time>
      </trkpt>
      <trkpt lat="45.78257" lon="3.68161">
        <ele>966.24</ele>
        <time>2025-12-20T11:46:20Z</time>
      </trkpt>
      <trkpt lat="45.78251" lon="3.68172">
        <ele>967.64</ele>
        <time>2025-12-20T11:46:22Z</time>
      </trkpt>
      <trkpt lat="45.78242" lon="3.68185">
        <ele>969.62</ele>
        <time>2025-12-20T11:46:25Z</time>
      </trkpt>
      <trkpt lat="45.78234" lon="3.68196">
        <ele>971.9</ele>
        <time>2025-12-20T11:46:28Z</time>
      </trkpt>
      <trkpt lat="45.78225" lon="3.68207">
        <ele>973.23</ele>
        <time>2025-12-20T11:46:32Z</time>
      </trkpt>
      <trkpt lat="45.78217" lon="3.68219">
        <ele>974.24</ele>
        <time>2025-12-20T11:46:36Z</time>
      </trkpt>
      <trkpt lat="45.78208" lon="3.6823">
        <ele>974.92</ele>
        <time>2025-12-20T11:46:39Z</time>
      </trkpt>
      <trkpt lat="45.78198" lon="3.68245">
        <ele>975.82</ele>
        <time>2025-12-20T11:46:42Z</time>
      </trkpt>
      <trkpt lat="45.78191" lon="3.68257">
        <ele>975.94</ele>
        <time>2025-12-20T11:46:44Z</time>
      </trkpt>
      <trkpt lat="45.78184" lon="3.6827">
        <ele>976.7</ele>
        <time>2025-12-20T11:46:47Z</time>
      </trkpt>
      <trkpt lat="45.7818" lon="3.68287">
        <ele>977.43</ele>
        <time>2025-12-20T11:46:50Z</time>
      </trkpt>
      <trkpt lat="45.78176" lon="3.683">
        <ele>978.13</ele>
        <time>2025-12-20T11:46:52Z</time>
      </trkpt>
      <trkpt lat="45.78174" lon="3.68313">
        <ele>978.53</ele>
        <time>2025-12-20T11:46:54Z</time>
      </trkpt>
      <trkpt lat="45.78173" lon="3.68328">
        <ele>979.26</ele>
        <time>2025-12-20T11:46:56Z</time>
      </trkpt>
      <trkpt lat="45.78172" lon="3.68344">
        <ele>980.14</ele>
        <time>2025-12-20T11:46:58Z</time>
      </trkpt>
      <trkpt lat="45.78173" lon="3.68362">
        <ele>981.63</ele>
        <time>2025-12-20T11:47:01Z</time>
      </trkpt>
      <trkpt lat="45.78171" lon="3.68379">
        <ele>982.89</ele>
        <time>2025-12-20T11:47:04Z</time>
      </trkpt>
      <trkpt lat="45.78169" lon="3.68398">
        <ele>983.14</ele>
        <time>2025-12-20T11:47:07Z</time>
      </trkpt>
      <trkpt lat="45.78168" lon="3.68411">
        <ele>983.97</ele>
        <time>2025-12-20T11:47:09Z</time>
      </trkpt>
      <trkpt lat="45.78167" lon="3.6843">
        <ele>985.27</ele>
        <time>2025-12-20T11:47:12Z</time>
      </trkpt>
      <trkpt lat="45.78169" lon="3.68445">
        <ele>987.62</ele>
        <time>2025-12-20T11:47:15Z</time>
      </trkpt>
      <trkpt lat="45.78173" lon="3.68459">
        <ele>988.67</ele>
        <time>2025-12-20T11:47:18Z</time>
      </trkpt>
      <trkpt lat="45.78184" lon="3.68463">
        <ele>989.02</ele>
        <time>2025-12-20T11:47:21Z</time>
      </trkpt>
      <trkpt lat="45.78194" lon="3.68453">
        <ele>990.1</ele>
        <time>2025-12-20T11:47:23Z</time>
      </trkpt>
      <trkpt lat="45.78206" lon="3.68441">
        <ele>990.84</ele>
        <time>2025-12-20T11:47:25Z</time>
      </trkpt>
      <trkpt lat="45.78215" lon="3.68434">
        <ele>991.11</ele>
        <time>2025-12-20T11:47:26Z</time>
      </trkpt>
      <trkpt lat="45.78224" lon="3.68426">
        <ele>991.5</ele>
        <time>2025-12-20T11:47:27Z</time>
      </trkpt>
      <trkpt lat="45.78232" lon="3.6842">
        <ele>991.83</ele>
        <time>2025-12-20T11:47:28Z</time>
      </trkpt>
      <trkpt lat="45.78242" lon="3.68415">
        <ele>991.86</ele>
        <time>2025-12-20T11:47:29Z</time>
      </trkpt>
      <trkpt lat="45.78251" lon="3.68409">
        <ele>991.86</ele>
        <time>2025-12-20T11:47:30Z</time>
      </trkpt>
      <trkpt lat="45.78261" lon="3.68409">
        <ele>991.74</ele>
        <time>2025-12-20T11:47:31Z</time>
      </trkpt>
      <trkpt lat="45.7828" lon="3.68411">
        <ele>990.45</ele>
        <time>2025-12-20T11:47:33Z</time>
      </trkpt>
      <trkpt lat="45.78289" lon="3.68413">
        <ele>989.76</ele>
        <time>2025-12-20T11:47:34Z</time>
      </trkpt>
      <trkpt lat="45.78305" lon="3.68418">
        <ele>987.99</ele>
        <time>2025-12-20T11:47:36Z</time>
      </trkpt>
      <trkpt lat="45.7832" lon="3.68426">
        <ele>987.16</ele>
        <time>2025-12-20T11:47:38Z</time>
      </trkpt>
      <trkpt lat="45.78333" lon="3.6844">
        <ele>985.21</ele>
        <time>2025-12-20T11:47:40Z</time>
      </trkpt>
      <trkpt lat="45.78345" lon="3.68459">
        <ele>984.62</ele>
        <time>2025-12-20T11:47:42Z</time>
      </trkpt>
      <trkpt lat="45.7835" lon="3.68469">
        <ele>984.11</ele>
        <time>2025-12-20T11:47:43Z</time>
      </trkpt>
      <trkpt lat="45.78356" lon="3.6848">
        <ele>983.42</ele>
        <time>2025-12-20T11:47:44Z</time>
      </trkpt>
      <trkpt lat="45.78361" lon="3.68491">
        <ele>982.81</ele>
        <time>2025-12-20T11:47:45Z</time>
      </trkpt>
      <trkpt lat="45.78366" lon="3.68502">
        <ele>982.06</ele>
        <time>2025-12-20T11:47:46Z</time>
      </trkpt>
      <trkpt lat="45.78371" lon="3.68513">
        <ele>981.54</ele>
        <time>2025-12-20T11:47:47Z</time>
      </trkpt>
      <trkpt lat="45.78376" lon="3.68524">
        <ele>981.11</ele>
        <time>2025-12-20T11:47:48Z</time>
      </trkpt>
      <trkpt lat="45.78386" lon="3.68544">
        <ele>980.11</ele>
        <time>2025-12-20T11:47:50Z</time>
      </trkpt>
      <trkpt lat="45.78393" lon="3.68562">
        <ele>979.92</ele>
        <time>2025-12-20T11:47:52Z</time>
      </trkpt>
      <trkpt lat="45.78401" lon="3.68579">
        <ele>979.47</ele>
        <time>2025-12-20T11:47:54Z</time>
      </trkpt>
      <trkpt lat="45.78411" lon="3.68592">
        <ele>979.17</ele>
        <time>2025-12-20T11:47:56Z</time>
      </trkpt>
      <trkpt lat="45.78421" lon="3.68604">
        <ele>978.53</ele>
        <time>2025-12-20T11:47:58Z</time>
      </trkpt>
      <trkpt lat="45.78432" lon="3.68614">
        <ele>978.26</ele>
        <time>2025-12-20T11:48:00Z</time>
      </trkpt>
      <trkpt lat="45.78446" lon="3.68623">
        <ele>977.62</ele>
        <time>2025-12-20T11:48:02Z</time>
      </trkpt>
      <trkpt lat="45.78461" lon="3.68631">
        <ele>977.32</ele>
        <time>2025-12-20T11:48:04Z</time>
      </trkpt>
      <trkpt lat="45.78472" lon="3.68636">
        <ele>976.53</ele>
        <time>2025-12-20T11:48:06Z</time>
      </trkpt>
      <trkpt lat="45.78486" lon="3.68639">
        <ele>975.7</ele>
        <time>2025-12-20T11:48:09Z</time>
      </trkpt>
      <trkpt lat="45.78497" lon="3.68641">
        <ele>975.42</ele>
        <time>2025-12-20T11:48:11Z</time>
      </trkpt>
      <trkpt lat="45.78509" lon="3.68649">
        <ele>975.54</ele>
        <time>2025-12-20T11:48:13Z</time>
      </trkpt>
      <trkpt lat="45.78522" lon="3.68663">
        <ele>975.01</ele>
        <time>2025-12-20T11:48:15Z</time>
      </trkpt>
      <trkpt lat="45.7853" lon="3.68671">
        <ele>974.75</ele>
        <time>2025-12-20T11:48:16Z</time>
      </trkpt>
      <trkpt lat="45.78538" lon="3.6868">
        <ele>974.55</ele>
        <time>2025-12-20T11:48:17Z</time>
      </trkpt>
      <trkpt lat="45.78547" lon="3.6869">
        <ele>973.19</ele>
        <time>2025-12-20T11:48:18Z</time>
      </trkpt>
      <trkpt lat="45.78558" lon="3.687">
        <ele>973.04</ele>
        <time>2025-12-20T11:48:19Z</time>
      </trkpt>
      <trkpt lat="45.78566" lon="3.68709">
        <ele>972.44</ele>
        <time>2025-12-20T11:48:20Z</time>
      </trkpt>
      <trkpt lat="45.78578" lon="3.68721">
        <ele>972.36</ele>
        <time>2025-12-20T11:48:22Z</time>
      </trkpt>
      <trkpt lat="45.78591" lon="3.68727">
        <ele>972.89</ele>
        <time>2025-12-20T11:48:24Z</time>
      </trkpt>
      <trkpt lat="45.7861" lon="3.68718">
        <ele>970.78</ele>
        <time>2025-12-20T11:48:26Z</time>
      </trkpt>
      <trkpt lat="45.78627" lon="3.68713">
        <ele>970.99</ele>
        <time>2025-12-20T11:48:28Z</time>
      </trkpt>
      <trkpt lat="45.78642" lon="3.68711">
        <ele>970.98</ele>
        <time>2025-12-20T11:48:30Z</time>
      </trkpt>
      <trkpt lat="45.78655" lon="3.68709">
        <ele>971.82</ele>
        <time>2025-12-20T11:48:32Z</time>
      </trkpt>
      <trkpt lat="45.78672" lon="3.68707">
        <ele>971.85</ele>
        <time>2025-12-20T11:48:34Z</time>
      </trkpt>
      <trkpt lat="45.78681" lon="3.68706">
        <ele>972.83</ele>
        <time>2025-12-20T11:48:35Z</time>
      </trkpt>
      <trkpt lat="45.7869" lon="3.68705">
        <ele>973.88</ele>
        <time>2025-12-20T11:48:36Z</time>
      </trkpt>
      <trkpt lat="45.78699" lon="3.68704">
        <ele>975.05</ele>
        <time>2025-12-20T11:48:37Z</time>
      </trkpt>
      <trkpt lat="45.78709" lon="3.68703">
        <ele>975.82</ele>
        <time>2025-12-20T11:48:38Z</time>
      </trkpt>
      <trkpt lat="45.78718" lon="3.68703">
        <ele>976.37</ele>
        <time>2025-12-20T11:48:39Z</time>
      </trkpt>
      <trkpt lat="45.78729" lon="3.68702">
        <ele>977.08</ele>
        <time>2025-12-20T11:48:40Z</time>
      </trkpt>
      <trkpt lat="45.78739" lon="3.68701">
        <ele>977.74</ele>
        <time>2025-12-20T11:48:41Z</time>
      </trkpt>
      <trkpt lat="45.78749" lon="3.68699">
        <ele>978.15</ele>
        <time>2025-12-20T11:48:42Z</time>
      </trkpt>
      <trkpt lat="45.78758" lon="3.68698">
        <ele>978.63</ele>
        <time>2025-12-20T11:48:43Z</time>
      </trkpt>
      <trkpt lat="45.78768" lon="3.68697">
        <ele>978.99</ele>
        <time>2025-12-20T11:48:44Z</time>
      </trkpt>
      <trkpt lat="45.78785" lon="3.68697">
        <ele>979.21</ele>
        <time>2025-12-20T11:48:46Z</time>
      </trkpt>
      <trkpt lat="45.78801" lon="3.68696">
        <ele>979.94</ele>
        <time>2025-12-20T11:48:48Z</time>
      </trkpt>
      <trkpt lat="45.78818" lon="3.68697">
        <ele>980.45</ele>
        <time>2025-12-20T11:48:50Z</time>
      </trkpt>
      <trkpt lat="45.78832" lon="3.68701">
        <ele>980.27</ele>
        <time>2025-12-20T11:48:52Z</time>
      </trkpt>
      <trkpt lat="45.78844" lon="3.68708">
        <ele>980.17</ele>
        <time>2025-12-20T11:48:54Z</time>
      </trkpt>
      <trkpt lat="45.78853" lon="3.68716">
        <ele>980.19</ele>
        <time>2025-12-20T11:48:56Z</time>
      </trkpt>
      <trkpt lat="45.78863" lon="3.68724">
        <ele>980.6</ele>
        <time>2025-12-20T11:48:58Z</time>
      </trkpt>
      <trkpt lat="45.78871" lon="3.68732">
        <ele>980.6</ele>
        <time>2025-12-20T11:49:01Z</time>
      </trkpt>
      <trkpt lat="45.78878" lon="3.68741">
        <ele>980.27</ele>
        <time>2025-12-20T11:49:12Z</time>
      </trkpt>
      <trkpt lat="45.78887" lon="3.68751">
        <ele>980.12</ele>
        <time>2025-12-20T11:49:16Z</time>
      </trkpt>
      <trkpt lat="45.78898" lon="3.6875">
        <ele>979.44</ele>
        <time>2025-12-20T11:49:20Z</time>
      </trkpt>
      <trkpt lat="45.78909" lon="3.6875">
        <ele>978.22</ele>
        <time>2025-12-20T11:49:23Z</time>
      </trkpt>
      <trkpt lat="45.78919" lon="3.6875">
        <ele>977.02</ele>
        <time>2025-12-20T11:49:27Z</time>
      </trkpt>
      <trkpt lat="45.7893" lon="3.68745">
        <ele>975.12</ele>
        <time>2025-12-20T11:49:30Z</time>
      </trkpt>
      <trkpt lat="45.78942" lon="3.68738">
        <ele>974.08</ele>
        <time>2025-12-20T11:49:33Z</time>
      </trkpt>
      <trkpt lat="45.78953" lon="3.6873">
        <ele>973.08</ele>
        <time>2025-12-20T11:49:36Z</time>
      </trkpt>
      <trkpt lat="45.78964" lon="3.68723">
        <ele>973.13</ele>
        <time>2025-12-20T11:49:39Z</time>
      </trkpt>
      <trkpt lat="45.78975" lon="3.68717">
        <ele>973.31</ele>
        <time>2025-12-20T11:49:43Z</time>
      </trkpt>
      <trkpt lat="45.78983" lon="3.68709">
        <ele>971.31</ele>
        <time>2025-12-20T11:49:46Z</time>
      </trkpt>
      <trkpt lat="45.78991" lon="3.687">
        <ele>969.59</ele>
        <time>2025-12-20T11:49:59Z</time>
      </trkpt>
      <trkpt lat="45.78997" lon="3.68691">
        <ele>968.6</ele>
        <time>2025-12-20T11:50:04Z</time>
      </trkpt>
      <trkpt lat="45.79004" lon="3.68683">
        <ele>968.59</ele>
        <time>2025-12-20T11:50:10Z</time>
      </trkpt>
      <trkpt lat="45.79011" lon="3.68673">
        <ele>967.24</ele>
        <time>2025-12-20T11:50:14Z</time>
      </trkpt>
      <trkpt lat="45.79019" lon="3.68662">
        <ele>966.9</ele>
        <time>2025-12-20T11:50:19Z</time>
      </trkpt>
      <trkpt lat="45.79027" lon="3.6865">
        <ele>965.02</ele>
        <time>2025-12-20T11:50:23Z</time>
      </trkpt>
      <trkpt lat="45.79036" lon="3.68638">
        <ele>963.78</ele>
        <time>2025-12-20T11:50:26Z</time>
      </trkpt>
      <trkpt lat="45.79042" lon="3.68628">
        <ele>962.17</ele>
        <time>2025-12-20T11:50:34Z</time>
      </trkpt>
      <trkpt lat="45.79048" lon="3.68617">
        <ele>960.38</ele>
        <time>2025-12-20T11:51:15Z</time>
      </trkpt>
      <trkpt lat="45.79055" lon="3.68606">
        <ele>958.96</ele>
        <time>2025-12-20T11:51:19Z</time>
      </trkpt>
      <trkpt lat="45.79062" lon="3.68595">
        <ele>957.53</ele>
        <time>2025-12-20T11:51:23Z</time>
      </trkpt>
      <trkpt lat="45.79069" lon="3.68585">
        <ele>957.31</ele>
        <time>2025-12-20T11:51:28Z</time>
      </trkpt>
      <trkpt lat="45.79075" lon="3.68574">
        <ele>954.63</ele>
        <time>2025-12-20T11:51:35Z</time>
      </trkpt>
      <trkpt lat="45.79082" lon="3.68565">
        <ele>952.37</ele>
        <time>2025-12-20T11:51:42Z</time>
      </trkpt>
      <trkpt lat="45.79087" lon="3.68554">
        <ele>951.21</ele>
        <time>2025-12-20T11:51:50Z</time>
      </trkpt>
      <trkpt lat="45.79091" lon="3.68541">
        <ele>950.51</ele>
        <time>2025-12-20T11:51:54Z</time>
      </trkpt>
      <trkpt lat="45.79092" lon="3.68528">
        <ele>948.96</ele>
        <time>2025-12-20T11:51:59Z</time>
      </trkpt>
      <trkpt lat="45.79086" lon="3.68515">
        <ele>947.42</ele>
        <time>2025-12-20T11:52:03Z</time>
      </trkpt>
      <trkpt lat="45.79079" lon="3.68505">
        <ele>947.81</ele>
        <time>2025-12-20T11:52:05Z</time>
      </trkpt>
      <trkpt lat="45.79071" lon="3.68497">
        <ele>948.97</ele>
        <time>2025-12-20T11:52:07Z</time>
      </trkpt>
      <trkpt lat="45.79063" lon="3.68488">
        <ele>947.41</ele>
        <time>2025-12-20T11:52:10Z</time>
      </trkpt>
      <trkpt lat="45.7906" lon="3.68471">
        <ele>945.29</ele>
        <time>2025-12-20T11:52:15Z</time>
      </trkpt>
      <trkpt lat="45.79059" lon="3.68458">
        <ele>944.34</ele>
        <time>2025-12-20T11:52:17Z</time>
      </trkpt>
      <trkpt lat="45.79057" lon="3.68445">
        <ele>944.37</ele>
        <time>2025-12-20T11:52:19Z</time>
      </trkpt>
      <trkpt lat="45.79053" lon="3.6843">
        <ele>943.03</ele>
        <time>2025-12-20T11:52:21Z</time>
      </trkpt>
      <trkpt lat="45.7905" lon="3.68414">
        <ele>940.79</ele>
        <time>2025-12-20T11:52:26Z</time>
      </trkpt>
      <trkpt lat="45.79048" lon="3.68398">
        <ele>939.21</ele>
        <time>2025-12-20T11:52:28Z</time>
      </trkpt>
      <trkpt lat="45.79044" lon="3.68386">
        <ele>937.52</ele>
        <time>2025-12-20T11:52:30Z</time>
      </trkpt>
      <trkpt lat="45.79055" lon="3.68386">
        <ele>936.78</ele>
        <time>2025-12-20T11:52:34Z</time>
      </trkpt>
      <trkpt lat="45.79066" lon="3.68398">
        <ele>936.45</ele>
        <time>2025-12-20T11:52:36Z</time>
      </trkpt>
      <trkpt lat="45.7908" lon="3.68411">
        <ele>936.62</ele>
        <time>2025-12-20T11:52:38Z</time>
      </trkpt>
      <trkpt lat="45.79089" lon="3.68416">
        <ele>937.23</ele>
        <time>2025-12-20T11:52:39Z</time>
      </trkpt>
      <trkpt lat="45.79097" lon="3.68421">
        <ele>937.2</ele>
        <time>2025-12-20T11:52:40Z</time>
      </trkpt>
      <trkpt lat="45.79106" lon="3.68427">
        <ele>937.26</ele>
        <time>2025-12-20T11:52:41Z</time>
      </trkpt>
      <trkpt lat="45.79115" lon="3.68433">
        <ele>937.51</ele>
        <time>2025-12-20T11:52:42Z</time>
      </trkpt>
      <trkpt lat="45.79125" lon="3.68442">
        <ele>937.76</ele>
        <time>2025-12-20T11:52:43Z</time>
      </trkpt>
      <trkpt lat="45.79136" lon="3.68451">
        <ele>938.03</ele>
        <time>2025-12-20T11:52:44Z</time>
      </trkpt>
      <trkpt lat="45.79147" lon="3.68458">
        <ele>938.63</ele>
        <time>2025-12-20T11:52:45Z</time>
      </trkpt>
      <trkpt lat="45.79159" lon="3.68466">
        <ele>939.51</ele>
        <time>2025-12-20T11:52:46Z</time>
      </trkpt>
      <trkpt lat="45.7917" lon="3.68473">
        <ele>940.49</ele>
        <time>2025-12-20T11:52:47Z</time>
      </trkpt>
      <trkpt lat="45.79181" lon="3.6848">
        <ele>941.38</ele>
        <time>2025-12-20T11:52:48Z</time>
      </trkpt>
      <trkpt lat="45.79192" lon="3.68487">
        <ele>942.32</ele>
        <time>2025-12-20T11:52:49Z</time>
      </trkpt>
      <trkpt lat="45.79202" lon="3.68494">
        <ele>943.07</ele>
        <time>2025-12-20T11:52:50Z</time>
      </trkpt>
      <trkpt lat="45.79212" lon="3.68502">
        <ele>944.04</ele>
        <time>2025-12-20T11:52:51Z</time>
      </trkpt>
      <trkpt lat="45.79221" lon="3.68509">
        <ele>945.15</ele>
        <time>2025-12-20T11:52:52Z</time>
      </trkpt>
      <trkpt lat="45.79231" lon="3.68515">
        <ele>946.11</ele>
        <time>2025-12-20T11:52:53Z</time>
      </trkpt>
      <trkpt lat="45.79241" lon="3.68522">
        <ele>947.06</ele>
        <time>2025-12-20T11:52:54Z</time>
      </trkpt>
      <trkpt lat="45.79251" lon="3.68528">
        <ele>948.04</ele>
        <time>2025-12-20T11:52:55Z</time>
      </trkpt>
      <trkpt lat="45.7926" lon="3.68535">
        <ele>948.02</ele>
        <time>2025-12-20T11:52:56Z</time>
      </trkpt>
      <trkpt lat="45.79268" lon="3.68543">
        <ele>949.2</ele>
        <time>2025-12-20T11:52:57Z</time>
      </trkpt>
      <trkpt lat="45.79276" lon="3.68552">
        <ele>949.55</ele>
        <time>2025-12-20T11:52:58Z</time>
      </trkpt>
      <trkpt lat="45.79284" lon="3.68563">
        <ele>950.73</ele>
        <time>2025-12-20T11:52:59Z</time>
      </trkpt>
      <trkpt lat="45.79292" lon="3.68574">
        <ele>952.27</ele>
        <time>2025-12-20T11:53:00Z</time>
      </trkpt>
      <trkpt lat="45.79299" lon="3.68584">
        <ele>953.52</ele>
        <time>2025-12-20T11:53:01Z</time>
      </trkpt>
      <trkpt lat="45.79307" lon="3.68594">
        <ele>954.3</ele>
        <time>2025-12-20T11:53:02Z</time>
      </trkpt>
      <trkpt lat="45.79315" lon="3.68604">
        <ele>955.94</ele>
        <time>2025-12-20T11:53:03Z</time>
      </trkpt>
      <trkpt lat="45.79323" lon="3.68613">
        <ele>957.54</ele>
        <time>2025-12-20T11:53:04Z</time>
      </trkpt>
      <trkpt lat="45.79331" lon="3.68622">
        <ele>958.05</ele>
        <time>2025-12-20T11:53:05Z</time>
      </trkpt>
      <trkpt lat="45.79339" lon="3.68633">
        <ele>959.34</ele>
        <time>2025-12-20T11:53:06Z</time>
      </trkpt>
      <trkpt lat="45.79346" lon="3.68643">
        <ele>960.82</ele>
        <time>2025-12-20T11:53:07Z</time>
      </trkpt>
      <trkpt lat="45.79354" lon="3.68653">
        <ele>962.15</ele>
        <time>2025-12-20T11:53:08Z</time>
      </trkpt>
      <trkpt lat="45.79361" lon="3.68664">
        <ele>963.21</ele>
        <time>2025-12-20T11:53:09Z</time>
      </trkpt>
      <trkpt lat="45.79368" lon="3.68674">
        <ele>964.33</ele>
        <time>2025-12-20T11:53:10Z</time>
      </trkpt>
      <trkpt lat="45.79375" lon="3.68684">
        <ele>965.28</ele>
        <time>2025-12-20T11:53:11Z</time>
      </trkpt>
      <trkpt lat="45.79382" lon="3.68695">
        <ele>966.31</ele>
        <time>2025-12-20T11:53:12Z</time>
      </trkpt>
      <trkpt lat="45.79387" lon="3.68706">
        <ele>967.07</ele>
        <time>2025-12-20T11:53:13Z</time>
      </trkpt>
      <trkpt lat="45.79391" lon="3.68719">
        <ele>967.65</ele>
        <time>2025-12-20T11:53:14Z</time>
      </trkpt>
      <trkpt lat="45.79393" lon="3.68732">
        <ele>968.41</ele>
        <time>2025-12-20T11:53:15Z</time>
      </trkpt>
      <trkpt lat="45.79396" lon="3.68745">
        <ele>969.65</ele>
        <time>2025-12-20T11:53:16Z</time>
      </trkpt>
      <trkpt lat="45.79399" lon="3.68767">
        <ele>971.29</ele>
        <time>2025-12-20T11:53:18Z</time>
      </trkpt>
      <trkpt lat="45.79398" lon="3.6879">
        <ele>971.71</ele>
        <time>2025-12-20T11:53:20Z</time>
      </trkpt>
      <trkpt lat="45.79405" lon="3.68813">
        <ele>972.21</ele>
        <time>2025-12-20T11:53:22Z</time>
      </trkpt>
      <trkpt lat="45.79409" lon="3.68824">
        <ele>972.82</ele>
        <time>2025-12-20T11:53:23Z</time>
      </trkpt>
      <trkpt lat="45.79413" lon="3.68837">
        <ele>973.48</ele>
        <time>2025-12-20T11:53:24Z</time>
      </trkpt>
      <trkpt lat="45.79417" lon="3.6885">
        <ele>974.47</ele>
        <time>2025-12-20T11:53:25Z</time>
      </trkpt>
      <trkpt lat="45.79419" lon="3.68864">
        <ele>975.18</ele>
        <time>2025-12-20T11:53:26Z</time>
      </trkpt>
      <trkpt lat="45.79421" lon="3.68878">
        <ele>975.58</ele>
        <time>2025-12-20T11:53:27Z</time>
      </trkpt>
      <trkpt lat="45.79422" lon="3.68892">
        <ele>976.19</ele>
        <time>2025-12-20T11:53:28Z</time>
      </trkpt>
      <trkpt lat="45.79424" lon="3.68914">
        <ele>977.56</ele>
        <time>2025-12-20T11:53:30Z</time>
      </trkpt>
      <trkpt lat="45.79427" lon="3.68932">
        <ele>979.96</ele>
        <time>2025-12-20T11:53:33Z</time>
      </trkpt>
      <trkpt lat="45.79434" lon="3.68947">
        <ele>981.99</ele>
        <time>2025-12-20T11:53:36Z</time>
      </trkpt>
      <trkpt lat="45.79444" lon="3.68952">
        <ele>983.67</ele>
        <time>2025-12-20T11:53:38Z</time>
      </trkpt>
      <trkpt lat="45.79455" lon="3.68954">
        <ele>984.65</ele>
        <time>2025-12-20T11:53:40Z</time>
      </trkpt>
      <trkpt lat="45.79466" lon="3.68956">
        <ele>986.57</ele>
        <time>2025-12-20T11:53:43Z</time>
      </trkpt>
      <trkpt lat="45.79463" lon="3.68942">
        <ele>989.74</ele>
        <time>2025-12-20T11:54:10Z</time>
      </trkpt>
      <trkpt lat="45.79466" lon="3.68924">
        <ele>990.51</ele>
        <time>2025-12-20T11:54:13Z</time>
      </trkpt>
      <trkpt lat="45.7947" lon="3.68907">
        <ele>990.85</ele>
        <time>2025-12-20T11:54:15Z</time>
      </trkpt>
      <trkpt lat="45.79475" lon="3.6889">
        <ele>991.49</ele>
        <time>2025-12-20T11:54:17Z</time>
      </trkpt>
      <trkpt lat="45.79483" lon="3.68881">
        <ele>992.29</ele>
        <time>2025-12-20T11:54:19Z</time>
      </trkpt>
      <trkpt lat="45.79493" lon="3.68878">
        <ele>993.94</ele>
        <time>2025-12-20T11:54:21Z</time>
      </trkpt>
      <trkpt lat="45.79505" lon="3.68875">
        <ele>996.14</ele>
        <time>2025-12-20T11:54:23Z</time>
      </trkpt>
      <trkpt lat="45.79517" lon="3.68872">
        <ele>998.91</ele>
        <time>2025-12-20T11:54:25Z</time>
      </trkpt>
      <trkpt lat="45.79529" lon="3.68868">
        <ele>999.26</ele>
        <time>2025-12-20T11:54:27Z</time>
      </trkpt>
      <trkpt lat="45.79541" lon="3.68863">
        <ele>1001.57</ele>
        <time>2025-12-20T11:54:29Z</time>
      </trkpt>
      <trkpt lat="45.79552" lon="3.68855">
        <ele>1003.41</ele>
        <time>2025-12-20T11:54:31Z</time>
      </trkpt>
      <trkpt lat="45.79562" lon="3.68857">
        <ele>1005.92</ele>
        <time>2025-12-20T11:54:33Z</time>
      </trkpt>
      <trkpt lat="45.79568" lon="3.68869">
        <ele>1009.73</ele>
        <time>2025-12-20T11:54:35Z</time>
      </trkpt>
      <trkpt lat="45.79579" lon="3.68885">
        <ele>1011.24</ele>
        <time>2025-12-20T11:54:37Z</time>
      </trkpt>
      <trkpt lat="45.79585" lon="3.68895">
        <ele>1012.88</ele>
        <time>2025-12-20T11:54:38Z</time>
      </trkpt>
      <trkpt lat="45.79596" lon="3.68913">
        <ele>1015.74</ele>
        <time>2025-12-20T11:54:40Z</time>
      </trkpt>
      <trkpt lat="45.79607" lon="3.68933">
        <ele>1017.73</ele>
        <time>2025-12-20T11:54:42Z</time>
      </trkpt>
      <trkpt lat="45.79612" lon="3.68945">
        <ele>1018</ele>
        <time>2025-12-20T11:54:43Z</time>
      </trkpt>
      <trkpt lat="45.79617" lon="3.68957">
        <ele>1019.82</ele>
        <time>2025-12-20T11:54:44Z</time>
      </trkpt>
      <trkpt lat="45.79621" lon="3.6897">
        <ele>1020.7</ele>
        <time>2025-12-20T11:54:45Z</time>
      </trkpt>
      <trkpt lat="45.79626" lon="3.68983">
        <ele>1021.91</ele>
        <time>2025-12-20T11:54:47Z</time>
      </trkpt>
      <trkpt lat="45.79626" lon="3.69001">
        <ele>1021.9</ele>
        <time>2025-12-20T11:54:50Z</time>
      </trkpt>
      <trkpt lat="45.79626" lon="3.6902">
        <ele>1021.48</ele>
        <time>2025-12-20T11:54:52Z</time>
      </trkpt>
      <trkpt lat="45.79627" lon="3.69049">
        <ele>1020.55</ele>
        <time>2025-12-20T11:54:54Z</time>
      </trkpt>
      <trkpt lat="45.79629" lon="3.69066">
        <ele>1020.09</ele>
        <time>2025-12-20T11:54:55Z</time>
      </trkpt>
      <trkpt lat="45.79632" lon="3.69087">
        <ele>1018.43</ele>
        <time>2025-12-20T11:54:56Z</time>
      </trkpt>
      <trkpt lat="45.79634" lon="3.69108">
        <ele>1017</ele>
        <time>2025-12-20T11:54:57Z</time>
      </trkpt>
      <trkpt lat="45.79636" lon="3.6913">
        <ele>1016.35</ele>
        <time>2025-12-20T11:54:58Z</time>
      </trkpt>
      <trkpt lat="45.79638" lon="3.69152">
        <ele>1015.98</ele>
        <time>2025-12-20T11:54:59Z</time>
      </trkpt>
      <trkpt lat="45.79641" lon="3.69172">
        <ele>1015.68</ele>
        <time>2025-12-20T11:55:00Z</time>
      </trkpt>
      <trkpt lat="45.79644" lon="3.69192">
        <ele>1015.77</ele>
        <time>2025-12-20T11:55:01Z</time>
      </trkpt>
      <trkpt lat="45.79646" lon="3.69209">
        <ele>1016.1</ele>
        <time>2025-12-20T11:55:02Z</time>
      </trkpt>
      <trkpt lat="45.79648" lon="3.69222">
        <ele>1016.18</ele>
        <time>2025-12-20T11:55:03Z</time>
      </trkpt>
      <trkpt lat="45.79649" lon="3.69246">
        <ele>1015.94</ele>
        <time>2025-12-20T11:55:05Z</time>
      </trkpt>
      <trkpt lat="45.79649" lon="3.69259">
        <ele>1015.75</ele>
        <time>2025-12-20T11:55:06Z</time>
      </trkpt>
      <trkpt lat="45.7965" lon="3.69286">
        <ele>1015.75</ele>
        <time>2025-12-20T11:55:08Z</time>
      </trkpt>
      <trkpt lat="45.79651" lon="3.69301">
        <ele>1016</ele>
        <time>2025-12-20T11:55:09Z</time>
      </trkpt>
      <trkpt lat="45.79653" lon="3.69316">
        <ele>1016.29</ele>
        <time>2025-12-20T11:55:10Z</time>
      </trkpt>
      <trkpt lat="45.79655" lon="3.69332">
        <ele>1016.59</ele>
        <time>2025-12-20T11:55:11Z</time>
      </trkpt>
      <trkpt lat="45.79656" lon="3.69348">
        <ele>1017.11</ele>
        <time>2025-12-20T11:55:12Z</time>
      </trkpt>
      <trkpt lat="45.79657" lon="3.69364">
        <ele>1016.81</ele>
        <time>2025-12-20T11:55:13Z</time>
      </trkpt>
      <trkpt lat="45.79658" lon="3.69381">
        <ele>1015.93</ele>
        <time>2025-12-20T11:55:14Z</time>
      </trkpt>
      <trkpt lat="45.79659" lon="3.69399">
        <ele>1015.26</ele>
        <time>2025-12-20T11:55:15Z</time>
      </trkpt>
      <trkpt lat="45.79658" lon="3.69418">
        <ele>1014.74</ele>
        <time>2025-12-20T11:55:16Z</time>
      </trkpt>
      <trkpt lat="45.79658" lon="3.69436">
        <ele>1014.68</ele>
        <time>2025-12-20T11:55:17Z</time>
      </trkpt>
      <trkpt lat="45.79657" lon="3.69454">
        <ele>1014.64</ele>
        <time>2025-12-20T11:55:18Z</time>
      </trkpt>
      <trkpt lat="45.79658" lon="3.69473">
        <ele>1014.51</ele>
        <time>2025-12-20T11:55:19Z</time>
      </trkpt>
      <trkpt lat="45.79659" lon="3.69492">
        <ele>1014.35</ele>
        <time>2025-12-20T11:55:20Z</time>
      </trkpt>
      <trkpt lat="45.79663" lon="3.69509">
        <ele>1014.98</ele>
        <time>2025-12-20T11:55:21Z</time>
      </trkpt>
      <trkpt lat="45.79668" lon="3.69526">
        <ele>1015.61</ele>
        <time>2025-12-20T11:55:22Z</time>
      </trkpt>
      <trkpt lat="45.79674" lon="3.69542">
        <ele>1016</ele>
        <time>2025-12-20T11:55:23Z</time>
      </trkpt>
      <trkpt lat="45.7968" lon="3.69558">
        <ele>1016.38</ele>
        <time>2025-12-20T11:55:24Z</time>
      </trkpt>
      <trkpt lat="45.79687" lon="3.69573">
        <ele>1016.96</ele>
        <time>2025-12-20T11:55:25Z</time>
      </trkpt>
      <trkpt lat="45.79694" lon="3.69588">
        <ele>1017.6</ele>
        <time>2025-12-20T11:55:26Z</time>
      </trkpt>
      <trkpt lat="45.79702" lon="3.69603">
        <ele>1018.23</ele>
        <time>2025-12-20T11:55:27Z</time>
      </trkpt>
      <trkpt lat="45.7971" lon="3.69617">
        <ele>1018.96</ele>
        <time>2025-12-20T11:55:28Z</time>
      </trkpt>
      <trkpt lat="45.79718" lon="3.6963">
        <ele>1019.61</ele>
        <time>2025-12-20T11:55:29Z</time>
      </trkpt>
      <trkpt lat="45.79727" lon="3.69644">
        <ele>1020.18</ele>
        <time>2025-12-20T11:55:30Z</time>
      </trkpt>
      <trkpt lat="45.79736" lon="3.69657">
        <ele>1020.91</ele>
        <time>2025-12-20T11:55:31Z</time>
      </trkpt>
      <trkpt lat="45.79745" lon="3.69669">
        <ele>1021.62</ele>
        <time>2025-12-20T11:55:32Z</time>
      </trkpt>
      <trkpt lat="45.79753" lon="3.69681">
        <ele>1021.89</ele>
        <time>2025-12-20T11:55:33Z</time>
      </trkpt>
      <trkpt lat="45.7976" lon="3.69695">
        <ele>1021.61</ele>
        <time>2025-12-20T11:55:34Z</time>
      </trkpt>
      <trkpt lat="45.79767" lon="3.69709">
        <ele>1021.05</ele>
        <time>2025-12-20T11:55:35Z</time>
      </trkpt>
      <trkpt lat="45.79773" lon="3.69724">
        <ele>1020.71</ele>
        <time>2025-12-20T11:55:36Z</time>
      </trkpt>
      <trkpt lat="45.7978" lon="3.69742">
        <ele>1019.33</ele>
        <time>2025-12-20T11:55:37Z</time>
      </trkpt>
      <trkpt lat="45.79788" lon="3.6976">
        <ele>1019.62</ele>
        <time>2025-12-20T11:55:38Z</time>
      </trkpt>
      <trkpt lat="45.79793" lon="3.69781">
        <ele>1019.73</ele>
        <time>2025-12-20T11:55:39Z</time>
      </trkpt>
      <trkpt lat="45.79796" lon="3.69801">
        <ele>1019.76</ele>
        <time>2025-12-20T11:55:40Z</time>
      </trkpt>
      <trkpt lat="45.79799" lon="3.69822">
        <ele>1019.67</ele>
        <time>2025-12-20T11:55:41Z</time>
      </trkpt>
      <trkpt lat="45.79802" lon="3.69844">
        <ele>1019.78</ele>
        <time>2025-12-20T11:55:42Z</time>
      </trkpt>
      <trkpt lat="45.79805" lon="3.69865">
        <ele>1019.53</ele>
        <time>2025-12-20T11:55:43Z</time>
      </trkpt>
      <trkpt lat="45.79808" lon="3.69887">
        <ele>1019.68</ele>
        <time>2025-12-20T11:55:44Z</time>
      </trkpt>
      <trkpt lat="45.79812" lon="3.69909">
        <ele>1020.02</ele>
        <time>2025-12-20T11:55:45Z</time>
      </trkpt>
      <trkpt lat="45.79815" lon="3.69931">
        <ele>1019.93</ele>
        <time>2025-12-20T11:55:46Z</time>
      </trkpt>
      <trkpt lat="45.79818" lon="3.69953">
        <ele>1020.19</ele>
        <time>2025-12-20T11:55:47Z</time>
      </trkpt>
      <trkpt lat="45.7982" lon="3.69971">
        <ele>1020.33</ele>
        <time>2025-12-20T11:55:48Z</time>
      </trkpt>
      <trkpt lat="45.79821" lon="3.69988">
        <ele>1020.33</ele>
        <time>2025-12-20T11:55:49Z</time>
      </trkpt>
      <trkpt lat="45.79819" lon="3.70004">
        <ele>1019.81</ele>
        <time>2025-12-20T11:55:50Z</time>
      </trkpt>
      <trkpt lat="45.79816" lon="3.7002">
        <ele>1018.86</ele>
        <time>2025-12-20T11:55:51Z</time>
      </trkpt>
      <trkpt lat="45.79811" lon="3.70034">
        <ele>1017.92</ele>
        <time>2025-12-20T11:55:52Z</time>
      </trkpt>
      <trkpt lat="45.79804" lon="3.70045">
        <ele>1016.83</ele>
        <time>2025-12-20T11:55:53Z</time>
      </trkpt>
      <trkpt lat="45.79796" lon="3.70056">
        <ele>1015.43</ele>
        <time>2025-12-20T11:55:54Z</time>
      </trkpt>
      <trkpt lat="45.79787" lon="3.70067">
        <ele>1014.2</ele>
        <time>2025-12-20T11:55:55Z</time>
      </trkpt>
      <trkpt lat="45.79778" lon="3.70078">
        <ele>1012.9</ele>
        <time>2025-12-20T11:55:56Z</time>
      </trkpt>
      <trkpt lat="45.79768" lon="3.70089">
        <ele>1011.71</ele>
        <time>2025-12-20T11:55:57Z</time>
      </trkpt>
      <trkpt lat="45.79759" lon="3.701">
        <ele>1010.82</ele>
        <time>2025-12-20T11:55:58Z</time>
      </trkpt>
      <trkpt lat="45.79751" lon="3.70109">
        <ele>1009.91</ele>
        <time>2025-12-20T11:55:59Z</time>
      </trkpt>
      <trkpt lat="45.79742" lon="3.70117">
        <ele>1009.38</ele>
        <time>2025-12-20T11:56:00Z</time>
      </trkpt>
      <trkpt lat="45.79733" lon="3.70122">
        <ele>1009.06</ele>
        <time>2025-12-20T11:56:01Z</time>
      </trkpt>
      <trkpt lat="45.79724" lon="3.70124">
        <ele>1008.79</ele>
        <time>2025-12-20T11:56:02Z</time>
      </trkpt>
      <trkpt lat="45.79715" lon="3.70122">
        <ele>1008.44</ele>
        <time>2025-12-20T11:56:03Z</time>
      </trkpt>
      <trkpt lat="45.79706" lon="3.70119">
        <ele>1008.34</ele>
        <time>2025-12-20T11:56:04Z</time>
      </trkpt>
      <trkpt lat="45.79698" lon="3.70115">
        <ele>1008.27</ele>
        <time>2025-12-20T11:56:05Z</time>
      </trkpt>
      <trkpt lat="45.79689" lon="3.70111">
        <ele>1008.16</ele>
        <time>2025-12-20T11:56:06Z</time>
      </trkpt>
      <trkpt lat="45.79673" lon="3.70108">
        <ele>1008.12</ele>
        <time>2025-12-20T11:56:08Z</time>
      </trkpt>
      <trkpt lat="45.79661" lon="3.70116">
        <ele>1008.66</ele>
        <time>2025-12-20T11:56:10Z</time>
      </trkpt>
      <trkpt lat="45.79652" lon="3.70126">
        <ele>1009.88</ele>
        <time>2025-12-20T11:56:12Z</time>
      </trkpt>
      <trkpt lat="45.79647" lon="3.7014">
        <ele>1011.15</ele>
        <time>2025-12-20T11:56:15Z</time>
      </trkpt>
      <trkpt lat="45.79649" lon="3.70154">
        <ele>1011.67</ele>
        <time>2025-12-20T11:56:17Z</time>
      </trkpt>
      <trkpt lat="45.79654" lon="3.70172">
        <ele>1012.17</ele>
        <time>2025-12-20T11:56:19Z</time>
      </trkpt>
      <trkpt lat="45.79661" lon="3.70195">
        <ele>1013.17</ele>
        <time>2025-12-20T11:56:21Z</time>
      </trkpt>
      <trkpt lat="45.79664" lon="3.70207">
        <ele>1013.75</ele>
        <time>2025-12-20T11:56:22Z</time>
      </trkpt>
      <trkpt lat="45.79667" lon="3.70221">
        <ele>1013.89</ele>
        <time>2025-12-20T11:56:23Z</time>
      </trkpt>
      <trkpt lat="45.7967" lon="3.70235">
        <ele>1014.31</ele>
        <time>2025-12-20T11:56:24Z</time>
      </trkpt>
      <trkpt lat="45.79673" lon="3.7025">
        <ele>1014.9</ele>
        <time>2025-12-20T11:56:25Z</time>
      </trkpt>
      <trkpt lat="45.79675" lon="3.70266">
        <ele>1015.47</ele>
        <time>2025-12-20T11:56:26Z</time>
      </trkpt>
      <trkpt lat="45.79679" lon="3.70282">
        <ele>1016.08</ele>
        <time>2025-12-20T11:56:27Z</time>
      </trkpt>
      <trkpt lat="45.79682" lon="3.70299">
        <ele>1016.55</ele>
        <time>2025-12-20T11:56:28Z</time>
      </trkpt>
      <trkpt lat="45.79685" lon="3.70316">
        <ele>1016.92</ele>
        <time>2025-12-20T11:56:29Z</time>
      </trkpt>
      <trkpt lat="45.79689" lon="3.70333">
        <ele>1017.1</ele>
        <time>2025-12-20T11:56:30Z</time>
      </trkpt>
      <trkpt lat="45.79693" lon="3.70351">
        <ele>1017.25</ele>
        <time>2025-12-20T11:56:31Z</time>
      </trkpt>
      <trkpt lat="45.79697" lon="3.70369">
        <ele>1017.53</ele>
        <time>2025-12-20T11:56:32Z</time>
      </trkpt>
      <trkpt lat="45.79701" lon="3.70388">
        <ele>1017.76</ele>
        <time>2025-12-20T11:56:33Z</time>
      </trkpt>
      <trkpt lat="45.79706" lon="3.70406">
        <ele>1017.99</ele>
        <time>2025-12-20T11:56:34Z</time>
      </trkpt>
      <trkpt lat="45.7971" lon="3.70425">
        <ele>1018.29</ele>
        <time>2025-12-20T11:56:35Z</time>
      </trkpt>
      <trkpt lat="45.79715" lon="3.70445">
        <ele>1018.53</ele>
        <time>2025-12-20T11:56:36Z</time>
      </trkpt>
      <trkpt lat="45.7972" lon="3.70464">
        <ele>1018.78</ele>
        <time>2025-12-20T11:56:37Z</time>
      </trkpt>
      <trkpt lat="45.79725" lon="3.70484">
        <ele>1019.02</ele>
        <time>2025-12-20T11:56:38Z</time>
      </trkpt>
      <trkpt lat="45.7973" lon="3.70504">
        <ele>1019.2</ele>
        <time>2025-12-20T11:56:39Z</time>
      </trkpt>
      <trkpt lat="45.79734" lon="3.70525">
        <ele>1019.26</ele>
        <time>2025-12-20T11:56:40Z</time>
      </trkpt>
      <trkpt lat="45.79738" lon="3.70546">
        <ele>1019.23</ele>
        <time>2025-12-20T11:56:41Z</time>
      </trkpt>
      <trkpt lat="45.79741" lon="3.70568">
        <ele>1019.1</ele>
        <time>2025-12-20T11:56:42Z</time>
      </trkpt>
      <trkpt lat="45.79744" lon="3.70591">
        <ele>1019.12</ele>
        <time>2025-12-20T11:56:43Z</time>
      </trkpt>
      <trkpt lat="45.79746" lon="3.70614">
        <ele>1019.08</ele>
        <time>2025-12-20T11:56:44Z</time>
      </trkpt>
      <trkpt lat="45.79748" lon="3.70638">
        <ele>1018.88</ele>
        <time>2025-12-20T11:56:45Z</time>
      </trkpt>
      <trkpt lat="45.7975" lon="3.70662">
        <ele>1018.85</ele>
        <time>2025-12-20T11:56:46Z</time>
      </trkpt>
      <trkpt lat="45.79752" lon="3.70687">
        <ele>1018.75</ele>
        <time>2025-12-20T11:56:47Z</time>
      </trkpt>
      <trkpt lat="45.79754" lon="3.70712">
        <ele>1018.56</ele>
        <time>2025-12-20T11:56:48Z</time>
      </trkpt>
      <trkpt lat="45.79757" lon="3.70737">
        <ele>1018.44</ele>
        <time>2025-12-20T11:56:49Z</time>
      </trkpt>
      <trkpt lat="45.79761" lon="3.70761">
        <ele>1018.51</ele>
        <time>2025-12-20T11:56:50Z</time>
      </trkpt>
      <trkpt lat="45.79764" lon="3.70786">
        <ele>1018.56</ele>
        <time>2025-12-20T11:56:51Z</time>
      </trkpt>
      <trkpt lat="45.79769" lon="3.70809">
        <ele>1018.36</ele>
        <time>2025-12-20T11:56:52Z</time>
      </trkpt>
      <trkpt lat="45.79773" lon="3.70832">
        <ele>1018.23</ele>
        <time>2025-12-20T11:56:53Z</time>
      </trkpt>
      <trkpt lat="45.79776" lon="3.70854">
        <ele>1017.9</ele>
        <time>2025-12-20T11:56:54Z</time>
      </trkpt>
      <trkpt lat="45.7978" lon="3.70875">
        <ele>1017.7</ele>
        <time>2025-12-20T11:56:55Z</time>
      </trkpt>
      <trkpt lat="45.79781" lon="3.70897">
        <ele>1017.22</ele>
        <time>2025-12-20T11:56:56Z</time>
      </trkpt>
      <trkpt lat="45.79782" lon="3.70919">
        <ele>1016.55</ele>
        <time>2025-12-20T11:56:57Z</time>
      </trkpt>
      <trkpt lat="45.79785" lon="3.70941">
        <ele>1015.98</ele>
        <time>2025-12-20T11:56:58Z</time>
      </trkpt>
      <trkpt lat="45.79789" lon="3.70962">
        <ele>1015.39</ele>
        <time>2025-12-20T11:56:59Z</time>
      </trkpt>
      <trkpt lat="45.79794" lon="3.70981">
        <ele>1014.75</ele>
        <time>2025-12-20T11:57:00Z</time>
      </trkpt>
      <trkpt lat="45.79799" lon="3.70999">
        <ele>1014.44</ele>
        <time>2025-12-20T11:57:01Z</time>
      </trkpt>
      <trkpt lat="45.79805" lon="3.71015">
        <ele>1014.21</ele>
        <time>2025-12-20T11:57:02Z</time>
      </trkpt>
      <trkpt lat="45.79811" lon="3.71029">
        <ele>1014.05</ele>
        <time>2025-12-20T11:57:03Z</time>
      </trkpt>
      <trkpt lat="45.79817" lon="3.71042">
        <ele>1013.85</ele>
        <time>2025-12-20T11:57:04Z</time>
      </trkpt>
      <trkpt lat="45.79823" lon="3.71055">
        <ele>1013.71</ele>
        <time>2025-12-20T11:57:05Z</time>
      </trkpt>
      <trkpt lat="45.79829" lon="3.71068">
        <ele>1013.55</ele>
        <time>2025-12-20T11:57:06Z</time>
      </trkpt>
      <trkpt lat="45.79834" lon="3.7108">
        <ele>1013.71</ele>
        <time>2025-12-20T11:57:07Z</time>
      </trkpt>
      <trkpt lat="45.79839" lon="3.71091">
        <ele>1013.44</ele>
        <time>2025-12-20T11:57:08Z</time>
      </trkpt>
      <trkpt lat="45.79849" lon="3.7111">
        <ele>1012.93</ele>
        <time>2025-12-20T11:57:10Z</time>
      </trkpt>
      <trkpt lat="45.79856" lon="3.71129">
        <ele>1012.27</ele>
        <time>2025-12-20T11:57:12Z</time>
      </trkpt>
      <trkpt lat="45.79863" lon="3.71145">
        <ele>1011.54</ele>
        <time>2025-12-20T11:57:14Z</time>
      </trkpt>
      <trkpt lat="45.79863" lon="3.7116">
        <ele>1011.98</ele>
        <time>2025-12-20T11:57:16Z</time>
      </trkpt>
      <trkpt lat="45.79852" lon="3.71164">
        <ele>1012.28</ele>
        <time>2025-12-20T11:57:18Z</time>
      </trkpt>
      <trkpt lat="45.79837" lon="3.71173">
        <ele>1012.75</ele>
        <time>2025-12-20T11:57:20Z</time>
      </trkpt>
      <trkpt lat="45.79831" lon="3.71183">
        <ele>1012.86</ele>
        <time>2025-12-20T11:57:21Z</time>
      </trkpt>
      <trkpt lat="45.79831" lon="3.71207">
        <ele>1013</ele>
        <time>2025-12-20T11:57:23Z</time>
      </trkpt>
      <trkpt lat="45.79833" lon="3.71221">
        <ele>1012.76</ele>
        <time>2025-12-20T11:57:24Z</time>
      </trkpt>
      <trkpt lat="45.79836" lon="3.71239">
        <ele>1013.8</ele>
        <time>2025-12-20T11:57:26Z</time>
      </trkpt>
      <trkpt lat="45.79844" lon="3.71255">
        <ele>1014.09</ele>
        <time>2025-12-20T11:57:28Z</time>
      </trkpt>
      <trkpt lat="45.79848" lon="3.7127">
        <ele>1014.3</ele>
        <time>2025-12-20T11:57:30Z</time>
      </trkpt>
      <trkpt lat="45.79851" lon="3.71283">
        <ele>1014.59</ele>
        <time>2025-12-20T11:57:32Z</time>
      </trkpt>
      <trkpt lat="45.79853" lon="3.71299">
        <ele>1015.49</ele>
        <time>2025-12-20T11:57:35Z</time>
      </trkpt>
      <trkpt lat="45.79851" lon="3.71316">
        <ele>1015.11</ele>
        <time>2025-12-20T11:57:38Z</time>
      </trkpt>
      <trkpt lat="45.79848" lon="3.71328">
        <ele>1016.49</ele>
        <time>2025-12-20T11:57:40Z</time>
      </trkpt>
      <trkpt lat="45.79845" lon="3.71341">
        <ele>1015.66</ele>
        <time>2025-12-20T11:57:42Z</time>
      </trkpt>
      <trkpt lat="45.79842" lon="3.71354">
        <ele>1017.08</ele>
        <time>2025-12-20T11:57:44Z</time>
      </trkpt>
      <trkpt lat="45.79839" lon="3.71372">
        <ele>1018.26</ele>
        <time>2025-12-20T11:57:47Z</time>
      </trkpt>
      <trkpt lat="45.79836" lon="3.71384">
        <ele>1019.08</ele>
        <time>2025-12-20T11:57:49Z</time>
      </trkpt>
      <trkpt lat="45.79829" lon="3.71404">
        <ele>1019.09</ele>
        <time>2025-12-20T11:57:51Z</time>
      </trkpt>
      <trkpt lat="45.79823" lon="3.71419">
        <ele>1020.12</ele>
        <time>2025-12-20T11:57:53Z</time>
      </trkpt>
      <trkpt lat="45.79817" lon="3.71434">
        <ele>1019.62</ele>
        <time>2025-12-20T11:57:55Z</time>
      </trkpt>
      <trkpt lat="45.79809" lon="3.71455">
        <ele>1019.99</ele>
        <time>2025-12-20T11:57:57Z</time>
      </trkpt>
      <trkpt lat="45.798" lon="3.71472">
        <ele>1019.68</ele>
        <time>2025-12-20T11:57:59Z</time>
      </trkpt>
      <trkpt lat="45.79795" lon="3.71484">
        <ele>1020.73</ele>
        <time>2025-12-20T11:58:00Z</time>
      </trkpt>
      <trkpt lat="45.79791" lon="3.71497">
        <ele>1020.56</ele>
        <time>2025-12-20T11:58:01Z</time>
      </trkpt>
      <trkpt lat="45.79787" lon="3.7151">
        <ele>1020.22</ele>
        <time>2025-12-20T11:58:02Z</time>
      </trkpt>
      <trkpt lat="45.79783" lon="3.71525">
        <ele>1020.61</ele>
        <time>2025-12-20T11:58:03Z</time>
      </trkpt>
      <trkpt lat="45.79777" lon="3.71537">
        <ele>1021.01</ele>
        <time>2025-12-20T11:58:04Z</time>
      </trkpt>
      <trkpt lat="45.79771" lon="3.71547">
        <ele>1020.85</ele>
        <time>2025-12-20T11:58:05Z</time>
      </trkpt>
      <trkpt lat="45.79761" lon="3.71564">
        <ele>1020.88</ele>
        <time>2025-12-20T11:58:07Z</time>
      </trkpt>
      <trkpt lat="45.79751" lon="3.71584">
        <ele>1021.18</ele>
        <time>2025-12-20T11:58:09Z</time>
      </trkpt>
      <trkpt lat="45.79741" lon="3.71605">
        <ele>1020.97</ele>
        <time>2025-12-20T11:58:11Z</time>
      </trkpt>
      <trkpt lat="45.79733" lon="3.71629">
        <ele>1020.8</ele>
        <time>2025-12-20T11:58:13Z</time>
      </trkpt>
      <trkpt lat="45.7973" lon="3.71642">
        <ele>1020.82</ele>
        <time>2025-12-20T11:58:14Z</time>
      </trkpt>
      <trkpt lat="45.79727" lon="3.71656">
        <ele>1020.81</ele>
        <time>2025-12-20T11:58:15Z</time>
      </trkpt>
      <trkpt lat="45.79725" lon="3.71669">
        <ele>1020.93</ele>
        <time>2025-12-20T11:58:16Z</time>
      </trkpt>
      <trkpt lat="45.79723" lon="3.71682">
        <ele>1021.11</ele>
        <time>2025-12-20T11:58:17Z</time>
      </trkpt>
      <trkpt lat="45.79722" lon="3.71697">
        <ele>1021.08</ele>
        <time>2025-12-20T11:58:18Z</time>
      </trkpt>
      <trkpt lat="45.7972" lon="3.71711">
        <ele>1021.26</ele>
        <time>2025-12-20T11:58:19Z</time>
      </trkpt>
      <trkpt lat="45.79718" lon="3.71724">
        <ele>1021.36</ele>
        <time>2025-12-20T11:58:20Z</time>
      </trkpt>
      <trkpt lat="45.79715" lon="3.71746">
        <ele>1022.07</ele>
        <time>2025-12-20T11:58:22Z</time>
      </trkpt>
      <trkpt lat="45.79713" lon="3.71765">
        <ele>1022.22</ele>
        <time>2025-12-20T11:58:24Z</time>
      </trkpt>
      <trkpt lat="45.79716" lon="3.71784">
        <ele>1022.35</ele>
        <time>2025-12-20T11:58:25Z</time>
      </trkpt>
      <trkpt lat="45.79721" lon="3.71804">
        <ele>1022.3</ele>
        <time>2025-12-20T11:58:27Z</time>
      </trkpt>
      <trkpt lat="45.79724" lon="3.71826">
        <ele>1022.81</ele>
        <time>2025-12-20T11:58:29Z</time>
      </trkpt>
      <trkpt lat="45.79725" lon="3.71848">
        <ele>1023.36</ele>
        <time>2025-12-20T11:58:31Z</time>
      </trkpt>
      <trkpt lat="45.79719" lon="3.7187">
        <ele>1024.55</ele>
        <time>2025-12-20T11:58:33Z</time>
      </trkpt>
      <trkpt lat="45.79712" lon="3.71892">
        <ele>1024.93</ele>
        <time>2025-12-20T11:58:35Z</time>
      </trkpt>
      <trkpt lat="45.79704" lon="3.71914">
        <ele>1026.94</ele>
        <time>2025-12-20T11:58:37Z</time>
      </trkpt>
      <trkpt lat="45.79703" lon="3.7194">
        <ele>1027.72</ele>
        <time>2025-12-20T11:58:39Z</time>
      </trkpt>
      <trkpt lat="45.79702" lon="3.71953">
        <ele>1027.87</ele>
        <time>2025-12-20T11:58:40Z</time>
      </trkpt>
      <trkpt lat="45.79699" lon="3.71974">
        <ele>1027.86</ele>
        <time>2025-12-20T11:58:42Z</time>
      </trkpt>
      <trkpt lat="45.79694" lon="3.71988">
        <ele>1027.97</ele>
        <time>2025-12-20T11:58:44Z</time>
      </trkpt>
      <trkpt lat="45.79686" lon="3.72002">
        <ele>1028.17</ele>
        <time>2025-12-20T11:58:46Z</time>
      </trkpt>
      <trkpt lat="45.79676" lon="3.72016">
        <ele>1028.98</ele>
        <time>2025-12-20T11:58:48Z</time>
      </trkpt>
      <trkpt lat="45.79659" lon="3.7203">
        <ele>1029.94</ele>
        <time>2025-12-20T11:58:50Z</time>
      </trkpt>
      <trkpt lat="45.79649" lon="3.72036">
        <ele>1030.45</ele>
        <time>2025-12-20T11:58:51Z</time>
      </trkpt>
      <trkpt lat="45.7964" lon="3.72043">
        <ele>1031.03</ele>
        <time>2025-12-20T11:58:52Z</time>
      </trkpt>
      <trkpt lat="45.7963" lon="3.7205">
        <ele>1031.57</ele>
        <time>2025-12-20T11:58:53Z</time>
      </trkpt>
      <trkpt lat="45.79622" lon="3.72057">
        <ele>1032.04</ele>
        <time>2025-12-20T11:58:54Z</time>
      </trkpt>
      <trkpt lat="45.79614" lon="3.72068">
        <ele>1033.05</ele>
        <time>2025-12-20T11:58:55Z</time>
      </trkpt>
      <trkpt lat="45.79607" lon="3.72078">
        <ele>1033.32</ele>
        <time>2025-12-20T11:58:56Z</time>
      </trkpt>
      <trkpt lat="45.79598" lon="3.72087">
        <ele>1034.02</ele>
        <time>2025-12-20T11:58:57Z</time>
      </trkpt>
      <trkpt lat="45.7959" lon="3.72096">
        <ele>1034.38</ele>
        <time>2025-12-20T11:58:58Z</time>
      </trkpt>
      <trkpt lat="45.79584" lon="3.72106">
        <ele>1034.96</ele>
        <time>2025-12-20T11:58:59Z</time>
      </trkpt>
      <trkpt lat="45.7958" lon="3.72121">
        <ele>1035.48</ele>
        <time>2025-12-20T11:59:00Z</time>
      </trkpt>
      <trkpt lat="45.7958" lon="3.72135">
        <ele>1035.81</ele>
        <time>2025-12-20T11:59:01Z</time>
      </trkpt>
      <trkpt lat="45.79578" lon="3.7215">
        <ele>1035.76</ele>
        <time>2025-12-20T11:59:02Z</time>
      </trkpt>
      <trkpt lat="45.79576" lon="3.72165">
        <ele>1035.26</ele>
        <time>2025-12-20T11:59:03Z</time>
      </trkpt>
      <trkpt lat="45.79574" lon="3.72179">
        <ele>1035.52</ele>
        <time>2025-12-20T11:59:04Z</time>
      </trkpt>
      <trkpt lat="45.7957" lon="3.72193">
        <ele>1034.08</ele>
        <time>2025-12-20T11:59:05Z</time>
      </trkpt>
      <trkpt lat="45.79567" lon="3.72208">
        <ele>1034.92</ele>
        <time>2025-12-20T11:59:06Z</time>
      </trkpt>
      <trkpt lat="45.79566" lon="3.72224">
        <ele>1035.63</ele>
        <time>2025-12-20T11:59:07Z</time>
      </trkpt>
      <trkpt lat="45.79566" lon="3.72239">
        <ele>1035.91</ele>
        <time>2025-12-20T11:59:08Z</time>
      </trkpt>
      <trkpt lat="45.79567" lon="3.72253">
        <ele>1037.12</ele>
        <time>2025-12-20T11:59:09Z</time>
      </trkpt>
      <trkpt lat="45.79569" lon="3.72267">
        <ele>1037.14</ele>
        <time>2025-12-20T11:59:10Z</time>
      </trkpt>
      <trkpt lat="45.79571" lon="3.72282">
        <ele>1037.09</ele>
        <time>2025-12-20T11:59:11Z</time>
      </trkpt>
      <trkpt lat="45.79574" lon="3.72296">
        <ele>1037.7</ele>
        <time>2025-12-20T11:59:12Z</time>
      </trkpt>
      <trkpt lat="45.79576" lon="3.72311">
        <ele>1038.5</ele>
        <time>2025-12-20T11:59:13Z</time>
      </trkpt>
      <trkpt lat="45.7958" lon="3.72325">
        <ele>1038.95</ele>
        <time>2025-12-20T11:59:14Z</time>
      </trkpt>
      <trkpt lat="45.79582" lon="3.72338">
        <ele>1038.24</ele>
        <time>2025-12-20T11:59:15Z</time>
      </trkpt>
      <trkpt lat="45.79585" lon="3.72352">
        <ele>1038.48</ele>
        <time>2025-12-20T11:59:16Z</time>
      </trkpt>
      <trkpt lat="45.79588" lon="3.72376">
        <ele>1038.86</ele>
        <time>2025-12-20T11:59:18Z</time>
      </trkpt>
      <trkpt lat="45.7959" lon="3.7239">
        <ele>1038.6</ele>
        <time>2025-12-20T11:59:19Z</time>
      </trkpt>
      <trkpt lat="45.7959" lon="3.72404">
        <ele>1038.84</ele>
        <time>2025-12-20T11:59:20Z</time>
      </trkpt>
      <trkpt lat="45.79592" lon="3.72417">
        <ele>1038.34</ele>
        <time>2025-12-20T11:59:21Z</time>
      </trkpt>
      <trkpt lat="45.79596" lon="3.7243">
        <ele>1038</ele>
        <time>2025-12-20T11:59:22Z</time>
      </trkpt>
      <trkpt lat="45.79599" lon="3.72443">
        <ele>1038.36</ele>
        <time>2025-12-20T11:59:23Z</time>
      </trkpt>
      <trkpt lat="45.79603" lon="3.72456">
        <ele>1038.57</ele>
        <time>2025-12-20T11:59:24Z</time>
      </trkpt>
      <trkpt lat="45.79607" lon="3.72469">
        <ele>1039.17</ele>
        <time>2025-12-20T11:59:25Z</time>
      </trkpt>
      <trkpt lat="45.7961" lon="3.72481">
        <ele>1039.02</ele>
        <time>2025-12-20T11:59:26Z</time>
      </trkpt>
      <trkpt lat="45.79614" lon="3.72494">
        <ele>1039.04</ele>
        <time>2025-12-20T11:59:27Z</time>
      </trkpt>
      <trkpt lat="45.79618" lon="3.72507">
        <ele>1039.94</ele>
        <time>2025-12-20T11:59:28Z</time>
      </trkpt>
      <trkpt lat="45.7962" lon="3.7252">
        <ele>1041.09</ele>
        <time>2025-12-20T11:59:29Z</time>
      </trkpt>
      <trkpt lat="45.79622" lon="3.72545">
        <ele>1042.82</ele>
        <time>2025-12-20T11:59:31Z</time>
      </trkpt>
      <trkpt lat="45.79622" lon="3.72566">
        <ele>1041.92</ele>
        <time>2025-12-20T11:59:33Z</time>
      </trkpt>
      <trkpt lat="45.7962" lon="3.72584">
        <ele>1041.57</ele>
        <time>2025-12-20T11:59:35Z</time>
      </trkpt>
      <trkpt lat="45.79618" lon="3.72604">
        <ele>1040.2</ele>
        <time>2025-12-20T11:59:37Z</time>
      </trkpt>
      <trkpt lat="45.79624" lon="3.72621">
        <ele>1039.21</ele>
        <time>2025-12-20T11:59:39Z</time>
      </trkpt>
      <trkpt lat="45.79631" lon="3.72632">
        <ele>1038.22</ele>
        <time>2025-12-20T11:59:40Z</time>
      </trkpt>
      <trkpt lat="45.79639" lon="3.72641">
        <ele>1036.95</ele>
        <time>2025-12-20T11:59:41Z</time>
      </trkpt>
      <trkpt lat="45.79647" lon="3.72648">
        <ele>1035.44</ele>
        <time>2025-12-20T11:59:42Z</time>
      </trkpt>
      <trkpt lat="45.79658" lon="3.72656">
        <ele>1034.57</ele>
        <time>2025-12-20T11:59:44Z</time>
      </trkpt>
      <trkpt lat="45.79666" lon="3.72663">
        <ele>1033.66</ele>
        <time>2025-12-20T11:59:46Z</time>
      </trkpt>
      <trkpt lat="45.79675" lon="3.72669">
        <ele>1032.61</ele>
        <time>2025-12-20T11:59:50Z</time>
      </trkpt>
      <trkpt lat="45.79686" lon="3.72679">
        <ele>1031.15</ele>
        <time>2025-12-20T11:59:53Z</time>
      </trkpt>
      <trkpt lat="45.79694" lon="3.72686">
        <ele>1031.25</ele>
        <time>2025-12-20T11:59:55Z</time>
      </trkpt>
      <trkpt lat="45.79706" lon="3.72697">
        <ele>1028.68</ele>
        <time>2025-12-20T11:59:58Z</time>
      </trkpt>
      <trkpt lat="45.79715" lon="3.7271">
        <ele>1027.68</ele>
        <time>2025-12-20T12:00:00Z</time>
      </trkpt>
      <trkpt lat="45.79723" lon="3.72723">
        <ele>1026.92</ele>
        <time>2025-12-20T12:00:02Z</time>
      </trkpt>
      <trkpt lat="45.79732" lon="3.72734">
        <ele>1025.59</ele>
        <time>2025-12-20T12:00:04Z</time>
      </trkpt>
      <trkpt lat="45.79738" lon="3.72745">
        <ele>1025.01</ele>
        <time>2025-12-20T12:00:06Z</time>
      </trkpt>
      <trkpt lat="45.79747" lon="3.7276">
        <ele>1024.1</ele>
        <time>2025-12-20T12:00:09Z</time>
      </trkpt>
      <trkpt lat="45.79754" lon="3.7277">
        <ele>1024.66</ele>
        <time>2025-12-20T12:00:11Z</time>
      </trkpt>
      <trkpt lat="45.7976" lon="3.7278">
        <ele>1025.05</ele>
        <time>2025-12-20T12:00:14Z</time>
      </trkpt>
      <trkpt lat="45.79769" lon="3.72791">
        <ele>1024.29</ele>
        <time>2025-12-20T12:00:18Z</time>
      </trkpt>
      <trkpt lat="45.79774" lon="3.72802">
        <ele>1024.96</ele>
        <time>2025-12-20T12:00:21Z</time>
      </trkpt>
      <trkpt lat="45.79782" lon="3.72817">
        <ele>1025.74</ele>
        <time>2025-12-20T12:00:24Z</time>
      </trkpt>
      <trkpt lat="45.79787" lon="3.7283">
        <ele>1025.02</ele>
        <time>2025-12-20T12:00:26Z</time>
      </trkpt>
      <trkpt lat="45.79794" lon="3.72848">
        <ele>1024.23</ele>
        <time>2025-12-20T12:00:28Z</time>
      </trkpt>
      <trkpt lat="45.798" lon="3.72869">
        <ele>1023.9</ele>
        <time>2025-12-20T12:00:30Z</time>
      </trkpt>
      <trkpt lat="45.79807" lon="3.72887">
        <ele>1024.02</ele>
        <time>2025-12-20T12:00:32Z</time>
      </trkpt>
      <trkpt lat="45.79812" lon="3.72906">
        <ele>1024.32</ele>
        <time>2025-12-20T12:00:34Z</time>
      </trkpt>
      <trkpt lat="45.79816" lon="3.72924">
        <ele>1024.22</ele>
        <time>2025-12-20T12:00:36Z</time>
      </trkpt>
      <trkpt lat="45.79821" lon="3.72944">
        <ele>1025.9</ele>
        <time>2025-12-20T12:00:38Z</time>
      </trkpt>
      <trkpt lat="45.79825" lon="3.72965">
        <ele>1026.02</ele>
        <time>2025-12-20T12:00:40Z</time>
      </trkpt>
      <trkpt lat="45.79828" lon="3.72985">
        <ele>1026.02</ele>
        <time>2025-12-20T12:00:42Z</time>
      </trkpt>
      <trkpt lat="45.79831" lon="3.72997">
        <ele>1025.59</ele>
        <time>2025-12-20T12:00:43Z</time>
      </trkpt>
      <trkpt lat="45.79835" lon="3.7302">
        <ele>1026.19</ele>
        <time>2025-12-20T12:00:45Z</time>
      </trkpt>
      <trkpt lat="45.79838" lon="3.73044">
        <ele>1026.72</ele>
        <time>2025-12-20T12:00:47Z</time>
      </trkpt>
      <trkpt lat="45.7984" lon="3.73067">
        <ele>1027.22</ele>
        <time>2025-12-20T12:00:49Z</time>
      </trkpt>
      <trkpt lat="45.79841" lon="3.73093">
        <ele>1028.28</ele>
        <time>2025-12-20T12:00:51Z</time>
      </trkpt>
      <trkpt lat="45.79842" lon="3.73117">
        <ele>1028.71</ele>
        <time>2025-12-20T12:00:53Z</time>
      </trkpt>
      <trkpt lat="45.79844" lon="3.7314">
        <ele>1028.5</ele>
        <time>2025-12-20T12:00:55Z</time>
      </trkpt>
      <trkpt lat="45.79848" lon="3.73159">
        <ele>1028.72</ele>
        <time>2025-12-20T12:00:57Z</time>
      </trkpt>
      <trkpt lat="45.79854" lon="3.73173">
        <ele>1029.31</ele>
        <time>2025-12-20T12:00:59Z</time>
      </trkpt>
      <trkpt lat="45.79866" lon="3.73196">
        <ele>1031.17</ele>
        <time>2025-12-20T12:01:02Z</time>
      </trkpt>
      <trkpt lat="45.79876" lon="3.73211">
        <ele>1031.41</ele>
        <time>2025-12-20T12:01:04Z</time>
      </trkpt>
      <trkpt lat="45.79891" lon="3.73226">
        <ele>1032.29</ele>
        <time>2025-12-20T12:01:06Z</time>
      </trkpt>
      <trkpt lat="45.79906" lon="3.73237">
        <ele>1031.2</ele>
        <time>2025-12-20T12:01:08Z</time>
      </trkpt>
      <trkpt lat="45.79919" lon="3.73246">
        <ele>1032.26</ele>
        <time>2025-12-20T12:01:10Z</time>
      </trkpt>
      <trkpt lat="45.79936" lon="3.73257">
        <ele>1033.61</ele>
        <time>2025-12-20T12:01:12Z</time>
      </trkpt>
      <trkpt lat="45.79947" lon="3.73264">
        <ele>1034.12</ele>
        <time>2025-12-20T12:01:13Z</time>
      </trkpt>
      <trkpt lat="45.79958" lon="3.73272">
        <ele>1034.06</ele>
        <time>2025-12-20T12:01:14Z</time>
      </trkpt>
      <trkpt lat="45.79968" lon="3.7328">
        <ele>1033.14</ele>
        <time>2025-12-20T12:01:15Z</time>
      </trkpt>
      <trkpt lat="45.79977" lon="3.73288">
        <ele>1032.94</ele>
        <time>2025-12-20T12:01:16Z</time>
      </trkpt>
      <trkpt lat="45.79985" lon="3.73295">
        <ele>1033.12</ele>
        <time>2025-12-20T12:01:17Z</time>
      </trkpt>
      <trkpt lat="45.79993" lon="3.733">
        <ele>1032.73</ele>
        <time>2025-12-20T12:01:18Z</time>
      </trkpt>
      <trkpt lat="45.80002" lon="3.73304">
        <ele>1032.89</ele>
        <time>2025-12-20T12:01:19Z</time>
      </trkpt>
      <trkpt lat="45.80018" lon="3.73304">
        <ele>1032.52</ele>
        <time>2025-12-20T12:01:21Z</time>
      </trkpt>
      <trkpt lat="45.80033" lon="3.73301">
        <ele>1031.59</ele>
        <time>2025-12-20T12:01:23Z</time>
      </trkpt>
      <trkpt lat="45.80048" lon="3.73299">
        <ele>1030.91</ele>
        <time>2025-12-20T12:01:25Z</time>
      </trkpt>
      <trkpt lat="45.8006" lon="3.73298">
        <ele>1029.95</ele>
        <time>2025-12-20T12:01:27Z</time>
      </trkpt>
      <trkpt lat="45.8007" lon="3.733">
        <ele>1028.45</ele>
        <time>2025-12-20T12:01:35Z</time>
      </trkpt>
      <trkpt lat="45.8008" lon="3.73304">
        <ele>1027.49</ele>
        <time>2025-12-20T12:01:43Z</time>
      </trkpt>
      <trkpt lat="45.80089" lon="3.73307">
        <ele>1026.73</ele>
        <time>2025-12-20T12:01:47Z</time>
      </trkpt>
      <trkpt lat="45.80099" lon="3.73312">
        <ele>1025.26</ele>
        <time>2025-12-20T12:01:52Z</time>
      </trkpt>
      <trkpt lat="45.80109" lon="3.73317">
        <ele>1023.78</ele>
        <time>2025-12-20T12:01:55Z</time>
      </trkpt>
      <trkpt lat="45.80119" lon="3.73323">
        <ele>1022.79</ele>
        <time>2025-12-20T12:01:58Z</time>
      </trkpt>
      <trkpt lat="45.8013" lon="3.73323">
        <ele>1022.28</ele>
        <time>2025-12-20T12:02:02Z</time>
      </trkpt>
      <trkpt lat="45.8014" lon="3.73321">
        <ele>1019.37</ele>
        <time>2025-12-20T12:02:09Z</time>
      </trkpt>
      <trkpt lat="45.8015" lon="3.7332">
        <ele>1018.26</ele>
        <time>2025-12-20T12:02:15Z</time>
      </trkpt>
      <trkpt lat="45.80162" lon="3.73322">
        <ele>1015.93</ele>
        <time>2025-12-20T12:02:19Z</time>
      </trkpt>
      <trkpt lat="45.80175" lon="3.73323">
        <ele>1013.88</ele>
        <time>2025-12-20T12:02:22Z</time>
      </trkpt>
      <trkpt lat="45.80187" lon="3.73322">
        <ele>1012.95</ele>
        <time>2025-12-20T12:02:25Z</time>
      </trkpt>
      <trkpt lat="45.80197" lon="3.73323">
        <ele>1010.03</ele>
        <time>2025-12-20T12:02:28Z</time>
      </trkpt>
      <trkpt lat="45.80208" lon="3.73325">
        <ele>1007.58</ele>
        <time>2025-12-20T12:02:31Z</time>
      </trkpt>
      <trkpt lat="45.80218" lon="3.73326">
        <ele>1006.2</ele>
        <time>2025-12-20T12:02:33Z</time>
      </trkpt>
      <trkpt lat="45.8023" lon="3.73327">
        <ele>1004</ele>
        <time>2025-12-20T12:02:36Z</time>
      </trkpt>
      <trkpt lat="45.80242" lon="3.73326">
        <ele>1001.32</ele>
        <time>2025-12-20T12:02:39Z</time>
      </trkpt>
      <trkpt lat="45.80251" lon="3.73326">
        <ele>1000.37</ele>
        <time>2025-12-20T12:02:41Z</time>
      </trkpt>
      <trkpt lat="45.8026" lon="3.73326">
        <ele>998.65</ele>
        <time>2025-12-20T12:02:43Z</time>
      </trkpt>
      <trkpt lat="45.8027" lon="3.73324">
        <ele>997.55</ele>
        <time>2025-12-20T12:02:47Z</time>
      </trkpt>
      <trkpt lat="45.80275" lon="3.73338">
        <ele>996.43</ele>
        <time>2025-12-20T12:03:18Z</time>
      </trkpt>
      <trkpt lat="45.8028" lon="3.73354">
        <ele>994.46</ele>
        <time>2025-12-20T12:03:20Z</time>
      </trkpt>
      <trkpt lat="45.80285" lon="3.73367">
        <ele>992.8</ele>
        <time>2025-12-20T12:03:22Z</time>
      </trkpt>
      <trkpt lat="45.80292" lon="3.73379">
        <ele>991.93</ele>
        <time>2025-12-20T12:03:25Z</time>
      </trkpt>
      <trkpt lat="45.80305" lon="3.73384">
        <ele>990.55</ele>
        <time>2025-12-20T12:03:28Z</time>
      </trkpt>
      <trkpt lat="45.80314" lon="3.73384">
        <ele>989.54</ele>
        <time>2025-12-20T12:03:30Z</time>
      </trkpt>
      <trkpt lat="45.80326" lon="3.7338">
        <ele>988.71</ele>
        <time>2025-12-20T12:03:32Z</time>
      </trkpt>
      <trkpt lat="45.80336" lon="3.73369">
        <ele>988.49</ele>
        <time>2025-12-20T12:03:34Z</time>
      </trkpt>
      <trkpt lat="45.8035" lon="3.73354">
        <ele>986.75</ele>
        <time>2025-12-20T12:03:36Z</time>
      </trkpt>
      <trkpt lat="45.80359" lon="3.73349">
        <ele>985.32</ele>
        <time>2025-12-20T12:03:37Z</time>
      </trkpt>
      <trkpt lat="45.80368" lon="3.73347">
        <ele>984.14</ele>
        <time>2025-12-20T12:03:38Z</time>
      </trkpt>
      <trkpt lat="45.80385" lon="3.73354">
        <ele>981.69</ele>
        <time>2025-12-20T12:03:40Z</time>
      </trkpt>
      <trkpt lat="45.80393" lon="3.7336">
        <ele>980.81</ele>
        <time>2025-12-20T12:03:41Z</time>
      </trkpt>
      <trkpt lat="45.80402" lon="3.73366">
        <ele>979.95</ele>
        <time>2025-12-20T12:03:42Z</time>
      </trkpt>
      <trkpt lat="45.80412" lon="3.73373">
        <ele>978.65</ele>
        <time>2025-12-20T12:03:43Z</time>
      </trkpt>
      <trkpt lat="45.80422" lon="3.73381">
        <ele>977.32</ele>
        <time>2025-12-20T12:03:44Z</time>
      </trkpt>
      <trkpt lat="45.80433" lon="3.73389">
        <ele>976.02</ele>
        <time>2025-12-20T12:03:45Z</time>
      </trkpt>
      <trkpt lat="45.80444" lon="3.73396">
        <ele>974.61</ele>
        <time>2025-12-20T12:03:46Z</time>
      </trkpt>
      <trkpt lat="45.80454" lon="3.73403">
        <ele>972.9</ele>
        <time>2025-12-20T12:03:47Z</time>
      </trkpt>
      <trkpt lat="45.80465" lon="3.73409">
        <ele>971</ele>
        <time>2025-12-20T12:03:48Z</time>
      </trkpt>
      <trkpt lat="45.80476" lon="3.73414">
        <ele>969.34</ele>
        <time>2025-12-20T12:03:49Z</time>
      </trkpt>
      <trkpt lat="45.80488" lon="3.73416">
        <ele>968.19</ele>
        <time>2025-12-20T12:03:50Z</time>
      </trkpt>
      <trkpt lat="45.80501" lon="3.73417">
        <ele>966.92</ele>
        <time>2025-12-20T12:03:51Z</time>
      </trkpt>
      <trkpt lat="45.80514" lon="3.73416">
        <ele>965.58</ele>
        <time>2025-12-20T12:03:52Z</time>
      </trkpt>
      <trkpt lat="45.80527" lon="3.73415">
        <ele>964.59</ele>
        <time>2025-12-20T12:03:53Z</time>
      </trkpt>
      <trkpt lat="45.80539" lon="3.73417">
        <ele>963.68</ele>
        <time>2025-12-20T12:03:54Z</time>
      </trkpt>
      <trkpt lat="45.80551" lon="3.7342">
        <ele>963.23</ele>
        <time>2025-12-20T12:03:55Z</time>
      </trkpt>
      <trkpt lat="45.80562" lon="3.73425">
        <ele>963.16</ele>
        <time>2025-12-20T12:03:56Z</time>
      </trkpt>
      <trkpt lat="45.80574" lon="3.73429">
        <ele>962.74</ele>
        <time>2025-12-20T12:03:57Z</time>
      </trkpt>
      <trkpt lat="45.80584" lon="3.73431">
        <ele>962.24</ele>
        <time>2025-12-20T12:03:58Z</time>
      </trkpt>
      <trkpt lat="45.80595" lon="3.73434">
        <ele>961.55</ele>
        <time>2025-12-20T12:03:59Z</time>
      </trkpt>
      <trkpt lat="45.80606" lon="3.73436">
        <ele>961.24</ele>
        <time>2025-12-20T12:04:00Z</time>
      </trkpt>
      <trkpt lat="45.80618" lon="3.73442">
        <ele>960.3</ele>
        <time>2025-12-20T12:04:01Z</time>
      </trkpt>
      <trkpt lat="45.80629" lon="3.73448">
        <ele>960.26</ele>
        <time>2025-12-20T12:04:02Z</time>
      </trkpt>
      <trkpt lat="45.80641" lon="3.73452">
        <ele>958.92</ele>
        <time>2025-12-20T12:04:03Z</time>
      </trkpt>
      <trkpt lat="45.80652" lon="3.73456">
        <ele>957.97</ele>
        <time>2025-12-20T12:04:04Z</time>
      </trkpt>
      <trkpt lat="45.80664" lon="3.73459">
        <ele>957.28</ele>
        <time>2025-12-20T12:04:05Z</time>
      </trkpt>
      <trkpt lat="45.80676" lon="3.73462">
        <ele>956.58</ele>
        <time>2025-12-20T12:04:06Z</time>
      </trkpt>
      <trkpt lat="45.80687" lon="3.73465">
        <ele>955.63</ele>
        <time>2025-12-20T12:04:07Z</time>
      </trkpt>
      <trkpt lat="45.80697" lon="3.73469">
        <ele>954.49</ele>
        <time>2025-12-20T12:04:08Z</time>
      </trkpt>
      <trkpt lat="45.80707" lon="3.73471">
        <ele>953.33</ele>
        <time>2025-12-20T12:04:09Z</time>
      </trkpt>
      <trkpt lat="45.80717" lon="3.73473">
        <ele>952.15</ele>
        <time>2025-12-20T12:04:10Z</time>
      </trkpt>
      <trkpt lat="45.80727" lon="3.73475">
        <ele>950.84</ele>
        <time>2025-12-20T12:04:11Z</time>
      </trkpt>
      <trkpt lat="45.80737" lon="3.73477">
        <ele>950.67</ele>
        <time>2025-12-20T12:04:12Z</time>
      </trkpt>
      <trkpt lat="45.80746" lon="3.73481">
        <ele>949.44</ele>
        <time>2025-12-20T12:04:13Z</time>
      </trkpt>
      <trkpt lat="45.80762" lon="3.73492">
        <ele>947.59</ele>
        <time>2025-12-20T12:04:15Z</time>
      </trkpt>
      <trkpt lat="45.80773" lon="3.73503">
        <ele>945.87</ele>
        <time>2025-12-20T12:04:17Z</time>
      </trkpt>
      <trkpt lat="45.80784" lon="3.73502">
        <ele>945.36</ele>
        <time>2025-12-20T12:04:20Z</time>
      </trkpt>
      <trkpt lat="45.80792" lon="3.73493">
        <ele>944.81</ele>
        <time>2025-12-20T12:04:22Z</time>
      </trkpt>
      <trkpt lat="45.80802" lon="3.73479">
        <ele>944.28</ele>
        <time>2025-12-20T12:04:24Z</time>
      </trkpt>
      <trkpt lat="45.80814" lon="3.73465">
        <ele>943.59</ele>
        <time>2025-12-20T12:04:26Z</time>
      </trkpt>
      <trkpt lat="45.80824" lon="3.73455">
        <ele>942.97</ele>
        <time>2025-12-20T12:04:28Z</time>
      </trkpt>
      <trkpt lat="45.80833" lon="3.73445">
        <ele>942.14</ele>
        <time>2025-12-20T12:04:31Z</time>
      </trkpt>
      <trkpt lat="45.8084" lon="3.73437">
        <ele>941.98</ele>
        <time>2025-12-20T12:04:34Z</time>
      </trkpt>
      <trkpt lat="45.80846" lon="3.73426">
        <ele>941.65</ele>
        <time>2025-12-20T12:04:36Z</time>
      </trkpt>
      <trkpt lat="45.80857" lon="3.73414">
        <ele>941.01</ele>
        <time>2025-12-20T12:04:38Z</time>
      </trkpt>
      <trkpt lat="45.80871" lon="3.73399">
        <ele>940.08</ele>
        <time>2025-12-20T12:04:40Z</time>
      </trkpt>
      <trkpt lat="45.80878" lon="3.73391">
        <ele>939.67</ele>
        <time>2025-12-20T12:04:41Z</time>
      </trkpt>
      <trkpt lat="45.80886" lon="3.73383">
        <ele>939.21</ele>
        <time>2025-12-20T12:04:42Z</time>
      </trkpt>
      <trkpt lat="45.809" lon="3.73371">
        <ele>937.98</ele>
        <time>2025-12-20T12:04:44Z</time>
      </trkpt>
      <trkpt lat="45.80916" lon="3.73361">
        <ele>937.99</ele>
        <time>2025-12-20T12:04:46Z</time>
      </trkpt>
      <trkpt lat="45.80932" lon="3.73353">
        <ele>937.89</ele>
        <time>2025-12-20T12:04:48Z</time>
      </trkpt>
      <trkpt lat="45.80941" lon="3.73349">
        <ele>938.31</ele>
        <time>2025-12-20T12:04:49Z</time>
      </trkpt>
      <trkpt lat="45.80951" lon="3.73345">
        <ele>938.9</ele>
        <time>2025-12-20T12:04:50Z</time>
      </trkpt>
      <trkpt lat="45.80969" lon="3.73337">
        <ele>940.28</ele>
        <time>2025-12-20T12:04:52Z</time>
      </trkpt>
      <trkpt lat="45.80981" lon="3.73336">
        <ele>940.17</ele>
        <time>2025-12-20T12:04:53Z</time>
      </trkpt>
      <trkpt lat="45.80992" lon="3.73338">
        <ele>940.6</ele>
        <time>2025-12-20T12:04:54Z</time>
      </trkpt>
      <trkpt lat="45.81002" lon="3.73339">
        <ele>940.87</ele>
        <time>2025-12-20T12:04:55Z</time>
      </trkpt>
      <trkpt lat="45.81011" lon="3.7334">
        <ele>940.82</ele>
        <time>2025-12-20T12:04:56Z</time>
      </trkpt>
      <trkpt lat="45.81021" lon="3.73339">
        <ele>941.65</ele>
        <time>2025-12-20T12:04:57Z</time>
      </trkpt>
      <trkpt lat="45.81031" lon="3.73337">
        <ele>941.71</ele>
        <time>2025-12-20T12:04:58Z</time>
      </trkpt>
      <trkpt lat="45.81048" lon="3.73332">
        <ele>940.84</ele>
        <time>2025-12-20T12:05:00Z</time>
      </trkpt>
      <trkpt lat="45.81067" lon="3.7333">
        <ele>941.21</ele>
        <time>2025-12-20T12:05:02Z</time>
      </trkpt>
      <trkpt lat="45.81075" lon="3.73337">
        <ele>940.33</ele>
        <time>2025-12-20T12:05:03Z</time>
      </trkpt>
      <trkpt lat="45.81083" lon="3.73349">
        <ele>940.17</ele>
        <time>2025-12-20T12:05:04Z</time>
      </trkpt>
      <trkpt lat="45.81089" lon="3.73362">
        <ele>940</ele>
        <time>2025-12-20T12:05:05Z</time>
      </trkpt>
      <trkpt lat="45.81095" lon="3.73376">
        <ele>939.44</ele>
        <time>2025-12-20T12:05:06Z</time>
      </trkpt>
      <trkpt lat="45.81103" lon="3.73385">
        <ele>939.4</ele>
        <time>2025-12-20T12:05:07Z</time>
      </trkpt>
      <trkpt lat="45.81119" lon="3.73389">
        <ele>938.88</ele>
        <time>2025-12-20T12:05:09Z</time>
      </trkpt>
      <trkpt lat="45.81129" lon="3.73383">
        <ele>939.23</ele>
        <time>2025-12-20T12:05:11Z</time>
      </trkpt>
      <trkpt lat="45.8114" lon="3.73368">
        <ele>940.01</ele>
        <time>2025-12-20T12:05:13Z</time>
      </trkpt>
      <trkpt lat="45.8115" lon="3.73349">
        <ele>940.59</ele>
        <time>2025-12-20T12:05:15Z</time>
      </trkpt>
      <trkpt lat="45.81159" lon="3.73332">
        <ele>942.25</ele>
        <time>2025-12-20T12:05:17Z</time>
      </trkpt>
      <trkpt lat="45.81169" lon="3.73318">
        <ele>943.98</ele>
        <time>2025-12-20T12:05:19Z</time>
      </trkpt>
      <trkpt lat="45.81184" lon="3.73302">
        <ele>945.47</ele>
        <time>2025-12-20T12:05:21Z</time>
      </trkpt>
      <trkpt lat="45.81196" lon="3.73293">
        <ele>945.54</ele>
        <time>2025-12-20T12:05:22Z</time>
      </trkpt>
      <trkpt lat="45.81208" lon="3.73292">
        <ele>945.3</ele>
        <time>2025-12-20T12:05:23Z</time>
      </trkpt>
      <trkpt lat="45.81218" lon="3.73296">
        <ele>945.76</ele>
        <time>2025-12-20T12:05:24Z</time>
      </trkpt>
      <trkpt lat="45.81228" lon="3.73301">
        <ele>946.84</ele>
        <time>2025-12-20T12:05:25Z</time>
      </trkpt>
      <trkpt lat="45.81238" lon="3.73308">
        <ele>947.22</ele>
        <time>2025-12-20T12:05:26Z</time>
      </trkpt>
      <trkpt lat="45.81248" lon="3.73314">
        <ele>947.45</ele>
        <time>2025-12-20T12:05:27Z</time>
      </trkpt>
      <trkpt lat="45.81259" lon="3.73322">
        <ele>947.84</ele>
        <time>2025-12-20T12:05:28Z</time>
      </trkpt>
      <trkpt lat="45.81269" lon="3.73327">
        <ele>946.38</ele>
        <time>2025-12-20T12:05:29Z</time>
      </trkpt>
      <trkpt lat="45.8128" lon="3.7333">
        <ele>946.16</ele>
        <time>2025-12-20T12:05:30Z</time>
      </trkpt>
      <trkpt lat="45.81291" lon="3.73329">
        <ele>947.3</ele>
        <time>2025-12-20T12:05:31Z</time>
      </trkpt>
      <trkpt lat="45.81301" lon="3.73324">
        <ele>946.61</ele>
        <time>2025-12-20T12:05:32Z</time>
      </trkpt>
      <trkpt lat="45.81311" lon="3.73321">
        <ele>945.4</ele>
        <time>2025-12-20T12:05:33Z</time>
      </trkpt>
      <trkpt lat="45.81324" lon="3.73317">
        <ele>945.76</ele>
        <time>2025-12-20T12:05:34Z</time>
      </trkpt>
      <trkpt lat="45.81341" lon="3.73309">
        <ele>944.49</ele>
        <time>2025-12-20T12:05:35Z</time>
      </trkpt>
      <trkpt lat="45.81359" lon="3.733">
        <ele>943.37</ele>
        <time>2025-12-20T12:05:36Z</time>
      </trkpt>
      <trkpt lat="45.8138" lon="3.73289">
        <ele>943.42</ele>
        <time>2025-12-20T12:05:37Z</time>
      </trkpt>
      <trkpt lat="45.81396" lon="3.73278">
        <ele>942.72</ele>
        <time>2025-12-20T12:05:38Z</time>
      </trkpt>
      <trkpt lat="45.81409" lon="3.73266">
        <ele>942.48</ele>
        <time>2025-12-20T12:05:39Z</time>
      </trkpt>
      <trkpt lat="45.81422" lon="3.73253">
        <ele>941.9</ele>
        <time>2025-12-20T12:05:40Z</time>
      </trkpt>
      <trkpt lat="45.81434" lon="3.7324">
        <ele>941.27</ele>
        <time>2025-12-20T12:05:41Z</time>
      </trkpt>
      <trkpt lat="45.81447" lon="3.73227">
        <ele>942.11</ele>
        <time>2025-12-20T12:05:42Z</time>
      </trkpt>
      <trkpt lat="45.81458" lon="3.73217">
        <ele>942.6</ele>
        <time>2025-12-20T12:05:43Z</time>
      </trkpt>
      <trkpt lat="45.81468" lon="3.73209">
        <ele>942.78</ele>
        <time>2025-12-20T12:05:44Z</time>
      </trkpt>
      <trkpt lat="45.81478" lon="3.73202">
        <ele>942.44</ele>
        <time>2025-12-20T12:05:45Z</time>
      </trkpt>
      <trkpt lat="45.81488" lon="3.73196">
        <ele>941.89</ele>
        <time>2025-12-20T12:05:46Z</time>
      </trkpt>
      <trkpt lat="45.81499" lon="3.7319">
        <ele>941.13</ele>
        <time>2025-12-20T12:05:47Z</time>
      </trkpt>
      <trkpt lat="45.8151" lon="3.73186">
        <ele>940.65</ele>
        <time>2025-12-20T12:05:48Z</time>
      </trkpt>
      <trkpt lat="45.81521" lon="3.73182">
        <ele>940.47</ele>
        <time>2025-12-20T12:05:49Z</time>
      </trkpt>
      <trkpt lat="45.81531" lon="3.7318">
        <ele>940.23</ele>
        <time>2025-12-20T12:05:50Z</time>
      </trkpt>
      <trkpt lat="45.8154" lon="3.73178">
        <ele>940.36</ele>
        <time>2025-12-20T12:05:51Z</time>
      </trkpt>
      <trkpt lat="45.81555" lon="3.7318">
        <ele>940.11</ele>
        <time>2025-12-20T12:05:53Z</time>
      </trkpt>
      <trkpt lat="45.81564" lon="3.73188">
        <ele>939.68</ele>
        <time>2025-12-20T12:05:55Z</time>
      </trkpt>
      <trkpt lat="45.81562" lon="3.73207">
        <ele>939.73</ele>
        <time>2025-12-20T12:05:57Z</time>
      </trkpt>
      <trkpt lat="45.81556" lon="3.73217">
        <ele>939.36</ele>
        <time>2025-12-20T12:05:58Z</time>
      </trkpt>
      <trkpt lat="45.81553" lon="3.7323">
        <ele>938.62</ele>
        <time>2025-12-20T12:05:59Z</time>
      </trkpt>
      <trkpt lat="45.81551" lon="3.73244">
        <ele>938.53</ele>
        <time>2025-12-20T12:06:00Z</time>
      </trkpt>
      <trkpt lat="45.81547" lon="3.73266">
        <ele>938.55</ele>
        <time>2025-12-20T12:06:02Z</time>
      </trkpt>
      <trkpt lat="45.81544" lon="3.73284">
        <ele>939.16</ele>
        <time>2025-12-20T12:06:04Z</time>
      </trkpt>
      <trkpt lat="45.8154" lon="3.73302">
        <ele>938.79</ele>
        <time>2025-12-20T12:06:07Z</time>
      </trkpt>
      <trkpt lat="45.81536" lon="3.73315">
        <ele>938.51</ele>
        <time>2025-12-20T12:06:09Z</time>
      </trkpt>
      <trkpt lat="45.8153" lon="3.73333">
        <ele>937.87</ele>
        <time>2025-12-20T12:06:12Z</time>
      </trkpt>
      <trkpt lat="45.81527" lon="3.73345">
        <ele>937.64</ele>
        <time>2025-12-20T12:06:14Z</time>
      </trkpt>
      <trkpt lat="45.81522" lon="3.73363">
        <ele>936.86</ele>
        <time>2025-12-20T12:06:17Z</time>
      </trkpt>
      <trkpt lat="45.81518" lon="3.73376">
        <ele>936.45</ele>
        <time>2025-12-20T12:06:19Z</time>
      </trkpt>
      <trkpt lat="45.81514" lon="3.73389">
        <ele>935.78</ele>
        <time>2025-12-20T12:06:21Z</time>
      </trkpt>
      <trkpt lat="45.81509" lon="3.73403">
        <ele>935.49</ele>
        <time>2025-12-20T12:06:23Z</time>
      </trkpt>
      <trkpt lat="45.81505" lon="3.73418">
        <ele>935.81</ele>
        <time>2025-12-20T12:06:25Z</time>
      </trkpt>
      <trkpt lat="45.81499" lon="3.73436">
        <ele>935.38</ele>
        <time>2025-12-20T12:06:27Z</time>
      </trkpt>
      <trkpt lat="45.81494" lon="3.73454">
        <ele>935.03</ele>
        <time>2025-12-20T12:06:29Z</time>
      </trkpt>
      <trkpt lat="45.81488" lon="3.73471">
        <ele>933.92</ele>
        <time>2025-12-20T12:06:31Z</time>
      </trkpt>
      <trkpt lat="45.81482" lon="3.73486">
        <ele>933.43</ele>
        <time>2025-12-20T12:06:33Z</time>
      </trkpt>
      <trkpt lat="45.81474" lon="3.73503">
        <ele>931.56</ele>
        <time>2025-12-20T12:06:35Z</time>
      </trkpt>
      <trkpt lat="45.81466" lon="3.73517">
        <ele>931.27</ele>
        <time>2025-12-20T12:06:37Z</time>
      </trkpt>
      <trkpt lat="45.81458" lon="3.73531">
        <ele>930.79</ele>
        <time>2025-12-20T12:06:39Z</time>
      </trkpt>
      <trkpt lat="45.81451" lon="3.73546">
        <ele>930.51</ele>
        <time>2025-12-20T12:06:41Z</time>
      </trkpt>
      <trkpt lat="45.81452" lon="3.73566">
        <ele>929.57</ele>
        <time>2025-12-20T12:06:43Z</time>
      </trkpt>
      <trkpt lat="45.81457" lon="3.73591">
        <ele>928.49</ele>
        <time>2025-12-20T12:06:45Z</time>
      </trkpt>
      <trkpt lat="45.8146" lon="3.73604">
        <ele>927.26</ele>
        <time>2025-12-20T12:06:46Z</time>
      </trkpt>
      <trkpt lat="45.81462" lon="3.73617">
        <ele>927.19</ele>
        <time>2025-12-20T12:06:47Z</time>
      </trkpt>
      <trkpt lat="45.81463" lon="3.7363">
        <ele>926.84</ele>
        <time>2025-12-20T12:06:48Z</time>
      </trkpt>
      <trkpt lat="45.81467" lon="3.73652">
        <ele>926.19</ele>
        <time>2025-12-20T12:06:50Z</time>
      </trkpt>
      <trkpt lat="45.81471" lon="3.73671">
        <ele>924.96</ele>
        <time>2025-12-20T12:06:52Z</time>
      </trkpt>
      <trkpt lat="45.81472" lon="3.7369">
        <ele>924.02</ele>
        <time>2025-12-20T12:06:54Z</time>
      </trkpt>
      <trkpt lat="45.81475" lon="3.73709">
        <ele>922.04</ele>
        <time>2025-12-20T12:06:56Z</time>
      </trkpt>
      <trkpt lat="45.81481" lon="3.73729">
        <ele>921.01</ele>
        <time>2025-12-20T12:06:58Z</time>
      </trkpt>
      <trkpt lat="45.81486" lon="3.73752">
        <ele>919.7</ele>
        <time>2025-12-20T12:07:00Z</time>
      </trkpt>
      <trkpt lat="45.81489" lon="3.73773">
        <ele>918.32</ele>
        <time>2025-12-20T12:07:02Z</time>
      </trkpt>
      <trkpt lat="45.8149" lon="3.7379">
        <ele>917.7</ele>
        <time>2025-12-20T12:07:04Z</time>
      </trkpt>
      <trkpt lat="45.81491" lon="3.73805">
        <ele>917.31</ele>
        <time>2025-12-20T12:07:06Z</time>
      </trkpt>
      <trkpt lat="45.81491" lon="3.73824">
        <ele>916.09</ele>
        <time>2025-12-20T12:07:09Z</time>
      </trkpt>
      <trkpt lat="45.81492" lon="3.73844">
        <ele>916.1</ele>
        <time>2025-12-20T12:07:12Z</time>
      </trkpt>
      <trkpt lat="45.81493" lon="3.7386">
        <ele>915.82</ele>
        <time>2025-12-20T12:07:14Z</time>
      </trkpt>
      <trkpt lat="45.81493" lon="3.73877">
        <ele>915.86</ele>
        <time>2025-12-20T12:07:16Z</time>
      </trkpt>
      <trkpt lat="45.81494" lon="3.7389">
        <ele>915.19</ele>
        <time>2025-12-20T12:07:18Z</time>
      </trkpt>
      <trkpt lat="45.81494" lon="3.73906">
        <ele>914.56</ele>
        <time>2025-12-20T12:07:22Z</time>
      </trkpt>
      <trkpt lat="45.81495" lon="3.73922">
        <ele>913.26</ele>
        <time>2025-12-20T12:07:26Z</time>
      </trkpt>
      <trkpt lat="45.81496" lon="3.73936">
        <ele>912.71</ele>
        <time>2025-12-20T12:07:29Z</time>
      </trkpt>
      <trkpt lat="45.815" lon="3.73952">
        <ele>912.29</ele>
        <time>2025-12-20T12:07:32Z</time>
      </trkpt>
      <trkpt lat="45.81505" lon="3.73965">
        <ele>911.32</ele>
        <time>2025-12-20T12:07:34Z</time>
      </trkpt>
      <trkpt lat="45.81511" lon="3.73979">
        <ele>909.23</ele>
        <time>2025-12-20T12:07:36Z</time>
      </trkpt>
      <trkpt lat="45.81518" lon="3.73994">
        <ele>908.35</ele>
        <time>2025-12-20T12:07:38Z</time>
      </trkpt>
      <trkpt lat="45.81524" lon="3.74013">
        <ele>907.46</ele>
        <time>2025-12-20T12:07:40Z</time>
      </trkpt>
      <trkpt lat="45.81528" lon="3.74029">
        <ele>904.71</ele>
        <time>2025-12-20T12:07:42Z</time>
      </trkpt>
      <trkpt lat="45.81532" lon="3.74042">
        <ele>903.9</ele>
        <time>2025-12-20T12:07:44Z</time>
      </trkpt>
      <trkpt lat="45.81534" lon="3.74056">
        <ele>902.6</ele>
        <time>2025-12-20T12:07:46Z</time>
      </trkpt>
      <trkpt lat="45.81538" lon="3.74071">
        <ele>901.09</ele>
        <time>2025-12-20T12:07:48Z</time>
      </trkpt>
      <trkpt lat="45.81543" lon="3.74088">
        <ele>900.18</ele>
        <time>2025-12-20T12:07:50Z</time>
      </trkpt>
      <trkpt lat="45.81551" lon="3.74103">
        <ele>898.62</ele>
        <time>2025-12-20T12:07:52Z</time>
      </trkpt>
      <trkpt lat="45.81557" lon="3.74114">
        <ele>898.02</ele>
        <time>2025-12-20T12:07:54Z</time>
      </trkpt>
      <trkpt lat="45.81563" lon="3.74126">
        <ele>896.84</ele>
        <time>2025-12-20T12:07:56Z</time>
      </trkpt>
      <trkpt lat="45.81571" lon="3.74137">
        <ele>895.79</ele>
        <time>2025-12-20T12:07:58Z</time>
      </trkpt>
      <trkpt lat="45.81579" lon="3.7415">
        <ele>895.54</ele>
        <time>2025-12-20T12:08:00Z</time>
      </trkpt>
      <trkpt lat="45.81588" lon="3.74161">
        <ele>894.53</ele>
        <time>2025-12-20T12:08:02Z</time>
      </trkpt>
      <trkpt lat="45.816" lon="3.7417">
        <ele>893.27</ele>
        <time>2025-12-20T12:08:04Z</time>
      </trkpt>
      <trkpt lat="45.81609" lon="3.74177">
        <ele>892.83</ele>
        <time>2025-12-20T12:08:06Z</time>
      </trkpt>
      <trkpt lat="45.81619" lon="3.74186">
        <ele>892.52</ele>
        <time>2025-12-20T12:08:08Z</time>
      </trkpt>
      <trkpt lat="45.81629" lon="3.74196">
        <ele>891.59</ele>
        <time>2025-12-20T12:08:10Z</time>
      </trkpt>
      <trkpt lat="45.81638" lon="3.74207">
        <ele>891.09</ele>
        <time>2025-12-20T12:08:12Z</time>
      </trkpt>
      <trkpt lat="45.81646" lon="3.74217">
        <ele>890.12</ele>
        <time>2025-12-20T12:08:14Z</time>
      </trkpt>
      <trkpt lat="45.81654" lon="3.74226">
        <ele>889.31</ele>
        <time>2025-12-20T12:08:16Z</time>
      </trkpt>
      <trkpt lat="45.81662" lon="3.74233">
        <ele>888.58</ele>
        <time>2025-12-20T12:08:18Z</time>
      </trkpt>
      <trkpt lat="45.81671" lon="3.74243">
        <ele>887.02</ele>
        <time>2025-12-20T12:08:21Z</time>
      </trkpt>
      <trkpt lat="45.81677" lon="3.74254">
        <ele>886.3</ele>
        <time>2025-12-20T12:08:23Z</time>
      </trkpt>
      <trkpt lat="45.81683" lon="3.74266">
        <ele>885.28</ele>
        <time>2025-12-20T12:08:25Z</time>
      </trkpt>
      <trkpt lat="45.81688" lon="3.74283">
        <ele>883.88</ele>
        <time>2025-12-20T12:08:28Z</time>
      </trkpt>
      <trkpt lat="45.81691" lon="3.74298">
        <ele>883.22</ele>
        <time>2025-12-20T12:08:30Z</time>
      </trkpt>
      <trkpt lat="45.81697" lon="3.74317">
        <ele>882.14</ele>
        <time>2025-12-20T12:08:32Z</time>
      </trkpt>
      <trkpt lat="45.81702" lon="3.74328">
        <ele>881.59</ele>
        <time>2025-12-20T12:08:33Z</time>
      </trkpt>
      <trkpt lat="45.81709" lon="3.74347">
        <ele>880.43</ele>
        <time>2025-12-20T12:08:35Z</time>
      </trkpt>
      <trkpt lat="45.81717" lon="3.74363">
        <ele>878.62</ele>
        <time>2025-12-20T12:08:37Z</time>
      </trkpt>
      <trkpt lat="45.81723" lon="3.74382">
        <ele>876.95</ele>
        <time>2025-12-20T12:08:39Z</time>
      </trkpt>
      <trkpt lat="45.81726" lon="3.744">
        <ele>875.08</ele>
        <time>2025-12-20T12:08:41Z</time>
      </trkpt>
      <trkpt lat="45.81729" lon="3.74416">
        <ele>873.86</ele>
        <time>2025-12-20T12:08:43Z</time>
      </trkpt>
      <trkpt lat="45.81733" lon="3.74432">
        <ele>871.08</ele>
        <time>2025-12-20T12:08:45Z</time>
      </trkpt>
      <trkpt lat="45.81736" lon="3.74445">
        <ele>868.41</ele>
        <time>2025-12-20T12:08:47Z</time>
      </trkpt>
      <trkpt lat="45.81739" lon="3.74462">
        <ele>866.82</ele>
        <time>2025-12-20T12:08:50Z</time>
      </trkpt>
      <trkpt lat="45.81742" lon="3.74475">
        <ele>866.05</ele>
        <time>2025-12-20T12:08:52Z</time>
      </trkpt>
      <trkpt lat="45.81746" lon="3.74491">
        <ele>864.74</ele>
        <time>2025-12-20T12:08:54Z</time>
      </trkpt>
      <trkpt lat="45.81749" lon="3.74505">
        <ele>862.38</ele>
        <time>2025-12-20T12:08:56Z</time>
      </trkpt>
      <trkpt lat="45.81753" lon="3.74524">
        <ele>859.96</ele>
        <time>2025-12-20T12:08:59Z</time>
      </trkpt>
      <trkpt lat="45.81756" lon="3.74539">
        <ele>857.78</ele>
        <time>2025-12-20T12:09:02Z</time>
      </trkpt>
      <trkpt lat="45.81759" lon="3.74554">
        <ele>855.92</ele>
        <time>2025-12-20T12:09:05Z</time>
      </trkpt>
      <trkpt lat="45.81764" lon="3.74568">
        <ele>855.5</ele>
        <time>2025-12-20T12:09:08Z</time>
      </trkpt>
      <trkpt lat="45.81769" lon="3.74583">
        <ele>852.11</ele>
        <time>2025-12-20T12:09:30Z</time>
      </trkpt>
      <trkpt lat="45.81769" lon="3.74599">
        <ele>850.46</ele>
        <time>2025-12-20T12:09:32Z</time>
      </trkpt>
      <trkpt lat="45.81771" lon="3.74623">
        <ele>848.12</ele>
        <time>2025-12-20T12:09:34Z</time>
      </trkpt>
      <trkpt lat="45.81773" lon="3.74637">
        <ele>847.08</ele>
        <time>2025-12-20T12:09:35Z</time>
      </trkpt>
      <trkpt lat="45.81776" lon="3.74653">
        <ele>845.96</ele>
        <time>2025-12-20T12:09:36Z</time>
      </trkpt>
      <trkpt lat="45.81778" lon="3.74668">
        <ele>845</ele>
        <time>2025-12-20T12:09:37Z</time>
      </trkpt>
      <trkpt lat="45.8178" lon="3.74683">
        <ele>843.13</ele>
        <time>2025-12-20T12:09:38Z</time>
      </trkpt>
      <trkpt lat="45.81781" lon="3.74698">
        <ele>841.21</ele>
        <time>2025-12-20T12:09:39Z</time>
      </trkpt>
      <trkpt lat="45.81782" lon="3.74713">
        <ele>839.58</ele>
        <time>2025-12-20T12:09:40Z</time>
      </trkpt>
      <trkpt lat="45.81781" lon="3.74728">
        <ele>838.03</ele>
        <time>2025-12-20T12:09:41Z</time>
      </trkpt>
      <trkpt lat="45.81781" lon="3.74742">
        <ele>836.59</ele>
        <time>2025-12-20T12:09:42Z</time>
      </trkpt>
      <trkpt lat="45.81781" lon="3.74756">
        <ele>835.18</ele>
        <time>2025-12-20T12:09:43Z</time>
      </trkpt>
      <trkpt lat="45.81781" lon="3.7477">
        <ele>833.97</ele>
        <time>2025-12-20T12:09:44Z</time>
      </trkpt>
      <trkpt lat="45.81781" lon="3.74784">
        <ele>832.99</ele>
        <time>2025-12-20T12:09:45Z</time>
      </trkpt>
      <trkpt lat="45.81783" lon="3.74806">
        <ele>831.73</ele>
        <time>2025-12-20T12:09:47Z</time>
      </trkpt>
      <trkpt lat="45.81785" lon="3.74824">
        <ele>831.46</ele>
        <time>2025-12-20T12:09:49Z</time>
      </trkpt>
      <trkpt lat="45.81793" lon="3.7484">
        <ele>829.68</ele>
        <time>2025-12-20T12:09:51Z</time>
      </trkpt>
      <trkpt lat="45.81803" lon="3.74861">
        <ele>828.16</ele>
        <time>2025-12-20T12:09:53Z</time>
      </trkpt>
      <trkpt lat="45.81807" lon="3.74873">
        <ele>827.57</ele>
        <time>2025-12-20T12:09:54Z</time>
      </trkpt>
      <trkpt lat="45.81812" lon="3.74886">
        <ele>826.87</ele>
        <time>2025-12-20T12:09:55Z</time>
      </trkpt>
      <trkpt lat="45.81815" lon="3.74899">
        <ele>826.23</ele>
        <time>2025-12-20T12:09:56Z</time>
      </trkpt>
      <trkpt lat="45.81818" lon="3.74912">
        <ele>825.69</ele>
        <time>2025-12-20T12:09:57Z</time>
      </trkpt>
      <trkpt lat="45.81821" lon="3.74926">
        <ele>824.89</ele>
        <time>2025-12-20T12:09:58Z</time>
      </trkpt>
      <trkpt lat="45.81825" lon="3.74939">
        <ele>824.22</ele>
        <time>2025-12-20T12:09:59Z</time>
      </trkpt>
      <trkpt lat="45.81829" lon="3.74962">
        <ele>823.19</ele>
        <time>2025-12-20T12:10:01Z</time>
      </trkpt>
      <trkpt lat="45.81834" lon="3.74983">
        <ele>822.43</ele>
        <time>2025-12-20T12:10:03Z</time>
      </trkpt>
      <trkpt lat="45.81839" lon="3.75007">
        <ele>821.66</ele>
        <time>2025-12-20T12:10:05Z</time>
      </trkpt>
      <trkpt lat="45.81842" lon="3.75019">
        <ele>821.53</ele>
        <time>2025-12-20T12:10:06Z</time>
      </trkpt>
      <trkpt lat="45.81844" lon="3.75032">
        <ele>821.29</ele>
        <time>2025-12-20T12:10:07Z</time>
      </trkpt>
      <trkpt lat="45.81848" lon="3.75057">
        <ele>820.94</ele>
        <time>2025-12-20T12:10:09Z</time>
      </trkpt>
      <trkpt lat="45.81852" lon="3.75079">
        <ele>819.66</ele>
        <time>2025-12-20T12:10:11Z</time>
      </trkpt>
      <trkpt lat="45.81856" lon="3.75103">
        <ele>817.76</ele>
        <time>2025-12-20T12:10:13Z</time>
      </trkpt>
      <trkpt lat="45.8186" lon="3.75124">
        <ele>816.24</ele>
        <time>2025-12-20T12:10:15Z</time>
      </trkpt>
      <trkpt lat="45.81864" lon="3.75143">
        <ele>814.89</ele>
        <time>2025-12-20T12:10:17Z</time>
      </trkpt>
      <trkpt lat="45.81869" lon="3.75163">
        <ele>813.29</ele>
        <time>2025-12-20T12:10:19Z</time>
      </trkpt>
      <trkpt lat="45.81874" lon="3.75186">
        <ele>811.56</ele>
        <time>2025-12-20T12:10:21Z</time>
      </trkpt>
      <trkpt lat="45.81879" lon="3.75208">
        <ele>811.08</ele>
        <time>2025-12-20T12:10:23Z</time>
      </trkpt>
      <trkpt lat="45.81883" lon="3.75227">
        <ele>809.99</ele>
        <time>2025-12-20T12:10:25Z</time>
      </trkpt>
      <trkpt lat="45.81887" lon="3.75245">
        <ele>809.04</ele>
        <time>2025-12-20T12:10:27Z</time>
      </trkpt>
      <trkpt lat="45.81892" lon="3.75266">
        <ele>808.14</ele>
        <time>2025-12-20T12:10:29Z</time>
      </trkpt>
      <trkpt lat="45.819" lon="3.75287">
        <ele>806.8</ele>
        <time>2025-12-20T12:10:31Z</time>
      </trkpt>
      <trkpt lat="45.81909" lon="3.75309">
        <ele>805.59</ele>
        <time>2025-12-20T12:10:33Z</time>
      </trkpt>
      <trkpt lat="45.81917" lon="3.75329">
        <ele>804.76</ele>
        <time>2025-12-20T12:10:35Z</time>
      </trkpt>
      <trkpt lat="45.81928" lon="3.75354">
        <ele>803.26</ele>
        <time>2025-12-20T12:10:38Z</time>
      </trkpt>
      <trkpt lat="45.81936" lon="3.75373">
        <ele>801.75</ele>
        <time>2025-12-20T12:10:40Z</time>
      </trkpt>
      <trkpt lat="45.81945" lon="3.75392">
        <ele>800.91</ele>
        <time>2025-12-20T12:10:42Z</time>
      </trkpt>
      <trkpt lat="45.81962" lon="3.7542">
        <ele>799.92</ele>
        <time>2025-12-20T12:10:45Z</time>
      </trkpt>
      <trkpt lat="45.81968" lon="3.75429">
        <ele>799.65</ele>
        <time>2025-12-20T12:10:46Z</time>
      </trkpt>
      <trkpt lat="45.81975" lon="3.75439">
        <ele>799.44</ele>
        <time>2025-12-20T12:10:47Z</time>
      </trkpt>
      <trkpt lat="45.81986" lon="3.75457">
        <ele>799.06</ele>
        <time>2025-12-20T12:10:49Z</time>
      </trkpt>
      <trkpt lat="45.81996" lon="3.7547">
        <ele>798.64</ele>
        <time>2025-12-20T12:10:51Z</time>
      </trkpt>
      <trkpt lat="45.82004" lon="3.75488">
        <ele>798.46</ele>
        <time>2025-12-20T12:10:54Z</time>
      </trkpt>
      <trkpt lat="45.82011" lon="3.75502">
        <ele>798.4</ele>
        <time>2025-12-20T12:10:56Z</time>
      </trkpt>
      <trkpt lat="45.82017" lon="3.75518">
        <ele>798.14</ele>
        <time>2025-12-20T12:10:58Z</time>
      </trkpt>
      <trkpt lat="45.82023" lon="3.75532">
        <ele>798.06</ele>
        <time>2025-12-20T12:11:00Z</time>
      </trkpt>
      <trkpt lat="45.82024" lon="3.75551">
        <ele>798.21</ele>
        <time>2025-12-20T12:11:02Z</time>
      </trkpt>
      <trkpt lat="45.82024" lon="3.75575">
        <ele>798.49</ele>
        <time>2025-12-20T12:11:04Z</time>
      </trkpt>
      <trkpt lat="45.82026" lon="3.75589">
        <ele>798.65</ele>
        <time>2025-12-20T12:11:05Z</time>
      </trkpt>
      <trkpt lat="45.82028" lon="3.75603">
        <ele>799.24</ele>
        <time>2025-12-20T12:11:06Z</time>
      </trkpt>
      <trkpt lat="45.82031" lon="3.75617">
        <ele>799.53</ele>
        <time>2025-12-20T12:11:07Z</time>
      </trkpt>
      <trkpt lat="45.82034" lon="3.75631">
        <ele>800</ele>
        <time>2025-12-20T12:11:08Z</time>
      </trkpt>
      <trkpt lat="45.82036" lon="3.75643">
        <ele>800.55</ele>
        <time>2025-12-20T12:11:09Z</time>
      </trkpt>
      <trkpt lat="45.82041" lon="3.75667">
        <ele>801.36</ele>
        <time>2025-12-20T12:11:11Z</time>
      </trkpt>
      <trkpt lat="45.82046" lon="3.75691">
        <ele>802.15</ele>
        <time>2025-12-20T12:11:13Z</time>
      </trkpt>
      <trkpt lat="45.82048" lon="3.75704">
        <ele>801.96</ele>
        <time>2025-12-20T12:11:14Z</time>
      </trkpt>
      <trkpt lat="45.82055" lon="3.75729">
        <ele>803.42</ele>
        <time>2025-12-20T12:11:16Z</time>
      </trkpt>
      <trkpt lat="45.82058" lon="3.75742">
        <ele>804.25</ele>
        <time>2025-12-20T12:11:17Z</time>
      </trkpt>
      <trkpt lat="45.82061" lon="3.75755">
        <ele>805.11</ele>
        <time>2025-12-20T12:11:18Z</time>
      </trkpt>
      <trkpt lat="45.82064" lon="3.75767">
        <ele>805.85</ele>
        <time>2025-12-20T12:11:19Z</time>
      </trkpt>
      <trkpt lat="45.82067" lon="3.75779">
        <ele>806.8</ele>
        <time>2025-12-20T12:11:20Z</time>
      </trkpt>
      <trkpt lat="45.82071" lon="3.75792">
        <ele>807.57</ele>
        <time>2025-12-20T12:11:21Z</time>
      </trkpt>
      <trkpt lat="45.82075" lon="3.75804">
        <ele>808.45</ele>
        <time>2025-12-20T12:11:22Z</time>
      </trkpt>
      <trkpt lat="45.8208" lon="3.75816">
        <ele>809.37</ele>
        <time>2025-12-20T12:11:23Z</time>
      </trkpt>
      <trkpt lat="45.82084" lon="3.75827">
        <ele>810.08</ele>
        <time>2025-12-20T12:11:24Z</time>
      </trkpt>
      <trkpt lat="45.82088" lon="3.75839">
        <ele>810.78</ele>
        <time>2025-12-20T12:11:25Z</time>
      </trkpt>
      <trkpt lat="45.82095" lon="3.75861">
        <ele>811.46</ele>
        <time>2025-12-20T12:11:27Z</time>
      </trkpt>
      <trkpt lat="45.82105" lon="3.75878">
        <ele>811.45</ele>
        <time>2025-12-20T12:11:29Z</time>
      </trkpt>
      <trkpt lat="45.82116" lon="3.75894">
        <ele>812.36</ele>
        <time>2025-12-20T12:11:31Z</time>
      </trkpt>
      <trkpt lat="45.82117" lon="3.75909">
        <ele>814.06</ele>
        <time>2025-12-20T12:11:34Z</time>
      </trkpt>
      <trkpt lat="45.82109" lon="3.75919">
        <ele>815.48</ele>
        <time>2025-12-20T12:11:37Z</time>
      </trkpt>
      <trkpt lat="45.82105" lon="3.75937">
        <ele>815.1</ele>
        <time>2025-12-20T12:11:40Z</time>
      </trkpt>
      <trkpt lat="45.821" lon="3.75957">
        <ele>814.49</ele>
        <time>2025-12-20T12:11:42Z</time>
      </trkpt>
      <trkpt lat="45.82097" lon="3.7598">
        <ele>814</ele>
        <time>2025-12-20T12:11:44Z</time>
      </trkpt>
      <trkpt lat="45.82097" lon="3.75994">
        <ele>813.62</ele>
        <time>2025-12-20T12:11:45Z</time>
      </trkpt>
      <trkpt lat="45.82098" lon="3.76008">
        <ele>813.19</ele>
        <time>2025-12-20T12:11:46Z</time>
      </trkpt>
      <trkpt lat="45.82098" lon="3.76023">
        <ele>812.43</ele>
        <time>2025-12-20T12:11:47Z</time>
      </trkpt>
      <trkpt lat="45.82099" lon="3.76038">
        <ele>812.24</ele>
        <time>2025-12-20T12:11:48Z</time>
      </trkpt>
      <trkpt lat="45.821" lon="3.76053">
        <ele>811.58</ele>
        <time>2025-12-20T12:11:49Z</time>
      </trkpt>
      <trkpt lat="45.82102" lon="3.76069">
        <ele>810.85</ele>
        <time>2025-12-20T12:11:50Z</time>
      </trkpt>
      <trkpt lat="45.82103" lon="3.76084">
        <ele>810.33</ele>
        <time>2025-12-20T12:11:51Z</time>
      </trkpt>
      <trkpt lat="45.82104" lon="3.76099">
        <ele>809.69</ele>
        <time>2025-12-20T12:11:52Z</time>
      </trkpt>
      <trkpt lat="45.82106" lon="3.76114">
        <ele>809.1</ele>
        <time>2025-12-20T12:11:53Z</time>
      </trkpt>
      <trkpt lat="45.82107" lon="3.76129">
        <ele>809.11</ele>
        <time>2025-12-20T12:11:54Z</time>
      </trkpt>
      <trkpt lat="45.82108" lon="3.76142">
        <ele>808.48</ele>
        <time>2025-12-20T12:11:55Z</time>
      </trkpt>
      <trkpt lat="45.8211" lon="3.76155">
        <ele>807.93</ele>
        <time>2025-12-20T12:11:56Z</time>
      </trkpt>
      <trkpt lat="45.82111" lon="3.76169">
        <ele>807.38</ele>
        <time>2025-12-20T12:11:57Z</time>
      </trkpt>
      <trkpt lat="45.82112" lon="3.76182">
        <ele>806.78</ele>
        <time>2025-12-20T12:11:58Z</time>
      </trkpt>
      <trkpt lat="45.82113" lon="3.76195">
        <ele>806.37</ele>
        <time>2025-12-20T12:11:59Z</time>
      </trkpt>
      <trkpt lat="45.82113" lon="3.76208">
        <ele>805.88</ele>
        <time>2025-12-20T12:12:00Z</time>
      </trkpt>
      <trkpt lat="45.82114" lon="3.76222">
        <ele>805.79</ele>
        <time>2025-12-20T12:12:01Z</time>
      </trkpt>
      <trkpt lat="45.82115" lon="3.76235">
        <ele>805.27</ele>
        <time>2025-12-20T12:12:02Z</time>
      </trkpt>
      <trkpt lat="45.82116" lon="3.76248">
        <ele>804.76</ele>
        <time>2025-12-20T12:12:03Z</time>
      </trkpt>
      <trkpt lat="45.82116" lon="3.76261">
        <ele>804.11</ele>
        <time>2025-12-20T12:12:04Z</time>
      </trkpt>
      <trkpt lat="45.82116" lon="3.76274">
        <ele>803.45</ele>
        <time>2025-12-20T12:12:05Z</time>
      </trkpt>
      <trkpt lat="45.82116" lon="3.76288">
        <ele>803.19</ele>
        <time>2025-12-20T12:12:06Z</time>
      </trkpt>
      <trkpt lat="45.82115" lon="3.76302">
        <ele>802.64</ele>
        <time>2025-12-20T12:12:07Z</time>
      </trkpt>
      <trkpt lat="45.82112" lon="3.76315">
        <ele>801.88</ele>
        <time>2025-12-20T12:12:08Z</time>
      </trkpt>
      <trkpt lat="45.82107" lon="3.76328">
        <ele>801.2</ele>
        <time>2025-12-20T12:12:09Z</time>
      </trkpt>
      <trkpt lat="45.82101" lon="3.7634">
        <ele>800.48</ele>
        <time>2025-12-20T12:12:10Z</time>
      </trkpt>
      <trkpt lat="45.82094" lon="3.7635">
        <ele>799.93</ele>
        <time>2025-12-20T12:12:11Z</time>
      </trkpt>
      <trkpt lat="45.82086" lon="3.76359">
        <ele>800.21</ele>
        <time>2025-12-20T12:12:12Z</time>
      </trkpt>
      <trkpt lat="45.82078" lon="3.76368">
        <ele>799.77</ele>
        <time>2025-12-20T12:12:13Z</time>
      </trkpt>
      <trkpt lat="45.82071" lon="3.76375">
        <ele>799.22</ele>
        <time>2025-12-20T12:12:14Z</time>
      </trkpt>
      <trkpt lat="45.82063" lon="3.76384">
        <ele>798.81</ele>
        <time>2025-12-20T12:12:15Z</time>
      </trkpt>
      <trkpt lat="45.82055" lon="3.76392">
        <ele>798.25</ele>
        <time>2025-12-20T12:12:16Z</time>
      </trkpt>
      <trkpt lat="45.82047" lon="3.76401">
        <ele>797.76</ele>
        <time>2025-12-20T12:12:17Z</time>
      </trkpt>
      <trkpt lat="45.8204" lon="3.7641">
        <ele>797.82</ele>
        <time>2025-12-20T12:12:18Z</time>
      </trkpt>
      <trkpt lat="45.82026" lon="3.76424">
        <ele>796.97</ele>
        <time>2025-12-20T12:12:20Z</time>
      </trkpt>
      <trkpt lat="45.82015" lon="3.76435">
        <ele>795.98</ele>
        <time>2025-12-20T12:12:22Z</time>
      </trkpt>
      <trkpt lat="45.82004" lon="3.76445">
        <ele>795.11</ele>
        <time>2025-12-20T12:12:24Z</time>
      </trkpt>
      <trkpt lat="45.81994" lon="3.76454">
        <ele>794.56</ele>
        <time>2025-12-20T12:12:26Z</time>
      </trkpt>
      <trkpt lat="45.81982" lon="3.76463">
        <ele>793.94</ele>
        <time>2025-12-20T12:12:28Z</time>
      </trkpt>
      <trkpt lat="45.81969" lon="3.76471">
        <ele>792.98</ele>
        <time>2025-12-20T12:12:30Z</time>
      </trkpt>
      <trkpt lat="45.81955" lon="3.76481">
        <ele>792.63</ele>
        <time>2025-12-20T12:12:32Z</time>
      </trkpt>
      <trkpt lat="45.81941" lon="3.76491">
        <ele>791.86</ele>
        <time>2025-12-20T12:12:34Z</time>
      </trkpt>
      <trkpt lat="45.8193" lon="3.76498">
        <ele>792.13</ele>
        <time>2025-12-20T12:12:36Z</time>
      </trkpt>
      <trkpt lat="45.81918" lon="3.76506">
        <ele>791.75</ele>
        <time>2025-12-20T12:12:39Z</time>
      </trkpt>
      <trkpt lat="45.81908" lon="3.76513">
        <ele>791.51</ele>
        <time>2025-12-20T12:12:41Z</time>
      </trkpt>
      <trkpt lat="45.81898" lon="3.76521">
        <ele>791.3</ele>
        <time>2025-12-20T12:12:43Z</time>
      </trkpt>
      <trkpt lat="45.81886" lon="3.76528">
        <ele>791.32</ele>
        <time>2025-12-20T12:12:45Z</time>
      </trkpt>
      <trkpt lat="45.81872" lon="3.76538">
        <ele>790.35</ele>
        <time>2025-12-20T12:12:47Z</time>
      </trkpt>
      <trkpt lat="45.81857" lon="3.76547">
        <ele>789.75</ele>
        <time>2025-12-20T12:12:49Z</time>
      </trkpt>
      <trkpt lat="45.81843" lon="3.76558">
        <ele>789.13</ele>
        <time>2025-12-20T12:12:51Z</time>
      </trkpt>
      <trkpt lat="45.81828" lon="3.76569">
        <ele>788.74</ele>
        <time>2025-12-20T12:12:53Z</time>
      </trkpt>
      <trkpt lat="45.81814" lon="3.76578">
        <ele>788.21</ele>
        <time>2025-12-20T12:12:55Z</time>
      </trkpt>
      <trkpt lat="45.81801" lon="3.76587">
        <ele>787.94</ele>
        <time>2025-12-20T12:12:57Z</time>
      </trkpt>
      <trkpt lat="45.81787" lon="3.76594">
        <ele>787.59</ele>
        <time>2025-12-20T12:12:59Z</time>
      </trkpt>
      <trkpt lat="45.81774" lon="3.76596">
        <ele>787.1</ele>
        <time>2025-12-20T12:13:01Z</time>
      </trkpt>
      <trkpt lat="45.81763" lon="3.76596">
        <ele>787.5</ele>
        <time>2025-12-20T12:13:03Z</time>
      </trkpt>
      <trkpt lat="45.81751" lon="3.76594">
        <ele>786.83</ele>
        <time>2025-12-20T12:13:05Z</time>
      </trkpt>
      <trkpt lat="45.81741" lon="3.76593">
        <ele>787.26</ele>
        <time>2025-12-20T12:13:07Z</time>
      </trkpt>
      <trkpt lat="45.81732" lon="3.76592">
        <ele>787.45</ele>
        <time>2025-12-20T12:13:10Z</time>
      </trkpt>
      <trkpt lat="45.81721" lon="3.76592">
        <ele>787.31</ele>
        <time>2025-12-20T12:13:14Z</time>
      </trkpt>
      <trkpt lat="45.8171" lon="3.76591">
        <ele>786.61</ele>
        <time>2025-12-20T12:13:17Z</time>
      </trkpt>
      <trkpt lat="45.81699" lon="3.76591">
        <ele>785.68</ele>
        <time>2025-12-20T12:13:25Z</time>
      </trkpt>
      <trkpt lat="45.8169" lon="3.76592">
        <ele>785.59</ele>
        <time>2025-12-20T12:13:33Z</time>
      </trkpt>
      <trkpt lat="45.81681" lon="3.76589">
        <ele>785.41</ele>
        <time>2025-12-20T12:13:38Z</time>
      </trkpt>
      <trkpt lat="45.81679" lon="3.76582">
        <ele>784.8</ele>
        <time>2025-12-20T12:15:39Z</time>
      </trkpt>
      <trkpt lat="45.81688" lon="3.76595">
        <ele>786.79</ele>
        <time>2025-12-20T12:17:55Z</time>
      </trkpt>
      <trkpt lat="45.81681" lon="3.76587">
        <ele>785.65</ele>
        <time>2025-12-20T12:19:47Z</time>
      </trkpt>
      <trkpt lat="45.81683" lon="3.76586">
        <ele>785.61</ele>
        <time>2025-12-20T12:22:27Z</time>
      </trkpt>
      <trkpt lat="45.81689" lon="3.76606">
        <ele>788.17</ele>
        <time>2025-12-20T12:23:06Z</time>
      </trkpt>
      <trkpt lat="45.81695" lon="3.76597">
        <ele>788.74</ele>
        <time>2025-12-20T12:23:51Z</time>
      </trkpt>
    </trkseg>
  </trk>
</gpx>